<?xml version="1.0" encoding="UTF-8" standalone="no" ?>
<gpx xmlns="http://www.topografix.com/GPX/1/1" xmlns:xsi="http://www.w3.org/2001/XMLSchema-instance" xsi:schemaLocation="http://www.topografix.com/GPX/1/1 http://www.topografix.com/GPX/1/1/gpx.xsd" version="1.1" creator="VisuGPX - https://www.visugpx.com">
  <metadata>
    <name>GTJ Vtt - Étape 3</name>
    <desc><![CDATA[La troisième étape de notre GTJ Vtt s’effectue désormais sur les plateaux du Jura qui constituent l’essentiel du paysage avec toujours le Doubs à proximité…48 km pour 950 m de dénivelé avec passage au Saut du Doubs cette exceptionnelle chute d’eau de 27 m… avec les précipitations récentes c’est assez impressionnant. Passage à Morteau (musée de l’horlogerie). Grandes combes et petites grimpées sur les crêtes puis rapides descentes s’enchaînent. Côté météo c’est toujours couvert mais sans pluie. Les terrains restent bien gorgés d’eau.]]></desc>
  </metadata>
  <trk>
    <name><![CDATA[GTJ Vtt - Étape 3]]></name>
    <trkseg>
      <trkpt lat="47.15771" lon="6.81144">
        <ele>925.20001220703</ele>
        <time>2023-05-14T07:16:01.000Z</time>
      </trkpt>
      <trkpt lat="47.15771" lon="6.81144">
        <ele>932</ele>
        <time>2023-05-14T07:16:07.000Z</time>
      </trkpt>
      <trkpt lat="47.1577" lon="6.81158">
        <ele>932.20001220703</ele>
        <time>2023-05-14T07:16:57.000Z</time>
      </trkpt>
      <trkpt lat="47.15765" lon="6.8116">
        <ele>932.20001220703</ele>
        <time>2023-05-14T07:16:59.000Z</time>
      </trkpt>
      <trkpt lat="47.15744" lon="6.81162">
        <ele>932.20001220703</ele>
        <time>2023-05-14T07:17:06.000Z</time>
      </trkpt>
      <trkpt lat="47.15722" lon="6.81158">
        <ele>932</ele>
        <time>2023-05-14T07:17:13.000Z</time>
      </trkpt>
      <trkpt lat="47.1571" lon="6.81167">
        <ele>932.20001220703</ele>
        <time>2023-05-14T07:17:17.000Z</time>
      </trkpt>
      <trkpt lat="47.15694" lon="6.8119">
        <ele>932</ele>
        <time>2023-05-14T07:17:24.000Z</time>
      </trkpt>
      <trkpt lat="47.15679" lon="6.81205">
        <ele>931.20001220703</ele>
        <time>2023-05-14T07:17:29.000Z</time>
      </trkpt>
      <trkpt lat="47.15674" lon="6.81206">
        <ele>930.79998779297</ele>
        <time>2023-05-14T07:17:30.000Z</time>
      </trkpt>
      <trkpt lat="47.15666" lon="6.81208">
        <ele>930.20001220703</ele>
        <time>2023-05-14T07:17:32.000Z</time>
      </trkpt>
      <trkpt lat="47.15661" lon="6.81209">
        <ele>930.20001220703</ele>
        <time>2023-05-14T07:17:33.000Z</time>
      </trkpt>
      <trkpt lat="47.15658" lon="6.81211">
        <ele>929.79998779297</ele>
        <time>2023-05-14T07:17:34.000Z</time>
      </trkpt>
      <trkpt lat="47.15655" lon="6.81213">
        <ele>929.59997558594</ele>
        <time>2023-05-14T07:17:35.000Z</time>
      </trkpt>
      <trkpt lat="47.15646" lon="6.8122">
        <ele>929.40002441406</ele>
        <time>2023-05-14T07:17:38.000Z</time>
      </trkpt>
      <trkpt lat="47.15625" lon="6.81244">
        <ele>928.79998779297</ele>
        <time>2023-05-14T07:17:46.000Z</time>
      </trkpt>
      <trkpt lat="47.15599" lon="6.81265">
        <ele>928.79998779297</ele>
        <time>2023-05-14T07:17:54.000Z</time>
      </trkpt>
      <trkpt lat="47.1559" lon="6.8127">
        <ele>928.79998779297</ele>
        <time>2023-05-14T07:17:56.000Z</time>
      </trkpt>
      <trkpt lat="47.1558" lon="6.81274">
        <ele>928.79998779297</ele>
        <time>2023-05-14T07:17:58.000Z</time>
      </trkpt>
      <trkpt lat="47.15574" lon="6.81275">
        <ele>928.40002441406</ele>
        <time>2023-05-14T07:17:59.000Z</time>
      </trkpt>
      <trkpt lat="47.15567" lon="6.81275">
        <ele>928</ele>
        <time>2023-05-14T07:18:00.000Z</time>
      </trkpt>
      <trkpt lat="47.15554" lon="6.81268">
        <ele>927.59997558594</ele>
        <time>2023-05-14T07:18:02.000Z</time>
      </trkpt>
      <trkpt lat="47.15548" lon="6.81263">
        <ele>927.40002441406</ele>
        <time>2023-05-14T07:18:03.000Z</time>
      </trkpt>
      <trkpt lat="47.15542" lon="6.81258">
        <ele>927</ele>
        <time>2023-05-14T07:18:04.000Z</time>
      </trkpt>
      <trkpt lat="47.15529" lon="6.81253">
        <ele>926.20001220703</ele>
        <time>2023-05-14T07:18:06.000Z</time>
      </trkpt>
      <trkpt lat="47.15522" lon="6.81251">
        <ele>925.79998779297</ele>
        <time>2023-05-14T07:18:07.000Z</time>
      </trkpt>
      <trkpt lat="47.1551" lon="6.81248">
        <ele>925.20001220703</ele>
        <time>2023-05-14T07:18:09.000Z</time>
      </trkpt>
      <trkpt lat="47.15488" lon="6.81248">
        <ele>924.59997558594</ele>
        <time>2023-05-14T07:18:13.000Z</time>
      </trkpt>
      <trkpt lat="47.15483" lon="6.81248">
        <ele>924.40002441406</ele>
        <time>2023-05-14T07:18:14.000Z</time>
      </trkpt>
      <trkpt lat="47.15479" lon="6.8125">
        <ele>924.20001220703</ele>
        <time>2023-05-14T07:18:15.000Z</time>
      </trkpt>
      <trkpt lat="47.15468" lon="6.81255">
        <ele>923.59997558594</ele>
        <time>2023-05-14T07:18:18.000Z</time>
      </trkpt>
      <trkpt lat="47.1545" lon="6.81262">
        <ele>923.59997558594</ele>
        <time>2023-05-14T07:18:22.000Z</time>
      </trkpt>
      <trkpt lat="47.15441" lon="6.81266">
        <ele>923.40002441406</ele>
        <time>2023-05-14T07:18:24.000Z</time>
      </trkpt>
      <trkpt lat="47.15429" lon="6.81271">
        <ele>923</ele>
        <time>2023-05-14T07:18:27.000Z</time>
      </trkpt>
      <trkpt lat="47.15412" lon="6.81277">
        <ele>922.59997558594</ele>
        <time>2023-05-14T07:18:31.000Z</time>
      </trkpt>
      <trkpt lat="47.15403" lon="6.8128">
        <ele>922.59997558594</ele>
        <time>2023-05-14T07:18:33.000Z</time>
      </trkpt>
      <trkpt lat="47.15391" lon="6.81284">
        <ele>922</ele>
        <time>2023-05-14T07:18:36.000Z</time>
      </trkpt>
      <trkpt lat="47.15365" lon="6.81297">
        <ele>921.59997558594</ele>
        <time>2023-05-14T07:18:42.000Z</time>
      </trkpt>
      <trkpt lat="47.15361" lon="6.81301">
        <ele>921.40002441406</ele>
        <time>2023-05-14T07:18:43.000Z</time>
      </trkpt>
      <trkpt lat="47.15354" lon="6.81309">
        <ele>921</ele>
        <time>2023-05-14T07:18:46.000Z</time>
      </trkpt>
      <trkpt lat="47.15353" lon="6.81309">
        <ele>921</ele>
        <time>2023-05-14T07:18:47.000Z</time>
      </trkpt>
      <trkpt lat="47.15352" lon="6.81309">
        <ele>920.59997558594</ele>
        <time>2023-05-14T07:18:50.000Z</time>
      </trkpt>
      <trkpt lat="47.15345" lon="6.81303">
        <ele>920</ele>
        <time>2023-05-14T07:39:52.000Z</time>
      </trkpt>
      <trkpt lat="47.15343" lon="6.81303">
        <ele>920</ele>
        <time>2023-05-14T07:39:53.000Z</time>
      </trkpt>
      <trkpt lat="47.15336" lon="6.81304">
        <ele>919.79998779297</ele>
        <time>2023-05-14T07:39:57.000Z</time>
      </trkpt>
      <trkpt lat="47.15332" lon="6.81304">
        <ele>919.79998779297</ele>
        <time>2023-05-14T07:39:59.000Z</time>
      </trkpt>
      <trkpt lat="47.15311" lon="6.81307">
        <ele>919.59997558594</ele>
        <time>2023-05-14T07:40:07.000Z</time>
      </trkpt>
      <trkpt lat="47.15295" lon="6.81316">
        <ele>919.59997558594</ele>
        <time>2023-05-14T07:40:14.000Z</time>
      </trkpt>
      <trkpt lat="47.15287" lon="6.81319">
        <ele>919.59997558594</ele>
        <time>2023-05-14T07:40:17.000Z</time>
      </trkpt>
      <trkpt lat="47.15273" lon="6.81316">
        <ele>919.20001220703</ele>
        <time>2023-05-14T07:40:22.000Z</time>
      </trkpt>
      <trkpt lat="47.15272" lon="6.81314">
        <ele>919.20001220703</ele>
        <time>2023-05-14T07:40:23.000Z</time>
      </trkpt>
      <trkpt lat="47.15267" lon="6.81296">
        <ele>918.59997558594</ele>
        <time>2023-05-14T07:40:29.000Z</time>
      </trkpt>
      <trkpt lat="47.15256" lon="6.81265">
        <ele>918.79998779297</ele>
        <time>2023-05-14T07:40:38.000Z</time>
      </trkpt>
      <trkpt lat="47.15246" lon="6.81239">
        <ele>919.40002441406</ele>
        <time>2023-05-14T07:40:47.000Z</time>
      </trkpt>
      <trkpt lat="47.1524" lon="6.8122">
        <ele>920.40002441406</ele>
        <time>2023-05-14T07:40:54.000Z</time>
      </trkpt>
      <trkpt lat="47.15233" lon="6.812">
        <ele>921.20001220703</ele>
        <time>2023-05-14T07:41:01.000Z</time>
      </trkpt>
      <trkpt lat="47.15229" lon="6.81185">
        <ele>921.59997558594</ele>
        <time>2023-05-14T07:41:06.000Z</time>
      </trkpt>
      <trkpt lat="47.15227" lon="6.81179">
        <ele>921.59997558594</ele>
        <time>2023-05-14T07:41:08.000Z</time>
      </trkpt>
      <trkpt lat="47.15222" lon="6.81158">
        <ele>922.20001220703</ele>
        <time>2023-05-14T07:41:16.000Z</time>
      </trkpt>
      <trkpt lat="47.15221" lon="6.81152">
        <ele>922.40002441406</ele>
        <time>2023-05-14T07:41:21.000Z</time>
      </trkpt>
      <trkpt lat="47.15221" lon="6.81151">
        <ele>922.59997558594</ele>
        <time>2023-05-14T07:41:23.000Z</time>
      </trkpt>
      <trkpt lat="47.15221" lon="6.81151">
        <ele>922.59997558594</ele>
        <time>2023-05-14T07:41:24.000Z</time>
      </trkpt>
      <trkpt lat="47.1521" lon="6.81113">
        <ele>923</ele>
        <time>2023-05-14T07:42:08.000Z</time>
      </trkpt>
      <trkpt lat="47.15209" lon="6.8111">
        <ele>923</ele>
        <time>2023-05-14T07:42:09.000Z</time>
      </trkpt>
      <trkpt lat="47.15205" lon="6.81089">
        <ele>922.59997558594</ele>
        <time>2023-05-14T07:42:15.000Z</time>
      </trkpt>
      <trkpt lat="47.15203" lon="6.81063">
        <ele>922.40002441406</ele>
        <time>2023-05-14T07:42:22.000Z</time>
      </trkpt>
      <trkpt lat="47.15205" lon="6.8103">
        <ele>922.40002441406</ele>
        <time>2023-05-14T07:42:30.000Z</time>
      </trkpt>
      <trkpt lat="47.15212" lon="6.81004">
        <ele>922.79998779297</ele>
        <time>2023-05-14T07:42:37.000Z</time>
      </trkpt>
      <trkpt lat="47.15217" lon="6.80979">
        <ele>923.59997558594</ele>
        <time>2023-05-14T07:42:45.000Z</time>
      </trkpt>
      <trkpt lat="47.15218" lon="6.80972">
        <ele>923.79998779297</ele>
        <time>2023-05-14T07:42:47.000Z</time>
      </trkpt>
      <trkpt lat="47.15219" lon="6.80935">
        <ele>923.40002441406</ele>
        <time>2023-05-14T07:42:57.000Z</time>
      </trkpt>
      <trkpt lat="47.15218" lon="6.80901">
        <ele>923.20001220703</ele>
        <time>2023-05-14T07:43:06.000Z</time>
      </trkpt>
      <trkpt lat="47.15217" lon="6.80873">
        <ele>922.59997558594</ele>
        <time>2023-05-14T07:43:14.000Z</time>
      </trkpt>
      <trkpt lat="47.15216" lon="6.80861">
        <ele>922.40002441406</ele>
        <time>2023-05-14T07:43:17.000Z</time>
      </trkpt>
      <trkpt lat="47.15216" lon="6.80846">
        <ele>922.40002441406</ele>
        <time>2023-05-14T07:43:21.000Z</time>
      </trkpt>
      <trkpt lat="47.15218" lon="6.80827">
        <ele>922.59997558594</ele>
        <time>2023-05-14T07:43:26.000Z</time>
      </trkpt>
      <trkpt lat="47.15217" lon="6.80789">
        <ele>922.79998779297</ele>
        <time>2023-05-14T07:43:36.000Z</time>
      </trkpt>
      <trkpt lat="47.15214" lon="6.80766">
        <ele>923</ele>
        <time>2023-05-14T07:43:43.000Z</time>
      </trkpt>
      <trkpt lat="47.15216" lon="6.80743">
        <ele>923.59997558594</ele>
        <time>2023-05-14T07:43:51.000Z</time>
      </trkpt>
      <trkpt lat="47.15216" lon="6.8074">
        <ele>923.59997558594</ele>
        <time>2023-05-14T07:43:52.000Z</time>
      </trkpt>
      <trkpt lat="47.15217" lon="6.80712">
        <ele>924</ele>
        <time>2023-05-14T07:44:01.000Z</time>
      </trkpt>
      <trkpt lat="47.1522" lon="6.80696">
        <ele>924.59997558594</ele>
        <time>2023-05-14T07:44:06.000Z</time>
      </trkpt>
      <trkpt lat="47.15222" lon="6.80686">
        <ele>925.20001220703</ele>
        <time>2023-05-14T07:44:09.000Z</time>
      </trkpt>
      <trkpt lat="47.15224" lon="6.80676">
        <ele>925.79998779297</ele>
        <time>2023-05-14T07:44:13.000Z</time>
      </trkpt>
      <trkpt lat="47.15227" lon="6.80666">
        <ele>926.40002441406</ele>
        <time>2023-05-14T07:44:17.000Z</time>
      </trkpt>
      <trkpt lat="47.15227" lon="6.80664">
        <ele>926.79998779297</ele>
        <time>2023-05-14T07:44:18.000Z</time>
      </trkpt>
      <trkpt lat="47.15227" lon="6.80661">
        <ele>926.79998779297</ele>
        <time>2023-05-14T07:44:19.000Z</time>
      </trkpt>
      <trkpt lat="47.15226" lon="6.80652">
        <ele>928</ele>
        <time>2023-05-14T07:44:22.000Z</time>
      </trkpt>
      <trkpt lat="47.15221" lon="6.80636">
        <ele>929</ele>
        <time>2023-05-14T07:44:28.000Z</time>
      </trkpt>
      <trkpt lat="47.1522" lon="6.80634">
        <ele>929.20001220703</ele>
        <time>2023-05-14T07:44:29.000Z</time>
      </trkpt>
      <trkpt lat="47.15211" lon="6.80613">
        <ele>930</ele>
        <time>2023-05-14T07:44:37.000Z</time>
      </trkpt>
      <trkpt lat="47.15208" lon="6.80609">
        <ele>930.20001220703</ele>
        <time>2023-05-14T07:44:39.000Z</time>
      </trkpt>
      <trkpt lat="47.15196" lon="6.80585">
        <ele>930.20001220703</ele>
        <time>2023-05-14T07:44:48.000Z</time>
      </trkpt>
      <trkpt lat="47.15182" lon="6.80562">
        <ele>930.20001220703</ele>
        <time>2023-05-14T07:44:57.000Z</time>
      </trkpt>
      <trkpt lat="47.15176" lon="6.80549">
        <ele>930</ele>
        <time>2023-05-14T07:45:03.000Z</time>
      </trkpt>
      <trkpt lat="47.15165" lon="6.80528">
        <ele>929.40002441406</ele>
        <time>2023-05-14T07:45:09.000Z</time>
      </trkpt>
      <trkpt lat="47.15162" lon="6.80521">
        <ele>929.20001220703</ele>
        <time>2023-05-14T07:45:11.000Z</time>
      </trkpt>
      <trkpt lat="47.1516" lon="6.80514">
        <ele>928.79998779297</ele>
        <time>2023-05-14T07:45:14.000Z</time>
      </trkpt>
      <trkpt lat="47.1516" lon="6.80514">
        <ele>928.59997558594</ele>
        <time>2023-05-14T07:45:17.000Z</time>
      </trkpt>
      <trkpt lat="47.15156" lon="6.80512">
        <ele>928.40002441406</ele>
        <time>2023-05-14T07:45:51.000Z</time>
      </trkpt>
      <trkpt lat="47.15156" lon="6.80511">
        <ele>928.40002441406</ele>
        <time>2023-05-14T07:45:52.000Z</time>
      </trkpt>
      <trkpt lat="47.15154" lon="6.80508">
        <ele>928.20001220703</ele>
        <time>2023-05-14T07:45:54.000Z</time>
      </trkpt>
      <trkpt lat="47.15152" lon="6.80504">
        <ele>928.20001220703</ele>
        <time>2023-05-14T07:45:56.000Z</time>
      </trkpt>
      <trkpt lat="47.15151" lon="6.80501">
        <ele>928</ele>
        <time>2023-05-14T07:45:57.000Z</time>
      </trkpt>
      <trkpt lat="47.15139" lon="6.80481">
        <ele>924</ele>
        <time>2023-05-14T07:46:03.000Z</time>
      </trkpt>
      <trkpt lat="47.15138" lon="6.80477">
        <ele>927.20001220703</ele>
        <time>2023-05-14T07:46:04.000Z</time>
      </trkpt>
      <trkpt lat="47.15136" lon="6.80472">
        <ele>927</ele>
        <time>2023-05-14T07:46:08.000Z</time>
      </trkpt>
      <trkpt lat="47.15132" lon="6.80466">
        <ele>927.20001220703</ele>
        <time>2023-05-14T07:46:41.000Z</time>
      </trkpt>
      <trkpt lat="47.1513" lon="6.80462">
        <ele>927.20001220703</ele>
        <time>2023-05-14T07:46:42.000Z</time>
      </trkpt>
      <trkpt lat="47.15128" lon="6.80459">
        <ele>927</ele>
        <time>2023-05-14T07:46:43.000Z</time>
      </trkpt>
      <trkpt lat="47.1511" lon="6.80423">
        <ele>926.59997558594</ele>
        <time>2023-05-14T07:46:52.000Z</time>
      </trkpt>
      <trkpt lat="47.15089" lon="6.8038">
        <ele>926.40002441406</ele>
        <time>2023-05-14T07:47:01.000Z</time>
      </trkpt>
      <trkpt lat="47.15081" lon="6.80364">
        <ele>926.20001220703</ele>
        <time>2023-05-14T07:47:04.000Z</time>
      </trkpt>
      <trkpt lat="47.15078" lon="6.80359">
        <ele>926.20001220703</ele>
        <time>2023-05-14T07:47:05.000Z</time>
      </trkpt>
      <trkpt lat="47.15076" lon="6.80353">
        <ele>926</ele>
        <time>2023-05-14T07:47:06.000Z</time>
      </trkpt>
      <trkpt lat="47.15074" lon="6.8035">
        <ele>925.79998779297</ele>
        <time>2023-05-14T07:47:07.000Z</time>
      </trkpt>
      <trkpt lat="47.15069" lon="6.80339">
        <ele>925.79998779297</ele>
        <time>2023-05-14T07:47:09.000Z</time>
      </trkpt>
      <trkpt lat="47.1506" lon="6.80322">
        <ele>925.79998779297</ele>
        <time>2023-05-14T07:47:13.000Z</time>
      </trkpt>
      <trkpt lat="47.15045" lon="6.80293">
        <ele>926.40002441406</ele>
        <time>2023-05-14T07:47:19.000Z</time>
      </trkpt>
      <trkpt lat="47.15042" lon="6.80288">
        <ele>926.40002441406</ele>
        <time>2023-05-14T07:47:20.000Z</time>
      </trkpt>
      <trkpt lat="47.15027" lon="6.80256">
        <ele>927</ele>
        <time>2023-05-14T07:47:28.000Z</time>
      </trkpt>
      <trkpt lat="47.15021" lon="6.80243">
        <ele>927.40002441406</ele>
        <time>2023-05-14T07:47:31.000Z</time>
      </trkpt>
      <trkpt lat="47.15007" lon="6.80215">
        <ele>928.40002441406</ele>
        <time>2023-05-14T07:47:38.000Z</time>
      </trkpt>
      <trkpt lat="47.14996" lon="6.80193">
        <ele>929.40002441406</ele>
        <time>2023-05-14T07:47:45.000Z</time>
      </trkpt>
      <trkpt lat="47.14994" lon="6.80188">
        <ele>929.59997558594</ele>
        <time>2023-05-14T07:47:47.000Z</time>
      </trkpt>
      <trkpt lat="47.14988" lon="6.80176">
        <ele>930.20001220703</ele>
        <time>2023-05-14T07:47:53.000Z</time>
      </trkpt>
      <trkpt lat="47.14988" lon="6.80174">
        <ele>930.40002441406</ele>
        <time>2023-05-14T07:47:54.000Z</time>
      </trkpt>
      <trkpt lat="47.14988" lon="6.80174">
        <ele>930.40002441406</ele>
        <time>2023-05-14T07:47:57.000Z</time>
      </trkpt>
      <trkpt lat="47.14985" lon="6.80167">
        <ele>930.59997558594</ele>
        <time>2023-05-14T07:48:28.000Z</time>
      </trkpt>
      <trkpt lat="47.14984" lon="6.80162">
        <ele>930.59997558594</ele>
        <time>2023-05-14T07:48:29.000Z</time>
      </trkpt>
      <trkpt lat="47.14981" lon="6.80147">
        <ele>930.59997558594</ele>
        <time>2023-05-14T07:48:32.000Z</time>
      </trkpt>
      <trkpt lat="47.14978" lon="6.80133">
        <ele>930.59997558594</ele>
        <time>2023-05-14T07:48:34.000Z</time>
      </trkpt>
      <trkpt lat="47.14977" lon="6.80108">
        <ele>930.59997558594</ele>
        <time>2023-05-14T07:48:38.000Z</time>
      </trkpt>
      <trkpt lat="47.14978" lon="6.80095">
        <ele>930.79998779297</ele>
        <time>2023-05-14T07:48:40.000Z</time>
      </trkpt>
      <trkpt lat="47.14983" lon="6.80083">
        <ele>930.79998779297</ele>
        <time>2023-05-14T07:48:42.000Z</time>
      </trkpt>
      <trkpt lat="47.1499" lon="6.80072">
        <ele>931</ele>
        <time>2023-05-14T07:48:44.000Z</time>
      </trkpt>
      <trkpt lat="47.15017" lon="6.80036">
        <ele>931.20001220703</ele>
        <time>2023-05-14T07:48:52.000Z</time>
      </trkpt>
      <trkpt lat="47.1503" lon="6.80021">
        <ele>931.59997558594</ele>
        <time>2023-05-14T07:48:56.000Z</time>
      </trkpt>
      <trkpt lat="47.15044" lon="6.80003">
        <ele>932</ele>
        <time>2023-05-14T07:49:00.000Z</time>
      </trkpt>
      <trkpt lat="47.15047" lon="6.79999">
        <ele>932</ele>
        <time>2023-05-14T07:49:01.000Z</time>
      </trkpt>
      <trkpt lat="47.15065" lon="6.79972">
        <ele>932</ele>
        <time>2023-05-14T07:49:08.000Z</time>
      </trkpt>
      <trkpt lat="47.15063" lon="6.79953">
        <ele>932</ele>
        <time>2023-05-14T07:49:13.000Z</time>
      </trkpt>
      <trkpt lat="47.1506" lon="6.79939">
        <ele>932.20001220703</ele>
        <time>2023-05-14T07:49:19.000Z</time>
      </trkpt>
      <trkpt lat="47.15057" lon="6.79925">
        <ele>932.59997558594</ele>
        <time>2023-05-14T07:49:28.000Z</time>
      </trkpt>
      <trkpt lat="47.15053" lon="6.79919">
        <ele>932.59997558594</ele>
        <time>2023-05-14T07:49:32.000Z</time>
      </trkpt>
      <trkpt lat="47.15054" lon="6.79915">
        <ele>932.59997558594</ele>
        <time>2023-05-14T07:49:34.000Z</time>
      </trkpt>
      <trkpt lat="47.15056" lon="6.79917">
        <ele>932.59997558594</ele>
        <time>2023-05-14T07:49:36.000Z</time>
      </trkpt>
      <trkpt lat="47.15056" lon="6.79919">
        <ele>932.59997558594</ele>
        <time>2023-05-14T07:49:37.000Z</time>
      </trkpt>
      <trkpt lat="47.15056" lon="6.79921">
        <ele>932.59997558594</ele>
        <time>2023-05-14T07:49:38.000Z</time>
      </trkpt>
      <trkpt lat="47.15058" lon="6.79932">
        <ele>932.59997558594</ele>
        <time>2023-05-14T07:49:44.000Z</time>
      </trkpt>
      <trkpt lat="47.15058" lon="6.79933">
        <ele>932.59997558594</ele>
        <time>2023-05-14T07:49:45.000Z</time>
      </trkpt>
      <trkpt lat="47.15059" lon="6.79934">
        <ele>932.59997558594</ele>
        <time>2023-05-14T07:49:49.000Z</time>
      </trkpt>
      <trkpt lat="47.15054" lon="6.79923">
        <ele>932.79998779297</ele>
        <time>2023-05-14T07:54:03.000Z</time>
      </trkpt>
      <trkpt lat="47.15051" lon="6.79915">
        <ele>932.79998779297</ele>
        <time>2023-05-14T07:54:04.000Z</time>
      </trkpt>
      <trkpt lat="47.15045" lon="6.799">
        <ele>932.79998779297</ele>
        <time>2023-05-14T07:54:07.000Z</time>
      </trkpt>
      <trkpt lat="47.15026" lon="6.79863">
        <ele>932.59997558594</ele>
        <time>2023-05-14T07:54:14.000Z</time>
      </trkpt>
      <trkpt lat="47.14996" lon="6.79804">
        <ele>931.40002441406</ele>
        <time>2023-05-14T07:54:24.000Z</time>
      </trkpt>
      <trkpt lat="47.14989" lon="6.79791">
        <ele>931.20001220703</ele>
        <time>2023-05-14T07:54:26.000Z</time>
      </trkpt>
      <trkpt lat="47.14965" lon="6.7974">
        <ele>930.40002441406</ele>
        <time>2023-05-14T07:54:34.000Z</time>
      </trkpt>
      <trkpt lat="47.14956" lon="6.79716">
        <ele>930.59997558594</ele>
        <time>2023-05-14T07:54:40.000Z</time>
      </trkpt>
      <trkpt lat="47.14954" lon="6.79699">
        <ele>930.79998779297</ele>
        <time>2023-05-14T07:54:43.000Z</time>
      </trkpt>
      <trkpt lat="47.14953" lon="6.7967">
        <ele>931</ele>
        <time>2023-05-14T07:54:48.000Z</time>
      </trkpt>
      <trkpt lat="47.14959" lon="6.79637">
        <ele>931.79998779297</ele>
        <time>2023-05-14T07:54:55.000Z</time>
      </trkpt>
      <trkpt lat="47.14966" lon="6.79608">
        <ele>932.40002441406</ele>
        <time>2023-05-14T07:54:59.000Z</time>
      </trkpt>
      <trkpt lat="47.14968" lon="6.79596">
        <ele>932.40002441406</ele>
        <time>2023-05-14T07:55:01.000Z</time>
      </trkpt>
      <trkpt lat="47.14977" lon="6.79554">
        <ele>932.79998779297</ele>
        <time>2023-05-14T07:55:09.000Z</time>
      </trkpt>
      <trkpt lat="47.14991" lon="6.79499">
        <ele>933.40002441406</ele>
        <time>2023-05-14T07:55:19.000Z</time>
      </trkpt>
      <trkpt lat="47.14997" lon="6.79484">
        <ele>933.59997558594</ele>
        <time>2023-05-14T07:55:22.000Z</time>
      </trkpt>
      <trkpt lat="47.15009" lon="6.79453">
        <ele>934</ele>
        <time>2023-05-14T07:55:28.000Z</time>
      </trkpt>
      <trkpt lat="47.15011" lon="6.79447">
        <ele>934.20001220703</ele>
        <time>2023-05-14T07:55:30.000Z</time>
      </trkpt>
      <trkpt lat="47.15018" lon="6.79426">
        <ele>934.59997558594</ele>
        <time>2023-05-14T07:55:34.000Z</time>
      </trkpt>
      <trkpt lat="47.15023" lon="6.79397">
        <ele>934.79998779297</ele>
        <time>2023-05-14T07:55:39.000Z</time>
      </trkpt>
      <trkpt lat="47.15029" lon="6.79349">
        <ele>935.20001220703</ele>
        <time>2023-05-14T07:55:47.000Z</time>
      </trkpt>
      <trkpt lat="47.15032" lon="6.79331">
        <ele>935.59997558594</ele>
        <time>2023-05-14T07:55:51.000Z</time>
      </trkpt>
      <trkpt lat="47.15037" lon="6.79308">
        <ele>936.59997558594</ele>
        <time>2023-05-14T07:55:57.000Z</time>
      </trkpt>
      <trkpt lat="47.15038" lon="6.79304">
        <ele>936.79998779297</ele>
        <time>2023-05-14T07:55:58.000Z</time>
      </trkpt>
      <trkpt lat="47.15042" lon="6.79283">
        <ele>938</ele>
        <time>2023-05-14T07:56:04.000Z</time>
      </trkpt>
      <trkpt lat="47.15044" lon="6.79276">
        <ele>938.40002441406</ele>
        <time>2023-05-14T07:56:06.000Z</time>
      </trkpt>
      <trkpt lat="47.15047" lon="6.79267">
        <ele>939</ele>
        <time>2023-05-14T07:56:09.000Z</time>
      </trkpt>
      <trkpt lat="47.15049" lon="6.79251">
        <ele>940</ele>
        <time>2023-05-14T07:56:14.000Z</time>
      </trkpt>
      <trkpt lat="47.15049" lon="6.79247">
        <ele>940.20001220703</ele>
        <time>2023-05-14T07:56:15.000Z</time>
      </trkpt>
      <trkpt lat="47.15052" lon="6.7923">
        <ele>941.20001220703</ele>
        <time>2023-05-14T07:56:20.000Z</time>
      </trkpt>
      <trkpt lat="47.15051" lon="6.79224">
        <ele>941.79998779297</ele>
        <time>2023-05-14T07:56:23.000Z</time>
      </trkpt>
      <trkpt lat="47.15053" lon="6.79213">
        <ele>942.40002441406</ele>
        <time>2023-05-14T07:56:25.000Z</time>
      </trkpt>
      <trkpt lat="47.15055" lon="6.79206">
        <ele>943.20001220703</ele>
        <time>2023-05-14T07:56:28.000Z</time>
      </trkpt>
      <trkpt lat="47.15058" lon="6.79194">
        <ele>943.40002441406</ele>
        <time>2023-05-14T07:56:30.000Z</time>
      </trkpt>
      <trkpt lat="47.15059" lon="6.7919">
        <ele>943.59997558594</ele>
        <time>2023-05-14T07:56:31.000Z</time>
      </trkpt>
      <trkpt lat="47.15063" lon="6.79173">
        <ele>944.59997558594</ele>
        <time>2023-05-14T07:56:36.000Z</time>
      </trkpt>
      <trkpt lat="47.15064" lon="6.79167">
        <ele>945.20001220703</ele>
        <time>2023-05-14T07:56:38.000Z</time>
      </trkpt>
      <trkpt lat="47.15065" lon="6.79152">
        <ele>945.59997558594</ele>
        <time>2023-05-14T07:56:42.000Z</time>
      </trkpt>
      <trkpt lat="47.15065" lon="6.79134">
        <ele>946.20001220703</ele>
        <time>2023-05-14T07:56:47.000Z</time>
      </trkpt>
      <trkpt lat="47.15063" lon="6.79113">
        <ele>947</ele>
        <time>2023-05-14T07:56:54.000Z</time>
      </trkpt>
      <trkpt lat="47.1506" lon="6.79098">
        <ele>947.20001220703</ele>
        <time>2023-05-14T07:56:57.000Z</time>
      </trkpt>
      <trkpt lat="47.15057" lon="6.79071">
        <ele>947.59997558594</ele>
        <time>2023-05-14T07:57:05.000Z</time>
      </trkpt>
      <trkpt lat="47.15055" lon="6.79062">
        <ele>947.79998779297</ele>
        <time>2023-05-14T07:57:08.000Z</time>
      </trkpt>
      <trkpt lat="47.15054" lon="6.79059">
        <ele>947.79998779297</ele>
        <time>2023-05-14T07:57:10.000Z</time>
      </trkpt>
      <trkpt lat="47.15049" lon="6.79041">
        <ele>948.40002441406</ele>
        <time>2023-05-14T07:57:15.000Z</time>
      </trkpt>
      <trkpt lat="47.15049" lon="6.79035">
        <ele>948.79998779297</ele>
        <time>2023-05-14T07:57:17.000Z</time>
      </trkpt>
      <trkpt lat="47.15047" lon="6.79015">
        <ele>950</ele>
        <time>2023-05-14T07:57:22.000Z</time>
      </trkpt>
      <trkpt lat="47.15047" lon="6.79011">
        <ele>950.40002441406</ele>
        <time>2023-05-14T07:57:24.000Z</time>
      </trkpt>
      <trkpt lat="47.15048" lon="6.78999">
        <ele>951</ele>
        <time>2023-05-14T07:57:27.000Z</time>
      </trkpt>
      <trkpt lat="47.15046" lon="6.78984">
        <ele>951.40002441406</ele>
        <time>2023-05-14T07:57:30.000Z</time>
      </trkpt>
      <trkpt lat="47.15045" lon="6.78956">
        <ele>952</ele>
        <time>2023-05-14T07:57:38.000Z</time>
      </trkpt>
      <trkpt lat="47.15044" lon="6.78952">
        <ele>952.20001220703</ele>
        <time>2023-05-14T07:57:40.000Z</time>
      </trkpt>
      <trkpt lat="47.1504" lon="6.7892">
        <ele>952.59997558594</ele>
        <time>2023-05-14T07:57:47.000Z</time>
      </trkpt>
      <trkpt lat="47.1504" lon="6.78909">
        <ele>953.20001220703</ele>
        <time>2023-05-14T07:57:50.000Z</time>
      </trkpt>
      <trkpt lat="47.15037" lon="6.78883">
        <ele>954.40002441406</ele>
        <time>2023-05-14T07:57:57.000Z</time>
      </trkpt>
      <trkpt lat="47.15036" lon="6.78876">
        <ele>954.79998779297</ele>
        <time>2023-05-14T07:57:59.000Z</time>
      </trkpt>
      <trkpt lat="47.1503" lon="6.78834">
        <ele>955.20001220703</ele>
        <time>2023-05-14T07:58:09.000Z</time>
      </trkpt>
      <trkpt lat="47.1503" lon="6.78834">
        <ele>955.40002441406</ele>
        <time>2023-05-14T07:58:10.000Z</time>
      </trkpt>
      <trkpt lat="47.15029" lon="6.78825">
        <ele>955.20001220703</ele>
        <time>2023-05-14T07:58:11.000Z</time>
      </trkpt>
      <trkpt lat="47.15021" lon="6.78776">
        <ele>955.40002441406</ele>
        <time>2023-05-14T07:58:22.000Z</time>
      </trkpt>
      <trkpt lat="47.15015" lon="6.78743">
        <ele>955.79998779297</ele>
        <time>2023-05-14T07:58:30.000Z</time>
      </trkpt>
      <trkpt lat="47.15013" lon="6.7873">
        <ele>955.79998779297</ele>
        <time>2023-05-14T07:58:33.000Z</time>
      </trkpt>
      <trkpt lat="47.15012" lon="6.78725">
        <ele>955.79998779297</ele>
        <time>2023-05-14T07:58:34.000Z</time>
      </trkpt>
      <trkpt lat="47.15008" lon="6.78705">
        <ele>955.40002441406</ele>
        <time>2023-05-14T07:58:38.000Z</time>
      </trkpt>
      <trkpt lat="47.15005" lon="6.7868">
        <ele>955.20001220703</ele>
        <time>2023-05-14T07:58:42.000Z</time>
      </trkpt>
      <trkpt lat="47.15002" lon="6.78659">
        <ele>955</ele>
        <time>2023-05-14T07:58:45.000Z</time>
      </trkpt>
      <trkpt lat="47.14998" lon="6.78634">
        <ele>954.20001220703</ele>
        <time>2023-05-14T07:58:49.000Z</time>
      </trkpt>
      <trkpt lat="47.14996" lon="6.7862">
        <ele>954</ele>
        <time>2023-05-14T07:58:51.000Z</time>
      </trkpt>
      <trkpt lat="47.1498" lon="6.78543">
        <ele>953.79998779297</ele>
        <time>2023-05-14T07:59:03.000Z</time>
      </trkpt>
      <trkpt lat="47.14978" lon="6.7853">
        <ele>953.79998779297</ele>
        <time>2023-05-14T07:59:05.000Z</time>
      </trkpt>
      <trkpt lat="47.14972" lon="6.78489">
        <ele>953.59997558594</ele>
        <time>2023-05-14T07:59:12.000Z</time>
      </trkpt>
      <trkpt lat="47.14968" lon="6.78462">
        <ele>953.59997558594</ele>
        <time>2023-05-14T07:59:16.000Z</time>
      </trkpt>
      <trkpt lat="47.14966" lon="6.78439">
        <ele>953.20001220703</ele>
        <time>2023-05-14T07:59:19.000Z</time>
      </trkpt>
      <trkpt lat="47.14965" lon="6.78431">
        <ele>953</ele>
        <time>2023-05-14T07:59:20.000Z</time>
      </trkpt>
      <trkpt lat="47.14959" lon="6.78398">
        <ele>952</ele>
        <time>2023-05-14T07:59:24.000Z</time>
      </trkpt>
      <trkpt lat="47.14956" lon="6.78389">
        <ele>952</ele>
        <time>2023-05-14T07:59:25.000Z</time>
      </trkpt>
      <trkpt lat="47.14944" lon="6.78362">
        <ele>951.59997558594</ele>
        <time>2023-05-14T07:59:29.000Z</time>
      </trkpt>
      <trkpt lat="47.14927" lon="6.78332">
        <ele>951.59997558594</ele>
        <time>2023-05-14T07:59:35.000Z</time>
      </trkpt>
      <trkpt lat="47.1492" lon="6.78317">
        <ele>951.59997558594</ele>
        <time>2023-05-14T07:59:39.000Z</time>
      </trkpt>
      <trkpt lat="47.14912" lon="6.78297">
        <ele>951.59997558594</ele>
        <time>2023-05-14T07:59:42.000Z</time>
      </trkpt>
      <trkpt lat="47.14909" lon="6.78288">
        <ele>951.40002441406</ele>
        <time>2023-05-14T07:59:44.000Z</time>
      </trkpt>
      <trkpt lat="47.14898" lon="6.78268">
        <ele>951.20001220703</ele>
        <time>2023-05-14T07:59:50.000Z</time>
      </trkpt>
      <trkpt lat="47.14888" lon="6.78257">
        <ele>951</ele>
        <time>2023-05-14T07:59:54.000Z</time>
      </trkpt>
      <trkpt lat="47.1488" lon="6.78245">
        <ele>950.59997558594</ele>
        <time>2023-05-14T07:59:57.000Z</time>
      </trkpt>
      <trkpt lat="47.14871" lon="6.78213">
        <ele>950</ele>
        <time>2023-05-14T08:00:03.000Z</time>
      </trkpt>
      <trkpt lat="47.14868" lon="6.78202">
        <ele>949.79998779297</ele>
        <time>2023-05-14T08:00:05.000Z</time>
      </trkpt>
      <trkpt lat="47.14853" lon="6.78155">
        <ele>949.40002441406</ele>
        <time>2023-05-14T08:00:13.000Z</time>
      </trkpt>
      <trkpt lat="47.14833" lon="6.78109">
        <ele>949</ele>
        <time>2023-05-14T08:00:21.000Z</time>
      </trkpt>
      <trkpt lat="47.14827" lon="6.78098">
        <ele>949</ele>
        <time>2023-05-14T08:00:23.000Z</time>
      </trkpt>
      <trkpt lat="47.14824" lon="6.78092">
        <ele>949</ele>
        <time>2023-05-14T08:00:24.000Z</time>
      </trkpt>
      <trkpt lat="47.14803" lon="6.78055">
        <ele>949.40002441406</ele>
        <time>2023-05-14T08:00:31.000Z</time>
      </trkpt>
      <trkpt lat="47.14799" lon="6.7805">
        <ele>949.59997558594</ele>
        <time>2023-05-14T08:00:32.000Z</time>
      </trkpt>
      <trkpt lat="47.14776" lon="6.78013">
        <ele>950</ele>
        <time>2023-05-14T08:00:39.000Z</time>
      </trkpt>
      <trkpt lat="47.14761" lon="6.7799">
        <ele>950.40002441406</ele>
        <time>2023-05-14T08:00:44.000Z</time>
      </trkpt>
      <trkpt lat="47.14736" lon="6.77946">
        <ele>950</ele>
        <time>2023-05-14T08:00:54.000Z</time>
      </trkpt>
      <trkpt lat="47.14726" lon="6.77928">
        <ele>950</ele>
        <time>2023-05-14T08:01:00.000Z</time>
      </trkpt>
      <trkpt lat="47.14724" lon="6.7792">
        <ele>950</ele>
        <time>2023-05-14T08:01:03.000Z</time>
      </trkpt>
      <trkpt lat="47.14724" lon="6.77919">
        <ele>950</ele>
        <time>2023-05-14T08:01:04.000Z</time>
      </trkpt>
      <trkpt lat="47.14724" lon="6.77919">
        <ele>950</ele>
        <time>2023-05-14T08:01:06.000Z</time>
      </trkpt>
      <trkpt lat="47.14713" lon="6.77897">
        <ele>949.59997558594</ele>
        <time>2023-05-14T08:01:28.000Z</time>
      </trkpt>
      <trkpt lat="47.14711" lon="6.77893">
        <ele>949.59997558594</ele>
        <time>2023-05-14T08:01:29.000Z</time>
      </trkpt>
      <trkpt lat="47.14698" lon="6.7787">
        <ele>949.59997558594</ele>
        <time>2023-05-14T08:01:34.000Z</time>
      </trkpt>
      <trkpt lat="47.14679" lon="6.77836">
        <ele>949.40002441406</ele>
        <time>2023-05-14T08:01:40.000Z</time>
      </trkpt>
      <trkpt lat="47.14674" lon="6.77827">
        <ele>948.79998779297</ele>
        <time>2023-05-14T08:01:42.000Z</time>
      </trkpt>
      <trkpt lat="47.14667" lon="6.77814">
        <ele>948.20001220703</ele>
        <time>2023-05-14T08:01:45.000Z</time>
      </trkpt>
      <trkpt lat="47.14652" lon="6.77789">
        <ele>948.20001220703</ele>
        <time>2023-05-14T08:01:51.000Z</time>
      </trkpt>
      <trkpt lat="47.1464" lon="6.7777">
        <ele>948.79998779297</ele>
        <time>2023-05-14T08:01:56.000Z</time>
      </trkpt>
      <trkpt lat="47.14616" lon="6.77733">
        <ele>949.20001220703</ele>
        <time>2023-05-14T08:02:07.000Z</time>
      </trkpt>
      <trkpt lat="47.14601" lon="6.77708">
        <ele>949</ele>
        <time>2023-05-14T08:02:14.000Z</time>
      </trkpt>
      <trkpt lat="47.14593" lon="6.77697">
        <ele>948.79998779297</ele>
        <time>2023-05-14T08:02:17.000Z</time>
      </trkpt>
      <trkpt lat="47.1458" lon="6.77682">
        <ele>948.20001220703</ele>
        <time>2023-05-14T08:02:23.000Z</time>
      </trkpt>
      <trkpt lat="47.14569" lon="6.77675">
        <ele>948</ele>
        <time>2023-05-14T08:02:28.000Z</time>
      </trkpt>
      <trkpt lat="47.14565" lon="6.77672">
        <ele>947.79998779297</ele>
        <time>2023-05-14T08:02:30.000Z</time>
      </trkpt>
      <trkpt lat="47.1456" lon="6.77664">
        <ele>947.59997558594</ele>
        <time>2023-05-14T08:02:34.000Z</time>
      </trkpt>
      <trkpt lat="47.14551" lon="6.77643">
        <ele>947.59997558594</ele>
        <time>2023-05-14T08:02:41.000Z</time>
      </trkpt>
      <trkpt lat="47.14544" lon="6.77621">
        <ele>947.20001220703</ele>
        <time>2023-05-14T08:02:46.000Z</time>
      </trkpt>
      <trkpt lat="47.1454" lon="6.77609">
        <ele>947</ele>
        <time>2023-05-14T08:02:49.000Z</time>
      </trkpt>
      <trkpt lat="47.14539" lon="6.77605">
        <ele>947</ele>
        <time>2023-05-14T08:02:50.000Z</time>
      </trkpt>
      <trkpt lat="47.14533" lon="6.77575">
        <ele>946.79998779297</ele>
        <time>2023-05-14T08:02:57.000Z</time>
      </trkpt>
      <trkpt lat="47.14529" lon="6.77561">
        <ele>946.59997558594</ele>
        <time>2023-05-14T08:03:00.000Z</time>
      </trkpt>
      <trkpt lat="47.14519" lon="6.77512">
        <ele>945.79998779297</ele>
        <time>2023-05-14T08:03:11.000Z</time>
      </trkpt>
      <trkpt lat="47.14517" lon="6.77507">
        <ele>945.79998779297</ele>
        <time>2023-05-14T08:03:12.000Z</time>
      </trkpt>
      <trkpt lat="47.14506" lon="6.77458">
        <ele>945.40002441406</ele>
        <time>2023-05-14T08:03:22.000Z</time>
      </trkpt>
      <trkpt lat="47.14492" lon="6.77408">
        <ele>945.20001220703</ele>
        <time>2023-05-14T08:03:33.000Z</time>
      </trkpt>
      <trkpt lat="47.14476" lon="6.77361">
        <ele>946.20001220703</ele>
        <time>2023-05-14T08:03:44.000Z</time>
      </trkpt>
      <trkpt lat="47.1447" lon="6.77338">
        <ele>946.40002441406</ele>
        <time>2023-05-14T08:03:49.000Z</time>
      </trkpt>
      <trkpt lat="47.14462" lon="6.77313">
        <ele>946.40002441406</ele>
        <time>2023-05-14T08:03:55.000Z</time>
      </trkpt>
      <trkpt lat="47.14447" lon="6.77272">
        <ele>946.20001220703</ele>
        <time>2023-05-14T08:04:05.000Z</time>
      </trkpt>
      <trkpt lat="47.14442" lon="6.77249">
        <ele>946.20001220703</ele>
        <time>2023-05-14T08:04:12.000Z</time>
      </trkpt>
      <trkpt lat="47.14442" lon="6.77247">
        <ele>946.20001220703</ele>
        <time>2023-05-14T08:04:16.000Z</time>
      </trkpt>
      <trkpt lat="47.14434" lon="6.77222">
        <ele>946.79998779297</ele>
        <time>2023-05-14T08:04:45.000Z</time>
      </trkpt>
      <trkpt lat="47.14425" lon="6.77196">
        <ele>946.79998779297</ele>
        <time>2023-05-14T08:04:51.000Z</time>
      </trkpt>
      <trkpt lat="47.14423" lon="6.77192">
        <ele>947</ele>
        <time>2023-05-14T08:04:52.000Z</time>
      </trkpt>
      <trkpt lat="47.14414" lon="6.77162">
        <ele>946.79998779297</ele>
        <time>2023-05-14T08:04:59.000Z</time>
      </trkpt>
      <trkpt lat="47.14402" lon="6.77137">
        <ele>946.79998779297</ele>
        <time>2023-05-14T08:05:06.000Z</time>
      </trkpt>
      <trkpt lat="47.14384" lon="6.77095">
        <ele>946.79998779297</ele>
        <time>2023-05-14T08:05:17.000Z</time>
      </trkpt>
      <trkpt lat="47.14373" lon="6.77064">
        <ele>946.79998779297</ele>
        <time>2023-05-14T08:05:25.000Z</time>
      </trkpt>
      <trkpt lat="47.14362" lon="6.77035">
        <ele>947</ele>
        <time>2023-05-14T08:05:32.000Z</time>
      </trkpt>
      <trkpt lat="47.14354" lon="6.77005">
        <ele>947.59997558594</ele>
        <time>2023-05-14T08:05:40.000Z</time>
      </trkpt>
      <trkpt lat="47.14352" lon="6.76994">
        <ele>948</ele>
        <time>2023-05-14T08:05:43.000Z</time>
      </trkpt>
      <trkpt lat="47.14345" lon="6.76972">
        <ele>949.20001220703</ele>
        <time>2023-05-14T08:05:49.000Z</time>
      </trkpt>
      <trkpt lat="47.14344" lon="6.76968">
        <ele>949.20001220703</ele>
        <time>2023-05-14T08:05:50.000Z</time>
      </trkpt>
      <trkpt lat="47.14333" lon="6.76938">
        <ele>949.79998779297</ele>
        <time>2023-05-14T08:05:59.000Z</time>
      </trkpt>
      <trkpt lat="47.14321" lon="6.76917">
        <ele>950</ele>
        <time>2023-05-14T08:06:06.000Z</time>
      </trkpt>
      <trkpt lat="47.14318" lon="6.76912">
        <ele>950.20001220703</ele>
        <time>2023-05-14T08:06:09.000Z</time>
      </trkpt>
      <trkpt lat="47.14318" lon="6.7691">
        <ele>950.40002441406</ele>
        <time>2023-05-14T08:06:10.000Z</time>
      </trkpt>
      <trkpt lat="47.14318" lon="6.7691">
        <ele>950.40002441406</ele>
        <time>2023-05-14T08:06:11.000Z</time>
      </trkpt>
      <trkpt lat="47.14318" lon="6.76909">
        <ele>950.40002441406</ele>
        <time>2023-05-14T08:06:15.000Z</time>
      </trkpt>
      <trkpt lat="47.14307" lon="6.76899">
        <ele>950.20001220703</ele>
        <time>2023-05-14T08:08:20.000Z</time>
      </trkpt>
      <trkpt lat="47.14304" lon="6.76896">
        <ele>950.20001220703</ele>
        <time>2023-05-14T08:08:21.000Z</time>
      </trkpt>
      <trkpt lat="47.14293" lon="6.76882">
        <ele>950</ele>
        <time>2023-05-14T08:08:25.000Z</time>
      </trkpt>
      <trkpt lat="47.1429" lon="6.76878">
        <ele>950</ele>
        <time>2023-05-14T08:08:26.000Z</time>
      </trkpt>
      <trkpt lat="47.14274" lon="6.7685">
        <ele>949.59997558594</ele>
        <time>2023-05-14T08:08:33.000Z</time>
      </trkpt>
      <trkpt lat="47.14264" lon="6.76834">
        <ele>949.20001220703</ele>
        <time>2023-05-14T08:08:37.000Z</time>
      </trkpt>
      <trkpt lat="47.14258" lon="6.76822">
        <ele>949</ele>
        <time>2023-05-14T08:08:40.000Z</time>
      </trkpt>
      <trkpt lat="47.14246" lon="6.76799">
        <ele>949.59997558594</ele>
        <time>2023-05-14T08:08:46.000Z</time>
      </trkpt>
      <trkpt lat="47.14232" lon="6.76774">
        <ele>949.79998779297</ele>
        <time>2023-05-14T08:08:53.000Z</time>
      </trkpt>
      <trkpt lat="47.14218" lon="6.76751">
        <ele>950.20001220703</ele>
        <time>2023-05-14T08:09:00.000Z</time>
      </trkpt>
      <trkpt lat="47.14216" lon="6.76747">
        <ele>950.20001220703</ele>
        <time>2023-05-14T08:09:01.000Z</time>
      </trkpt>
      <trkpt lat="47.14203" lon="6.7672">
        <ele>950.20001220703</ele>
        <time>2023-05-14T08:09:08.000Z</time>
      </trkpt>
      <trkpt lat="47.14186" lon="6.76686">
        <ele>950.59997558594</ele>
        <time>2023-05-14T08:09:17.000Z</time>
      </trkpt>
      <trkpt lat="47.14168" lon="6.76657">
        <ele>951</ele>
        <time>2023-05-14T08:09:26.000Z</time>
      </trkpt>
      <trkpt lat="47.14146" lon="6.7663">
        <ele>951.20001220703</ele>
        <time>2023-05-14T08:09:35.000Z</time>
      </trkpt>
      <trkpt lat="47.14141" lon="6.76625">
        <ele>951.40002441406</ele>
        <time>2023-05-14T08:09:37.000Z</time>
      </trkpt>
      <trkpt lat="47.14123" lon="6.76607">
        <ele>951.79998779297</ele>
        <time>2023-05-14T08:09:45.000Z</time>
      </trkpt>
      <trkpt lat="47.14111" lon="6.76594">
        <ele>952.20001220703</ele>
        <time>2023-05-14T08:09:51.000Z</time>
      </trkpt>
      <trkpt lat="47.14104" lon="6.76587">
        <ele>952.40002441406</ele>
        <time>2023-05-14T08:09:55.000Z</time>
      </trkpt>
      <trkpt lat="47.14099" lon="6.76579">
        <ele>952.59997558594</ele>
        <time>2023-05-14T08:10:01.000Z</time>
      </trkpt>
      <trkpt lat="47.14097" lon="6.76571">
        <ele>952.79998779297</ele>
        <time>2023-05-14T08:10:07.000Z</time>
      </trkpt>
      <trkpt lat="47.14098" lon="6.7657">
        <ele>953</ele>
        <time>2023-05-14T08:10:10.000Z</time>
      </trkpt>
      <trkpt lat="47.14093" lon="6.76564">
        <ele>953.79998779297</ele>
        <time>2023-05-14T08:10:40.000Z</time>
      </trkpt>
      <trkpt lat="47.14086" lon="6.76544">
        <ele>953.79998779297</ele>
        <time>2023-05-14T08:10:45.000Z</time>
      </trkpt>
      <trkpt lat="47.14078" lon="6.76522">
        <ele>954.59997558594</ele>
        <time>2023-05-14T08:10:51.000Z</time>
      </trkpt>
      <trkpt lat="47.14077" lon="6.76519">
        <ele>955</ele>
        <time>2023-05-14T08:10:52.000Z</time>
      </trkpt>
      <trkpt lat="47.14075" lon="6.76513">
        <ele>955.59997558594</ele>
        <time>2023-05-14T08:10:54.000Z</time>
      </trkpt>
      <trkpt lat="47.14075" lon="6.76506">
        <ele>955.79998779297</ele>
        <time>2023-05-14T08:10:56.000Z</time>
      </trkpt>
      <trkpt lat="47.14074" lon="6.76503">
        <ele>956</ele>
        <time>2023-05-14T08:10:57.000Z</time>
      </trkpt>
      <trkpt lat="47.14067" lon="6.76486">
        <ele>957</ele>
        <time>2023-05-14T08:11:02.000Z</time>
      </trkpt>
      <trkpt lat="47.14066" lon="6.76482">
        <ele>957.20001220703</ele>
        <time>2023-05-14T08:11:03.000Z</time>
      </trkpt>
      <trkpt lat="47.14062" lon="6.76454">
        <ele>957.79998779297</ele>
        <time>2023-05-14T08:11:09.000Z</time>
      </trkpt>
      <trkpt lat="47.14059" lon="6.76444">
        <ele>958.20001220703</ele>
        <time>2023-05-14T08:11:11.000Z</time>
      </trkpt>
      <trkpt lat="47.14059" lon="6.76441">
        <ele>958.40002441406</ele>
        <time>2023-05-14T08:11:12.000Z</time>
      </trkpt>
      <trkpt lat="47.14059" lon="6.76437">
        <ele>958.40002441406</ele>
        <time>2023-05-14T08:11:14.000Z</time>
      </trkpt>
      <trkpt lat="47.14053" lon="6.76416">
        <ele>958.79998779297</ele>
        <time>2023-05-14T08:11:19.000Z</time>
      </trkpt>
      <trkpt lat="47.14052" lon="6.76414">
        <ele>958.79998779297</ele>
        <time>2023-05-14T08:11:20.000Z</time>
      </trkpt>
      <trkpt lat="47.14051" lon="6.76408">
        <ele>958.79998779297</ele>
        <time>2023-05-14T08:11:22.000Z</time>
      </trkpt>
      <trkpt lat="47.14052" lon="6.76396">
        <ele>958.79998779297</ele>
        <time>2023-05-14T08:11:25.000Z</time>
      </trkpt>
      <trkpt lat="47.14047" lon="6.76382">
        <ele>959</ele>
        <time>2023-05-14T08:11:29.000Z</time>
      </trkpt>
      <trkpt lat="47.14046" lon="6.76371">
        <ele>959.40002441406</ele>
        <time>2023-05-14T08:11:32.000Z</time>
      </trkpt>
      <trkpt lat="47.14045" lon="6.76366">
        <ele>959.40002441406</ele>
        <time>2023-05-14T08:11:33.000Z</time>
      </trkpt>
      <trkpt lat="47.1404" lon="6.7634">
        <ele>959.79998779297</ele>
        <time>2023-05-14T08:11:39.000Z</time>
      </trkpt>
      <trkpt lat="47.14027" lon="6.76308">
        <ele>960.20001220703</ele>
        <time>2023-05-14T08:11:47.000Z</time>
      </trkpt>
      <trkpt lat="47.14024" lon="6.76301">
        <ele>960.40002441406</ele>
        <time>2023-05-14T08:11:49.000Z</time>
      </trkpt>
      <trkpt lat="47.14015" lon="6.76286">
        <ele>961</ele>
        <time>2023-05-14T08:11:54.000Z</time>
      </trkpt>
      <trkpt lat="47.14004" lon="6.76265">
        <ele>961.59997558594</ele>
        <time>2023-05-14T08:11:58.000Z</time>
      </trkpt>
      <trkpt lat="47.14003" lon="6.7626">
        <ele>961.79998779297</ele>
        <time>2023-05-14T08:12:00.000Z</time>
      </trkpt>
      <trkpt lat="47.14002" lon="6.76256">
        <ele>962</ele>
        <time>2023-05-14T08:12:01.000Z</time>
      </trkpt>
      <trkpt lat="47.13996" lon="6.76241">
        <ele>962.20001220703</ele>
        <time>2023-05-14T08:12:06.000Z</time>
      </trkpt>
      <trkpt lat="47.13988" lon="6.76216">
        <ele>962</ele>
        <time>2023-05-14T08:12:13.000Z</time>
      </trkpt>
      <trkpt lat="47.13982" lon="6.76194">
        <ele>962</ele>
        <time>2023-05-14T08:12:20.000Z</time>
      </trkpt>
      <trkpt lat="47.13978" lon="6.76178">
        <ele>962.20001220703</ele>
        <time>2023-05-14T08:12:24.000Z</time>
      </trkpt>
      <trkpt lat="47.13975" lon="6.76171">
        <ele>962.20001220703</ele>
        <time>2023-05-14T08:12:26.000Z</time>
      </trkpt>
      <trkpt lat="47.13974" lon="6.76167">
        <ele>962.20001220703</ele>
        <time>2023-05-14T08:12:27.000Z</time>
      </trkpt>
      <trkpt lat="47.13974" lon="6.76155">
        <ele>962.40002441406</ele>
        <time>2023-05-14T08:12:30.000Z</time>
      </trkpt>
      <trkpt lat="47.1397" lon="6.76131">
        <ele>962.40002441406</ele>
        <time>2023-05-14T08:12:36.000Z</time>
      </trkpt>
      <trkpt lat="47.13969" lon="6.76126">
        <ele>962.59997558594</ele>
        <time>2023-05-14T08:12:38.000Z</time>
      </trkpt>
      <trkpt lat="47.13968" lon="6.7612">
        <ele>962.59997558594</ele>
        <time>2023-05-14T08:12:40.000Z</time>
      </trkpt>
      <trkpt lat="47.13967" lon="6.76101">
        <ele>963</ele>
        <time>2023-05-14T08:12:45.000Z</time>
      </trkpt>
      <trkpt lat="47.13965" lon="6.76087">
        <ele>963.59997558594</ele>
        <time>2023-05-14T08:12:49.000Z</time>
      </trkpt>
      <trkpt lat="47.13964" lon="6.76084">
        <ele>963.59997558594</ele>
        <time>2023-05-14T08:12:50.000Z</time>
      </trkpt>
      <trkpt lat="47.13963" lon="6.76067">
        <ele>963.79998779297</ele>
        <time>2023-05-14T08:12:55.000Z</time>
      </trkpt>
      <trkpt lat="47.13963" lon="6.7605">
        <ele>964</ele>
        <time>2023-05-14T08:13:00.000Z</time>
      </trkpt>
      <trkpt lat="47.13962" lon="6.76033">
        <ele>964.20001220703</ele>
        <time>2023-05-14T08:13:04.000Z</time>
      </trkpt>
      <trkpt lat="47.1396" lon="6.76026">
        <ele>964.40002441406</ele>
        <time>2023-05-14T08:13:06.000Z</time>
      </trkpt>
      <trkpt lat="47.13956" lon="6.76004">
        <ele>964.59997558594</ele>
        <time>2023-05-14T08:13:11.000Z</time>
      </trkpt>
      <trkpt lat="47.13955" lon="6.75991">
        <ele>964.79998779297</ele>
        <time>2023-05-14T08:13:14.000Z</time>
      </trkpt>
      <trkpt lat="47.13955" lon="6.75961">
        <ele>965.40002441406</ele>
        <time>2023-05-14T08:13:22.000Z</time>
      </trkpt>
      <trkpt lat="47.13951" lon="6.75938">
        <ele>965.59997558594</ele>
        <time>2023-05-14T08:13:30.000Z</time>
      </trkpt>
      <trkpt lat="47.13949" lon="6.75932">
        <ele>965.79998779297</ele>
        <time>2023-05-14T08:13:32.000Z</time>
      </trkpt>
      <trkpt lat="47.13933" lon="6.75907">
        <ele>966</ele>
        <time>2023-05-14T08:13:41.000Z</time>
      </trkpt>
      <trkpt lat="47.13916" lon="6.75884">
        <ele>966.40002441406</ele>
        <time>2023-05-14T08:13:49.000Z</time>
      </trkpt>
      <trkpt lat="47.13897" lon="6.7586">
        <ele>966.59997558594</ele>
        <time>2023-05-14T08:13:59.000Z</time>
      </trkpt>
      <trkpt lat="47.1389" lon="6.75853">
        <ele>966.40002441406</ele>
        <time>2023-05-14T08:14:01.000Z</time>
      </trkpt>
      <trkpt lat="47.13869" lon="6.75832">
        <ele>966.40002441406</ele>
        <time>2023-05-14T08:14:10.000Z</time>
      </trkpt>
      <trkpt lat="47.13851" lon="6.75812">
        <ele>965.79998779297</ele>
        <time>2023-05-14T08:14:18.000Z</time>
      </trkpt>
      <trkpt lat="47.1384" lon="6.758">
        <ele>965.40002441406</ele>
        <time>2023-05-14T08:14:23.000Z</time>
      </trkpt>
      <trkpt lat="47.13823" lon="6.75775">
        <ele>965.40002441406</ele>
        <time>2023-05-14T08:14:32.000Z</time>
      </trkpt>
      <trkpt lat="47.13819" lon="6.7577">
        <ele>965.40002441406</ele>
        <time>2023-05-14T08:14:34.000Z</time>
      </trkpt>
      <trkpt lat="47.1381" lon="6.75757">
        <ele>965.20001220703</ele>
        <time>2023-05-14T08:14:39.000Z</time>
      </trkpt>
      <trkpt lat="47.13801" lon="6.75745">
        <ele>965</ele>
        <time>2023-05-14T08:14:44.000Z</time>
      </trkpt>
      <trkpt lat="47.13788" lon="6.75727">
        <ele>965.20001220703</ele>
        <time>2023-05-14T08:14:52.000Z</time>
      </trkpt>
      <trkpt lat="47.13785" lon="6.75721">
        <ele>965.20001220703</ele>
        <time>2023-05-14T08:14:57.000Z</time>
      </trkpt>
      <trkpt lat="47.13783" lon="6.7572">
        <ele>965.40002441406</ele>
        <time>2023-05-14T08:15:02.000Z</time>
      </trkpt>
      <trkpt lat="47.13768" lon="6.75698">
        <ele>965.40002441406</ele>
        <time>2023-05-14T08:16:16.000Z</time>
      </trkpt>
      <trkpt lat="47.13766" lon="6.75696">
        <ele>965.40002441406</ele>
        <time>2023-05-14T08:16:17.000Z</time>
      </trkpt>
      <trkpt lat="47.13754" lon="6.75684">
        <ele>965.20001220703</ele>
        <time>2023-05-14T08:16:22.000Z</time>
      </trkpt>
      <trkpt lat="47.13751" lon="6.75681">
        <ele>965.20001220703</ele>
        <time>2023-05-14T08:16:23.000Z</time>
      </trkpt>
      <trkpt lat="47.13721" lon="6.75649">
        <ele>965</ele>
        <time>2023-05-14T08:16:35.000Z</time>
      </trkpt>
      <trkpt lat="47.13711" lon="6.75635">
        <ele>965.40002441406</ele>
        <time>2023-05-14T08:16:40.000Z</time>
      </trkpt>
      <trkpt lat="47.13703" lon="6.75621">
        <ele>965.79998779297</ele>
        <time>2023-05-14T08:16:44.000Z</time>
      </trkpt>
      <trkpt lat="47.13695" lon="6.75605">
        <ele>966</ele>
        <time>2023-05-14T08:16:51.000Z</time>
      </trkpt>
      <trkpt lat="47.13695" lon="6.75604">
        <ele>966.20001220703</ele>
        <time>2023-05-14T08:16:52.000Z</time>
      </trkpt>
      <trkpt lat="47.13695" lon="6.75604">
        <ele>966.40002441406</ele>
        <time>2023-05-14T08:16:55.000Z</time>
      </trkpt>
      <trkpt lat="47.13678" lon="6.75578">
        <ele>966.79998779297</ele>
        <time>2023-05-14T08:17:24.000Z</time>
      </trkpt>
      <trkpt lat="47.13667" lon="6.7556">
        <ele>967</ele>
        <time>2023-05-14T08:17:30.000Z</time>
      </trkpt>
      <trkpt lat="47.13665" lon="6.75557">
        <ele>967</ele>
        <time>2023-05-14T08:17:31.000Z</time>
      </trkpt>
      <trkpt lat="47.13647" lon="6.75533">
        <ele>967</ele>
        <time>2023-05-14T08:17:39.000Z</time>
      </trkpt>
      <trkpt lat="47.13625" lon="6.75508">
        <ele>965.79998779297</ele>
        <time>2023-05-14T08:17:49.000Z</time>
      </trkpt>
      <trkpt lat="47.13618" lon="6.75502">
        <ele>965.59997558594</ele>
        <time>2023-05-14T08:17:53.000Z</time>
      </trkpt>
      <trkpt lat="47.13617" lon="6.75501">
        <ele>965.59997558594</ele>
        <time>2023-05-14T08:17:54.000Z</time>
      </trkpt>
      <trkpt lat="47.13616" lon="6.75501">
        <ele>965.59997558594</ele>
        <time>2023-05-14T08:17:55.000Z</time>
      </trkpt>
      <trkpt lat="47.13613" lon="6.755">
        <ele>965.59997558594</ele>
        <time>2023-05-14T08:17:58.000Z</time>
      </trkpt>
      <trkpt lat="47.13606" lon="6.75489">
        <ele>965.59997558594</ele>
        <time>2023-05-14T08:18:05.000Z</time>
      </trkpt>
      <trkpt lat="47.13605" lon="6.75485">
        <ele>965.59997558594</ele>
        <time>2023-05-14T08:18:08.000Z</time>
      </trkpt>
      <trkpt lat="47.13605" lon="6.75484">
        <ele>965.79998779297</ele>
        <time>2023-05-14T08:18:11.000Z</time>
      </trkpt>
      <trkpt lat="47.13599" lon="6.75465">
        <ele>966.59997558594</ele>
        <time>2023-05-14T08:18:35.000Z</time>
      </trkpt>
      <trkpt lat="47.13597" lon="6.75462">
        <ele>966.59997558594</ele>
        <time>2023-05-14T08:18:36.000Z</time>
      </trkpt>
      <trkpt lat="47.13597" lon="6.75458">
        <ele>966.79998779297</ele>
        <time>2023-05-14T08:18:37.000Z</time>
      </trkpt>
      <trkpt lat="47.13595" lon="6.75449">
        <ele>967.20001220703</ele>
        <time>2023-05-14T08:18:40.000Z</time>
      </trkpt>
      <trkpt lat="47.13595" lon="6.75447">
        <ele>967.40002441406</ele>
        <time>2023-05-14T08:18:41.000Z</time>
      </trkpt>
      <trkpt lat="47.13595" lon="6.75444">
        <ele>967.59997558594</ele>
        <time>2023-05-14T08:18:42.000Z</time>
      </trkpt>
      <trkpt lat="47.13593" lon="6.75436">
        <ele>968.20001220703</ele>
        <time>2023-05-14T08:18:45.000Z</time>
      </trkpt>
      <trkpt lat="47.1359" lon="6.75428">
        <ele>968.40002441406</ele>
        <time>2023-05-14T08:18:47.000Z</time>
      </trkpt>
      <trkpt lat="47.13578" lon="6.75405">
        <ele>968.79998779297</ele>
        <time>2023-05-14T08:18:51.000Z</time>
      </trkpt>
      <trkpt lat="47.13573" lon="6.75391">
        <ele>968.79998779297</ele>
        <time>2023-05-14T08:18:53.000Z</time>
      </trkpt>
      <trkpt lat="47.13568" lon="6.75367">
        <ele>969</ele>
        <time>2023-05-14T08:18:58.000Z</time>
      </trkpt>
      <trkpt lat="47.13561" lon="6.75344">
        <ele>969</ele>
        <time>2023-05-14T08:19:02.000Z</time>
      </trkpt>
      <trkpt lat="47.13552" lon="6.7531">
        <ele>969</ele>
        <time>2023-05-14T08:19:08.000Z</time>
      </trkpt>
      <trkpt lat="47.13543" lon="6.75273">
        <ele>969.20001220703</ele>
        <time>2023-05-14T08:19:15.000Z</time>
      </trkpt>
      <trkpt lat="47.13532" lon="6.75227">
        <ele>968.20001220703</ele>
        <time>2023-05-14T08:19:24.000Z</time>
      </trkpt>
      <trkpt lat="47.13521" lon="6.75193">
        <ele>967.59997558594</ele>
        <time>2023-05-14T08:19:29.000Z</time>
      </trkpt>
      <trkpt lat="47.13518" lon="6.75187">
        <ele>967.59997558594</ele>
        <time>2023-05-14T08:19:30.000Z</time>
      </trkpt>
      <trkpt lat="47.13516" lon="6.75182">
        <ele>967.40002441406</ele>
        <time>2023-05-14T08:19:31.000Z</time>
      </trkpt>
      <trkpt lat="47.13509" lon="6.75167">
        <ele>966.40002441406</ele>
        <time>2023-05-14T08:19:34.000Z</time>
      </trkpt>
      <trkpt lat="47.135" lon="6.75149">
        <ele>966.20001220703</ele>
        <time>2023-05-14T08:19:38.000Z</time>
      </trkpt>
      <trkpt lat="47.13498" lon="6.75144">
        <ele>966.40002441406</ele>
        <time>2023-05-14T08:19:39.000Z</time>
      </trkpt>
      <trkpt lat="47.13487" lon="6.75122">
        <ele>967.20001220703</ele>
        <time>2023-05-14T08:19:44.000Z</time>
      </trkpt>
      <trkpt lat="47.13478" lon="6.75105">
        <ele>967.79998779297</ele>
        <time>2023-05-14T08:19:48.000Z</time>
      </trkpt>
      <trkpt lat="47.13465" lon="6.75085">
        <ele>968</ele>
        <time>2023-05-14T08:19:53.000Z</time>
      </trkpt>
      <trkpt lat="47.13455" lon="6.7507">
        <ele>968.59997558594</ele>
        <time>2023-05-14T08:19:58.000Z</time>
      </trkpt>
      <trkpt lat="47.13454" lon="6.75066">
        <ele>968.79998779297</ele>
        <time>2023-05-14T08:19:59.000Z</time>
      </trkpt>
      <trkpt lat="47.1345" lon="6.75046">
        <ele>969</ele>
        <time>2023-05-14T08:20:03.000Z</time>
      </trkpt>
      <trkpt lat="47.13434" lon="6.75004">
        <ele>968.79998779297</ele>
        <time>2023-05-14T08:20:10.000Z</time>
      </trkpt>
      <trkpt lat="47.13422" lon="6.7497">
        <ele>967.59997558594</ele>
        <time>2023-05-14T08:20:15.000Z</time>
      </trkpt>
      <trkpt lat="47.13419" lon="6.74963">
        <ele>967.40002441406</ele>
        <time>2023-05-14T08:20:16.000Z</time>
      </trkpt>
      <trkpt lat="47.13412" lon="6.74946">
        <ele>966.79998779297</ele>
        <time>2023-05-14T08:20:19.000Z</time>
      </trkpt>
      <trkpt lat="47.13409" lon="6.74934">
        <ele>966.59997558594</ele>
        <time>2023-05-14T08:20:21.000Z</time>
      </trkpt>
      <trkpt lat="47.13408" lon="6.74929">
        <ele>966.40002441406</ele>
        <time>2023-05-14T08:20:22.000Z</time>
      </trkpt>
      <trkpt lat="47.13406" lon="6.74922">
        <ele>966.40002441406</ele>
        <time>2023-05-14T08:20:23.000Z</time>
      </trkpt>
      <trkpt lat="47.134" lon="6.74894">
        <ele>966.20001220703</ele>
        <time>2023-05-14T08:20:28.000Z</time>
      </trkpt>
      <trkpt lat="47.13389" lon="6.74839">
        <ele>966</ele>
        <time>2023-05-14T08:20:36.000Z</time>
      </trkpt>
      <trkpt lat="47.13384" lon="6.74809">
        <ele>965.20001220703</ele>
        <time>2023-05-14T08:20:40.000Z</time>
      </trkpt>
      <trkpt lat="47.13378" lon="6.74779">
        <ele>964.40002441406</ele>
        <time>2023-05-14T08:20:44.000Z</time>
      </trkpt>
      <trkpt lat="47.13377" lon="6.74771">
        <ele>964.20001220703</ele>
        <time>2023-05-14T08:20:45.000Z</time>
      </trkpt>
      <trkpt lat="47.1337" lon="6.74733">
        <ele>963.79998779297</ele>
        <time>2023-05-14T08:20:49.000Z</time>
      </trkpt>
      <trkpt lat="47.13364" lon="6.74702">
        <ele>963</ele>
        <time>2023-05-14T08:20:52.000Z</time>
      </trkpt>
      <trkpt lat="47.13358" lon="6.74669">
        <ele>961.59997558594</ele>
        <time>2023-05-14T08:20:55.000Z</time>
      </trkpt>
      <trkpt lat="47.13355" lon="6.74657">
        <ele>961.20001220703</ele>
        <time>2023-05-14T08:20:56.000Z</time>
      </trkpt>
      <trkpt lat="47.1335" lon="6.74633">
        <ele>960.59997558594</ele>
        <time>2023-05-14T08:20:58.000Z</time>
      </trkpt>
      <trkpt lat="47.13344" lon="6.74598">
        <ele>958.79998779297</ele>
        <time>2023-05-14T08:21:01.000Z</time>
      </trkpt>
      <trkpt lat="47.13342" lon="6.74587">
        <ele>958.40002441406</ele>
        <time>2023-05-14T08:21:02.000Z</time>
      </trkpt>
      <trkpt lat="47.1334" lon="6.74576">
        <ele>957.59997558594</ele>
        <time>2023-05-14T08:21:03.000Z</time>
      </trkpt>
      <trkpt lat="47.13332" lon="6.74539">
        <ele>955.59997558594</ele>
        <time>2023-05-14T08:21:07.000Z</time>
      </trkpt>
      <trkpt lat="47.13326" lon="6.74508">
        <ele>954.59997558594</ele>
        <time>2023-05-14T08:21:11.000Z</time>
      </trkpt>
      <trkpt lat="47.13325" lon="6.74501">
        <ele>954.40002441406</ele>
        <time>2023-05-14T08:21:12.000Z</time>
      </trkpt>
      <trkpt lat="47.13324" lon="6.74481">
        <ele>954.59997558594</ele>
        <time>2023-05-14T08:21:15.000Z</time>
      </trkpt>
      <trkpt lat="47.13325" lon="6.74465">
        <ele>955.59997558594</ele>
        <time>2023-05-14T08:21:18.000Z</time>
      </trkpt>
      <trkpt lat="47.13327" lon="6.74461">
        <ele>955.79998779297</ele>
        <time>2023-05-14T08:21:19.000Z</time>
      </trkpt>
      <trkpt lat="47.1333" lon="6.7445">
        <ele>956.40002441406</ele>
        <time>2023-05-14T08:21:22.000Z</time>
      </trkpt>
      <trkpt lat="47.13333" lon="6.74444">
        <ele>957</ele>
        <time>2023-05-14T08:21:24.000Z</time>
      </trkpt>
      <trkpt lat="47.13345" lon="6.74423">
        <ele>958</ele>
        <time>2023-05-14T08:21:30.000Z</time>
      </trkpt>
      <trkpt lat="47.13347" lon="6.74419">
        <ele>958</ele>
        <time>2023-05-14T08:21:31.000Z</time>
      </trkpt>
      <trkpt lat="47.13357" lon="6.74393">
        <ele>957.79998779297</ele>
        <time>2023-05-14T08:21:38.000Z</time>
      </trkpt>
      <trkpt lat="47.13358" lon="6.74384">
        <ele>956.79998779297</ele>
        <time>2023-05-14T08:21:44.000Z</time>
      </trkpt>
      <trkpt lat="47.13358" lon="6.74383">
        <ele>957</ele>
        <time>2023-05-14T08:21:45.000Z</time>
      </trkpt>
      <trkpt lat="47.13358" lon="6.74375">
        <ele>956.79998779297</ele>
        <time>2023-05-14T08:21:50.000Z</time>
      </trkpt>
      <trkpt lat="47.13357" lon="6.74371">
        <ele>956.79998779297</ele>
        <time>2023-05-14T08:21:51.000Z</time>
      </trkpt>
      <trkpt lat="47.13354" lon="6.74351">
        <ele>957</ele>
        <time>2023-05-14T08:21:56.000Z</time>
      </trkpt>
      <trkpt lat="47.13354" lon="6.74347">
        <ele>957</ele>
        <time>2023-05-14T08:21:57.000Z</time>
      </trkpt>
      <trkpt lat="47.13346" lon="6.74318">
        <ele>957.40002441406</ele>
        <time>2023-05-14T08:22:03.000Z</time>
      </trkpt>
      <trkpt lat="47.13341" lon="6.7429">
        <ele>957.59997558594</ele>
        <time>2023-05-14T08:22:09.000Z</time>
      </trkpt>
      <trkpt lat="47.13335" lon="6.7426">
        <ele>957.79998779297</ele>
        <time>2023-05-14T08:22:15.000Z</time>
      </trkpt>
      <trkpt lat="47.1333" lon="6.74233">
        <ele>957.79998779297</ele>
        <time>2023-05-14T08:22:21.000Z</time>
      </trkpt>
      <trkpt lat="47.13324" lon="6.7421">
        <ele>958</ele>
        <time>2023-05-14T08:22:27.000Z</time>
      </trkpt>
      <trkpt lat="47.13322" lon="6.74194">
        <ele>958.40002441406</ele>
        <time>2023-05-14T08:22:32.000Z</time>
      </trkpt>
      <trkpt lat="47.13315" lon="6.74163">
        <ele>958.20001220703</ele>
        <time>2023-05-14T08:22:39.000Z</time>
      </trkpt>
      <trkpt lat="47.13309" lon="6.74139">
        <ele>957.59997558594</ele>
        <time>2023-05-14T08:22:43.000Z</time>
      </trkpt>
      <trkpt lat="47.13306" lon="6.74126">
        <ele>957.40002441406</ele>
        <time>2023-05-14T08:22:46.000Z</time>
      </trkpt>
      <trkpt lat="47.13297" lon="6.74083">
        <ele>957</ele>
        <time>2023-05-14T08:22:55.000Z</time>
      </trkpt>
      <trkpt lat="47.1329" lon="6.7405">
        <ele>957</ele>
        <time>2023-05-14T08:23:02.000Z</time>
      </trkpt>
      <trkpt lat="47.13285" lon="6.74021">
        <ele>956.59997558594</ele>
        <time>2023-05-14T08:23:08.000Z</time>
      </trkpt>
      <trkpt lat="47.13283" lon="6.73978">
        <ele>957</ele>
        <time>2023-05-14T08:23:16.000Z</time>
      </trkpt>
      <trkpt lat="47.13279" lon="6.73951">
        <ele>957.79998779297</ele>
        <time>2023-05-14T08:23:22.000Z</time>
      </trkpt>
      <trkpt lat="47.13277" lon="6.73946">
        <ele>958</ele>
        <time>2023-05-14T08:23:23.000Z</time>
      </trkpt>
      <trkpt lat="47.13269" lon="6.73933">
        <ele>958.79998779297</ele>
        <time>2023-05-14T08:23:28.000Z</time>
      </trkpt>
      <trkpt lat="47.13267" lon="6.7393">
        <ele>959.20001220703</ele>
        <time>2023-05-14T08:23:29.000Z</time>
      </trkpt>
      <trkpt lat="47.13262" lon="6.73918">
        <ele>960.40002441406</ele>
        <time>2023-05-14T08:23:33.000Z</time>
      </trkpt>
      <trkpt lat="47.1326" lon="6.73914">
        <ele>960.59997558594</ele>
        <time>2023-05-14T08:23:34.000Z</time>
      </trkpt>
      <trkpt lat="47.13257" lon="6.73907">
        <ele>961.79998779297</ele>
        <time>2023-05-14T08:23:37.000Z</time>
      </trkpt>
      <trkpt lat="47.13255" lon="6.73901">
        <ele>962.20001220703</ele>
        <time>2023-05-14T08:23:39.000Z</time>
      </trkpt>
      <trkpt lat="47.1325" lon="6.73892">
        <ele>962.79998779297</ele>
        <time>2023-05-14T08:23:42.000Z</time>
      </trkpt>
      <trkpt lat="47.1324" lon="6.73872">
        <ele>963.79998779297</ele>
        <time>2023-05-14T08:23:49.000Z</time>
      </trkpt>
      <trkpt lat="47.13239" lon="6.7387">
        <ele>964</ele>
        <time>2023-05-14T08:23:50.000Z</time>
      </trkpt>
      <trkpt lat="47.13223" lon="6.73852">
        <ele>965</ele>
        <time>2023-05-14T08:23:56.000Z</time>
      </trkpt>
      <trkpt lat="47.13221" lon="6.73849">
        <ele>965</ele>
        <time>2023-05-14T08:23:57.000Z</time>
      </trkpt>
      <trkpt lat="47.13217" lon="6.73843">
        <ele>965.20001220703</ele>
        <time>2023-05-14T08:23:59.000Z</time>
      </trkpt>
      <trkpt lat="47.13214" lon="6.73839">
        <ele>965.40002441406</ele>
        <time>2023-05-14T08:24:01.000Z</time>
      </trkpt>
      <trkpt lat="47.13198" lon="6.73831">
        <ele>966</ele>
        <time>2023-05-14T08:24:07.000Z</time>
      </trkpt>
      <trkpt lat="47.13192" lon="6.73831">
        <ele>966</ele>
        <time>2023-05-14T08:24:09.000Z</time>
      </trkpt>
      <trkpt lat="47.13178" lon="6.73833">
        <ele>966</ele>
        <time>2023-05-14T08:24:14.000Z</time>
      </trkpt>
      <trkpt lat="47.13162" lon="6.73831">
        <ele>967.20001220703</ele>
        <time>2023-05-14T08:24:21.000Z</time>
      </trkpt>
      <trkpt lat="47.13157" lon="6.73831">
        <ele>967.40002441406</ele>
        <time>2023-05-14T08:24:23.000Z</time>
      </trkpt>
      <trkpt lat="47.13151" lon="6.73831">
        <ele>968.20001220703</ele>
        <time>2023-05-14T08:24:26.000Z</time>
      </trkpt>
      <trkpt lat="47.13138" lon="6.73832">
        <ele>969.20001220703</ele>
        <time>2023-05-14T08:24:31.000Z</time>
      </trkpt>
      <trkpt lat="47.13131" lon="6.7383">
        <ele>969.79998779297</ele>
        <time>2023-05-14T08:24:34.000Z</time>
      </trkpt>
      <trkpt lat="47.13124" lon="6.7383">
        <ele>970.59997558594</ele>
        <time>2023-05-14T08:24:37.000Z</time>
      </trkpt>
      <trkpt lat="47.13112" lon="6.73824">
        <ele>971.40002441406</ele>
        <time>2023-05-14T08:24:43.000Z</time>
      </trkpt>
      <trkpt lat="47.1311" lon="6.73822">
        <ele>971.59997558594</ele>
        <time>2023-05-14T08:24:44.000Z</time>
      </trkpt>
      <trkpt lat="47.13099" lon="6.73805">
        <ele>972.40002441406</ele>
        <time>2023-05-14T08:24:51.000Z</time>
      </trkpt>
      <trkpt lat="47.13094" lon="6.73797">
        <ele>972.59997558594</ele>
        <time>2023-05-14T08:24:54.000Z</time>
      </trkpt>
      <trkpt lat="47.13079" lon="6.73772">
        <ele>973</ele>
        <time>2023-05-14T08:25:03.000Z</time>
      </trkpt>
      <trkpt lat="47.1307" lon="6.73751">
        <ele>973.59997558594</ele>
        <time>2023-05-14T08:25:10.000Z</time>
      </trkpt>
      <trkpt lat="47.13069" lon="6.73747">
        <ele>973.79998779297</ele>
        <time>2023-05-14T08:25:11.000Z</time>
      </trkpt>
      <trkpt lat="47.13054" lon="6.73718">
        <ele>974.40002441406</ele>
        <time>2023-05-14T08:25:20.000Z</time>
      </trkpt>
      <trkpt lat="47.13038" lon="6.73682">
        <ele>974.20001220703</ele>
        <time>2023-05-14T08:25:30.000Z</time>
      </trkpt>
      <trkpt lat="47.13027" lon="6.73659">
        <ele>974</ele>
        <time>2023-05-14T08:25:37.000Z</time>
      </trkpt>
      <trkpt lat="47.13015" lon="6.73636">
        <ele>973.79998779297</ele>
        <time>2023-05-14T08:25:44.000Z</time>
      </trkpt>
      <trkpt lat="47.13012" lon="6.7363">
        <ele>973.79998779297</ele>
        <time>2023-05-14T08:25:46.000Z</time>
      </trkpt>
      <trkpt lat="47.12998" lon="6.73598">
        <ele>973.79998779297</ele>
        <time>2023-05-14T08:25:54.000Z</time>
      </trkpt>
      <trkpt lat="47.12996" lon="6.73596">
        <ele>973.79998779297</ele>
        <time>2023-05-14T08:25:55.000Z</time>
      </trkpt>
      <trkpt lat="47.12989" lon="6.73579">
        <ele>973.59997558594</ele>
        <time>2023-05-14T08:25:59.000Z</time>
      </trkpt>
      <trkpt lat="47.12986" lon="6.73572">
        <ele>973.40002441406</ele>
        <time>2023-05-14T08:26:01.000Z</time>
      </trkpt>
      <trkpt lat="47.12975" lon="6.73548">
        <ele>972.59997558594</ele>
        <time>2023-05-14T08:26:07.000Z</time>
      </trkpt>
      <trkpt lat="47.12974" lon="6.73546">
        <ele>972.59997558594</ele>
        <time>2023-05-14T08:26:08.000Z</time>
      </trkpt>
      <trkpt lat="47.12972" lon="6.73543">
        <ele>972.59997558594</ele>
        <time>2023-05-14T08:26:09.000Z</time>
      </trkpt>
      <trkpt lat="47.12966" lon="6.73528">
        <ele>972.40002441406</ele>
        <time>2023-05-14T08:26:13.000Z</time>
      </trkpt>
      <trkpt lat="47.12965" lon="6.73526">
        <ele>972.20001220703</ele>
        <time>2023-05-14T08:26:14.000Z</time>
      </trkpt>
      <trkpt lat="47.12964" lon="6.73523">
        <ele>972</ele>
        <time>2023-05-14T08:26:17.000Z</time>
      </trkpt>
      <trkpt lat="47.12958" lon="6.73513">
        <ele>971.40002441406</ele>
        <time>2023-05-14T08:26:48.000Z</time>
      </trkpt>
      <trkpt lat="47.12945" lon="6.73487">
        <ele>971.40002441406</ele>
        <time>2023-05-14T08:26:53.000Z</time>
      </trkpt>
      <trkpt lat="47.12932" lon="6.73464">
        <ele>970.20001220703</ele>
        <time>2023-05-14T08:26:57.000Z</time>
      </trkpt>
      <trkpt lat="47.12926" lon="6.73454">
        <ele>969.79998779297</ele>
        <time>2023-05-14T08:26:59.000Z</time>
      </trkpt>
      <trkpt lat="47.12913" lon="6.73432">
        <ele>969.59997558594</ele>
        <time>2023-05-14T08:27:04.000Z</time>
      </trkpt>
      <trkpt lat="47.12892" lon="6.73405">
        <ele>969.59997558594</ele>
        <time>2023-05-14T08:27:12.000Z</time>
      </trkpt>
      <trkpt lat="47.12875" lon="6.73376">
        <ele>970.40002441406</ele>
        <time>2023-05-14T08:27:20.000Z</time>
      </trkpt>
      <trkpt lat="47.12855" lon="6.73339">
        <ele>970.79998779297</ele>
        <time>2023-05-14T08:27:28.000Z</time>
      </trkpt>
      <trkpt lat="47.12839" lon="6.7331">
        <ele>970.59997558594</ele>
        <time>2023-05-14T08:27:34.000Z</time>
      </trkpt>
      <trkpt lat="47.12833" lon="6.73298">
        <ele>970.40002441406</ele>
        <time>2023-05-14T08:27:36.000Z</time>
      </trkpt>
      <trkpt lat="47.12816" lon="6.73263">
        <ele>969.20001220703</ele>
        <time>2023-05-14T08:27:42.000Z</time>
      </trkpt>
      <trkpt lat="47.12811" lon="6.73255">
        <ele>969.20001220703</ele>
        <time>2023-05-14T08:27:43.000Z</time>
      </trkpt>
      <trkpt lat="47.12808" lon="6.7325">
        <ele>969</ele>
        <time>2023-05-14T08:27:44.000Z</time>
      </trkpt>
      <trkpt lat="47.12787" lon="6.73213">
        <ele>968.20001220703</ele>
        <time>2023-05-14T08:27:51.000Z</time>
      </trkpt>
      <trkpt lat="47.12784" lon="6.73209">
        <ele>968</ele>
        <time>2023-05-14T08:27:52.000Z</time>
      </trkpt>
      <trkpt lat="47.12777" lon="6.73194">
        <ele>968</ele>
        <time>2023-05-14T08:27:56.000Z</time>
      </trkpt>
      <trkpt lat="47.12776" lon="6.73189">
        <ele>967.59997558594</ele>
        <time>2023-05-14T08:28:00.000Z</time>
      </trkpt>
      <trkpt lat="47.12776" lon="6.73189">
        <ele>967.40002441406</ele>
        <time>2023-05-14T08:28:01.000Z</time>
      </trkpt>
      <trkpt lat="47.12764" lon="6.73161">
        <ele>967.40002441406</ele>
        <time>2023-05-14T08:29:55.000Z</time>
      </trkpt>
      <trkpt lat="47.1276" lon="6.73157">
        <ele>967.20001220703</ele>
        <time>2023-05-14T08:29:57.000Z</time>
      </trkpt>
      <trkpt lat="47.12748" lon="6.73141">
        <ele>967</ele>
        <time>2023-05-14T08:30:02.000Z</time>
      </trkpt>
      <trkpt lat="47.12745" lon="6.73137">
        <ele>967</ele>
        <time>2023-05-14T08:30:03.000Z</time>
      </trkpt>
      <trkpt lat="47.12727" lon="6.73102">
        <ele>966.20001220703</ele>
        <time>2023-05-14T08:30:10.000Z</time>
      </trkpt>
      <trkpt lat="47.12718" lon="6.73081">
        <ele>966</ele>
        <time>2023-05-14T08:30:13.000Z</time>
      </trkpt>
      <trkpt lat="47.12707" lon="6.73054">
        <ele>964.79998779297</ele>
        <time>2023-05-14T08:30:17.000Z</time>
      </trkpt>
      <trkpt lat="47.12698" lon="6.73033">
        <ele>963.79998779297</ele>
        <time>2023-05-14T08:30:20.000Z</time>
      </trkpt>
      <trkpt lat="47.12689" lon="6.73008">
        <ele>962.79998779297</ele>
        <time>2023-05-14T08:30:23.000Z</time>
      </trkpt>
      <trkpt lat="47.12685" lon="6.73">
        <ele>962.59997558594</ele>
        <time>2023-05-14T08:30:24.000Z</time>
      </trkpt>
      <trkpt lat="47.12675" lon="6.7297">
        <ele>961.79998779297</ele>
        <time>2023-05-14T08:30:27.000Z</time>
      </trkpt>
      <trkpt lat="47.12665" lon="6.72936">
        <ele>960.79998779297</ele>
        <time>2023-05-14T08:30:30.000Z</time>
      </trkpt>
      <trkpt lat="47.12662" lon="6.72925">
        <ele>960.40002441406</ele>
        <time>2023-05-14T08:30:31.000Z</time>
      </trkpt>
      <trkpt lat="47.12652" lon="6.72891">
        <ele>959.40002441406</ele>
        <time>2023-05-14T08:30:34.000Z</time>
      </trkpt>
      <trkpt lat="47.12637" lon="6.72846">
        <ele>958.40002441406</ele>
        <time>2023-05-14T08:30:38.000Z</time>
      </trkpt>
      <trkpt lat="47.12626" lon="6.72816">
        <ele>957.20001220703</ele>
        <time>2023-05-14T08:30:41.000Z</time>
      </trkpt>
      <trkpt lat="47.12622" lon="6.72807">
        <ele>957.20001220703</ele>
        <time>2023-05-14T08:30:42.000Z</time>
      </trkpt>
      <trkpt lat="47.12606" lon="6.72779">
        <ele>956.79998779297</ele>
        <time>2023-05-14T08:30:46.000Z</time>
      </trkpt>
      <trkpt lat="47.12595" lon="6.72763">
        <ele>957.20001220703</ele>
        <time>2023-05-14T08:30:50.000Z</time>
      </trkpt>
      <trkpt lat="47.12583" lon="6.72743">
        <ele>957.59997558594</ele>
        <time>2023-05-14T08:30:55.000Z</time>
      </trkpt>
      <trkpt lat="47.12581" lon="6.72738">
        <ele>957.79998779297</ele>
        <time>2023-05-14T08:30:56.000Z</time>
      </trkpt>
      <trkpt lat="47.12564" lon="6.72701">
        <ele>957.79998779297</ele>
        <time>2023-05-14T08:31:04.000Z</time>
      </trkpt>
      <trkpt lat="47.12545" lon="6.7265">
        <ele>957</ele>
        <time>2023-05-14T08:31:14.000Z</time>
      </trkpt>
      <trkpt lat="47.12527" lon="6.72599">
        <ele>957</ele>
        <time>2023-05-14T08:31:23.000Z</time>
      </trkpt>
      <trkpt lat="47.12516" lon="6.72571">
        <ele>956.79998779297</ele>
        <time>2023-05-14T08:31:29.000Z</time>
      </trkpt>
      <trkpt lat="47.12503" lon="6.72536">
        <ele>956.59997558594</ele>
        <time>2023-05-14T08:31:37.000Z</time>
      </trkpt>
      <trkpt lat="47.12492" lon="6.72502">
        <ele>956.20001220703</ele>
        <time>2023-05-14T08:31:43.000Z</time>
      </trkpt>
      <trkpt lat="47.1249" lon="6.72496">
        <ele>956.20001220703</ele>
        <time>2023-05-14T08:31:44.000Z</time>
      </trkpt>
      <trkpt lat="47.12477" lon="6.72458">
        <ele>955.40002441406</ele>
        <time>2023-05-14T08:31:52.000Z</time>
      </trkpt>
      <trkpt lat="47.12464" lon="6.72422">
        <ele>955.59997558594</ele>
        <time>2023-05-14T08:32:00.000Z</time>
      </trkpt>
      <trkpt lat="47.12444" lon="6.72375">
        <ele>956.40002441406</ele>
        <time>2023-05-14T08:32:11.000Z</time>
      </trkpt>
      <trkpt lat="47.12432" lon="6.72351">
        <ele>957</ele>
        <time>2023-05-14T08:32:17.000Z</time>
      </trkpt>
      <trkpt lat="47.12429" lon="6.72342">
        <ele>957.20001220703</ele>
        <time>2023-05-14T08:32:19.000Z</time>
      </trkpt>
      <trkpt lat="47.12425" lon="6.72334">
        <ele>957.40002441406</ele>
        <time>2023-05-14T08:32:21.000Z</time>
      </trkpt>
      <trkpt lat="47.12408" lon="6.72306">
        <ele>958.20001220703</ele>
        <time>2023-05-14T08:32:28.000Z</time>
      </trkpt>
      <trkpt lat="47.12401" lon="6.72295">
        <ele>958.40002441406</ele>
        <time>2023-05-14T08:32:31.000Z</time>
      </trkpt>
      <trkpt lat="47.12375" lon="6.72261">
        <ele>958</ele>
        <time>2023-05-14T08:32:39.000Z</time>
      </trkpt>
      <trkpt lat="47.12355" lon="6.72235">
        <ele>957.20001220703</ele>
        <time>2023-05-14T08:32:44.000Z</time>
      </trkpt>
      <trkpt lat="47.1235" lon="6.72229">
        <ele>957.20001220703</ele>
        <time>2023-05-14T08:32:45.000Z</time>
      </trkpt>
      <trkpt lat="47.12323" lon="6.72199">
        <ele>955.79998779297</ele>
        <time>2023-05-14T08:32:50.000Z</time>
      </trkpt>
      <trkpt lat="47.12311" lon="6.72186">
        <ele>955.40002441406</ele>
        <time>2023-05-14T08:32:52.000Z</time>
      </trkpt>
      <trkpt lat="47.12299" lon="6.72172">
        <ele>954.59997558594</ele>
        <time>2023-05-14T08:32:54.000Z</time>
      </trkpt>
      <trkpt lat="47.12289" lon="6.7216">
        <ele>953.59997558594</ele>
        <time>2023-05-14T08:32:56.000Z</time>
      </trkpt>
      <trkpt lat="47.12281" lon="6.7215">
        <ele>952.40002441406</ele>
        <time>2023-05-14T08:32:58.000Z</time>
      </trkpt>
      <trkpt lat="47.12274" lon="6.72139">
        <ele>951.20001220703</ele>
        <time>2023-05-14T08:33:01.000Z</time>
      </trkpt>
      <trkpt lat="47.12272" lon="6.72137">
        <ele>950.59997558594</ele>
        <time>2023-05-14T08:33:02.000Z</time>
      </trkpt>
      <trkpt lat="47.12269" lon="6.72132">
        <ele>950</ele>
        <time>2023-05-14T08:33:04.000Z</time>
      </trkpt>
      <trkpt lat="47.12267" lon="6.72131">
        <ele>949.79998779297</ele>
        <time>2023-05-14T08:33:05.000Z</time>
      </trkpt>
      <trkpt lat="47.12265" lon="6.72132">
        <ele>949.59997558594</ele>
        <time>2023-05-14T08:33:06.000Z</time>
      </trkpt>
      <trkpt lat="47.12264" lon="6.72134">
        <ele>949.20001220703</ele>
        <time>2023-05-14T08:33:07.000Z</time>
      </trkpt>
      <trkpt lat="47.12263" lon="6.72138">
        <ele>949</ele>
        <time>2023-05-14T08:33:09.000Z</time>
      </trkpt>
      <trkpt lat="47.12263" lon="6.72141">
        <ele>949</ele>
        <time>2023-05-14T08:33:10.000Z</time>
      </trkpt>
      <trkpt lat="47.12258" lon="6.7215">
        <ele>948.79998779297</ele>
        <time>2023-05-14T08:33:14.000Z</time>
      </trkpt>
      <trkpt lat="47.12255" lon="6.72157">
        <ele>948.79998779297</ele>
        <time>2023-05-14T08:33:16.000Z</time>
      </trkpt>
      <trkpt lat="47.12242" lon="6.72179">
        <ele>948.20001220703</ele>
        <time>2023-05-14T08:33:23.000Z</time>
      </trkpt>
      <trkpt lat="47.12229" lon="6.72207">
        <ele>948</ele>
        <time>2023-05-14T08:33:31.000Z</time>
      </trkpt>
      <trkpt lat="47.12219" lon="6.72227">
        <ele>947.79998779297</ele>
        <time>2023-05-14T08:33:36.000Z</time>
      </trkpt>
      <trkpt lat="47.12211" lon="6.72241">
        <ele>947.79998779297</ele>
        <time>2023-05-14T08:33:39.000Z</time>
      </trkpt>
      <trkpt lat="47.12192" lon="6.72275">
        <ele>947.20001220703</ele>
        <time>2023-05-14T08:33:45.000Z</time>
      </trkpt>
      <trkpt lat="47.12189" lon="6.72281">
        <ele>947</ele>
        <time>2023-05-14T08:33:46.000Z</time>
      </trkpt>
      <trkpt lat="47.12185" lon="6.72287">
        <ele>946.79998779297</ele>
        <time>2023-05-14T08:33:47.000Z</time>
      </trkpt>
      <trkpt lat="47.12167" lon="6.72307">
        <ele>946.20001220703</ele>
        <time>2023-05-14T08:33:51.000Z</time>
      </trkpt>
      <trkpt lat="47.12155" lon="6.72318">
        <ele>945.79998779297</ele>
        <time>2023-05-14T08:33:54.000Z</time>
      </trkpt>
      <trkpt lat="47.12145" lon="6.72328">
        <ele>945.40002441406</ele>
        <time>2023-05-14T08:33:57.000Z</time>
      </trkpt>
      <trkpt lat="47.12131" lon="6.72343">
        <ele>945.40002441406</ele>
        <time>2023-05-14T08:34:02.000Z</time>
      </trkpt>
      <trkpt lat="47.12128" lon="6.72346">
        <ele>945.40002441406</ele>
        <time>2023-05-14T08:34:03.000Z</time>
      </trkpt>
      <trkpt lat="47.12117" lon="6.72363">
        <ele>945.59997558594</ele>
        <time>2023-05-14T08:34:07.000Z</time>
      </trkpt>
      <trkpt lat="47.12111" lon="6.72376">
        <ele>946</ele>
        <time>2023-05-14T08:34:10.000Z</time>
      </trkpt>
      <trkpt lat="47.12105" lon="6.72401">
        <ele>946.59997558594</ele>
        <time>2023-05-14T08:34:16.000Z</time>
      </trkpt>
      <trkpt lat="47.12105" lon="6.72405">
        <ele>946.79998779297</ele>
        <time>2023-05-14T08:34:17.000Z</time>
      </trkpt>
      <trkpt lat="47.12102" lon="6.7242">
        <ele>947.20001220703</ele>
        <time>2023-05-14T08:34:21.000Z</time>
      </trkpt>
      <trkpt lat="47.12098" lon="6.7244">
        <ele>948</ele>
        <time>2023-05-14T08:34:27.000Z</time>
      </trkpt>
      <trkpt lat="47.12096" lon="6.72451">
        <ele>948.40002441406</ele>
        <time>2023-05-14T08:34:30.000Z</time>
      </trkpt>
      <trkpt lat="47.12095" lon="6.72462">
        <ele>948.79998779297</ele>
        <time>2023-05-14T08:34:33.000Z</time>
      </trkpt>
      <trkpt lat="47.12095" lon="6.72466">
        <ele>949</ele>
        <time>2023-05-14T08:34:34.000Z</time>
      </trkpt>
      <trkpt lat="47.12091" lon="6.72486">
        <ele>949.79998779297</ele>
        <time>2023-05-14T08:34:39.000Z</time>
      </trkpt>
      <trkpt lat="47.12091" lon="6.7249">
        <ele>950</ele>
        <time>2023-05-14T08:34:40.000Z</time>
      </trkpt>
      <trkpt lat="47.12091" lon="6.72509">
        <ele>951</ele>
        <time>2023-05-14T08:34:45.000Z</time>
      </trkpt>
      <trkpt lat="47.12092" lon="6.72526">
        <ele>951.59997558594</ele>
        <time>2023-05-14T08:34:49.000Z</time>
      </trkpt>
      <trkpt lat="47.12093" lon="6.72537">
        <ele>952.20001220703</ele>
        <time>2023-05-14T08:34:52.000Z</time>
      </trkpt>
      <trkpt lat="47.12099" lon="6.72558">
        <ele>953</ele>
        <time>2023-05-14T08:34:58.000Z</time>
      </trkpt>
      <trkpt lat="47.12102" lon="6.72568">
        <ele>953.40002441406</ele>
        <time>2023-05-14T08:35:01.000Z</time>
      </trkpt>
      <trkpt lat="47.12107" lon="6.72585">
        <ele>954.40002441406</ele>
        <time>2023-05-14T08:35:07.000Z</time>
      </trkpt>
      <trkpt lat="47.12108" lon="6.72589">
        <ele>954.40002441406</ele>
        <time>2023-05-14T08:35:08.000Z</time>
      </trkpt>
      <trkpt lat="47.12113" lon="6.72607">
        <ele>955.40002441406</ele>
        <time>2023-05-14T08:35:14.000Z</time>
      </trkpt>
      <trkpt lat="47.12115" lon="6.72614">
        <ele>955.59997558594</ele>
        <time>2023-05-14T08:35:16.000Z</time>
      </trkpt>
      <trkpt lat="47.12117" lon="6.7263">
        <ele>956.59997558594</ele>
        <time>2023-05-14T08:35:21.000Z</time>
      </trkpt>
      <trkpt lat="47.12119" lon="6.72641">
        <ele>957.40002441406</ele>
        <time>2023-05-14T08:35:25.000Z</time>
      </trkpt>
      <trkpt lat="47.1212" lon="6.72648">
        <ele>957.59997558594</ele>
        <time>2023-05-14T08:35:27.000Z</time>
      </trkpt>
      <trkpt lat="47.12122" lon="6.72667">
        <ele>958.79998779297</ele>
        <time>2023-05-14T08:35:34.000Z</time>
      </trkpt>
      <trkpt lat="47.12123" lon="6.72685">
        <ele>959.79998779297</ele>
        <time>2023-05-14T08:35:41.000Z</time>
      </trkpt>
      <trkpt lat="47.12123" lon="6.72691">
        <ele>960</ele>
        <time>2023-05-14T08:35:43.000Z</time>
      </trkpt>
      <trkpt lat="47.12122" lon="6.72705">
        <ele>961</ele>
        <time>2023-05-14T08:35:48.000Z</time>
      </trkpt>
      <trkpt lat="47.12121" lon="6.72714">
        <ele>961.59997558594</ele>
        <time>2023-05-14T08:35:52.000Z</time>
      </trkpt>
      <trkpt lat="47.12119" lon="6.72723">
        <ele>962</ele>
        <time>2023-05-14T08:35:55.000Z</time>
      </trkpt>
      <trkpt lat="47.12117" lon="6.72735">
        <ele>962.79998779297</ele>
        <time>2023-05-14T08:36:00.000Z</time>
      </trkpt>
      <trkpt lat="47.12115" lon="6.7274">
        <ele>963.20001220703</ele>
        <time>2023-05-14T08:36:02.000Z</time>
      </trkpt>
      <trkpt lat="47.1211" lon="6.72754">
        <ele>963.59997558594</ele>
        <time>2023-05-14T08:36:07.000Z</time>
      </trkpt>
      <trkpt lat="47.12101" lon="6.72773">
        <ele>964</ele>
        <time>2023-05-14T08:36:14.000Z</time>
      </trkpt>
      <trkpt lat="47.12098" lon="6.72781">
        <ele>964.20001220703</ele>
        <time>2023-05-14T08:36:17.000Z</time>
      </trkpt>
      <trkpt lat="47.12097" lon="6.72784">
        <ele>964.40002441406</ele>
        <time>2023-05-14T08:36:18.000Z</time>
      </trkpt>
      <trkpt lat="47.12096" lon="6.72786">
        <ele>964.40002441406</ele>
        <time>2023-05-14T08:36:19.000Z</time>
      </trkpt>
      <trkpt lat="47.12096" lon="6.72812">
        <ele>965</ele>
        <time>2023-05-14T08:36:26.000Z</time>
      </trkpt>
      <trkpt lat="47.12093" lon="6.72819">
        <ele>965.40002441406</ele>
        <time>2023-05-14T08:36:29.000Z</time>
      </trkpt>
      <trkpt lat="47.12089" lon="6.72835">
        <ele>966</ele>
        <time>2023-05-14T08:36:35.000Z</time>
      </trkpt>
      <trkpt lat="47.12089" lon="6.72844">
        <ele>966.59997558594</ele>
        <time>2023-05-14T08:36:38.000Z</time>
      </trkpt>
      <trkpt lat="47.12088" lon="6.72856">
        <ele>967.20001220703</ele>
        <time>2023-05-14T08:36:43.000Z</time>
      </trkpt>
      <trkpt lat="47.12088" lon="6.72866">
        <ele>967.59997558594</ele>
        <time>2023-05-14T08:36:47.000Z</time>
      </trkpt>
      <trkpt lat="47.12086" lon="6.72877">
        <ele>968.79998779297</ele>
        <time>2023-05-14T08:36:52.000Z</time>
      </trkpt>
      <trkpt lat="47.12086" lon="6.72883">
        <ele>969.40002441406</ele>
        <time>2023-05-14T08:36:55.000Z</time>
      </trkpt>
      <trkpt lat="47.12087" lon="6.7289">
        <ele>969.79998779297</ele>
        <time>2023-05-14T08:36:58.000Z</time>
      </trkpt>
      <trkpt lat="47.12087" lon="6.72891">
        <ele>970</ele>
        <time>2023-05-14T08:36:59.000Z</time>
      </trkpt>
      <trkpt lat="47.12086" lon="6.72898">
        <ele>970.59997558594</ele>
        <time>2023-05-14T08:37:03.000Z</time>
      </trkpt>
      <trkpt lat="47.12085" lon="6.72902">
        <ele>971.20001220703</ele>
        <time>2023-05-14T08:37:05.000Z</time>
      </trkpt>
      <trkpt lat="47.12086" lon="6.72908">
        <ele>972.40002441406</ele>
        <time>2023-05-14T08:37:08.000Z</time>
      </trkpt>
      <trkpt lat="47.12086" lon="6.72917">
        <ele>973.20001220703</ele>
        <time>2023-05-14T08:37:12.000Z</time>
      </trkpt>
      <trkpt lat="47.12085" lon="6.72919">
        <ele>973.59997558594</ele>
        <time>2023-05-14T08:37:13.000Z</time>
      </trkpt>
      <trkpt lat="47.12086" lon="6.72931">
        <ele>974.20001220703</ele>
        <time>2023-05-14T08:37:18.000Z</time>
      </trkpt>
      <trkpt lat="47.12086" lon="6.72939">
        <ele>974.59997558594</ele>
        <time>2023-05-14T08:37:22.000Z</time>
      </trkpt>
      <trkpt lat="47.12086" lon="6.72944">
        <ele>975</ele>
        <time>2023-05-14T08:37:25.000Z</time>
      </trkpt>
      <trkpt lat="47.12086" lon="6.72949">
        <ele>975.20001220703</ele>
        <time>2023-05-14T08:37:28.000Z</time>
      </trkpt>
      <trkpt lat="47.12086" lon="6.72953">
        <ele>975.79998779297</ele>
        <time>2023-05-14T08:37:30.000Z</time>
      </trkpt>
      <trkpt lat="47.12086" lon="6.72955">
        <ele>976</ele>
        <time>2023-05-14T08:37:31.000Z</time>
      </trkpt>
      <trkpt lat="47.12086" lon="6.7296">
        <ele>976.40002441406</ele>
        <time>2023-05-14T08:37:34.000Z</time>
      </trkpt>
      <trkpt lat="47.12086" lon="6.72965">
        <ele>976.79998779297</ele>
        <time>2023-05-14T08:37:36.000Z</time>
      </trkpt>
      <trkpt lat="47.12087" lon="6.72967">
        <ele>976.79998779297</ele>
        <time>2023-05-14T08:37:37.000Z</time>
      </trkpt>
      <trkpt lat="47.12086" lon="6.72978">
        <ele>977.59997558594</ele>
        <time>2023-05-14T08:37:42.000Z</time>
      </trkpt>
      <trkpt lat="47.12086" lon="6.7298">
        <ele>977.79998779297</ele>
        <time>2023-05-14T08:37:43.000Z</time>
      </trkpt>
      <trkpt lat="47.12089" lon="6.72996">
        <ele>978.79998779297</ele>
        <time>2023-05-14T08:37:50.000Z</time>
      </trkpt>
      <trkpt lat="47.1209" lon="6.72998">
        <ele>979</ele>
        <time>2023-05-14T08:37:51.000Z</time>
      </trkpt>
      <trkpt lat="47.12093" lon="6.73016">
        <ele>980</ele>
        <time>2023-05-14T08:37:58.000Z</time>
      </trkpt>
      <trkpt lat="47.12094" lon="6.7302">
        <ele>980.40002441406</ele>
        <time>2023-05-14T08:38:00.000Z</time>
      </trkpt>
      <trkpt lat="47.12093" lon="6.73026">
        <ele>981.20001220703</ele>
        <time>2023-05-14T08:38:04.000Z</time>
      </trkpt>
      <trkpt lat="47.12094" lon="6.73029">
        <ele>981.40002441406</ele>
        <time>2023-05-14T08:38:06.000Z</time>
      </trkpt>
      <trkpt lat="47.12096" lon="6.73031">
        <ele>981.79998779297</ele>
        <time>2023-05-14T08:38:08.000Z</time>
      </trkpt>
      <trkpt lat="47.12097" lon="6.73036">
        <ele>982.20001220703</ele>
        <time>2023-05-14T08:38:10.000Z</time>
      </trkpt>
      <trkpt lat="47.12098" lon="6.73042">
        <ele>982.79998779297</ele>
        <time>2023-05-14T08:38:13.000Z</time>
      </trkpt>
      <trkpt lat="47.12099" lon="6.73052">
        <ele>983.40002441406</ele>
        <time>2023-05-14T08:38:17.000Z</time>
      </trkpt>
      <trkpt lat="47.121" lon="6.73061">
        <ele>984</ele>
        <time>2023-05-14T08:38:20.000Z</time>
      </trkpt>
      <trkpt lat="47.121" lon="6.73063">
        <ele>984.40002441406</ele>
        <time>2023-05-14T08:38:21.000Z</time>
      </trkpt>
      <trkpt lat="47.12099" lon="6.73076">
        <ele>985.59997558594</ele>
        <time>2023-05-14T08:38:26.000Z</time>
      </trkpt>
      <trkpt lat="47.12099" lon="6.73078">
        <ele>985.79998779297</ele>
        <time>2023-05-14T08:38:27.000Z</time>
      </trkpt>
      <trkpt lat="47.12097" lon="6.73089">
        <ele>987</ele>
        <time>2023-05-14T08:38:32.000Z</time>
      </trkpt>
      <trkpt lat="47.12096" lon="6.73091">
        <ele>987.20001220703</ele>
        <time>2023-05-14T08:38:33.000Z</time>
      </trkpt>
      <trkpt lat="47.12094" lon="6.73097">
        <ele>988.20001220703</ele>
        <time>2023-05-14T08:38:38.000Z</time>
      </trkpt>
      <trkpt lat="47.12092" lon="6.731">
        <ele>988.59997558594</ele>
        <time>2023-05-14T08:38:40.000Z</time>
      </trkpt>
      <trkpt lat="47.12088" lon="6.73109">
        <ele>989</ele>
        <time>2023-05-14T08:38:45.000Z</time>
      </trkpt>
      <trkpt lat="47.12088" lon="6.73114">
        <ele>989.40002441406</ele>
        <time>2023-05-14T08:38:47.000Z</time>
      </trkpt>
      <trkpt lat="47.12087" lon="6.73115">
        <ele>989.59997558594</ele>
        <time>2023-05-14T08:38:48.000Z</time>
      </trkpt>
      <trkpt lat="47.12083" lon="6.73117">
        <ele>990.40002441406</ele>
        <time>2023-05-14T08:38:51.000Z</time>
      </trkpt>
      <trkpt lat="47.12081" lon="6.73123">
        <ele>990.59997558594</ele>
        <time>2023-05-14T08:38:53.000Z</time>
      </trkpt>
      <trkpt lat="47.12077" lon="6.73126">
        <ele>991.40002441406</ele>
        <time>2023-05-14T08:38:56.000Z</time>
      </trkpt>
      <trkpt lat="47.12071" lon="6.7313">
        <ele>992.40002441406</ele>
        <time>2023-05-14T08:39:00.000Z</time>
      </trkpt>
      <trkpt lat="47.1207" lon="6.73132">
        <ele>992.59997558594</ele>
        <time>2023-05-14T08:39:01.000Z</time>
      </trkpt>
      <trkpt lat="47.12068" lon="6.73133">
        <ele>992.79998779297</ele>
        <time>2023-05-14T08:39:02.000Z</time>
      </trkpt>
      <trkpt lat="47.12065" lon="6.73139">
        <ele>993.59997558594</ele>
        <time>2023-05-14T08:39:05.000Z</time>
      </trkpt>
      <trkpt lat="47.12063" lon="6.7314">
        <ele>993.59997558594</ele>
        <time>2023-05-14T08:39:06.000Z</time>
      </trkpt>
      <trkpt lat="47.12058" lon="6.73149">
        <ele>994.59997558594</ele>
        <time>2023-05-14T08:39:11.000Z</time>
      </trkpt>
      <trkpt lat="47.12056" lon="6.73151">
        <ele>995</ele>
        <time>2023-05-14T08:39:13.000Z</time>
      </trkpt>
      <trkpt lat="47.12053" lon="6.73154">
        <ele>995.79998779297</ele>
        <time>2023-05-14T08:39:17.000Z</time>
      </trkpt>
      <trkpt lat="47.1205" lon="6.73161">
        <ele>996.59997558594</ele>
        <time>2023-05-14T08:39:20.000Z</time>
      </trkpt>
      <trkpt lat="47.12047" lon="6.73163">
        <ele>996.79998779297</ele>
        <time>2023-05-14T08:39:22.000Z</time>
      </trkpt>
      <trkpt lat="47.12043" lon="6.73168">
        <ele>997.40002441406</ele>
        <time>2023-05-14T08:39:25.000Z</time>
      </trkpt>
      <trkpt lat="47.12041" lon="6.73168">
        <ele>997.40002441406</ele>
        <time>2023-05-14T08:39:26.000Z</time>
      </trkpt>
      <trkpt lat="47.1204" lon="6.7317">
        <ele>997.79998779297</ele>
        <time>2023-05-14T08:39:27.000Z</time>
      </trkpt>
      <trkpt lat="47.12037" lon="6.73183">
        <ele>999</ele>
        <time>2023-05-14T08:39:35.000Z</time>
      </trkpt>
      <trkpt lat="47.12038" lon="6.7319">
        <ele>1000.200012207</ele>
        <time>2023-05-14T08:39:39.000Z</time>
      </trkpt>
      <trkpt lat="47.12038" lon="6.73194">
        <ele>1000.5999755859</ele>
        <time>2023-05-14T08:39:41.000Z</time>
      </trkpt>
      <trkpt lat="47.12038" lon="6.732">
        <ele>1001.4000244141</ele>
        <time>2023-05-14T08:39:45.000Z</time>
      </trkpt>
      <trkpt lat="47.1204" lon="6.73204">
        <ele>1001.799987793</ele>
        <time>2023-05-14T08:39:47.000Z</time>
      </trkpt>
      <trkpt lat="47.12043" lon="6.7321">
        <ele>1002.4000244141</ele>
        <time>2023-05-14T08:39:50.000Z</time>
      </trkpt>
      <trkpt lat="47.12044" lon="6.73212">
        <ele>1002.5999755859</ele>
        <time>2023-05-14T08:39:51.000Z</time>
      </trkpt>
      <trkpt lat="47.12045" lon="6.73216">
        <ele>1002.799987793</ele>
        <time>2023-05-14T08:39:53.000Z</time>
      </trkpt>
      <trkpt lat="47.12046" lon="6.73218">
        <ele>1003</ele>
        <time>2023-05-14T08:39:54.000Z</time>
      </trkpt>
      <trkpt lat="47.12051" lon="6.73227">
        <ele>1003.5999755859</ele>
        <time>2023-05-14T08:39:59.000Z</time>
      </trkpt>
      <trkpt lat="47.12054" lon="6.73231">
        <ele>1003.799987793</ele>
        <time>2023-05-14T08:40:02.000Z</time>
      </trkpt>
      <trkpt lat="47.12061" lon="6.73245">
        <ele>1004.5999755859</ele>
        <time>2023-05-14T08:40:07.000Z</time>
      </trkpt>
      <trkpt lat="47.12064" lon="6.73253">
        <ele>1004.799987793</ele>
        <time>2023-05-14T08:40:10.000Z</time>
      </trkpt>
      <trkpt lat="47.12074" lon="6.73275">
        <ele>1005.5999755859</ele>
        <time>2023-05-14T08:40:18.000Z</time>
      </trkpt>
      <trkpt lat="47.12075" lon="6.73277">
        <ele>1005.5999755859</ele>
        <time>2023-05-14T08:40:19.000Z</time>
      </trkpt>
      <trkpt lat="47.12079" lon="6.73283">
        <ele>1006.200012207</ele>
        <time>2023-05-14T08:40:24.000Z</time>
      </trkpt>
      <trkpt lat="47.12081" lon="6.7329">
        <ele>1006.5999755859</ele>
        <time>2023-05-14T08:40:27.000Z</time>
      </trkpt>
      <trkpt lat="47.12085" lon="6.73299">
        <ele>1007.200012207</ele>
        <time>2023-05-14T08:40:32.000Z</time>
      </trkpt>
      <trkpt lat="47.12086" lon="6.73301">
        <ele>1007.200012207</ele>
        <time>2023-05-14T08:40:33.000Z</time>
      </trkpt>
      <trkpt lat="47.12088" lon="6.73307">
        <ele>1007.799987793</ele>
        <time>2023-05-14T08:40:36.000Z</time>
      </trkpt>
      <trkpt lat="47.12089" lon="6.73309">
        <ele>1007.799987793</ele>
        <time>2023-05-14T08:40:37.000Z</time>
      </trkpt>
      <trkpt lat="47.12091" lon="6.73315">
        <ele>1008.4000244141</ele>
        <time>2023-05-14T08:40:40.000Z</time>
      </trkpt>
      <trkpt lat="47.12092" lon="6.73317">
        <ele>1008.5999755859</ele>
        <time>2023-05-14T08:40:42.000Z</time>
      </trkpt>
      <trkpt lat="47.12093" lon="6.73319">
        <ele>1008.5999755859</ele>
        <time>2023-05-14T08:40:43.000Z</time>
      </trkpt>
      <trkpt lat="47.12095" lon="6.73323">
        <ele>1009</ele>
        <time>2023-05-14T08:40:45.000Z</time>
      </trkpt>
      <trkpt lat="47.12098" lon="6.73327">
        <ele>1009</ele>
        <time>2023-05-14T08:40:46.000Z</time>
      </trkpt>
      <trkpt lat="47.12101" lon="6.73336">
        <ele>1009.4000244141</ele>
        <time>2023-05-14T08:40:50.000Z</time>
      </trkpt>
      <trkpt lat="47.12103" lon="6.73341">
        <ele>1009.799987793</ele>
        <time>2023-05-14T08:40:53.000Z</time>
      </trkpt>
      <trkpt lat="47.12104" lon="6.73343">
        <ele>1010.200012207</ele>
        <time>2023-05-14T08:40:54.000Z</time>
      </trkpt>
      <trkpt lat="47.12105" lon="6.73347">
        <ele>1010.5999755859</ele>
        <time>2023-05-14T08:40:56.000Z</time>
      </trkpt>
      <trkpt lat="47.12106" lon="6.73364">
        <ele>1011.4000244141</ele>
        <time>2023-05-14T08:41:03.000Z</time>
      </trkpt>
      <trkpt lat="47.12105" lon="6.73374">
        <ele>1012.200012207</ele>
        <time>2023-05-14T08:41:07.000Z</time>
      </trkpt>
      <trkpt lat="47.12105" lon="6.73377">
        <ele>1012.4000244141</ele>
        <time>2023-05-14T08:41:09.000Z</time>
      </trkpt>
      <trkpt lat="47.12099" lon="6.73384">
        <ele>1013.5999755859</ele>
        <time>2023-05-14T08:41:14.000Z</time>
      </trkpt>
      <trkpt lat="47.12099" lon="6.73388">
        <ele>1014.200012207</ele>
        <time>2023-05-14T08:41:17.000Z</time>
      </trkpt>
      <trkpt lat="47.12097" lon="6.73393">
        <ele>1014.5999755859</ele>
        <time>2023-05-14T08:41:19.000Z</time>
      </trkpt>
      <trkpt lat="47.12092" lon="6.73405">
        <ele>1015.5999755859</ele>
        <time>2023-05-14T08:41:24.000Z</time>
      </trkpt>
      <trkpt lat="47.12091" lon="6.73407">
        <ele>1016</ele>
        <time>2023-05-14T08:41:25.000Z</time>
      </trkpt>
      <trkpt lat="47.1209" lon="6.73411">
        <ele>1016.200012207</ele>
        <time>2023-05-14T08:41:27.000Z</time>
      </trkpt>
      <trkpt lat="47.12087" lon="6.73415">
        <ele>1016.799987793</ele>
        <time>2023-05-14T08:41:30.000Z</time>
      </trkpt>
      <trkpt lat="47.12086" lon="6.7342">
        <ele>1017</ele>
        <time>2023-05-14T08:41:34.000Z</time>
      </trkpt>
      <trkpt lat="47.12084" lon="6.73426">
        <ele>1017.799987793</ele>
        <time>2023-05-14T08:41:37.000Z</time>
      </trkpt>
      <trkpt lat="47.12082" lon="6.73433">
        <ele>1018.200012207</ele>
        <time>2023-05-14T08:41:40.000Z</time>
      </trkpt>
      <trkpt lat="47.12079" lon="6.73446">
        <ele>1019</ele>
        <time>2023-05-14T08:41:45.000Z</time>
      </trkpt>
      <trkpt lat="47.12078" lon="6.73448">
        <ele>1019.4000244141</ele>
        <time>2023-05-14T08:41:46.000Z</time>
      </trkpt>
      <trkpt lat="47.12074" lon="6.73459">
        <ele>1020.4000244141</ele>
        <time>2023-05-14T08:41:51.000Z</time>
      </trkpt>
      <trkpt lat="47.12073" lon="6.73463">
        <ele>1020.799987793</ele>
        <time>2023-05-14T08:41:53.000Z</time>
      </trkpt>
      <trkpt lat="47.12073" lon="6.73465">
        <ele>1020.799987793</ele>
        <time>2023-05-14T08:41:54.000Z</time>
      </trkpt>
      <trkpt lat="47.1207" lon="6.73472">
        <ele>1021.4000244141</ele>
        <time>2023-05-14T08:41:58.000Z</time>
      </trkpt>
      <trkpt lat="47.12065" lon="6.73484">
        <ele>1022.5999755859</ele>
        <time>2023-05-14T08:42:04.000Z</time>
      </trkpt>
      <trkpt lat="47.12065" lon="6.73486">
        <ele>1022.5999755859</ele>
        <time>2023-05-14T08:42:05.000Z</time>
      </trkpt>
      <trkpt lat="47.12063" lon="6.73491">
        <ele>1023.200012207</ele>
        <time>2023-05-14T08:42:07.000Z</time>
      </trkpt>
      <trkpt lat="47.12063" lon="6.73496">
        <ele>1023.5999755859</ele>
        <time>2023-05-14T08:42:09.000Z</time>
      </trkpt>
      <trkpt lat="47.12062" lon="6.735">
        <ele>1023.799987793</ele>
        <time>2023-05-14T08:42:11.000Z</time>
      </trkpt>
      <trkpt lat="47.12059" lon="6.73509">
        <ele>1024.5999755859</ele>
        <time>2023-05-14T08:42:16.000Z</time>
      </trkpt>
      <trkpt lat="47.12057" lon="6.73516">
        <ele>1025.4000244141</ele>
        <time>2023-05-14T08:42:20.000Z</time>
      </trkpt>
      <trkpt lat="47.12056" lon="6.7352">
        <ele>1025.5999755859</ele>
        <time>2023-05-14T08:42:22.000Z</time>
      </trkpt>
      <trkpt lat="47.12054" lon="6.73532">
        <ele>1026.4000244141</ele>
        <time>2023-05-14T08:42:28.000Z</time>
      </trkpt>
      <trkpt lat="47.12053" lon="6.73535">
        <ele>1026.5999755859</ele>
        <time>2023-05-14T08:42:29.000Z</time>
      </trkpt>
      <trkpt lat="47.12052" lon="6.73537">
        <ele>1026.8000488281</ele>
        <time>2023-05-14T08:42:30.000Z</time>
      </trkpt>
      <trkpt lat="47.12051" lon="6.73543">
        <ele>1027</ele>
        <time>2023-05-14T08:42:33.000Z</time>
      </trkpt>
      <trkpt lat="47.12046" lon="6.73558">
        <ele>1027.8000488281</ele>
        <time>2023-05-14T08:42:40.000Z</time>
      </trkpt>
      <trkpt lat="47.12046" lon="6.73562">
        <ele>1028</ele>
        <time>2023-05-14T08:42:42.000Z</time>
      </trkpt>
      <trkpt lat="47.12043" lon="6.73573">
        <ele>1028.4000244141</ele>
        <time>2023-05-14T08:42:47.000Z</time>
      </trkpt>
      <trkpt lat="47.12043" lon="6.73576">
        <ele>1028.5999755859</ele>
        <time>2023-05-14T08:42:49.000Z</time>
      </trkpt>
      <trkpt lat="47.12041" lon="6.73583">
        <ele>1029</ele>
        <time>2023-05-14T08:42:52.000Z</time>
      </trkpt>
      <trkpt lat="47.12037" lon="6.73594">
        <ele>1029.4000244141</ele>
        <time>2023-05-14T08:42:57.000Z</time>
      </trkpt>
      <trkpt lat="47.12035" lon="6.73601">
        <ele>1030</ele>
        <time>2023-05-14T08:43:00.000Z</time>
      </trkpt>
      <trkpt lat="47.12032" lon="6.73614">
        <ele>1030.8000488281</ele>
        <time>2023-05-14T08:43:06.000Z</time>
      </trkpt>
      <trkpt lat="47.1203" lon="6.73619">
        <ele>1031</ele>
        <time>2023-05-14T08:43:08.000Z</time>
      </trkpt>
      <trkpt lat="47.12027" lon="6.73631">
        <ele>1031.8000488281</ele>
        <time>2023-05-14T08:43:14.000Z</time>
      </trkpt>
      <trkpt lat="47.12027" lon="6.73636">
        <ele>1032</ele>
        <time>2023-05-14T08:43:17.000Z</time>
      </trkpt>
      <trkpt lat="47.12029" lon="6.73642">
        <ele>1032.5999755859</ele>
        <time>2023-05-14T08:43:21.000Z</time>
      </trkpt>
      <trkpt lat="47.12031" lon="6.73646">
        <ele>1033.1999511719</ele>
        <time>2023-05-14T08:43:24.000Z</time>
      </trkpt>
      <trkpt lat="47.12036" lon="6.73655">
        <ele>1033.8000488281</ele>
        <time>2023-05-14T08:43:29.000Z</time>
      </trkpt>
      <trkpt lat="47.1204" lon="6.7366">
        <ele>1034.1999511719</ele>
        <time>2023-05-14T08:43:32.000Z</time>
      </trkpt>
      <trkpt lat="47.12043" lon="6.73664">
        <ele>1034.4000244141</ele>
        <time>2023-05-14T08:43:34.000Z</time>
      </trkpt>
      <trkpt lat="47.12046" lon="6.73669">
        <ele>1034.5999755859</ele>
        <time>2023-05-14T08:43:36.000Z</time>
      </trkpt>
      <trkpt lat="47.12056" lon="6.7368">
        <ele>1035.1999511719</ele>
        <time>2023-05-14T08:43:42.000Z</time>
      </trkpt>
      <trkpt lat="47.12058" lon="6.73683">
        <ele>1035.5999755859</ele>
        <time>2023-05-14T08:43:44.000Z</time>
      </trkpt>
      <trkpt lat="47.12066" lon="6.73699">
        <ele>1036.1999511719</ele>
        <time>2023-05-14T08:43:51.000Z</time>
      </trkpt>
      <trkpt lat="47.12072" lon="6.73713">
        <ele>1036.4000244141</ele>
        <time>2023-05-14T08:43:56.000Z</time>
      </trkpt>
      <trkpt lat="47.12074" lon="6.73724">
        <ele>1036.5999755859</ele>
        <time>2023-05-14T08:43:59.000Z</time>
      </trkpt>
      <trkpt lat="47.12074" lon="6.73737">
        <ele>1037</ele>
        <time>2023-05-14T08:44:03.000Z</time>
      </trkpt>
      <trkpt lat="47.12074" lon="6.73743">
        <ele>1037.1999511719</ele>
        <time>2023-05-14T08:44:05.000Z</time>
      </trkpt>
      <trkpt lat="47.12075" lon="6.7375">
        <ele>1037.4000244141</ele>
        <time>2023-05-14T08:44:07.000Z</time>
      </trkpt>
      <trkpt lat="47.12077" lon="6.73768">
        <ele>1038.4000244141</ele>
        <time>2023-05-14T08:44:14.000Z</time>
      </trkpt>
      <trkpt lat="47.12077" lon="6.73773">
        <ele>1038.8000488281</ele>
        <time>2023-05-14T08:44:16.000Z</time>
      </trkpt>
      <trkpt lat="47.12076" lon="6.7378">
        <ele>1039.4000244141</ele>
        <time>2023-05-14T08:44:19.000Z</time>
      </trkpt>
      <trkpt lat="47.12074" lon="6.73811">
        <ele>1039.8000488281</ele>
        <time>2023-05-14T08:44:30.000Z</time>
      </trkpt>
      <trkpt lat="47.12076" lon="6.73834">
        <ele>1040.4000244141</ele>
        <time>2023-05-14T08:44:38.000Z</time>
      </trkpt>
      <trkpt lat="47.1208" lon="6.73847">
        <ele>1040.8000488281</ele>
        <time>2023-05-14T08:44:42.000Z</time>
      </trkpt>
      <trkpt lat="47.12086" lon="6.73864">
        <ele>1041</ele>
        <time>2023-05-14T08:44:47.000Z</time>
      </trkpt>
      <trkpt lat="47.12096" lon="6.7389">
        <ele>1040.8000488281</ele>
        <time>2023-05-14T08:44:54.000Z</time>
      </trkpt>
      <trkpt lat="47.12103" lon="6.73913">
        <ele>1040</ele>
        <time>2023-05-14T08:45:00.000Z</time>
      </trkpt>
      <trkpt lat="47.12104" lon="6.73917">
        <ele>1040</ele>
        <time>2023-05-14T08:45:01.000Z</time>
      </trkpt>
      <trkpt lat="47.12105" lon="6.73921">
        <ele>1039.8000488281</ele>
        <time>2023-05-14T08:45:02.000Z</time>
      </trkpt>
      <trkpt lat="47.12107" lon="6.73932">
        <ele>1039.4000244141</ele>
        <time>2023-05-14T08:45:06.000Z</time>
      </trkpt>
      <trkpt lat="47.1211" lon="6.73941">
        <ele>1039</ele>
        <time>2023-05-14T08:45:10.000Z</time>
      </trkpt>
      <trkpt lat="47.12111" lon="6.73952">
        <ele>1039</ele>
        <time>2023-05-14T08:45:13.000Z</time>
      </trkpt>
      <trkpt lat="47.1211" lon="6.73983">
        <ele>1038.5999755859</ele>
        <time>2023-05-14T08:45:17.000Z</time>
      </trkpt>
      <trkpt lat="47.12106" lon="6.74011">
        <ele>1037.5999755859</ele>
        <time>2023-05-14T08:45:20.000Z</time>
      </trkpt>
      <trkpt lat="47.12103" lon="6.74028">
        <ele>1036.5999755859</ele>
        <time>2023-05-14T08:45:22.000Z</time>
      </trkpt>
      <trkpt lat="47.121" lon="6.74042">
        <ele>1035.4000244141</ele>
        <time>2023-05-14T08:45:25.000Z</time>
      </trkpt>
      <trkpt lat="47.121" lon="6.74045">
        <ele>1035</ele>
        <time>2023-05-14T08:45:26.000Z</time>
      </trkpt>
      <trkpt lat="47.12101" lon="6.74073">
        <ele>1034.4000244141</ele>
        <time>2023-05-14T08:45:32.000Z</time>
      </trkpt>
      <trkpt lat="47.121" lon="6.74093">
        <ele>1034.4000244141</ele>
        <time>2023-05-14T08:45:36.000Z</time>
      </trkpt>
      <trkpt lat="47.12101" lon="6.74102">
        <ele>1034.4000244141</ele>
        <time>2023-05-14T08:45:38.000Z</time>
      </trkpt>
      <trkpt lat="47.12103" lon="6.74118">
        <ele>1034.4000244141</ele>
        <time>2023-05-14T08:45:43.000Z</time>
      </trkpt>
      <trkpt lat="47.12105" lon="6.74141">
        <ele>1034.8000488281</ele>
        <time>2023-05-14T08:45:49.000Z</time>
      </trkpt>
      <trkpt lat="47.12104" lon="6.74159">
        <ele>1035</ele>
        <time>2023-05-14T08:45:52.000Z</time>
      </trkpt>
      <trkpt lat="47.12106" lon="6.74181">
        <ele>1035.1999511719</ele>
        <time>2023-05-14T08:45:57.000Z</time>
      </trkpt>
      <trkpt lat="47.12107" lon="6.74192">
        <ele>1035.4000244141</ele>
        <time>2023-05-14T08:46:00.000Z</time>
      </trkpt>
      <trkpt lat="47.12109" lon="6.74212">
        <ele>1035.8000488281</ele>
        <time>2023-05-14T08:46:04.000Z</time>
      </trkpt>
      <trkpt lat="47.1211" lon="6.74227">
        <ele>1036.4000244141</ele>
        <time>2023-05-14T08:46:08.000Z</time>
      </trkpt>
      <trkpt lat="47.12111" lon="6.74245">
        <ele>1037</ele>
        <time>2023-05-14T08:46:11.000Z</time>
      </trkpt>
      <trkpt lat="47.12112" lon="6.74261">
        <ele>1037.5999755859</ele>
        <time>2023-05-14T08:46:14.000Z</time>
      </trkpt>
      <trkpt lat="47.12114" lon="6.74277">
        <ele>1038.1999511719</ele>
        <time>2023-05-14T08:46:18.000Z</time>
      </trkpt>
      <trkpt lat="47.12114" lon="6.7429">
        <ele>1038.5999755859</ele>
        <time>2023-05-14T08:46:21.000Z</time>
      </trkpt>
      <trkpt lat="47.12112" lon="6.74312">
        <ele>1038.8000488281</ele>
        <time>2023-05-14T08:46:27.000Z</time>
      </trkpt>
      <trkpt lat="47.12112" lon="6.74332">
        <ele>1038.5999755859</ele>
        <time>2023-05-14T08:46:34.000Z</time>
      </trkpt>
      <trkpt lat="47.1211" lon="6.74347">
        <ele>1038.5999755859</ele>
        <time>2023-05-14T08:46:40.000Z</time>
      </trkpt>
      <trkpt lat="47.1211" lon="6.7435">
        <ele>1038.4000244141</ele>
        <time>2023-05-14T08:46:41.000Z</time>
      </trkpt>
      <trkpt lat="47.12111" lon="6.74367">
        <ele>1038</ele>
        <time>2023-05-14T08:46:45.000Z</time>
      </trkpt>
      <trkpt lat="47.12112" lon="6.74372">
        <ele>1037.8000488281</ele>
        <time>2023-05-14T08:46:46.000Z</time>
      </trkpt>
      <trkpt lat="47.12113" lon="6.74383">
        <ele>1037.4000244141</ele>
        <time>2023-05-14T08:46:48.000Z</time>
      </trkpt>
      <trkpt lat="47.12114" lon="6.74408">
        <ele>1036.4000244141</ele>
        <time>2023-05-14T08:46:52.000Z</time>
      </trkpt>
      <trkpt lat="47.12113" lon="6.74415">
        <ele>1035.4000244141</ele>
        <time>2023-05-14T08:46:53.000Z</time>
      </trkpt>
      <trkpt lat="47.12113" lon="6.74423">
        <ele>1034.8000488281</ele>
        <time>2023-05-14T08:46:54.000Z</time>
      </trkpt>
      <trkpt lat="47.12112" lon="6.74434">
        <ele>1033.8000488281</ele>
        <time>2023-05-14T08:46:56.000Z</time>
      </trkpt>
      <trkpt lat="47.12111" lon="6.74453">
        <ele>1032.1999511719</ele>
        <time>2023-05-14T08:46:59.000Z</time>
      </trkpt>
      <trkpt lat="47.12111" lon="6.7446">
        <ele>1031</ele>
        <time>2023-05-14T08:47:00.000Z</time>
      </trkpt>
      <trkpt lat="47.12111" lon="6.74472">
        <ele>1029.5999755859</ele>
        <time>2023-05-14T08:47:03.000Z</time>
      </trkpt>
      <trkpt lat="47.12111" lon="6.74476">
        <ele>1029</ele>
        <time>2023-05-14T08:47:04.000Z</time>
      </trkpt>
      <trkpt lat="47.12113" lon="6.74484">
        <ele>1028</ele>
        <time>2023-05-14T08:47:06.000Z</time>
      </trkpt>
      <trkpt lat="47.12114" lon="6.74502">
        <ele>1027</ele>
        <time>2023-05-14T08:47:10.000Z</time>
      </trkpt>
      <trkpt lat="47.12115" lon="6.74505">
        <ele>1027</ele>
        <time>2023-05-14T08:47:11.000Z</time>
      </trkpt>
      <trkpt lat="47.1212" lon="6.74535">
        <ele>1026.8000488281</ele>
        <time>2023-05-14T08:47:18.000Z</time>
      </trkpt>
      <trkpt lat="47.12122" lon="6.74559">
        <ele>1027</ele>
        <time>2023-05-14T08:47:23.000Z</time>
      </trkpt>
      <trkpt lat="47.12122" lon="6.74584">
        <ele>1027.4000244141</ele>
        <time>2023-05-14T08:47:30.000Z</time>
      </trkpt>
      <trkpt lat="47.12125" lon="6.74614">
        <ele>1027.1999511719</ele>
        <time>2023-05-14T08:47:38.000Z</time>
      </trkpt>
      <trkpt lat="47.12126" lon="6.74629">
        <ele>1026.8000488281</ele>
        <time>2023-05-14T08:47:43.000Z</time>
      </trkpt>
      <trkpt lat="47.12125" lon="6.7466">
        <ele>1026.5999755859</ele>
        <time>2023-05-14T08:47:51.000Z</time>
      </trkpt>
      <trkpt lat="47.12122" lon="6.74678">
        <ele>1026.1999511719</ele>
        <time>2023-05-14T08:47:54.000Z</time>
      </trkpt>
      <trkpt lat="47.12119" lon="6.74691">
        <ele>1025.5999755859</ele>
        <time>2023-05-14T08:47:56.000Z</time>
      </trkpt>
      <trkpt lat="47.12116" lon="6.74714">
        <ele>1025</ele>
        <time>2023-05-14T08:47:59.000Z</time>
      </trkpt>
      <trkpt lat="47.12114" lon="6.74736">
        <ele>1024.8000488281</ele>
        <time>2023-05-14T08:48:02.000Z</time>
      </trkpt>
      <trkpt lat="47.12114" lon="6.74744">
        <ele>1024.5999755859</ele>
        <time>2023-05-14T08:48:03.000Z</time>
      </trkpt>
      <trkpt lat="47.12113" lon="6.74778">
        <ele>1023.799987793</ele>
        <time>2023-05-14T08:48:08.000Z</time>
      </trkpt>
      <trkpt lat="47.1211" lon="6.74817">
        <ele>1023.4000244141</ele>
        <time>2023-05-14T08:48:14.000Z</time>
      </trkpt>
      <trkpt lat="47.12109" lon="6.74857">
        <ele>1022.5999755859</ele>
        <time>2023-05-14T08:48:20.000Z</time>
      </trkpt>
      <trkpt lat="47.12107" lon="6.74871">
        <ele>1022.200012207</ele>
        <time>2023-05-14T08:48:22.000Z</time>
      </trkpt>
      <trkpt lat="47.12107" lon="6.74897">
        <ele>1021</ele>
        <time>2023-05-14T08:48:26.000Z</time>
      </trkpt>
      <trkpt lat="47.12102" lon="6.74923">
        <ele>1019.799987793</ele>
        <time>2023-05-14T08:48:30.000Z</time>
      </trkpt>
      <trkpt lat="47.12099" lon="6.74934">
        <ele>1019</ele>
        <time>2023-05-14T08:48:32.000Z</time>
      </trkpt>
      <trkpt lat="47.12098" lon="6.74939">
        <ele>1018.5999755859</ele>
        <time>2023-05-14T08:48:33.000Z</time>
      </trkpt>
      <trkpt lat="47.12093" lon="6.74956">
        <ele>1017.5999755859</ele>
        <time>2023-05-14T08:48:36.000Z</time>
      </trkpt>
      <trkpt lat="47.12089" lon="6.74973">
        <ele>1016.200012207</ele>
        <time>2023-05-14T08:48:39.000Z</time>
      </trkpt>
      <trkpt lat="47.12087" lon="6.74984">
        <ele>1015.799987793</ele>
        <time>2023-05-14T08:48:41.000Z</time>
      </trkpt>
      <trkpt lat="47.12086" lon="6.7499">
        <ele>1015</ele>
        <time>2023-05-14T08:48:42.000Z</time>
      </trkpt>
      <trkpt lat="47.12085" lon="6.75001">
        <ele>1013.4000244141</ele>
        <time>2023-05-14T08:48:44.000Z</time>
      </trkpt>
      <trkpt lat="47.12087" lon="6.75014">
        <ele>1012.4000244141</ele>
        <time>2023-05-14T08:48:46.000Z</time>
      </trkpt>
      <trkpt lat="47.12087" lon="6.7502">
        <ele>1012.200012207</ele>
        <time>2023-05-14T08:48:47.000Z</time>
      </trkpt>
      <trkpt lat="47.12089" lon="6.75035">
        <ele>1010.200012207</ele>
        <time>2023-05-14T08:48:50.000Z</time>
      </trkpt>
      <trkpt lat="47.1209" lon="6.75046">
        <ele>1009.4000244141</ele>
        <time>2023-05-14T08:48:53.000Z</time>
      </trkpt>
      <trkpt lat="47.12091" lon="6.75049">
        <ele>1009.200012207</ele>
        <time>2023-05-14T08:48:54.000Z</time>
      </trkpt>
      <trkpt lat="47.12095" lon="6.75068">
        <ele>1008.200012207</ele>
        <time>2023-05-14T08:49:00.000Z</time>
      </trkpt>
      <trkpt lat="47.12096" lon="6.7509">
        <ele>1007.799987793</ele>
        <time>2023-05-14T08:49:08.000Z</time>
      </trkpt>
      <trkpt lat="47.12096" lon="6.75112">
        <ele>1007.799987793</ele>
        <time>2023-05-14T08:49:14.000Z</time>
      </trkpt>
      <trkpt lat="47.12097" lon="6.75126">
        <ele>1007.4000244141</ele>
        <time>2023-05-14T08:49:19.000Z</time>
      </trkpt>
      <trkpt lat="47.12096" lon="6.75127">
        <ele>1007.200012207</ele>
        <time>2023-05-14T08:49:20.000Z</time>
      </trkpt>
      <trkpt lat="47.12095" lon="6.75129">
        <ele>1007</ele>
        <time>2023-05-14T08:49:21.000Z</time>
      </trkpt>
      <trkpt lat="47.12092" lon="6.7513">
        <ele>1006.799987793</ele>
        <time>2023-05-14T08:49:23.000Z</time>
      </trkpt>
      <trkpt lat="47.12089" lon="6.75126">
        <ele>1006</ele>
        <time>2023-05-14T08:49:25.000Z</time>
      </trkpt>
      <trkpt lat="47.12087" lon="6.75122">
        <ele>1006</ele>
        <time>2023-05-14T08:49:26.000Z</time>
      </trkpt>
      <trkpt lat="47.12079" lon="6.75106">
        <ele>1005</ele>
        <time>2023-05-14T08:49:29.000Z</time>
      </trkpt>
      <trkpt lat="47.12076" lon="6.75101">
        <ele>1004.799987793</ele>
        <time>2023-05-14T08:49:30.000Z</time>
      </trkpt>
      <trkpt lat="47.12064" lon="6.75083">
        <ele>1003.799987793</ele>
        <time>2023-05-14T08:49:34.000Z</time>
      </trkpt>
      <trkpt lat="47.12061" lon="6.7508">
        <ele>1003.4000244141</ele>
        <time>2023-05-14T08:49:35.000Z</time>
      </trkpt>
      <trkpt lat="47.12056" lon="6.75074">
        <ele>1002.4000244141</ele>
        <time>2023-05-14T08:49:37.000Z</time>
      </trkpt>
      <trkpt lat="47.1205" lon="6.7507">
        <ele>1001.4000244141</ele>
        <time>2023-05-14T08:49:40.000Z</time>
      </trkpt>
      <trkpt lat="47.12046" lon="6.75063">
        <ele>1000.200012207</ele>
        <time>2023-05-14T08:49:43.000Z</time>
      </trkpt>
      <trkpt lat="47.12041" lon="6.75056">
        <ele>1000</ele>
        <time>2023-05-14T08:49:45.000Z</time>
      </trkpt>
      <trkpt lat="47.12031" lon="6.75041">
        <ele>999.20001220703</ele>
        <time>2023-05-14T08:49:48.000Z</time>
      </trkpt>
      <trkpt lat="47.12025" lon="6.75028">
        <ele>998.20001220703</ele>
        <time>2023-05-14T08:49:50.000Z</time>
      </trkpt>
      <trkpt lat="47.12022" lon="6.75022">
        <ele>998</ele>
        <time>2023-05-14T08:49:51.000Z</time>
      </trkpt>
      <trkpt lat="47.12011" lon="6.74993">
        <ele>997.20001220703</ele>
        <time>2023-05-14T08:49:56.000Z</time>
      </trkpt>
      <trkpt lat="47.12009" lon="6.74988">
        <ele>997</ele>
        <time>2023-05-14T08:49:57.000Z</time>
      </trkpt>
      <trkpt lat="47.11992" lon="6.7495">
        <ele>996.40002441406</ele>
        <time>2023-05-14T08:50:03.000Z</time>
      </trkpt>
      <trkpt lat="47.1198" lon="6.74926">
        <ele>995.59997558594</ele>
        <time>2023-05-14T08:50:06.000Z</time>
      </trkpt>
      <trkpt lat="47.11967" lon="6.74899">
        <ele>994.40002441406</ele>
        <time>2023-05-14T08:50:09.000Z</time>
      </trkpt>
      <trkpt lat="47.11954" lon="6.74872">
        <ele>993</ele>
        <time>2023-05-14T08:50:12.000Z</time>
      </trkpt>
      <trkpt lat="47.11941" lon="6.74843">
        <ele>991.79998779297</ele>
        <time>2023-05-14T08:50:15.000Z</time>
      </trkpt>
      <trkpt lat="47.11937" lon="6.74831">
        <ele>991.59997558594</ele>
        <time>2023-05-14T08:50:16.000Z</time>
      </trkpt>
      <trkpt lat="47.11927" lon="6.74803">
        <ele>990</ele>
        <time>2023-05-14T08:50:19.000Z</time>
      </trkpt>
      <trkpt lat="47.11924" lon="6.74793">
        <ele>989.59997558594</ele>
        <time>2023-05-14T08:50:20.000Z</time>
      </trkpt>
      <trkpt lat="47.1192" lon="6.74782">
        <ele>988.79998779297</ele>
        <time>2023-05-14T08:50:21.000Z</time>
      </trkpt>
      <trkpt lat="47.1191" lon="6.74759">
        <ele>987.59997558594</ele>
        <time>2023-05-14T08:50:24.000Z</time>
      </trkpt>
      <trkpt lat="47.11906" lon="6.74753">
        <ele>987.59997558594</ele>
        <time>2023-05-14T08:50:25.000Z</time>
      </trkpt>
      <trkpt lat="47.11902" lon="6.74748">
        <ele>987.40002441406</ele>
        <time>2023-05-14T08:50:26.000Z</time>
      </trkpt>
      <trkpt lat="47.1189" lon="6.74737">
        <ele>987</ele>
        <time>2023-05-14T08:50:29.000Z</time>
      </trkpt>
      <trkpt lat="47.11883" lon="6.74728">
        <ele>986</ele>
        <time>2023-05-14T08:50:31.000Z</time>
      </trkpt>
      <trkpt lat="47.11879" lon="6.74723">
        <ele>985.20001220703</ele>
        <time>2023-05-14T08:50:32.000Z</time>
      </trkpt>
      <trkpt lat="47.11874" lon="6.74719">
        <ele>984</ele>
        <time>2023-05-14T08:50:33.000Z</time>
      </trkpt>
      <trkpt lat="47.11865" lon="6.7471">
        <ele>982.59997558594</ele>
        <time>2023-05-14T08:50:35.000Z</time>
      </trkpt>
      <trkpt lat="47.1186" lon="6.74707">
        <ele>982.20001220703</ele>
        <time>2023-05-14T08:50:36.000Z</time>
      </trkpt>
      <trkpt lat="47.11856" lon="6.74703">
        <ele>981</ele>
        <time>2023-05-14T08:50:37.000Z</time>
      </trkpt>
      <trkpt lat="47.11852" lon="6.74699">
        <ele>980.59997558594</ele>
        <time>2023-05-14T08:50:38.000Z</time>
      </trkpt>
      <trkpt lat="47.11848" lon="6.74696">
        <ele>980</ele>
        <time>2023-05-14T08:50:39.000Z</time>
      </trkpt>
      <trkpt lat="47.11842" lon="6.74692">
        <ele>978.79998779297</ele>
        <time>2023-05-14T08:50:40.000Z</time>
      </trkpt>
      <trkpt lat="47.11839" lon="6.74689">
        <ele>978.40002441406</ele>
        <time>2023-05-14T08:50:41.000Z</time>
      </trkpt>
      <trkpt lat="47.11834" lon="6.74685">
        <ele>977.79998779297</ele>
        <time>2023-05-14T08:50:42.000Z</time>
      </trkpt>
      <trkpt lat="47.11823" lon="6.74677">
        <ele>976.59997558594</ele>
        <time>2023-05-14T08:50:45.000Z</time>
      </trkpt>
      <trkpt lat="47.11817" lon="6.74673">
        <ele>975.20001220703</ele>
        <time>2023-05-14T08:50:46.000Z</time>
      </trkpt>
      <trkpt lat="47.11812" lon="6.74669">
        <ele>974</ele>
        <time>2023-05-14T08:50:47.000Z</time>
      </trkpt>
      <trkpt lat="47.11799" lon="6.74662">
        <ele>972</ele>
        <time>2023-05-14T08:50:49.000Z</time>
      </trkpt>
      <trkpt lat="47.11785" lon="6.74647">
        <ele>969.79998779297</ele>
        <time>2023-05-14T08:50:51.000Z</time>
      </trkpt>
      <trkpt lat="47.11772" lon="6.74633">
        <ele>968.20001220703</ele>
        <time>2023-05-14T08:50:53.000Z</time>
      </trkpt>
      <trkpt lat="47.11761" lon="6.74622">
        <ele>967.20001220703</ele>
        <time>2023-05-14T08:50:55.000Z</time>
      </trkpt>
      <trkpt lat="47.11746" lon="6.74607">
        <ele>965.79998779297</ele>
        <time>2023-05-14T08:50:57.000Z</time>
      </trkpt>
      <trkpt lat="47.1174" lon="6.74601">
        <ele>964.40002441406</ele>
        <time>2023-05-14T08:50:58.000Z</time>
      </trkpt>
      <trkpt lat="47.11731" lon="6.7459">
        <ele>963</ele>
        <time>2023-05-14T08:51:00.000Z</time>
      </trkpt>
      <trkpt lat="47.11722" lon="6.74579">
        <ele>961.79998779297</ele>
        <time>2023-05-14T08:51:02.000Z</time>
      </trkpt>
      <trkpt lat="47.11713" lon="6.7457">
        <ele>960.59997558594</ele>
        <time>2023-05-14T08:51:04.000Z</time>
      </trkpt>
      <trkpt lat="47.1171" lon="6.74565">
        <ele>959.59997558594</ele>
        <time>2023-05-14T08:51:05.000Z</time>
      </trkpt>
      <trkpt lat="47.11701" lon="6.74557">
        <ele>958</ele>
        <time>2023-05-14T08:51:07.000Z</time>
      </trkpt>
      <trkpt lat="47.11691" lon="6.74547">
        <ele>955.79998779297</ele>
        <time>2023-05-14T08:51:09.000Z</time>
      </trkpt>
      <trkpt lat="47.11677" lon="6.74536">
        <ele>953.79998779297</ele>
        <time>2023-05-14T08:51:11.000Z</time>
      </trkpt>
      <trkpt lat="47.11663" lon="6.74528">
        <ele>953.20001220703</ele>
        <time>2023-05-14T08:51:13.000Z</time>
      </trkpt>
      <trkpt lat="47.11656" lon="6.74524">
        <ele>951</ele>
        <time>2023-05-14T08:51:14.000Z</time>
      </trkpt>
      <trkpt lat="47.11647" lon="6.74518">
        <ele>950.20001220703</ele>
        <time>2023-05-14T08:51:15.000Z</time>
      </trkpt>
      <trkpt lat="47.11643" lon="6.74515">
        <ele>949.40002441406</ele>
        <time>2023-05-14T08:51:16.000Z</time>
      </trkpt>
      <trkpt lat="47.11636" lon="6.74504">
        <ele>948.40002441406</ele>
        <time>2023-05-14T08:51:18.000Z</time>
      </trkpt>
      <trkpt lat="47.11632" lon="6.74498">
        <ele>947.59997558594</ele>
        <time>2023-05-14T08:51:19.000Z</time>
      </trkpt>
      <trkpt lat="47.11626" lon="6.74493">
        <ele>946.59997558594</ele>
        <time>2023-05-14T08:51:20.000Z</time>
      </trkpt>
      <trkpt lat="47.1162" lon="6.74488">
        <ele>945</ele>
        <time>2023-05-14T08:51:21.000Z</time>
      </trkpt>
      <trkpt lat="47.11615" lon="6.74484">
        <ele>944.59997558594</ele>
        <time>2023-05-14T08:51:22.000Z</time>
      </trkpt>
      <trkpt lat="47.11601" lon="6.74473">
        <ele>944</ele>
        <time>2023-05-14T08:51:24.000Z</time>
      </trkpt>
      <trkpt lat="47.11595" lon="6.7447">
        <ele>942.59997558594</ele>
        <time>2023-05-14T08:51:25.000Z</time>
      </trkpt>
      <trkpt lat="47.11581" lon="6.74464">
        <ele>940.40002441406</ele>
        <time>2023-05-14T08:51:27.000Z</time>
      </trkpt>
      <trkpt lat="47.11575" lon="6.74463">
        <ele>940</ele>
        <time>2023-05-14T08:51:28.000Z</time>
      </trkpt>
      <trkpt lat="47.11568" lon="6.74463">
        <ele>938.79998779297</ele>
        <time>2023-05-14T08:51:29.000Z</time>
      </trkpt>
      <trkpt lat="47.11564" lon="6.74465">
        <ele>937.59997558594</ele>
        <time>2023-05-14T08:51:30.000Z</time>
      </trkpt>
      <trkpt lat="47.1156" lon="6.74471">
        <ele>937</ele>
        <time>2023-05-14T08:51:31.000Z</time>
      </trkpt>
      <trkpt lat="47.11558" lon="6.74476">
        <ele>935.79998779297</ele>
        <time>2023-05-14T08:51:32.000Z</time>
      </trkpt>
      <trkpt lat="47.11553" lon="6.74487">
        <ele>934</ele>
        <time>2023-05-14T08:51:34.000Z</time>
      </trkpt>
      <trkpt lat="47.11551" lon="6.74492">
        <ele>933.59997558594</ele>
        <time>2023-05-14T08:51:35.000Z</time>
      </trkpt>
      <trkpt lat="47.11549" lon="6.74496">
        <ele>932.20001220703</ele>
        <time>2023-05-14T08:51:37.000Z</time>
      </trkpt>
      <trkpt lat="47.11544" lon="6.74498">
        <ele>930.79998779297</ele>
        <time>2023-05-14T08:51:39.000Z</time>
      </trkpt>
      <trkpt lat="47.1154" lon="6.74502">
        <ele>929.79998779297</ele>
        <time>2023-05-14T08:51:41.000Z</time>
      </trkpt>
      <trkpt lat="47.11533" lon="6.74512">
        <ele>929</ele>
        <time>2023-05-14T08:51:43.000Z</time>
      </trkpt>
      <trkpt lat="47.11529" lon="6.74516">
        <ele>928.59997558594</ele>
        <time>2023-05-14T08:51:45.000Z</time>
      </trkpt>
      <trkpt lat="47.11525" lon="6.74519">
        <ele>927.79998779297</ele>
        <time>2023-05-14T08:51:47.000Z</time>
      </trkpt>
      <trkpt lat="47.11523" lon="6.74519">
        <ele>927.20001220703</ele>
        <time>2023-05-14T08:51:48.000Z</time>
      </trkpt>
      <trkpt lat="47.11521" lon="6.74519">
        <ele>927</ele>
        <time>2023-05-14T08:51:49.000Z</time>
      </trkpt>
      <trkpt lat="47.11514" lon="6.74515">
        <ele>926</ele>
        <time>2023-05-14T08:51:52.000Z</time>
      </trkpt>
      <trkpt lat="47.11512" lon="6.74515">
        <ele>925.79998779297</ele>
        <time>2023-05-14T08:51:53.000Z</time>
      </trkpt>
      <trkpt lat="47.11501" lon="6.74511">
        <ele>924.79998779297</ele>
        <time>2023-05-14T08:51:56.000Z</time>
      </trkpt>
      <trkpt lat="47.11496" lon="6.74508">
        <ele>923.59997558594</ele>
        <time>2023-05-14T08:51:58.000Z</time>
      </trkpt>
      <trkpt lat="47.11491" lon="6.74505">
        <ele>922.59997558594</ele>
        <time>2023-05-14T08:52:00.000Z</time>
      </trkpt>
      <trkpt lat="47.11486" lon="6.74502">
        <ele>920.79998779297</ele>
        <time>2023-05-14T08:52:02.000Z</time>
      </trkpt>
      <trkpt lat="47.11472" lon="6.74492">
        <ele>919.79998779297</ele>
        <time>2023-05-14T08:52:06.000Z</time>
      </trkpt>
      <trkpt lat="47.11465" lon="6.74486">
        <ele>919.20001220703</ele>
        <time>2023-05-14T08:52:08.000Z</time>
      </trkpt>
      <trkpt lat="47.11455" lon="6.74481">
        <ele>918.40002441406</ele>
        <time>2023-05-14T08:52:10.000Z</time>
      </trkpt>
      <trkpt lat="47.11451" lon="6.74479">
        <ele>917.79998779297</ele>
        <time>2023-05-14T08:52:11.000Z</time>
      </trkpt>
      <trkpt lat="47.1144" lon="6.74474">
        <ele>915.79998779297</ele>
        <time>2023-05-14T08:52:13.000Z</time>
      </trkpt>
      <trkpt lat="47.11431" lon="6.74469">
        <ele>914.20001220703</ele>
        <time>2023-05-14T08:52:15.000Z</time>
      </trkpt>
      <trkpt lat="47.11428" lon="6.74468">
        <ele>913.79998779297</ele>
        <time>2023-05-14T08:52:16.000Z</time>
      </trkpt>
      <trkpt lat="47.11425" lon="6.74466">
        <ele>913.20001220703</ele>
        <time>2023-05-14T08:52:17.000Z</time>
      </trkpt>
      <trkpt lat="47.11415" lon="6.74455">
        <ele>912.20001220703</ele>
        <time>2023-05-14T08:52:21.000Z</time>
      </trkpt>
      <trkpt lat="47.11412" lon="6.74454">
        <ele>912</ele>
        <time>2023-05-14T08:52:22.000Z</time>
      </trkpt>
      <trkpt lat="47.11405" lon="6.74448">
        <ele>910.40002441406</ele>
        <time>2023-05-14T08:52:26.000Z</time>
      </trkpt>
      <trkpt lat="47.11405" lon="6.74448">
        <ele>909.40002441406</ele>
        <time>2023-05-14T08:52:28.000Z</time>
      </trkpt>
      <trkpt lat="47.11402" lon="6.74441">
        <ele>907.20001220703</ele>
        <time>2023-05-14T08:52:43.000Z</time>
      </trkpt>
      <trkpt lat="47.114" lon="6.7444">
        <ele>907</ele>
        <time>2023-05-14T08:52:44.000Z</time>
      </trkpt>
      <trkpt lat="47.11395" lon="6.74432">
        <ele>906.79998779297</ele>
        <time>2023-05-14T08:52:47.000Z</time>
      </trkpt>
      <trkpt lat="47.11393" lon="6.74428">
        <ele>905.79998779297</ele>
        <time>2023-05-14T08:52:49.000Z</time>
      </trkpt>
      <trkpt lat="47.11385" lon="6.74418">
        <ele>904.59997558594</ele>
        <time>2023-05-14T08:52:53.000Z</time>
      </trkpt>
      <trkpt lat="47.11382" lon="6.74411">
        <ele>904</ele>
        <time>2023-05-14T08:52:55.000Z</time>
      </trkpt>
      <trkpt lat="47.11381" lon="6.74408">
        <ele>903.59997558594</ele>
        <time>2023-05-14T08:52:56.000Z</time>
      </trkpt>
      <trkpt lat="47.1137" lon="6.74396">
        <ele>902.40002441406</ele>
        <time>2023-05-14T08:53:00.000Z</time>
      </trkpt>
      <trkpt lat="47.11369" lon="6.74392">
        <ele>901.79998779297</ele>
        <time>2023-05-14T08:53:01.000Z</time>
      </trkpt>
      <trkpt lat="47.11365" lon="6.74386">
        <ele>900.79998779297</ele>
        <time>2023-05-14T08:53:03.000Z</time>
      </trkpt>
      <trkpt lat="47.11361" lon="6.74372">
        <ele>899.40002441406</ele>
        <time>2023-05-14T08:53:07.000Z</time>
      </trkpt>
      <trkpt lat="47.1136" lon="6.74366">
        <ele>898.40002441406</ele>
        <time>2023-05-14T08:53:09.000Z</time>
      </trkpt>
      <trkpt lat="47.11354" lon="6.74354">
        <ele>897.20001220703</ele>
        <time>2023-05-14T08:53:12.000Z</time>
      </trkpt>
      <trkpt lat="47.11347" lon="6.74343">
        <ele>896</ele>
        <time>2023-05-14T08:53:15.000Z</time>
      </trkpt>
      <trkpt lat="47.11347" lon="6.74339">
        <ele>895</ele>
        <time>2023-05-14T08:53:16.000Z</time>
      </trkpt>
      <trkpt lat="47.11347" lon="6.74336">
        <ele>894.59997558594</ele>
        <time>2023-05-14T08:53:17.000Z</time>
      </trkpt>
      <trkpt lat="47.11345" lon="6.74334">
        <ele>893.79998779297</ele>
        <time>2023-05-14T08:53:18.000Z</time>
      </trkpt>
      <trkpt lat="47.11344" lon="6.74331">
        <ele>892.79998779297</ele>
        <time>2023-05-14T08:53:19.000Z</time>
      </trkpt>
      <trkpt lat="47.11344" lon="6.74325">
        <ele>891.59997558594</ele>
        <time>2023-05-14T08:53:21.000Z</time>
      </trkpt>
      <trkpt lat="47.11345" lon="6.74318">
        <ele>890.79998779297</ele>
        <time>2023-05-14T08:53:24.000Z</time>
      </trkpt>
      <trkpt lat="47.11345" lon="6.74316">
        <ele>890.59997558594</ele>
        <time>2023-05-14T08:53:25.000Z</time>
      </trkpt>
      <trkpt lat="47.11346" lon="6.74307">
        <ele>889.40002441406</ele>
        <time>2023-05-14T08:53:28.000Z</time>
      </trkpt>
      <trkpt lat="47.11345" lon="6.74302">
        <ele>888</ele>
        <time>2023-05-14T08:53:30.000Z</time>
      </trkpt>
      <trkpt lat="47.11347" lon="6.74292">
        <ele>886.79998779297</ele>
        <time>2023-05-14T08:53:33.000Z</time>
      </trkpt>
      <trkpt lat="47.11347" lon="6.74289">
        <ele>886.40002441406</ele>
        <time>2023-05-14T08:53:34.000Z</time>
      </trkpt>
      <trkpt lat="47.11346" lon="6.74285">
        <ele>886</ele>
        <time>2023-05-14T08:53:35.000Z</time>
      </trkpt>
      <trkpt lat="47.11339" lon="6.74276">
        <ele>885.20001220703</ele>
        <time>2023-05-14T08:53:37.000Z</time>
      </trkpt>
      <trkpt lat="47.11334" lon="6.74265">
        <ele>884.20001220703</ele>
        <time>2023-05-14T08:53:39.000Z</time>
      </trkpt>
      <trkpt lat="47.11334" lon="6.7425">
        <ele>882.79998779297</ele>
        <time>2023-05-14T08:53:42.000Z</time>
      </trkpt>
      <trkpt lat="47.11332" lon="6.74239">
        <ele>881.59997558594</ele>
        <time>2023-05-14T08:53:44.000Z</time>
      </trkpt>
      <trkpt lat="47.1133" lon="6.74229">
        <ele>879.40002441406</ele>
        <time>2023-05-14T08:53:46.000Z</time>
      </trkpt>
      <trkpt lat="47.11329" lon="6.7422">
        <ele>877.79998779297</ele>
        <time>2023-05-14T08:53:48.000Z</time>
      </trkpt>
      <trkpt lat="47.11329" lon="6.74216">
        <ele>877.59997558594</ele>
        <time>2023-05-14T08:53:49.000Z</time>
      </trkpt>
      <trkpt lat="47.11329" lon="6.74212">
        <ele>876.79998779297</ele>
        <time>2023-05-14T08:53:50.000Z</time>
      </trkpt>
      <trkpt lat="47.11326" lon="6.74198">
        <ele>874.79998779297</ele>
        <time>2023-05-14T08:53:53.000Z</time>
      </trkpt>
      <trkpt lat="47.11324" lon="6.74195">
        <ele>874.40002441406</ele>
        <time>2023-05-14T08:53:54.000Z</time>
      </trkpt>
      <trkpt lat="47.11324" lon="6.74191">
        <ele>873.59997558594</ele>
        <time>2023-05-14T08:53:55.000Z</time>
      </trkpt>
      <trkpt lat="47.11323" lon="6.74184">
        <ele>872.40002441406</ele>
        <time>2023-05-14T08:53:57.000Z</time>
      </trkpt>
      <trkpt lat="47.11324" lon="6.74177">
        <ele>871.20001220703</ele>
        <time>2023-05-14T08:53:59.000Z</time>
      </trkpt>
      <trkpt lat="47.11323" lon="6.74171">
        <ele>870.20001220703</ele>
        <time>2023-05-14T08:54:01.000Z</time>
      </trkpt>
      <trkpt lat="47.11322" lon="6.74167">
        <ele>869.79998779297</ele>
        <time>2023-05-14T08:54:02.000Z</time>
      </trkpt>
      <trkpt lat="47.1132" lon="6.7416">
        <ele>868.79998779297</ele>
        <time>2023-05-14T08:54:04.000Z</time>
      </trkpt>
      <trkpt lat="47.11316" lon="6.74152">
        <ele>867.59997558594</ele>
        <time>2023-05-14T08:54:06.000Z</time>
      </trkpt>
      <trkpt lat="47.11312" lon="6.74145">
        <ele>866.20001220703</ele>
        <time>2023-05-14T08:54:08.000Z</time>
      </trkpt>
      <trkpt lat="47.11312" lon="6.74138">
        <ele>865.20001220703</ele>
        <time>2023-05-14T08:54:10.000Z</time>
      </trkpt>
      <trkpt lat="47.11313" lon="6.74135">
        <ele>864.20001220703</ele>
        <time>2023-05-14T08:54:11.000Z</time>
      </trkpt>
      <trkpt lat="47.11315" lon="6.74131">
        <ele>864</ele>
        <time>2023-05-14T08:54:12.000Z</time>
      </trkpt>
      <trkpt lat="47.11317" lon="6.74125">
        <ele>863</ele>
        <time>2023-05-14T08:54:14.000Z</time>
      </trkpt>
      <trkpt lat="47.11317" lon="6.7412">
        <ele>862.40002441406</ele>
        <time>2023-05-14T08:54:15.000Z</time>
      </trkpt>
      <trkpt lat="47.11318" lon="6.74108">
        <ele>861</ele>
        <time>2023-05-14T08:54:17.000Z</time>
      </trkpt>
      <trkpt lat="47.11319" lon="6.74103">
        <ele>860</ele>
        <time>2023-05-14T08:54:18.000Z</time>
      </trkpt>
      <trkpt lat="47.11319" lon="6.74092">
        <ele>859</ele>
        <time>2023-05-14T08:54:20.000Z</time>
      </trkpt>
      <trkpt lat="47.11319" lon="6.74078">
        <ele>857.59997558594</ele>
        <time>2023-05-14T08:54:22.000Z</time>
      </trkpt>
      <trkpt lat="47.11318" lon="6.74062">
        <ele>856.79998779297</ele>
        <time>2023-05-14T08:54:24.000Z</time>
      </trkpt>
      <trkpt lat="47.11319" lon="6.74054">
        <ele>856.59997558594</ele>
        <time>2023-05-14T08:54:25.000Z</time>
      </trkpt>
      <trkpt lat="47.11317" lon="6.74039">
        <ele>855.20001220703</ele>
        <time>2023-05-14T08:54:27.000Z</time>
      </trkpt>
      <trkpt lat="47.1132" lon="6.74028">
        <ele>854</ele>
        <time>2023-05-14T08:54:29.000Z</time>
      </trkpt>
      <trkpt lat="47.11321" lon="6.74018">
        <ele>853.20001220703</ele>
        <time>2023-05-14T08:54:31.000Z</time>
      </trkpt>
      <trkpt lat="47.11317" lon="6.74011">
        <ele>852.79998779297</ele>
        <time>2023-05-14T08:54:32.000Z</time>
      </trkpt>
      <trkpt lat="47.11313" lon="6.74006">
        <ele>852.40002441406</ele>
        <time>2023-05-14T08:54:33.000Z</time>
      </trkpt>
      <trkpt lat="47.11308" lon="6.74">
        <ele>851.79998779297</ele>
        <time>2023-05-14T08:54:34.000Z</time>
      </trkpt>
      <trkpt lat="47.11306" lon="6.73997">
        <ele>851.40002441406</ele>
        <time>2023-05-14T08:54:35.000Z</time>
      </trkpt>
      <trkpt lat="47.11304" lon="6.73994">
        <ele>850.79998779297</ele>
        <time>2023-05-14T08:54:36.000Z</time>
      </trkpt>
      <trkpt lat="47.113" lon="6.73988">
        <ele>850.20001220703</ele>
        <time>2023-05-14T08:54:38.000Z</time>
      </trkpt>
      <trkpt lat="47.11296" lon="6.73977">
        <ele>848.79998779297</ele>
        <time>2023-05-14T08:54:41.000Z</time>
      </trkpt>
      <trkpt lat="47.11274" lon="6.73957">
        <ele>848</ele>
        <time>2023-05-14T08:54:47.000Z</time>
      </trkpt>
      <trkpt lat="47.11269" lon="6.73952">
        <ele>847.59997558594</ele>
        <time>2023-05-14T08:54:49.000Z</time>
      </trkpt>
      <trkpt lat="47.11263" lon="6.73942">
        <ele>846</ele>
        <time>2023-05-14T08:54:52.000Z</time>
      </trkpt>
      <trkpt lat="47.11253" lon="6.73933">
        <ele>844.79998779297</ele>
        <time>2023-05-14T08:54:55.000Z</time>
      </trkpt>
      <trkpt lat="47.11248" lon="6.73924">
        <ele>844.20001220703</ele>
        <time>2023-05-14T08:54:57.000Z</time>
      </trkpt>
      <trkpt lat="47.11245" lon="6.73921">
        <ele>843.59997558594</ele>
        <time>2023-05-14T08:54:58.000Z</time>
      </trkpt>
      <trkpt lat="47.11237" lon="6.73909">
        <ele>841.79998779297</ele>
        <time>2023-05-14T08:55:01.000Z</time>
      </trkpt>
      <trkpt lat="47.11234" lon="6.73905">
        <ele>841.59997558594</ele>
        <time>2023-05-14T08:55:02.000Z</time>
      </trkpt>
      <trkpt lat="47.11228" lon="6.73897">
        <ele>840.59997558594</ele>
        <time>2023-05-14T08:55:04.000Z</time>
      </trkpt>
      <trkpt lat="47.11221" lon="6.73891">
        <ele>839</ele>
        <time>2023-05-14T08:55:06.000Z</time>
      </trkpt>
      <trkpt lat="47.11214" lon="6.73887">
        <ele>837.59997558594</ele>
        <time>2023-05-14T08:55:08.000Z</time>
      </trkpt>
      <trkpt lat="47.11204" lon="6.73882">
        <ele>836.40002441406</ele>
        <time>2023-05-14T08:55:11.000Z</time>
      </trkpt>
      <trkpt lat="47.11201" lon="6.7388">
        <ele>835.40002441406</ele>
        <time>2023-05-14T08:55:12.000Z</time>
      </trkpt>
      <trkpt lat="47.11198" lon="6.73878">
        <ele>835.20001220703</ele>
        <time>2023-05-14T08:55:13.000Z</time>
      </trkpt>
      <trkpt lat="47.11193" lon="6.73872">
        <ele>833.79998779297</ele>
        <time>2023-05-14T08:55:16.000Z</time>
      </trkpt>
      <trkpt lat="47.1119" lon="6.73869">
        <ele>832.79998779297</ele>
        <time>2023-05-14T08:55:18.000Z</time>
      </trkpt>
      <trkpt lat="47.1119" lon="6.73869">
        <ele>831.59997558594</ele>
        <time>2023-05-14T08:55:21.000Z</time>
      </trkpt>
      <trkpt lat="47.11187" lon="6.73865">
        <ele>830.40002441406</ele>
        <time>2023-05-14T09:02:59.000Z</time>
      </trkpt>
      <trkpt lat="47.11184" lon="6.73862">
        <ele>830.40002441406</ele>
        <time>2023-05-14T09:03:00.000Z</time>
      </trkpt>
      <trkpt lat="47.11182" lon="6.73859">
        <ele>830.20001220703</ele>
        <time>2023-05-14T09:03:01.000Z</time>
      </trkpt>
      <trkpt lat="47.11165" lon="6.73836">
        <ele>829.79998779297</ele>
        <time>2023-05-14T09:03:09.000Z</time>
      </trkpt>
      <trkpt lat="47.11157" lon="6.73823">
        <ele>829.79998779297</ele>
        <time>2023-05-14T09:03:14.000Z</time>
      </trkpt>
      <trkpt lat="47.11151" lon="6.73808">
        <ele>830.40002441406</ele>
        <time>2023-05-14T09:03:18.000Z</time>
      </trkpt>
      <trkpt lat="47.11147" lon="6.73792">
        <ele>830.59997558594</ele>
        <time>2023-05-14T09:03:23.000Z</time>
      </trkpt>
      <trkpt lat="47.11139" lon="6.73777">
        <ele>831.20001220703</ele>
        <time>2023-05-14T09:03:29.000Z</time>
      </trkpt>
      <trkpt lat="47.11133" lon="6.73766">
        <ele>831.40002441406</ele>
        <time>2023-05-14T09:03:32.000Z</time>
      </trkpt>
      <trkpt lat="47.11128" lon="6.7376">
        <ele>831.59997558594</ele>
        <time>2023-05-14T09:03:34.000Z</time>
      </trkpt>
      <trkpt lat="47.11125" lon="6.73756">
        <ele>831.79998779297</ele>
        <time>2023-05-14T09:03:36.000Z</time>
      </trkpt>
      <trkpt lat="47.11121" lon="6.73752">
        <ele>832</ele>
        <time>2023-05-14T09:03:38.000Z</time>
      </trkpt>
      <trkpt lat="47.11116" lon="6.73743">
        <ele>832.20001220703</ele>
        <time>2023-05-14T09:03:41.000Z</time>
      </trkpt>
      <trkpt lat="47.11107" lon="6.73729">
        <ele>832.40002441406</ele>
        <time>2023-05-14T09:03:45.000Z</time>
      </trkpt>
      <trkpt lat="47.11095" lon="6.73712">
        <ele>832</ele>
        <time>2023-05-14T09:03:50.000Z</time>
      </trkpt>
      <trkpt lat="47.11085" lon="6.73692">
        <ele>831.79998779297</ele>
        <time>2023-05-14T09:03:56.000Z</time>
      </trkpt>
      <trkpt lat="47.11074" lon="6.73679">
        <ele>831.59997558594</ele>
        <time>2023-05-14T09:04:01.000Z</time>
      </trkpt>
      <trkpt lat="47.11063" lon="6.73671">
        <ele>832</ele>
        <time>2023-05-14T09:04:06.000Z</time>
      </trkpt>
      <trkpt lat="47.11042" lon="6.73661">
        <ele>832.59997558594</ele>
        <time>2023-05-14T09:04:13.000Z</time>
      </trkpt>
      <trkpt lat="47.11035" lon="6.73656">
        <ele>833.40002441406</ele>
        <time>2023-05-14T09:04:16.000Z</time>
      </trkpt>
      <trkpt lat="47.11023" lon="6.73651">
        <ele>834.20001220703</ele>
        <time>2023-05-14T09:04:20.000Z</time>
      </trkpt>
      <trkpt lat="47.1102" lon="6.7365">
        <ele>834.40002441406</ele>
        <time>2023-05-14T09:04:21.000Z</time>
      </trkpt>
      <trkpt lat="47.11011" lon="6.73647">
        <ele>835</ele>
        <time>2023-05-14T09:04:24.000Z</time>
      </trkpt>
      <trkpt lat="47.11002" lon="6.73644">
        <ele>835.59997558594</ele>
        <time>2023-05-14T09:04:27.000Z</time>
      </trkpt>
      <trkpt lat="47.10997" lon="6.73637">
        <ele>836.79998779297</ele>
        <time>2023-05-14T09:04:30.000Z</time>
      </trkpt>
      <trkpt lat="47.10995" lon="6.73635">
        <ele>837.20001220703</ele>
        <time>2023-05-14T09:04:31.000Z</time>
      </trkpt>
      <trkpt lat="47.10991" lon="6.7363">
        <ele>838</ele>
        <time>2023-05-14T09:04:33.000Z</time>
      </trkpt>
      <trkpt lat="47.10974" lon="6.73628">
        <ele>838.79998779297</ele>
        <time>2023-05-14T09:04:39.000Z</time>
      </trkpt>
      <trkpt lat="47.10967" lon="6.7364">
        <ele>840</ele>
        <time>2023-05-14T09:04:43.000Z</time>
      </trkpt>
      <trkpt lat="47.10963" lon="6.73648">
        <ele>840.59997558594</ele>
        <time>2023-05-14T09:04:46.000Z</time>
      </trkpt>
      <trkpt lat="47.10961" lon="6.73652">
        <ele>841</ele>
        <time>2023-05-14T09:04:48.000Z</time>
      </trkpt>
      <trkpt lat="47.10958" lon="6.73655">
        <ele>841.20001220703</ele>
        <time>2023-05-14T09:04:50.000Z</time>
      </trkpt>
      <trkpt lat="47.10951" lon="6.73661">
        <ele>841.59997558594</ele>
        <time>2023-05-14T09:04:55.000Z</time>
      </trkpt>
      <trkpt lat="47.1094" lon="6.73663">
        <ele>842.20001220703</ele>
        <time>2023-05-14T09:04:59.000Z</time>
      </trkpt>
      <trkpt lat="47.10924" lon="6.73662">
        <ele>843</ele>
        <time>2023-05-14T09:05:05.000Z</time>
      </trkpt>
      <trkpt lat="47.10916" lon="6.73657">
        <ele>843.40002441406</ele>
        <time>2023-05-14T09:05:08.000Z</time>
      </trkpt>
      <trkpt lat="47.10913" lon="6.73655">
        <ele>843.40002441406</ele>
        <time>2023-05-14T09:05:09.000Z</time>
      </trkpt>
      <trkpt lat="47.10899" lon="6.73646">
        <ele>844.20001220703</ele>
        <time>2023-05-14T09:05:17.000Z</time>
      </trkpt>
      <trkpt lat="47.1089" lon="6.7364">
        <ele>844.40002441406</ele>
        <time>2023-05-14T09:05:21.000Z</time>
      </trkpt>
      <trkpt lat="47.10881" lon="6.73636">
        <ele>845</ele>
        <time>2023-05-14T09:05:24.000Z</time>
      </trkpt>
      <trkpt lat="47.10866" lon="6.73629">
        <ele>845.59997558594</ele>
        <time>2023-05-14T09:05:30.000Z</time>
      </trkpt>
      <trkpt lat="47.10863" lon="6.73627">
        <ele>845.59997558594</ele>
        <time>2023-05-14T09:05:31.000Z</time>
      </trkpt>
      <trkpt lat="47.10846" lon="6.73621">
        <ele>845.79998779297</ele>
        <time>2023-05-14T09:05:37.000Z</time>
      </trkpt>
      <trkpt lat="47.10834" lon="6.73618">
        <ele>846</ele>
        <time>2023-05-14T09:05:42.000Z</time>
      </trkpt>
      <trkpt lat="47.10814" lon="6.73616">
        <ele>846</ele>
        <time>2023-05-14T09:05:49.000Z</time>
      </trkpt>
      <trkpt lat="47.10793" lon="6.73606">
        <ele>846.20001220703</ele>
        <time>2023-05-14T09:05:56.000Z</time>
      </trkpt>
      <trkpt lat="47.1077" lon="6.73595">
        <ele>845.40002441406</ele>
        <time>2023-05-14T09:06:03.000Z</time>
      </trkpt>
      <trkpt lat="47.10753" lon="6.73583">
        <ele>845.20001220703</ele>
        <time>2023-05-14T09:06:09.000Z</time>
      </trkpt>
      <trkpt lat="47.10742" lon="6.73571">
        <ele>845.20001220703</ele>
        <time>2023-05-14T09:06:13.000Z</time>
      </trkpt>
      <trkpt lat="47.10739" lon="6.73569">
        <ele>845.20001220703</ele>
        <time>2023-05-14T09:06:14.000Z</time>
      </trkpt>
      <trkpt lat="47.10727" lon="6.73561">
        <ele>844.59997558594</ele>
        <time>2023-05-14T09:06:18.000Z</time>
      </trkpt>
      <trkpt lat="47.10717" lon="6.73553">
        <ele>844.40002441406</ele>
        <time>2023-05-14T09:06:21.000Z</time>
      </trkpt>
      <trkpt lat="47.10713" lon="6.7355">
        <ele>844.20001220703</ele>
        <time>2023-05-14T09:06:22.000Z</time>
      </trkpt>
      <trkpt lat="47.10708" lon="6.73547">
        <ele>844</ele>
        <time>2023-05-14T09:06:23.000Z</time>
      </trkpt>
      <trkpt lat="47.10689" lon="6.73533">
        <ele>843.59997558594</ele>
        <time>2023-05-14T09:06:27.000Z</time>
      </trkpt>
      <trkpt lat="47.10686" lon="6.7353">
        <ele>843.20001220703</ele>
        <time>2023-05-14T09:06:28.000Z</time>
      </trkpt>
      <trkpt lat="47.10668" lon="6.73522">
        <ele>842.59997558594</ele>
        <time>2023-05-14T09:06:33.000Z</time>
      </trkpt>
      <trkpt lat="47.10656" lon="6.73519">
        <ele>842.20001220703</ele>
        <time>2023-05-14T09:06:36.000Z</time>
      </trkpt>
      <trkpt lat="47.10644" lon="6.73518">
        <ele>842.40002441406</ele>
        <time>2023-05-14T09:06:40.000Z</time>
      </trkpt>
      <trkpt lat="47.10628" lon="6.73513">
        <ele>842.79998779297</ele>
        <time>2023-05-14T09:06:46.000Z</time>
      </trkpt>
      <trkpt lat="47.1061" lon="6.73501">
        <ele>842.79998779297</ele>
        <time>2023-05-14T09:06:53.000Z</time>
      </trkpt>
      <trkpt lat="47.10579" lon="6.7348">
        <ele>843</ele>
        <time>2023-05-14T09:07:00.000Z</time>
      </trkpt>
      <trkpt lat="47.10565" lon="6.73467">
        <ele>843.40002441406</ele>
        <time>2023-05-14T09:07:04.000Z</time>
      </trkpt>
      <trkpt lat="47.10562" lon="6.73464">
        <ele>843.59997558594</ele>
        <time>2023-05-14T09:07:05.000Z</time>
      </trkpt>
      <trkpt lat="47.1054" lon="6.73437">
        <ele>844.59997558594</ele>
        <time>2023-05-14T09:07:12.000Z</time>
      </trkpt>
      <trkpt lat="47.10531" lon="6.73421">
        <ele>845.59997558594</ele>
        <time>2023-05-14T09:07:18.000Z</time>
      </trkpt>
      <trkpt lat="47.10525" lon="6.73415">
        <ele>846.79998779297</ele>
        <time>2023-05-14T09:07:21.000Z</time>
      </trkpt>
      <trkpt lat="47.10516" lon="6.73406">
        <ele>848</ele>
        <time>2023-05-14T09:07:25.000Z</time>
      </trkpt>
      <trkpt lat="47.10512" lon="6.73403">
        <ele>848.40002441406</ele>
        <time>2023-05-14T09:07:27.000Z</time>
      </trkpt>
      <trkpt lat="47.10496" lon="6.73398">
        <ele>848.79998779297</ele>
        <time>2023-05-14T09:07:33.000Z</time>
      </trkpt>
      <trkpt lat="47.10483" lon="6.73396">
        <ele>849.20001220703</ele>
        <time>2023-05-14T09:07:38.000Z</time>
      </trkpt>
      <trkpt lat="47.10473" lon="6.73393">
        <ele>849.20001220703</ele>
        <time>2023-05-14T09:07:42.000Z</time>
      </trkpt>
      <trkpt lat="47.10466" lon="6.73393">
        <ele>850.20001220703</ele>
        <time>2023-05-14T09:07:45.000Z</time>
      </trkpt>
      <trkpt lat="47.10455" lon="6.73389">
        <ele>851.20001220703</ele>
        <time>2023-05-14T09:07:50.000Z</time>
      </trkpt>
      <trkpt lat="47.10451" lon="6.73389">
        <ele>851.59997558594</ele>
        <time>2023-05-14T09:07:52.000Z</time>
      </trkpt>
      <trkpt lat="47.10444" lon="6.73387">
        <ele>852.79998779297</ele>
        <time>2023-05-14T09:07:56.000Z</time>
      </trkpt>
      <trkpt lat="47.10435" lon="6.73385">
        <ele>853.59997558594</ele>
        <time>2023-05-14T09:08:01.000Z</time>
      </trkpt>
      <trkpt lat="47.10433" lon="6.73384">
        <ele>853.79998779297</ele>
        <time>2023-05-14T09:08:02.000Z</time>
      </trkpt>
      <trkpt lat="47.10424" lon="6.73381">
        <ele>854.79998779297</ele>
        <time>2023-05-14T09:08:08.000Z</time>
      </trkpt>
      <trkpt lat="47.10422" lon="6.73381">
        <ele>854.79998779297</ele>
        <time>2023-05-14T09:08:09.000Z</time>
      </trkpt>
      <trkpt lat="47.10414" lon="6.73378">
        <ele>856</ele>
        <time>2023-05-14T09:08:14.000Z</time>
      </trkpt>
      <trkpt lat="47.10406" lon="6.73375">
        <ele>856.79998779297</ele>
        <time>2023-05-14T09:08:19.000Z</time>
      </trkpt>
      <trkpt lat="47.10403" lon="6.73374">
        <ele>857.20001220703</ele>
        <time>2023-05-14T09:08:21.000Z</time>
      </trkpt>
      <trkpt lat="47.10394" lon="6.73371">
        <ele>857.79998779297</ele>
        <time>2023-05-14T09:08:26.000Z</time>
      </trkpt>
      <trkpt lat="47.10387" lon="6.73368">
        <ele>858.40002441406</ele>
        <time>2023-05-14T09:08:30.000Z</time>
      </trkpt>
      <trkpt lat="47.10379" lon="6.73364">
        <ele>859</ele>
        <time>2023-05-14T09:08:34.000Z</time>
      </trkpt>
      <trkpt lat="47.10373" lon="6.73361">
        <ele>859.59997558594</ele>
        <time>2023-05-14T09:08:37.000Z</time>
      </trkpt>
      <trkpt lat="47.10362" lon="6.73353">
        <ele>860.59997558594</ele>
        <time>2023-05-14T09:08:43.000Z</time>
      </trkpt>
      <trkpt lat="47.10361" lon="6.73353">
        <ele>860.59997558594</ele>
        <time>2023-05-14T09:08:44.000Z</time>
      </trkpt>
      <trkpt lat="47.10348" lon="6.73346">
        <ele>861.79998779297</ele>
        <time>2023-05-14T09:08:51.000Z</time>
      </trkpt>
      <trkpt lat="47.10345" lon="6.73345">
        <ele>862</ele>
        <time>2023-05-14T09:08:52.000Z</time>
      </trkpt>
      <trkpt lat="47.10338" lon="6.73341">
        <ele>863</ele>
        <time>2023-05-14T09:08:56.000Z</time>
      </trkpt>
      <trkpt lat="47.10332" lon="6.73339">
        <ele>863.59997558594</ele>
        <time>2023-05-14T09:08:59.000Z</time>
      </trkpt>
      <trkpt lat="47.10319" lon="6.73335">
        <ele>864.20001220703</ele>
        <time>2023-05-14T09:09:06.000Z</time>
      </trkpt>
      <trkpt lat="47.10314" lon="6.73333">
        <ele>864.40002441406</ele>
        <time>2023-05-14T09:09:09.000Z</time>
      </trkpt>
      <trkpt lat="47.10294" lon="6.73321">
        <ele>865.20001220703</ele>
        <time>2023-05-14T09:09:19.000Z</time>
      </trkpt>
      <trkpt lat="47.10292" lon="6.7332">
        <ele>865.20001220703</ele>
        <time>2023-05-14T09:09:20.000Z</time>
      </trkpt>
      <trkpt lat="47.10279" lon="6.73313">
        <ele>866.20001220703</ele>
        <time>2023-05-14T09:09:27.000Z</time>
      </trkpt>
      <trkpt lat="47.10275" lon="6.73311">
        <ele>866.40002441406</ele>
        <time>2023-05-14T09:09:29.000Z</time>
      </trkpt>
      <trkpt lat="47.10267" lon="6.73307">
        <ele>866.59997558594</ele>
        <time>2023-05-14T09:09:34.000Z</time>
      </trkpt>
      <trkpt lat="47.10262" lon="6.73306">
        <ele>867.20001220703</ele>
        <time>2023-05-14T09:09:38.000Z</time>
      </trkpt>
      <trkpt lat="47.1025" lon="6.73307">
        <ele>867.40002441406</ele>
        <time>2023-05-14T09:09:45.000Z</time>
      </trkpt>
      <trkpt lat="47.10239" lon="6.73303">
        <ele>867.40002441406</ele>
        <time>2023-05-14T09:09:51.000Z</time>
      </trkpt>
      <trkpt lat="47.10237" lon="6.73301">
        <ele>867.20001220703</ele>
        <time>2023-05-14T09:09:52.000Z</time>
      </trkpt>
      <trkpt lat="47.10229" lon="6.73296">
        <ele>867.20001220703</ele>
        <time>2023-05-14T09:09:56.000Z</time>
      </trkpt>
      <trkpt lat="47.10222" lon="6.73289">
        <ele>867</ele>
        <time>2023-05-14T09:10:00.000Z</time>
      </trkpt>
      <trkpt lat="47.10209" lon="6.73269">
        <ele>867.40002441406</ele>
        <time>2023-05-14T09:10:08.000Z</time>
      </trkpt>
      <trkpt lat="47.10205" lon="6.73262">
        <ele>867.59997558594</ele>
        <time>2023-05-14T09:10:11.000Z</time>
      </trkpt>
      <trkpt lat="47.10194" lon="6.73244">
        <ele>868.59997558594</ele>
        <time>2023-05-14T09:10:18.000Z</time>
      </trkpt>
      <trkpt lat="47.10193" lon="6.73241">
        <ele>868.79998779297</ele>
        <time>2023-05-14T09:10:19.000Z</time>
      </trkpt>
      <trkpt lat="47.10183" lon="6.73223">
        <ele>869.79998779297</ele>
        <time>2023-05-14T09:10:26.000Z</time>
      </trkpt>
      <trkpt lat="47.10178" lon="6.73215">
        <ele>870</ele>
        <time>2023-05-14T09:10:29.000Z</time>
      </trkpt>
      <trkpt lat="47.10158" lon="6.7318">
        <ele>870.79998779297</ele>
        <time>2023-05-14T09:10:40.000Z</time>
      </trkpt>
      <trkpt lat="47.10156" lon="6.73177">
        <ele>870.79998779297</ele>
        <time>2023-05-14T09:10:41.000Z</time>
      </trkpt>
      <trkpt lat="47.10144" lon="6.73148">
        <ele>871.79998779297</ele>
        <time>2023-05-14T09:10:49.000Z</time>
      </trkpt>
      <trkpt lat="47.10142" lon="6.73145">
        <ele>871.79998779297</ele>
        <time>2023-05-14T09:10:50.000Z</time>
      </trkpt>
      <trkpt lat="47.10133" lon="6.73117">
        <ele>872.79998779297</ele>
        <time>2023-05-14T09:10:57.000Z</time>
      </trkpt>
      <trkpt lat="47.1013" lon="6.73109">
        <ele>873.20001220703</ele>
        <time>2023-05-14T09:10:59.000Z</time>
      </trkpt>
      <trkpt lat="47.10118" lon="6.73077">
        <ele>873.59997558594</ele>
        <time>2023-05-14T09:11:06.000Z</time>
      </trkpt>
      <trkpt lat="47.10111" lon="6.73058">
        <ele>874.20001220703</ele>
        <time>2023-05-14T09:11:10.000Z</time>
      </trkpt>
      <trkpt lat="47.10105" lon="6.7304">
        <ele>874.59997558594</ele>
        <time>2023-05-14T09:11:14.000Z</time>
      </trkpt>
      <trkpt lat="47.10096" lon="6.7301">
        <ele>874.40002441406</ele>
        <time>2023-05-14T09:11:21.000Z</time>
      </trkpt>
      <trkpt lat="47.10084" lon="6.72977">
        <ele>874</ele>
        <time>2023-05-14T09:11:27.000Z</time>
      </trkpt>
      <trkpt lat="47.10074" lon="6.72945">
        <ele>873.40002441406</ele>
        <time>2023-05-14T09:11:33.000Z</time>
      </trkpt>
      <trkpt lat="47.10069" lon="6.7293">
        <ele>873.20001220703</ele>
        <time>2023-05-14T09:11:36.000Z</time>
      </trkpt>
      <trkpt lat="47.10068" lon="6.72925">
        <ele>873.20001220703</ele>
        <time>2023-05-14T09:11:37.000Z</time>
      </trkpt>
      <trkpt lat="47.10067" lon="6.7292">
        <ele>873.20001220703</ele>
        <time>2023-05-14T09:11:38.000Z</time>
      </trkpt>
      <trkpt lat="47.10065" lon="6.72905">
        <ele>873</ele>
        <time>2023-05-14T09:11:41.000Z</time>
      </trkpt>
      <trkpt lat="47.10064" lon="6.72895">
        <ele>873</ele>
        <time>2023-05-14T09:11:43.000Z</time>
      </trkpt>
      <trkpt lat="47.10065" lon="6.72852">
        <ele>873</ele>
        <time>2023-05-14T09:11:50.000Z</time>
      </trkpt>
      <trkpt lat="47.10069" lon="6.72806">
        <ele>872.79998779297</ele>
        <time>2023-05-14T09:11:56.000Z</time>
      </trkpt>
      <trkpt lat="47.1007" lon="6.72797">
        <ele>872.79998779297</ele>
        <time>2023-05-14T09:11:57.000Z</time>
      </trkpt>
      <trkpt lat="47.10068" lon="6.72771">
        <ele>872.59997558594</ele>
        <time>2023-05-14T09:12:00.000Z</time>
      </trkpt>
      <trkpt lat="47.10067" lon="6.72763">
        <ele>872.20001220703</ele>
        <time>2023-05-14T09:12:01.000Z</time>
      </trkpt>
      <trkpt lat="47.10058" lon="6.72723">
        <ele>871.20001220703</ele>
        <time>2023-05-14T09:12:06.000Z</time>
      </trkpt>
      <trkpt lat="47.10056" lon="6.72716">
        <ele>871</ele>
        <time>2023-05-14T09:12:07.000Z</time>
      </trkpt>
      <trkpt lat="47.10054" lon="6.72709">
        <ele>871</ele>
        <time>2023-05-14T09:12:08.000Z</time>
      </trkpt>
      <trkpt lat="47.10051" lon="6.72697">
        <ele>870.59997558594</ele>
        <time>2023-05-14T09:12:10.000Z</time>
      </trkpt>
      <trkpt lat="47.10047" lon="6.72686">
        <ele>870.59997558594</ele>
        <time>2023-05-14T09:12:12.000Z</time>
      </trkpt>
      <trkpt lat="47.10044" lon="6.7268">
        <ele>870.59997558594</ele>
        <time>2023-05-14T09:12:13.000Z</time>
      </trkpt>
      <trkpt lat="47.10033" lon="6.7266">
        <ele>871</ele>
        <time>2023-05-14T09:12:17.000Z</time>
      </trkpt>
      <trkpt lat="47.10022" lon="6.72641">
        <ele>872.40002441406</ele>
        <time>2023-05-14T09:12:21.000Z</time>
      </trkpt>
      <trkpt lat="47.10013" lon="6.72629">
        <ele>873.20001220703</ele>
        <time>2023-05-14T09:12:24.000Z</time>
      </trkpt>
      <trkpt lat="47.1001" lon="6.72625">
        <ele>873.59997558594</ele>
        <time>2023-05-14T09:12:25.000Z</time>
      </trkpt>
      <trkpt lat="47.10008" lon="6.7262">
        <ele>874</ele>
        <time>2023-05-14T09:12:26.000Z</time>
      </trkpt>
      <trkpt lat="47.10007" lon="6.72615">
        <ele>874.20001220703</ele>
        <time>2023-05-14T09:12:27.000Z</time>
      </trkpt>
      <trkpt lat="47.10004" lon="6.72609">
        <ele>874.79998779297</ele>
        <time>2023-05-14T09:12:28.000Z</time>
      </trkpt>
      <trkpt lat="47.09998" lon="6.72598">
        <ele>875.79998779297</ele>
        <time>2023-05-14T09:12:31.000Z</time>
      </trkpt>
      <trkpt lat="47.09995" lon="6.72595">
        <ele>876.20001220703</ele>
        <time>2023-05-14T09:12:32.000Z</time>
      </trkpt>
      <trkpt lat="47.0999" lon="6.72589">
        <ele>877</ele>
        <time>2023-05-14T09:12:34.000Z</time>
      </trkpt>
      <trkpt lat="47.09981" lon="6.72578">
        <ele>878.40002441406</ele>
        <time>2023-05-14T09:12:37.000Z</time>
      </trkpt>
      <trkpt lat="47.09971" lon="6.72564">
        <ele>879.59997558594</ele>
        <time>2023-05-14T09:12:41.000Z</time>
      </trkpt>
      <trkpt lat="47.09961" lon="6.72552">
        <ele>880.59997558594</ele>
        <time>2023-05-14T09:12:45.000Z</time>
      </trkpt>
      <trkpt lat="47.09958" lon="6.72549">
        <ele>881</ele>
        <time>2023-05-14T09:12:46.000Z</time>
      </trkpt>
      <trkpt lat="47.0995" lon="6.72539">
        <ele>881.79998779297</ele>
        <time>2023-05-14T09:12:49.000Z</time>
      </trkpt>
      <trkpt lat="47.09941" lon="6.72528">
        <ele>883</ele>
        <time>2023-05-14T09:12:53.000Z</time>
      </trkpt>
      <trkpt lat="47.09936" lon="6.72524">
        <ele>883.40002441406</ele>
        <time>2023-05-14T09:12:55.000Z</time>
      </trkpt>
      <trkpt lat="47.09927" lon="6.72515">
        <ele>884</ele>
        <time>2023-05-14T09:12:59.000Z</time>
      </trkpt>
      <trkpt lat="47.09923" lon="6.7251">
        <ele>884.20001220703</ele>
        <time>2023-05-14T09:13:01.000Z</time>
      </trkpt>
      <trkpt lat="47.09905" lon="6.72492">
        <ele>884.59997558594</ele>
        <time>2023-05-14T09:13:09.000Z</time>
      </trkpt>
      <trkpt lat="47.09896" lon="6.72484">
        <ele>885.20001220703</ele>
        <time>2023-05-14T09:13:13.000Z</time>
      </trkpt>
      <trkpt lat="47.09893" lon="6.72482">
        <ele>885.40002441406</ele>
        <time>2023-05-14T09:13:15.000Z</time>
      </trkpt>
      <trkpt lat="47.09878" lon="6.72465">
        <ele>885.59997558594</ele>
        <time>2023-05-14T09:13:22.000Z</time>
      </trkpt>
      <trkpt lat="47.09856" lon="6.7244">
        <ele>885.79998779297</ele>
        <time>2023-05-14T09:13:31.000Z</time>
      </trkpt>
      <trkpt lat="47.09836" lon="6.72421">
        <ele>885.79998779297</ele>
        <time>2023-05-14T09:13:39.000Z</time>
      </trkpt>
      <trkpt lat="47.09818" lon="6.72404">
        <ele>885.79998779297</ele>
        <time>2023-05-14T09:13:46.000Z</time>
      </trkpt>
      <trkpt lat="47.09812" lon="6.72398">
        <ele>885.59997558594</ele>
        <time>2023-05-14T09:13:49.000Z</time>
      </trkpt>
      <trkpt lat="47.09794" lon="6.72393">
        <ele>885.79998779297</ele>
        <time>2023-05-14T09:13:56.000Z</time>
      </trkpt>
      <trkpt lat="47.0978" lon="6.72407">
        <ele>885.79998779297</ele>
        <time>2023-05-14T09:14:02.000Z</time>
      </trkpt>
      <trkpt lat="47.09773" lon="6.72413">
        <ele>886.40002441406</ele>
        <time>2023-05-14T09:14:05.000Z</time>
      </trkpt>
      <trkpt lat="47.09765" lon="6.72418">
        <ele>887</ele>
        <time>2023-05-14T09:14:08.000Z</time>
      </trkpt>
      <trkpt lat="47.0976" lon="6.72421">
        <ele>887.59997558594</ele>
        <time>2023-05-14T09:14:11.000Z</time>
      </trkpt>
      <trkpt lat="47.09754" lon="6.72426">
        <ele>887.79998779297</ele>
        <time>2023-05-14T09:14:13.000Z</time>
      </trkpt>
      <trkpt lat="47.09742" lon="6.72438">
        <ele>888.59997558594</ele>
        <time>2023-05-14T09:14:18.000Z</time>
      </trkpt>
      <trkpt lat="47.09725" lon="6.72454">
        <ele>889.79998779297</ele>
        <time>2023-05-14T09:14:25.000Z</time>
      </trkpt>
      <trkpt lat="47.09723" lon="6.72454">
        <ele>890.20001220703</ele>
        <time>2023-05-14T09:14:26.000Z</time>
      </trkpt>
      <trkpt lat="47.09717" lon="6.72456">
        <ele>890.79998779297</ele>
        <time>2023-05-14T09:14:29.000Z</time>
      </trkpt>
      <trkpt lat="47.09706" lon="6.72465">
        <ele>891.20001220703</ele>
        <time>2023-05-14T09:14:33.000Z</time>
      </trkpt>
      <trkpt lat="47.09699" lon="6.72469">
        <ele>891.59997558594</ele>
        <time>2023-05-14T09:14:36.000Z</time>
      </trkpt>
      <trkpt lat="47.09693" lon="6.72474">
        <ele>891.59997558594</ele>
        <time>2023-05-14T09:14:38.000Z</time>
      </trkpt>
      <trkpt lat="47.09689" lon="6.72478">
        <ele>891.59997558594</ele>
        <time>2023-05-14T09:14:39.000Z</time>
      </trkpt>
      <trkpt lat="47.09681" lon="6.72503">
        <ele>891.40002441406</ele>
        <time>2023-05-14T09:14:44.000Z</time>
      </trkpt>
      <trkpt lat="47.09679" lon="6.72533">
        <ele>890.79998779297</ele>
        <time>2023-05-14T09:14:49.000Z</time>
      </trkpt>
      <trkpt lat="47.09679" lon="6.72554">
        <ele>890.20001220703</ele>
        <time>2023-05-14T09:14:53.000Z</time>
      </trkpt>
      <trkpt lat="47.09678" lon="6.7256">
        <ele>890</ele>
        <time>2023-05-14T09:14:54.000Z</time>
      </trkpt>
      <trkpt lat="47.09675" lon="6.72567">
        <ele>889.79998779297</ele>
        <time>2023-05-14T09:14:55.000Z</time>
      </trkpt>
      <trkpt lat="47.09665" lon="6.72587">
        <ele>888.79998779297</ele>
        <time>2023-05-14T09:14:58.000Z</time>
      </trkpt>
      <trkpt lat="47.0966" lon="6.72598">
        <ele>887.59997558594</ele>
        <time>2023-05-14T09:15:00.000Z</time>
      </trkpt>
      <trkpt lat="47.09658" lon="6.72603">
        <ele>886.59997558594</ele>
        <time>2023-05-14T09:15:01.000Z</time>
      </trkpt>
      <trkpt lat="47.09655" lon="6.72611">
        <ele>885.20001220703</ele>
        <time>2023-05-14T09:15:03.000Z</time>
      </trkpt>
      <trkpt lat="47.09653" lon="6.72619">
        <ele>884.20001220703</ele>
        <time>2023-05-14T09:15:06.000Z</time>
      </trkpt>
      <trkpt lat="47.09651" lon="6.72622">
        <ele>884</ele>
        <time>2023-05-14T09:15:07.000Z</time>
      </trkpt>
      <trkpt lat="47.09649" lon="6.72631">
        <ele>883</ele>
        <time>2023-05-14T09:15:10.000Z</time>
      </trkpt>
      <trkpt lat="47.09644" lon="6.72643">
        <ele>882.59997558594</ele>
        <time>2023-05-14T09:15:13.000Z</time>
      </trkpt>
      <trkpt lat="47.09643" lon="6.72661">
        <ele>882.59997558594</ele>
        <time>2023-05-14T09:15:17.000Z</time>
      </trkpt>
      <trkpt lat="47.09652" lon="6.72693">
        <ele>882.79998779297</ele>
        <time>2023-05-14T09:15:25.000Z</time>
      </trkpt>
      <trkpt lat="47.0966" lon="6.72716">
        <ele>882.40002441406</ele>
        <time>2023-05-14T09:15:32.000Z</time>
      </trkpt>
      <trkpt lat="47.09664" lon="6.72721">
        <ele>882.20001220703</ele>
        <time>2023-05-14T09:15:35.000Z</time>
      </trkpt>
      <trkpt lat="47.09665" lon="6.72725">
        <ele>882</ele>
        <time>2023-05-14T09:15:37.000Z</time>
      </trkpt>
      <trkpt lat="47.09665" lon="6.72727">
        <ele>882</ele>
        <time>2023-05-14T09:15:38.000Z</time>
      </trkpt>
      <trkpt lat="47.09671" lon="6.72745">
        <ele>881.79998779297</ele>
        <time>2023-05-14T09:15:45.000Z</time>
      </trkpt>
      <trkpt lat="47.09675" lon="6.72765">
        <ele>882.20001220703</ele>
        <time>2023-05-14T09:15:51.000Z</time>
      </trkpt>
      <trkpt lat="47.09674" lon="6.72791">
        <ele>882.79998779297</ele>
        <time>2023-05-14T09:15:58.000Z</time>
      </trkpt>
      <trkpt lat="47.0967" lon="6.72802">
        <ele>883</ele>
        <time>2023-05-14T09:16:02.000Z</time>
      </trkpt>
      <trkpt lat="47.09668" lon="6.72804">
        <ele>883.20001220703</ele>
        <time>2023-05-14T09:16:03.000Z</time>
      </trkpt>
      <trkpt lat="47.09667" lon="6.72805">
        <ele>883.40002441406</ele>
        <time>2023-05-14T09:16:04.000Z</time>
      </trkpt>
      <trkpt lat="47.09661" lon="6.7281">
        <ele>884.40002441406</ele>
        <time>2023-05-14T09:16:08.000Z</time>
      </trkpt>
      <trkpt lat="47.09653" lon="6.72816">
        <ele>885.20001220703</ele>
        <time>2023-05-14T09:16:13.000Z</time>
      </trkpt>
      <trkpt lat="47.09649" lon="6.72818">
        <ele>885.40002441406</ele>
        <time>2023-05-14T09:16:15.000Z</time>
      </trkpt>
      <trkpt lat="47.09645" lon="6.72824">
        <ele>886.40002441406</ele>
        <time>2023-05-14T09:16:19.000Z</time>
      </trkpt>
      <trkpt lat="47.09644" lon="6.72825">
        <ele>886.59997558594</ele>
        <time>2023-05-14T09:16:20.000Z</time>
      </trkpt>
      <trkpt lat="47.09643" lon="6.72826">
        <ele>886.79998779297</ele>
        <time>2023-05-14T09:16:21.000Z</time>
      </trkpt>
      <trkpt lat="47.09637" lon="6.72831">
        <ele>887.59997558594</ele>
        <time>2023-05-14T09:16:25.000Z</time>
      </trkpt>
      <trkpt lat="47.09632" lon="6.72836">
        <ele>888.79998779297</ele>
        <time>2023-05-14T09:16:30.000Z</time>
      </trkpt>
      <trkpt lat="47.0963" lon="6.72837">
        <ele>889.20001220703</ele>
        <time>2023-05-14T09:16:32.000Z</time>
      </trkpt>
      <trkpt lat="47.09626" lon="6.72841">
        <ele>889.79998779297</ele>
        <time>2023-05-14T09:16:36.000Z</time>
      </trkpt>
      <trkpt lat="47.09621" lon="6.72844">
        <ele>891</ele>
        <time>2023-05-14T09:16:41.000Z</time>
      </trkpt>
      <trkpt lat="47.0962" lon="6.72845">
        <ele>891.20001220703</ele>
        <time>2023-05-14T09:16:42.000Z</time>
      </trkpt>
      <trkpt lat="47.09617" lon="6.72848">
        <ele>892.20001220703</ele>
        <time>2023-05-14T09:16:47.000Z</time>
      </trkpt>
      <trkpt lat="47.09614" lon="6.72851">
        <ele>893.20001220703</ele>
        <time>2023-05-14T09:16:50.000Z</time>
      </trkpt>
      <trkpt lat="47.09609" lon="6.72855">
        <ele>894.59997558594</ele>
        <time>2023-05-14T09:16:54.000Z</time>
      </trkpt>
      <trkpt lat="47.09605" lon="6.7286">
        <ele>896</ele>
        <time>2023-05-14T09:16:58.000Z</time>
      </trkpt>
      <trkpt lat="47.09603" lon="6.72861">
        <ele>896.20001220703</ele>
        <time>2023-05-14T09:16:59.000Z</time>
      </trkpt>
      <trkpt lat="47.096" lon="6.72865">
        <ele>897.20001220703</ele>
        <time>2023-05-14T09:17:02.000Z</time>
      </trkpt>
      <trkpt lat="47.09597" lon="6.72868">
        <ele>898.20001220703</ele>
        <time>2023-05-14T09:17:05.000Z</time>
      </trkpt>
      <trkpt lat="47.09594" lon="6.7287">
        <ele>899</ele>
        <time>2023-05-14T09:17:07.000Z</time>
      </trkpt>
      <trkpt lat="47.09593" lon="6.72871">
        <ele>899.40002441406</ele>
        <time>2023-05-14T09:17:08.000Z</time>
      </trkpt>
      <trkpt lat="47.09586" lon="6.72878">
        <ele>900.59997558594</ele>
        <time>2023-05-14T09:17:13.000Z</time>
      </trkpt>
      <trkpt lat="47.09585" lon="6.72879">
        <ele>901</ele>
        <time>2023-05-14T09:17:15.000Z</time>
      </trkpt>
      <trkpt lat="47.09582" lon="6.72882">
        <ele>901.59997558594</ele>
        <time>2023-05-14T09:17:18.000Z</time>
      </trkpt>
      <trkpt lat="47.0958" lon="6.72885">
        <ele>902.59997558594</ele>
        <time>2023-05-14T09:17:21.000Z</time>
      </trkpt>
      <trkpt lat="47.09578" lon="6.72887">
        <ele>903.40002441406</ele>
        <time>2023-05-14T09:17:23.000Z</time>
      </trkpt>
      <trkpt lat="47.09576" lon="6.72889">
        <ele>903.79998779297</ele>
        <time>2023-05-14T09:17:25.000Z</time>
      </trkpt>
      <trkpt lat="47.0957" lon="6.72895">
        <ele>905.20001220703</ele>
        <time>2023-05-14T09:17:30.000Z</time>
      </trkpt>
      <trkpt lat="47.09566" lon="6.72901">
        <ele>906</ele>
        <time>2023-05-14T09:17:34.000Z</time>
      </trkpt>
      <trkpt lat="47.09565" lon="6.72902">
        <ele>906.20001220703</ele>
        <time>2023-05-14T09:17:35.000Z</time>
      </trkpt>
      <trkpt lat="47.09559" lon="6.72909">
        <ele>907.20001220703</ele>
        <time>2023-05-14T09:17:39.000Z</time>
      </trkpt>
      <trkpt lat="47.09559" lon="6.72911">
        <ele>907.20001220703</ele>
        <time>2023-05-14T09:17:40.000Z</time>
      </trkpt>
      <trkpt lat="47.09558" lon="6.72913">
        <ele>907.40002441406</ele>
        <time>2023-05-14T09:17:41.000Z</time>
      </trkpt>
      <trkpt lat="47.09555" lon="6.7292">
        <ele>908.79998779297</ele>
        <time>2023-05-14T09:17:46.000Z</time>
      </trkpt>
      <trkpt lat="47.09551" lon="6.72929">
        <ele>909.79998779297</ele>
        <time>2023-05-14T09:17:50.000Z</time>
      </trkpt>
      <trkpt lat="47.0955" lon="6.72931">
        <ele>910.20001220703</ele>
        <time>2023-05-14T09:17:52.000Z</time>
      </trkpt>
      <trkpt lat="47.09546" lon="6.7293">
        <ele>910.40002441406</ele>
        <time>2023-05-14T09:17:54.000Z</time>
      </trkpt>
      <trkpt lat="47.09543" lon="6.72929">
        <ele>910.79998779297</ele>
        <time>2023-05-14T09:17:56.000Z</time>
      </trkpt>
      <trkpt lat="47.09537" lon="6.72922">
        <ele>911.59997558594</ele>
        <time>2023-05-14T09:18:01.000Z</time>
      </trkpt>
      <trkpt lat="47.09536" lon="6.72921">
        <ele>912</ele>
        <time>2023-05-14T09:18:02.000Z</time>
      </trkpt>
      <trkpt lat="47.09535" lon="6.72921">
        <ele>912</ele>
        <time>2023-05-14T09:18:03.000Z</time>
      </trkpt>
      <trkpt lat="47.09534" lon="6.72919">
        <ele>912.40002441406</ele>
        <time>2023-05-14T09:18:05.000Z</time>
      </trkpt>
      <trkpt lat="47.09533" lon="6.72917">
        <ele>912.79998779297</ele>
        <time>2023-05-14T09:18:06.000Z</time>
      </trkpt>
      <trkpt lat="47.09532" lon="6.72915">
        <ele>913</ele>
        <time>2023-05-14T09:18:07.000Z</time>
      </trkpt>
      <trkpt lat="47.09528" lon="6.72907">
        <ele>914.40002441406</ele>
        <time>2023-05-14T09:18:11.000Z</time>
      </trkpt>
      <trkpt lat="47.09527" lon="6.72904">
        <ele>914.79998779297</ele>
        <time>2023-05-14T09:18:13.000Z</time>
      </trkpt>
      <trkpt lat="47.09526" lon="6.72902">
        <ele>915</ele>
        <time>2023-05-14T09:18:14.000Z</time>
      </trkpt>
      <trkpt lat="47.09522" lon="6.72893">
        <ele>915.20001220703</ele>
        <time>2023-05-14T09:18:19.000Z</time>
      </trkpt>
      <trkpt lat="47.09516" lon="6.72879">
        <ele>915.20001220703</ele>
        <time>2023-05-14T09:18:24.000Z</time>
      </trkpt>
      <trkpt lat="47.09507" lon="6.72857">
        <ele>914.59997558594</ele>
        <time>2023-05-14T09:18:30.000Z</time>
      </trkpt>
      <trkpt lat="47.09501" lon="6.72846">
        <ele>914.40002441406</ele>
        <time>2023-05-14T09:18:34.000Z</time>
      </trkpt>
      <trkpt lat="47.09501" lon="6.72838">
        <ele>914.20001220703</ele>
        <time>2023-05-14T09:18:37.000Z</time>
      </trkpt>
      <trkpt lat="47.09491" lon="6.7282">
        <ele>914</ele>
        <time>2023-05-14T09:18:44.000Z</time>
      </trkpt>
      <trkpt lat="47.09487" lon="6.72807">
        <ele>913.79998779297</ele>
        <time>2023-05-14T09:18:49.000Z</time>
      </trkpt>
      <trkpt lat="47.09487" lon="6.72804">
        <ele>913.79998779297</ele>
        <time>2023-05-14T09:18:50.000Z</time>
      </trkpt>
      <trkpt lat="47.09481" lon="6.72786">
        <ele>913.40002441406</ele>
        <time>2023-05-14T09:18:55.000Z</time>
      </trkpt>
      <trkpt lat="47.09478" lon="6.72778">
        <ele>913.40002441406</ele>
        <time>2023-05-14T09:18:57.000Z</time>
      </trkpt>
      <trkpt lat="47.09478" lon="6.72775">
        <ele>913.20001220703</ele>
        <time>2023-05-14T09:18:58.000Z</time>
      </trkpt>
      <trkpt lat="47.09477" lon="6.7277">
        <ele>913.20001220703</ele>
        <time>2023-05-14T09:18:59.000Z</time>
      </trkpt>
      <trkpt lat="47.09471" lon="6.72745">
        <ele>912.59997558594</ele>
        <time>2023-05-14T09:19:05.000Z</time>
      </trkpt>
      <trkpt lat="47.09469" lon="6.72741">
        <ele>912.59997558594</ele>
        <time>2023-05-14T09:19:06.000Z</time>
      </trkpt>
      <trkpt lat="47.09462" lon="6.72721">
        <ele>912.20001220703</ele>
        <time>2023-05-14T09:19:10.000Z</time>
      </trkpt>
      <trkpt lat="47.09459" lon="6.72711">
        <ele>912</ele>
        <time>2023-05-14T09:19:12.000Z</time>
      </trkpt>
      <trkpt lat="47.09451" lon="6.72688">
        <ele>911.20001220703</ele>
        <time>2023-05-14T09:19:18.000Z</time>
      </trkpt>
      <trkpt lat="47.0945" lon="6.72685">
        <ele>911</ele>
        <time>2023-05-14T09:19:19.000Z</time>
      </trkpt>
      <trkpt lat="47.09438" lon="6.72659">
        <ele>909.79998779297</ele>
        <time>2023-05-14T09:19:24.000Z</time>
      </trkpt>
      <trkpt lat="47.0943" lon="6.72634">
        <ele>908.59997558594</ele>
        <time>2023-05-14T09:19:28.000Z</time>
      </trkpt>
      <trkpt lat="47.09427" lon="6.72627">
        <ele>907.79998779297</ele>
        <time>2023-05-14T09:19:29.000Z</time>
      </trkpt>
      <trkpt lat="47.0942" lon="6.7261">
        <ele>907.20001220703</ele>
        <time>2023-05-14T09:19:31.000Z</time>
      </trkpt>
      <trkpt lat="47.09414" lon="6.72603">
        <ele>906.59997558594</ele>
        <time>2023-05-14T09:19:32.000Z</time>
      </trkpt>
      <trkpt lat="47.09412" lon="6.72596">
        <ele>905.40002441406</ele>
        <time>2023-05-14T09:19:33.000Z</time>
      </trkpt>
      <trkpt lat="47.09406" lon="6.72585">
        <ele>904</ele>
        <time>2023-05-14T09:19:35.000Z</time>
      </trkpt>
      <trkpt lat="47.09403" lon="6.7258">
        <ele>903.40002441406</ele>
        <time>2023-05-14T09:19:36.000Z</time>
      </trkpt>
      <trkpt lat="47.09398" lon="6.7257">
        <ele>902.79998779297</ele>
        <time>2023-05-14T09:19:38.000Z</time>
      </trkpt>
      <trkpt lat="47.09397" lon="6.72563">
        <ele>902.20001220703</ele>
        <time>2023-05-14T09:19:40.000Z</time>
      </trkpt>
      <trkpt lat="47.09397" lon="6.72561">
        <ele>901.59997558594</ele>
        <time>2023-05-14T09:19:43.000Z</time>
      </trkpt>
      <trkpt lat="47.09397" lon="6.72561">
        <ele>901.20001220703</ele>
        <time>2023-05-14T09:19:44.000Z</time>
      </trkpt>
      <trkpt lat="47.09397" lon="6.72561">
        <ele>900.59997558594</ele>
        <time>2023-05-14T09:19:45.000Z</time>
      </trkpt>
      <trkpt lat="47.09396" lon="6.7256">
        <ele>899.59997558594</ele>
        <time>2023-05-14T09:19:49.000Z</time>
      </trkpt>
      <trkpt lat="47.09396" lon="6.7256">
        <ele>899.20001220703</ele>
        <time>2023-05-14T09:19:53.000Z</time>
      </trkpt>
      <trkpt lat="47.09396" lon="6.72559">
        <ele>898.59997558594</ele>
        <time>2023-05-14T09:19:57.000Z</time>
      </trkpt>
      <trkpt lat="47.09382" lon="6.72545">
        <ele>893.59997558594</ele>
        <time>2023-05-14T09:20:42.000Z</time>
      </trkpt>
      <trkpt lat="47.09381" lon="6.72521">
        <ele>892.79998779297</ele>
        <time>2023-05-14T09:20:46.000Z</time>
      </trkpt>
      <trkpt lat="47.09379" lon="6.72515">
        <ele>892.59997558594</ele>
        <time>2023-05-14T09:20:47.000Z</time>
      </trkpt>
      <trkpt lat="47.09378" lon="6.7251">
        <ele>892.20001220703</ele>
        <time>2023-05-14T09:20:48.000Z</time>
      </trkpt>
      <trkpt lat="47.09375" lon="6.72485">
        <ele>891.20001220703</ele>
        <time>2023-05-14T09:20:52.000Z</time>
      </trkpt>
      <trkpt lat="47.09373" lon="6.72477">
        <ele>891</ele>
        <time>2023-05-14T09:20:54.000Z</time>
      </trkpt>
      <trkpt lat="47.09368" lon="6.72449">
        <ele>890.40002441406</ele>
        <time>2023-05-14T09:20:59.000Z</time>
      </trkpt>
      <trkpt lat="47.09366" lon="6.72443">
        <ele>890.20001220703</ele>
        <time>2023-05-14T09:21:00.000Z</time>
      </trkpt>
      <trkpt lat="47.0936" lon="6.72427">
        <ele>889.20001220703</ele>
        <time>2023-05-14T09:21:04.000Z</time>
      </trkpt>
      <trkpt lat="47.09359" lon="6.72419">
        <ele>889.20001220703</ele>
        <time>2023-05-14T09:21:06.000Z</time>
      </trkpt>
      <trkpt lat="47.09351" lon="6.72388">
        <ele>888.59997558594</ele>
        <time>2023-05-14T09:21:13.000Z</time>
      </trkpt>
      <trkpt lat="47.09343" lon="6.72367">
        <ele>888.20001220703</ele>
        <time>2023-05-14T09:21:18.000Z</time>
      </trkpt>
      <trkpt lat="47.0934" lon="6.72361">
        <ele>888</ele>
        <time>2023-05-14T09:21:20.000Z</time>
      </trkpt>
      <trkpt lat="47.09328" lon="6.72339">
        <ele>887.59997558594</ele>
        <time>2023-05-14T09:21:24.000Z</time>
      </trkpt>
      <trkpt lat="47.09324" lon="6.72334">
        <ele>887.40002441406</ele>
        <time>2023-05-14T09:21:25.000Z</time>
      </trkpt>
      <trkpt lat="47.09312" lon="6.72315">
        <ele>885.79998779297</ele>
        <time>2023-05-14T09:21:28.000Z</time>
      </trkpt>
      <trkpt lat="47.09304" lon="6.723">
        <ele>883.40002441406</ele>
        <time>2023-05-14T09:21:30.000Z</time>
      </trkpt>
      <trkpt lat="47.09299" lon="6.72293">
        <ele>883</ele>
        <time>2023-05-14T09:21:31.000Z</time>
      </trkpt>
      <trkpt lat="47.09295" lon="6.72285">
        <ele>882.40002441406</ele>
        <time>2023-05-14T09:21:32.000Z</time>
      </trkpt>
      <trkpt lat="47.09287" lon="6.72271">
        <ele>881.20001220703</ele>
        <time>2023-05-14T09:21:34.000Z</time>
      </trkpt>
      <trkpt lat="47.09273" lon="6.72249">
        <ele>879.79998779297</ele>
        <time>2023-05-14T09:21:37.000Z</time>
      </trkpt>
      <trkpt lat="47.09269" lon="6.72241">
        <ele>879</ele>
        <time>2023-05-14T09:21:38.000Z</time>
      </trkpt>
      <trkpt lat="47.09265" lon="6.72234">
        <ele>878.40002441406</ele>
        <time>2023-05-14T09:21:39.000Z</time>
      </trkpt>
      <trkpt lat="47.09259" lon="6.72225">
        <ele>877.20001220703</ele>
        <time>2023-05-14T09:21:41.000Z</time>
      </trkpt>
      <trkpt lat="47.09247" lon="6.72211">
        <ele>876.79998779297</ele>
        <time>2023-05-14T09:21:45.000Z</time>
      </trkpt>
      <trkpt lat="47.09238" lon="6.72195">
        <ele>876.79998779297</ele>
        <time>2023-05-14T09:21:49.000Z</time>
      </trkpt>
      <trkpt lat="47.09236" lon="6.72191">
        <ele>877.20001220703</ele>
        <time>2023-05-14T09:21:50.000Z</time>
      </trkpt>
      <trkpt lat="47.09224" lon="6.72165">
        <ele>878</ele>
        <time>2023-05-14T09:21:56.000Z</time>
      </trkpt>
      <trkpt lat="47.09212" lon="6.72145">
        <ele>878.20001220703</ele>
        <time>2023-05-14T09:22:01.000Z</time>
      </trkpt>
      <trkpt lat="47.0921" lon="6.72142">
        <ele>878.20001220703</ele>
        <time>2023-05-14T09:22:02.000Z</time>
      </trkpt>
      <trkpt lat="47.09201" lon="6.72127">
        <ele>879</ele>
        <time>2023-05-14T09:22:06.000Z</time>
      </trkpt>
      <trkpt lat="47.09193" lon="6.7211">
        <ele>879.59997558594</ele>
        <time>2023-05-14T09:22:11.000Z</time>
      </trkpt>
      <trkpt lat="47.09189" lon="6.72105">
        <ele>879.59997558594</ele>
        <time>2023-05-14T09:22:13.000Z</time>
      </trkpt>
      <trkpt lat="47.09179" lon="6.72087">
        <ele>880.20001220703</ele>
        <time>2023-05-14T09:22:18.000Z</time>
      </trkpt>
      <trkpt lat="47.09177" lon="6.72083">
        <ele>880.20001220703</ele>
        <time>2023-05-14T09:22:19.000Z</time>
      </trkpt>
      <trkpt lat="47.09171" lon="6.72071">
        <ele>880.79998779297</ele>
        <time>2023-05-14T09:22:22.000Z</time>
      </trkpt>
      <trkpt lat="47.09164" lon="6.72057">
        <ele>881.20001220703</ele>
        <time>2023-05-14T09:22:26.000Z</time>
      </trkpt>
      <trkpt lat="47.09157" lon="6.72042">
        <ele>881.79998779297</ele>
        <time>2023-05-14T09:22:31.000Z</time>
      </trkpt>
      <trkpt lat="47.09155" lon="6.72039">
        <ele>882</ele>
        <time>2023-05-14T09:22:32.000Z</time>
      </trkpt>
      <trkpt lat="47.09148" lon="6.72028">
        <ele>882.40002441406</ele>
        <time>2023-05-14T09:22:37.000Z</time>
      </trkpt>
      <trkpt lat="47.09144" lon="6.72022">
        <ele>882.40002441406</ele>
        <time>2023-05-14T09:22:39.000Z</time>
      </trkpt>
      <trkpt lat="47.09131" lon="6.71998">
        <ele>881.59997558594</ele>
        <time>2023-05-14T09:22:44.000Z</time>
      </trkpt>
      <trkpt lat="47.09128" lon="6.71985">
        <ele>880.59997558594</ele>
        <time>2023-05-14T09:22:46.000Z</time>
      </trkpt>
      <trkpt lat="47.09129" lon="6.71973">
        <ele>879.40002441406</ele>
        <time>2023-05-14T09:22:49.000Z</time>
      </trkpt>
      <trkpt lat="47.09126" lon="6.71958">
        <ele>878.40002441406</ele>
        <time>2023-05-14T09:22:53.000Z</time>
      </trkpt>
      <trkpt lat="47.09125" lon="6.71951">
        <ele>877.40002441406</ele>
        <time>2023-05-14T09:22:55.000Z</time>
      </trkpt>
      <trkpt lat="47.09124" lon="6.71948">
        <ele>876.79998779297</ele>
        <time>2023-05-14T09:22:56.000Z</time>
      </trkpt>
      <trkpt lat="47.09123" lon="6.71944">
        <ele>875.40002441406</ele>
        <time>2023-05-14T09:22:58.000Z</time>
      </trkpt>
      <trkpt lat="47.09123" lon="6.71943">
        <ele>874.79998779297</ele>
        <time>2023-05-14T09:22:59.000Z</time>
      </trkpt>
      <trkpt lat="47.09123" lon="6.7194">
        <ele>874.40002441406</ele>
        <time>2023-05-14T09:23:00.000Z</time>
      </trkpt>
      <trkpt lat="47.09123" lon="6.71937">
        <ele>874</ele>
        <time>2023-05-14T09:23:01.000Z</time>
      </trkpt>
      <trkpt lat="47.09121" lon="6.71926">
        <ele>873.59997558594</ele>
        <time>2023-05-14T09:23:04.000Z</time>
      </trkpt>
      <trkpt lat="47.09121" lon="6.71919">
        <ele>872.79998779297</ele>
        <time>2023-05-14T09:23:06.000Z</time>
      </trkpt>
      <trkpt lat="47.09122" lon="6.71911">
        <ele>872</ele>
        <time>2023-05-14T09:23:09.000Z</time>
      </trkpt>
      <trkpt lat="47.09122" lon="6.71911">
        <ele>871.79998779297</ele>
        <time>2023-05-14T09:23:10.000Z</time>
      </trkpt>
      <trkpt lat="47.09122" lon="6.71911">
        <ele>871.40002441406</ele>
        <time>2023-05-14T09:23:12.000Z</time>
      </trkpt>
      <trkpt lat="47.09113" lon="6.71871">
        <ele>865.79998779297</ele>
        <time>2023-05-14T09:23:37.000Z</time>
      </trkpt>
      <trkpt lat="47.0911" lon="6.71867">
        <ele>865.59997558594</ele>
        <time>2023-05-14T09:23:38.000Z</time>
      </trkpt>
      <trkpt lat="47.09103" lon="6.71855">
        <ele>865.20001220703</ele>
        <time>2023-05-14T09:23:40.000Z</time>
      </trkpt>
      <trkpt lat="47.09102" lon="6.71849">
        <ele>864.59997558594</ele>
        <time>2023-05-14T09:23:41.000Z</time>
      </trkpt>
      <trkpt lat="47.09102" lon="6.71844">
        <ele>863.40002441406</ele>
        <time>2023-05-14T09:23:42.000Z</time>
      </trkpt>
      <trkpt lat="47.09103" lon="6.71835">
        <ele>862.20001220703</ele>
        <time>2023-05-14T09:23:44.000Z</time>
      </trkpt>
      <trkpt lat="47.09101" lon="6.7183">
        <ele>861.20001220703</ele>
        <time>2023-05-14T09:23:46.000Z</time>
      </trkpt>
      <trkpt lat="47.09097" lon="6.71817">
        <ele>860.20001220703</ele>
        <time>2023-05-14T09:23:50.000Z</time>
      </trkpt>
      <trkpt lat="47.09096" lon="6.71814">
        <ele>859.59997558594</ele>
        <time>2023-05-14T09:23:51.000Z</time>
      </trkpt>
      <trkpt lat="47.09094" lon="6.71808">
        <ele>859</ele>
        <time>2023-05-14T09:23:53.000Z</time>
      </trkpt>
      <trkpt lat="47.09091" lon="6.718">
        <ele>857.20001220703</ele>
        <time>2023-05-14T09:23:56.000Z</time>
      </trkpt>
      <trkpt lat="47.09087" lon="6.7179">
        <ele>856</ele>
        <time>2023-05-14T09:23:59.000Z</time>
      </trkpt>
      <trkpt lat="47.09086" lon="6.71783">
        <ele>854.79998779297</ele>
        <time>2023-05-14T09:24:01.000Z</time>
      </trkpt>
      <trkpt lat="47.09085" lon="6.71779">
        <ele>854.20001220703</ele>
        <time>2023-05-14T09:24:02.000Z</time>
      </trkpt>
      <trkpt lat="47.09085" lon="6.71775">
        <ele>853.59997558594</ele>
        <time>2023-05-14T09:24:03.000Z</time>
      </trkpt>
      <trkpt lat="47.09084" lon="6.7177">
        <ele>852.59997558594</ele>
        <time>2023-05-14T09:24:04.000Z</time>
      </trkpt>
      <trkpt lat="47.09083" lon="6.71762">
        <ele>851.59997558594</ele>
        <time>2023-05-14T09:24:06.000Z</time>
      </trkpt>
      <trkpt lat="47.09081" lon="6.71755">
        <ele>850</ele>
        <time>2023-05-14T09:24:08.000Z</time>
      </trkpt>
      <trkpt lat="47.0908" lon="6.71752">
        <ele>849.59997558594</ele>
        <time>2023-05-14T09:24:09.000Z</time>
      </trkpt>
      <trkpt lat="47.09079" lon="6.71746">
        <ele>847.79998779297</ele>
        <time>2023-05-14T09:24:11.000Z</time>
      </trkpt>
      <trkpt lat="47.09078" lon="6.71741">
        <ele>846.59997558594</ele>
        <time>2023-05-14T09:24:13.000Z</time>
      </trkpt>
      <trkpt lat="47.09076" lon="6.71735">
        <ele>845.40002441406</ele>
        <time>2023-05-14T09:24:15.000Z</time>
      </trkpt>
      <trkpt lat="47.09072" lon="6.71728">
        <ele>844.40002441406</ele>
        <time>2023-05-14T09:24:17.000Z</time>
      </trkpt>
      <trkpt lat="47.09071" lon="6.71725">
        <ele>843.79998779297</ele>
        <time>2023-05-14T09:24:18.000Z</time>
      </trkpt>
      <trkpt lat="47.09069" lon="6.71716">
        <ele>843</ele>
        <time>2023-05-14T09:24:20.000Z</time>
      </trkpt>
      <trkpt lat="47.09068" lon="6.71713">
        <ele>841.79998779297</ele>
        <time>2023-05-14T09:24:22.000Z</time>
      </trkpt>
      <trkpt lat="47.09069" lon="6.71712">
        <ele>840.79998779297</ele>
        <time>2023-05-14T09:24:24.000Z</time>
      </trkpt>
      <trkpt lat="47.09068" lon="6.71711">
        <ele>840</ele>
        <time>2023-05-14T09:24:25.000Z</time>
      </trkpt>
      <trkpt lat="47.09052" lon="6.71682">
        <ele>835.20001220703</ele>
        <time>2023-05-14T09:24:59.000Z</time>
      </trkpt>
      <trkpt lat="47.09049" lon="6.71678">
        <ele>835.20001220703</ele>
        <time>2023-05-14T09:25:00.000Z</time>
      </trkpt>
      <trkpt lat="47.09045" lon="6.71675">
        <ele>835.20001220703</ele>
        <time>2023-05-14T09:25:01.000Z</time>
      </trkpt>
      <trkpt lat="47.09033" lon="6.71652">
        <ele>834.20001220703</ele>
        <time>2023-05-14T09:25:06.000Z</time>
      </trkpt>
      <trkpt lat="47.09032" lon="6.71647">
        <ele>834</ele>
        <time>2023-05-14T09:25:07.000Z</time>
      </trkpt>
      <trkpt lat="47.0903" lon="6.71635">
        <ele>833.40002441406</ele>
        <time>2023-05-14T09:25:10.000Z</time>
      </trkpt>
      <trkpt lat="47.09031" lon="6.71631">
        <ele>833.20001220703</ele>
        <time>2023-05-14T09:25:11.000Z</time>
      </trkpt>
      <trkpt lat="47.09033" lon="6.71625">
        <ele>833</ele>
        <time>2023-05-14T09:25:13.000Z</time>
      </trkpt>
      <trkpt lat="47.09037" lon="6.71607">
        <ele>833</ele>
        <time>2023-05-14T09:25:17.000Z</time>
      </trkpt>
      <trkpt lat="47.09032" lon="6.71587">
        <ele>833.40002441406</ele>
        <time>2023-05-14T09:25:22.000Z</time>
      </trkpt>
      <trkpt lat="47.0902" lon="6.71571">
        <ele>833.79998779297</ele>
        <time>2023-05-14T09:25:27.000Z</time>
      </trkpt>
      <trkpt lat="47.09018" lon="6.71569">
        <ele>834</ele>
        <time>2023-05-14T09:25:28.000Z</time>
      </trkpt>
      <trkpt lat="47.09016" lon="6.71568">
        <ele>834</ele>
        <time>2023-05-14T09:25:29.000Z</time>
      </trkpt>
      <trkpt lat="47.09004" lon="6.71557">
        <ele>834.40002441406</ele>
        <time>2023-05-14T09:25:33.000Z</time>
      </trkpt>
      <trkpt lat="47.08989" lon="6.71544">
        <ele>834.59997558594</ele>
        <time>2023-05-14T09:25:39.000Z</time>
      </trkpt>
      <trkpt lat="47.08987" lon="6.71525">
        <ele>834.40002441406</ele>
        <time>2023-05-14T09:25:44.000Z</time>
      </trkpt>
      <trkpt lat="47.08985" lon="6.71516">
        <ele>834</ele>
        <time>2023-05-14T09:25:48.000Z</time>
      </trkpt>
      <trkpt lat="47.08985" lon="6.71516">
        <ele>833.79998779297</ele>
        <time>2023-05-14T09:25:51.000Z</time>
      </trkpt>
      <trkpt lat="47.08985" lon="6.71497">
        <ele>831.79998779297</ele>
        <time>2023-05-14T09:28:19.000Z</time>
      </trkpt>
      <trkpt lat="47.08985" lon="6.71494">
        <ele>831.79998779297</ele>
        <time>2023-05-14T09:28:20.000Z</time>
      </trkpt>
      <trkpt lat="47.08987" lon="6.71486">
        <ele>831.40002441406</ele>
        <time>2023-05-14T09:28:22.000Z</time>
      </trkpt>
      <trkpt lat="47.08988" lon="6.71475">
        <ele>831</ele>
        <time>2023-05-14T09:28:25.000Z</time>
      </trkpt>
      <trkpt lat="47.08988" lon="6.71472">
        <ele>830.79998779297</ele>
        <time>2023-05-14T09:28:26.000Z</time>
      </trkpt>
      <trkpt lat="47.08992" lon="6.71463">
        <ele>829.79998779297</ele>
        <time>2023-05-14T09:28:29.000Z</time>
      </trkpt>
      <trkpt lat="47.08997" lon="6.71456">
        <ele>829.40002441406</ele>
        <time>2023-05-14T09:28:31.000Z</time>
      </trkpt>
      <trkpt lat="47.09" lon="6.71434">
        <ele>828.59997558594</ele>
        <time>2023-05-14T09:28:35.000Z</time>
      </trkpt>
      <trkpt lat="47.08999" lon="6.71428">
        <ele>828.20001220703</ele>
        <time>2023-05-14T09:28:36.000Z</time>
      </trkpt>
      <trkpt lat="47.08998" lon="6.71411">
        <ele>827.40002441406</ele>
        <time>2023-05-14T09:28:39.000Z</time>
      </trkpt>
      <trkpt lat="47.08999" lon="6.71404">
        <ele>827.20001220703</ele>
        <time>2023-05-14T09:28:40.000Z</time>
      </trkpt>
      <trkpt lat="47.08999" lon="6.71386">
        <ele>826.20001220703</ele>
        <time>2023-05-14T09:28:43.000Z</time>
      </trkpt>
      <trkpt lat="47.09003" lon="6.71373">
        <ele>825.40002441406</ele>
        <time>2023-05-14T09:28:46.000Z</time>
      </trkpt>
      <trkpt lat="47.09003" lon="6.71367">
        <ele>825.20001220703</ele>
        <time>2023-05-14T09:28:47.000Z</time>
      </trkpt>
      <trkpt lat="47.09002" lon="6.71342">
        <ele>824.20001220703</ele>
        <time>2023-05-14T09:28:52.000Z</time>
      </trkpt>
      <trkpt lat="47.08998" lon="6.71326">
        <ele>823.79998779297</ele>
        <time>2023-05-14T09:28:54.000Z</time>
      </trkpt>
      <trkpt lat="47.08997" lon="6.71308">
        <ele>823.20001220703</ele>
        <time>2023-05-14T09:28:57.000Z</time>
      </trkpt>
      <trkpt lat="47.08999" lon="6.71293">
        <ele>822.59997558594</ele>
        <time>2023-05-14T09:28:59.000Z</time>
      </trkpt>
      <trkpt lat="47.08998" lon="6.7128">
        <ele>821.79998779297</ele>
        <time>2023-05-14T09:29:01.000Z</time>
      </trkpt>
      <trkpt lat="47.08997" lon="6.71269">
        <ele>821.40002441406</ele>
        <time>2023-05-14T09:29:03.000Z</time>
      </trkpt>
      <trkpt lat="47.08995" lon="6.71245">
        <ele>820.20001220703</ele>
        <time>2023-05-14T09:29:08.000Z</time>
      </trkpt>
      <trkpt lat="47.08998" lon="6.7121">
        <ele>819.40002441406</ele>
        <time>2023-05-14T09:29:13.000Z</time>
      </trkpt>
      <trkpt lat="47.09002" lon="6.71194">
        <ele>819</ele>
        <time>2023-05-14T09:29:15.000Z</time>
      </trkpt>
      <trkpt lat="47.09004" lon="6.71189">
        <ele>818.59997558594</ele>
        <time>2023-05-14T09:29:16.000Z</time>
      </trkpt>
      <trkpt lat="47.09006" lon="6.71183">
        <ele>818</ele>
        <time>2023-05-14T09:29:17.000Z</time>
      </trkpt>
      <trkpt lat="47.09005" lon="6.71171">
        <ele>817.59997558594</ele>
        <time>2023-05-14T09:29:20.000Z</time>
      </trkpt>
      <trkpt lat="47.08999" lon="6.71152">
        <ele>817.20001220703</ele>
        <time>2023-05-14T09:29:24.000Z</time>
      </trkpt>
      <trkpt lat="47.08999" lon="6.71148">
        <ele>817.20001220703</ele>
        <time>2023-05-14T09:29:25.000Z</time>
      </trkpt>
      <trkpt lat="47.08999" lon="6.7114">
        <ele>817.20001220703</ele>
        <time>2023-05-14T09:29:27.000Z</time>
      </trkpt>
      <trkpt lat="47.08998" lon="6.71135">
        <ele>817</ele>
        <time>2023-05-14T09:29:28.000Z</time>
      </trkpt>
      <trkpt lat="47.08999" lon="6.71132">
        <ele>817</ele>
        <time>2023-05-14T09:29:29.000Z</time>
      </trkpt>
      <trkpt lat="47.08998" lon="6.71124">
        <ele>817</ele>
        <time>2023-05-14T09:29:31.000Z</time>
      </trkpt>
      <trkpt lat="47.08997" lon="6.71118">
        <ele>816.79998779297</ele>
        <time>2023-05-14T09:29:32.000Z</time>
      </trkpt>
      <trkpt lat="47.08997" lon="6.71098">
        <ele>816.40002441406</ele>
        <time>2023-05-14T09:29:36.000Z</time>
      </trkpt>
      <trkpt lat="47.08997" lon="6.71073">
        <ele>816</ele>
        <time>2023-05-14T09:29:42.000Z</time>
      </trkpt>
      <trkpt lat="47.09" lon="6.71064">
        <ele>815.79998779297</ele>
        <time>2023-05-14T09:29:46.000Z</time>
      </trkpt>
      <trkpt lat="47.09001" lon="6.71058">
        <ele>815.79998779297</ele>
        <time>2023-05-14T09:29:48.000Z</time>
      </trkpt>
      <trkpt lat="47.09002" lon="6.71058">
        <ele>815.40002441406</ele>
        <time>2023-05-14T09:29:51.000Z</time>
      </trkpt>
      <trkpt lat="47.08975" lon="6.711">
        <ele>807.79998779297</ele>
        <time>2023-05-14T09:34:08.000Z</time>
      </trkpt>
      <trkpt lat="47.08974" lon="6.71103">
        <ele>807.40002441406</ele>
        <time>2023-05-14T09:34:09.000Z</time>
      </trkpt>
      <trkpt lat="47.0897" lon="6.71111">
        <ele>806.59997558594</ele>
        <time>2023-05-14T09:34:11.000Z</time>
      </trkpt>
      <trkpt lat="47.08962" lon="6.71124">
        <ele>805.40002441406</ele>
        <time>2023-05-14T09:34:14.000Z</time>
      </trkpt>
      <trkpt lat="47.08959" lon="6.71127">
        <ele>805</ele>
        <time>2023-05-14T09:34:15.000Z</time>
      </trkpt>
      <trkpt lat="47.08952" lon="6.71143">
        <ele>803.79998779297</ele>
        <time>2023-05-14T09:34:18.000Z</time>
      </trkpt>
      <trkpt lat="47.08944" lon="6.71162">
        <ele>802.59997558594</ele>
        <time>2023-05-14T09:34:21.000Z</time>
      </trkpt>
      <trkpt lat="47.08941" lon="6.71171">
        <ele>802.20001220703</ele>
        <time>2023-05-14T09:34:23.000Z</time>
      </trkpt>
      <trkpt lat="47.0894" lon="6.71175">
        <ele>801.40002441406</ele>
        <time>2023-05-14T09:34:24.000Z</time>
      </trkpt>
      <trkpt lat="47.08933" lon="6.71184">
        <ele>800.20001220703</ele>
        <time>2023-05-14T09:34:27.000Z</time>
      </trkpt>
      <trkpt lat="47.08931" lon="6.71188">
        <ele>800</ele>
        <time>2023-05-14T09:34:28.000Z</time>
      </trkpt>
      <trkpt lat="47.08929" lon="6.71194">
        <ele>799.79998779297</ele>
        <time>2023-05-14T09:34:29.000Z</time>
      </trkpt>
      <trkpt lat="47.08928" lon="6.71199">
        <ele>798.79998779297</ele>
        <time>2023-05-14T09:34:31.000Z</time>
      </trkpt>
      <trkpt lat="47.08927" lon="6.71205">
        <ele>797.79998779297</ele>
        <time>2023-05-14T09:34:33.000Z</time>
      </trkpt>
      <trkpt lat="47.08927" lon="6.71208">
        <ele>796.59997558594</ele>
        <time>2023-05-14T09:34:34.000Z</time>
      </trkpt>
      <trkpt lat="47.08926" lon="6.71211">
        <ele>796.20001220703</ele>
        <time>2023-05-14T09:34:35.000Z</time>
      </trkpt>
      <trkpt lat="47.08925" lon="6.71214">
        <ele>795.40002441406</ele>
        <time>2023-05-14T09:34:36.000Z</time>
      </trkpt>
      <trkpt lat="47.08922" lon="6.71219">
        <ele>794.40002441406</ele>
        <time>2023-05-14T09:34:38.000Z</time>
      </trkpt>
      <trkpt lat="47.0892" lon="6.71223">
        <ele>794</ele>
        <time>2023-05-14T09:34:39.000Z</time>
      </trkpt>
      <trkpt lat="47.08916" lon="6.7123">
        <ele>793.20001220703</ele>
        <time>2023-05-14T09:34:41.000Z</time>
      </trkpt>
      <trkpt lat="47.08912" lon="6.71236">
        <ele>791.59997558594</ele>
        <time>2023-05-14T09:34:43.000Z</time>
      </trkpt>
      <trkpt lat="47.08908" lon="6.71244">
        <ele>790.59997558594</ele>
        <time>2023-05-14T09:34:46.000Z</time>
      </trkpt>
      <trkpt lat="47.08904" lon="6.71249">
        <ele>789.79998779297</ele>
        <time>2023-05-14T09:34:47.000Z</time>
      </trkpt>
      <trkpt lat="47.08896" lon="6.71254">
        <ele>788.40002441406</ele>
        <time>2023-05-14T09:34:49.000Z</time>
      </trkpt>
      <trkpt lat="47.08887" lon="6.71263">
        <ele>787.20001220703</ele>
        <time>2023-05-14T09:34:51.000Z</time>
      </trkpt>
      <trkpt lat="47.08881" lon="6.71269">
        <ele>786.40002441406</ele>
        <time>2023-05-14T09:34:52.000Z</time>
      </trkpt>
      <trkpt lat="47.08875" lon="6.71271">
        <ele>786</ele>
        <time>2023-05-14T09:34:53.000Z</time>
      </trkpt>
      <trkpt lat="47.08862" lon="6.71275">
        <ele>785.40002441406</ele>
        <time>2023-05-14T09:34:55.000Z</time>
      </trkpt>
      <trkpt lat="47.08856" lon="6.71275">
        <ele>784.59997558594</ele>
        <time>2023-05-14T09:34:56.000Z</time>
      </trkpt>
      <trkpt lat="47.08842" lon="6.71276">
        <ele>783.20001220703</ele>
        <time>2023-05-14T09:34:59.000Z</time>
      </trkpt>
      <trkpt lat="47.08838" lon="6.71275">
        <ele>783</ele>
        <time>2023-05-14T09:35:00.000Z</time>
      </trkpt>
      <trkpt lat="47.08832" lon="6.71273">
        <ele>782.59997558594</ele>
        <time>2023-05-14T09:35:02.000Z</time>
      </trkpt>
      <trkpt lat="47.08826" lon="6.71275">
        <ele>782.59997558594</ele>
        <time>2023-05-14T09:35:04.000Z</time>
      </trkpt>
      <trkpt lat="47.08805" lon="6.7128">
        <ele>782.40002441406</ele>
        <time>2023-05-14T09:35:09.000Z</time>
      </trkpt>
      <trkpt lat="47.08787" lon="6.71267">
        <ele>782.40002441406</ele>
        <time>2023-05-14T09:35:13.000Z</time>
      </trkpt>
      <trkpt lat="47.08781" lon="6.71262">
        <ele>782.20001220703</ele>
        <time>2023-05-14T09:35:14.000Z</time>
      </trkpt>
      <trkpt lat="47.08777" lon="6.71259">
        <ele>781.59997558594</ele>
        <time>2023-05-14T09:35:16.000Z</time>
      </trkpt>
      <trkpt lat="47.08767" lon="6.71254">
        <ele>781.20001220703</ele>
        <time>2023-05-14T09:35:19.000Z</time>
      </trkpt>
      <trkpt lat="47.08761" lon="6.71252">
        <ele>781</ele>
        <time>2023-05-14T09:35:21.000Z</time>
      </trkpt>
      <trkpt lat="47.08752" lon="6.71252">
        <ele>781.20001220703</ele>
        <time>2023-05-14T09:35:25.000Z</time>
      </trkpt>
      <trkpt lat="47.08749" lon="6.71252">
        <ele>781.40002441406</ele>
        <time>2023-05-14T09:35:27.000Z</time>
      </trkpt>
      <trkpt lat="47.08745" lon="6.71254">
        <ele>781.40002441406</ele>
        <time>2023-05-14T09:35:30.000Z</time>
      </trkpt>
      <trkpt lat="47.08739" lon="6.71259">
        <ele>781.40002441406</ele>
        <time>2023-05-14T09:35:35.000Z</time>
      </trkpt>
      <trkpt lat="47.08739" lon="6.71259">
        <ele>781.20001220703</ele>
        <time>2023-05-14T09:35:37.000Z</time>
      </trkpt>
      <trkpt lat="47.08739" lon="6.71259">
        <ele>781</ele>
        <time>2023-05-14T09:35:38.000Z</time>
      </trkpt>
      <trkpt lat="47.08729" lon="6.71258">
        <ele>779.79998779297</ele>
        <time>2023-05-14T09:41:01.000Z</time>
      </trkpt>
      <trkpt lat="47.08727" lon="6.71257">
        <ele>779.59997558594</ele>
        <time>2023-05-14T09:41:02.000Z</time>
      </trkpt>
      <trkpt lat="47.08725" lon="6.71257">
        <ele>779.59997558594</ele>
        <time>2023-05-14T09:41:03.000Z</time>
      </trkpt>
      <trkpt lat="47.0872" lon="6.71254">
        <ele>779</ele>
        <time>2023-05-14T09:41:07.000Z</time>
      </trkpt>
      <trkpt lat="47.0872" lon="6.71254">
        <ele>778.79998779297</ele>
        <time>2023-05-14T09:41:08.000Z</time>
      </trkpt>
      <trkpt lat="47.0872" lon="6.71254">
        <ele>778.40002441406</ele>
        <time>2023-05-14T09:41:10.000Z</time>
      </trkpt>
      <trkpt lat="47.08717" lon="6.7125">
        <ele>778.20001220703</ele>
        <time>2023-05-14T09:42:04.000Z</time>
      </trkpt>
      <trkpt lat="47.08716" lon="6.71248">
        <ele>778.20001220703</ele>
        <time>2023-05-14T09:42:05.000Z</time>
      </trkpt>
      <trkpt lat="47.08708" lon="6.71238">
        <ele>778</ele>
        <time>2023-05-14T09:42:10.000Z</time>
      </trkpt>
      <trkpt lat="47.08693" lon="6.71229">
        <ele>778</ele>
        <time>2023-05-14T09:42:16.000Z</time>
      </trkpt>
      <trkpt lat="47.08682" lon="6.71209">
        <ele>778</ele>
        <time>2023-05-14T09:42:21.000Z</time>
      </trkpt>
      <trkpt lat="47.08672" lon="6.71173">
        <ele>778.20001220703</ele>
        <time>2023-05-14T09:42:28.000Z</time>
      </trkpt>
      <trkpt lat="47.08655" lon="6.71152">
        <ele>778.59997558594</ele>
        <time>2023-05-14T09:42:33.000Z</time>
      </trkpt>
      <trkpt lat="47.08638" lon="6.71126">
        <ele>778</ele>
        <time>2023-05-14T09:42:41.000Z</time>
      </trkpt>
      <trkpt lat="47.0863" lon="6.71127">
        <ele>777.20001220703</ele>
        <time>2023-05-14T09:42:44.000Z</time>
      </trkpt>
      <trkpt lat="47.08626" lon="6.71128">
        <ele>776.59997558594</ele>
        <time>2023-05-14T09:42:46.000Z</time>
      </trkpt>
      <trkpt lat="47.08622" lon="6.71129">
        <ele>776</ele>
        <time>2023-05-14T09:42:47.000Z</time>
      </trkpt>
      <trkpt lat="47.08613" lon="6.71133">
        <ele>774.79998779297</ele>
        <time>2023-05-14T09:42:50.000Z</time>
      </trkpt>
      <trkpt lat="47.08604" lon="6.71136">
        <ele>773</ele>
        <time>2023-05-14T09:42:53.000Z</time>
      </trkpt>
      <trkpt lat="47.08601" lon="6.71137">
        <ele>772.59997558594</ele>
        <time>2023-05-14T09:42:54.000Z</time>
      </trkpt>
      <trkpt lat="47.08598" lon="6.71138">
        <ele>771.79998779297</ele>
        <time>2023-05-14T09:42:55.000Z</time>
      </trkpt>
      <trkpt lat="47.08594" lon="6.7114">
        <ele>770.79998779297</ele>
        <time>2023-05-14T09:42:57.000Z</time>
      </trkpt>
      <trkpt lat="47.08593" lon="6.71142">
        <ele>769.79998779297</ele>
        <time>2023-05-14T09:42:59.000Z</time>
      </trkpt>
      <trkpt lat="47.08593" lon="6.71144">
        <ele>769.40002441406</ele>
        <time>2023-05-14T09:43:00.000Z</time>
      </trkpt>
      <trkpt lat="47.08593" lon="6.71146">
        <ele>768</ele>
        <time>2023-05-14T09:43:03.000Z</time>
      </trkpt>
      <trkpt lat="47.08593" lon="6.71146">
        <ele>767.79998779297</ele>
        <time>2023-05-14T09:43:04.000Z</time>
      </trkpt>
      <trkpt lat="47.08594" lon="6.7115">
        <ele>766.79998779297</ele>
        <time>2023-05-14T09:43:19.000Z</time>
      </trkpt>
      <trkpt lat="47.08596" lon="6.71152">
        <ele>766.79998779297</ele>
        <time>2023-05-14T09:43:20.000Z</time>
      </trkpt>
      <trkpt lat="47.08606" lon="6.71164">
        <ele>767</ele>
        <time>2023-05-14T09:43:26.000Z</time>
      </trkpt>
      <trkpt lat="47.08608" lon="6.71167">
        <ele>767</ele>
        <time>2023-05-14T09:43:27.000Z</time>
      </trkpt>
      <trkpt lat="47.08616" lon="6.7118">
        <ele>767.79998779297</ele>
        <time>2023-05-14T09:43:31.000Z</time>
      </trkpt>
      <trkpt lat="47.08621" lon="6.71186">
        <ele>768.20001220703</ele>
        <time>2023-05-14T09:43:33.000Z</time>
      </trkpt>
      <trkpt lat="47.08623" lon="6.71189">
        <ele>768.40002441406</ele>
        <time>2023-05-14T09:43:34.000Z</time>
      </trkpt>
      <trkpt lat="47.08625" lon="6.71197">
        <ele>768.40002441406</ele>
        <time>2023-05-14T09:43:37.000Z</time>
      </trkpt>
      <trkpt lat="47.08628" lon="6.71206">
        <ele>768</ele>
        <time>2023-05-14T09:43:40.000Z</time>
      </trkpt>
      <trkpt lat="47.08629" lon="6.71209">
        <ele>767.79998779297</ele>
        <time>2023-05-14T09:43:42.000Z</time>
      </trkpt>
      <trkpt lat="47.08635" lon="6.71221">
        <ele>766.59997558594</ele>
        <time>2023-05-14T09:43:47.000Z</time>
      </trkpt>
      <trkpt lat="47.08637" lon="6.71226">
        <ele>765.79998779297</ele>
        <time>2023-05-14T09:43:49.000Z</time>
      </trkpt>
      <trkpt lat="47.08638" lon="6.71227">
        <ele>765.20001220703</ele>
        <time>2023-05-14T09:43:50.000Z</time>
      </trkpt>
      <trkpt lat="47.08643" lon="6.71238">
        <ele>763.79998779297</ele>
        <time>2023-05-14T09:43:53.000Z</time>
      </trkpt>
      <trkpt lat="47.08648" lon="6.71249">
        <ele>763</ele>
        <time>2023-05-14T09:43:55.000Z</time>
      </trkpt>
      <trkpt lat="47.08654" lon="6.7126">
        <ele>762.40002441406</ele>
        <time>2023-05-14T09:43:57.000Z</time>
      </trkpt>
      <trkpt lat="47.08658" lon="6.71272">
        <ele>762</ele>
        <time>2023-05-14T09:43:59.000Z</time>
      </trkpt>
      <trkpt lat="47.0866" lon="6.71279">
        <ele>761.20001220703</ele>
        <time>2023-05-14T09:44:00.000Z</time>
      </trkpt>
      <trkpt lat="47.08662" lon="6.71292">
        <ele>760.59997558594</ele>
        <time>2023-05-14T09:44:02.000Z</time>
      </trkpt>
      <trkpt lat="47.08663" lon="6.71304">
        <ele>759.59997558594</ele>
        <time>2023-05-14T09:44:04.000Z</time>
      </trkpt>
      <trkpt lat="47.08665" lon="6.71312">
        <ele>759</ele>
        <time>2023-05-14T09:44:06.000Z</time>
      </trkpt>
      <trkpt lat="47.08666" lon="6.71318">
        <ele>758.59997558594</ele>
        <time>2023-05-14T09:44:08.000Z</time>
      </trkpt>
      <trkpt lat="47.08667" lon="6.7132">
        <ele>758.59997558594</ele>
        <time>2023-05-14T09:44:09.000Z</time>
      </trkpt>
      <trkpt lat="47.08666" lon="6.71327">
        <ele>758.59997558594</ele>
        <time>2023-05-14T09:44:11.000Z</time>
      </trkpt>
      <trkpt lat="47.08668" lon="6.71329">
        <ele>758.59997558594</ele>
        <time>2023-05-14T09:44:14.000Z</time>
      </trkpt>
      <trkpt lat="47.08664" lon="6.7132">
        <ele>759</ele>
        <time>2023-05-14T09:56:22.000Z</time>
      </trkpt>
      <trkpt lat="47.08664" lon="6.71316">
        <ele>758.79998779297</ele>
        <time>2023-05-14T09:56:23.000Z</time>
      </trkpt>
      <trkpt lat="47.08663" lon="6.7131">
        <ele>758.59997558594</ele>
        <time>2023-05-14T09:56:25.000Z</time>
      </trkpt>
      <trkpt lat="47.08661" lon="6.71301">
        <ele>758.59997558594</ele>
        <time>2023-05-14T09:56:28.000Z</time>
      </trkpt>
      <trkpt lat="47.08654" lon="6.71292">
        <ele>758.59997558594</ele>
        <time>2023-05-14T09:56:31.000Z</time>
      </trkpt>
      <trkpt lat="47.0865" lon="6.71286">
        <ele>758.79998779297</ele>
        <time>2023-05-14T09:56:33.000Z</time>
      </trkpt>
      <trkpt lat="47.08649" lon="6.71284">
        <ele>759</ele>
        <time>2023-05-14T09:56:34.000Z</time>
      </trkpt>
      <trkpt lat="47.08647" lon="6.71274">
        <ele>759.59997558594</ele>
        <time>2023-05-14T09:56:37.000Z</time>
      </trkpt>
      <trkpt lat="47.08643" lon="6.71267">
        <ele>760</ele>
        <time>2023-05-14T09:56:40.000Z</time>
      </trkpt>
      <trkpt lat="47.08635" lon="6.71259">
        <ele>760.59997558594</ele>
        <time>2023-05-14T09:56:43.000Z</time>
      </trkpt>
      <trkpt lat="47.08632" lon="6.71253">
        <ele>761.20001220703</ele>
        <time>2023-05-14T09:56:45.000Z</time>
      </trkpt>
      <trkpt lat="47.08624" lon="6.71236">
        <ele>762.20001220703</ele>
        <time>2023-05-14T09:56:50.000Z</time>
      </trkpt>
      <trkpt lat="47.08624" lon="6.71231">
        <ele>762.40002441406</ele>
        <time>2023-05-14T09:56:51.000Z</time>
      </trkpt>
      <trkpt lat="47.08622" lon="6.71228">
        <ele>762.79998779297</ele>
        <time>2023-05-14T09:56:52.000Z</time>
      </trkpt>
      <trkpt lat="47.0862" lon="6.71225">
        <ele>763.59997558594</ele>
        <time>2023-05-14T09:56:53.000Z</time>
      </trkpt>
      <trkpt lat="47.08617" lon="6.71216">
        <ele>764.79998779297</ele>
        <time>2023-05-14T09:56:56.000Z</time>
      </trkpt>
      <trkpt lat="47.08616" lon="6.71203">
        <ele>766</ele>
        <time>2023-05-14T09:56:59.000Z</time>
      </trkpt>
      <trkpt lat="47.08615" lon="6.71198">
        <ele>767.59997558594</ele>
        <time>2023-05-14T09:57:02.000Z</time>
      </trkpt>
      <trkpt lat="47.08609" lon="6.71182">
        <ele>768.79998779297</ele>
        <time>2023-05-14T09:57:07.000Z</time>
      </trkpt>
      <trkpt lat="47.08606" lon="6.71174">
        <ele>769.20001220703</ele>
        <time>2023-05-14T09:57:09.000Z</time>
      </trkpt>
      <trkpt lat="47.08594" lon="6.71157">
        <ele>769.40002441406</ele>
        <time>2023-05-14T09:57:15.000Z</time>
      </trkpt>
      <trkpt lat="47.0858" lon="6.71131">
        <ele>768.79998779297</ele>
        <time>2023-05-14T09:57:20.000Z</time>
      </trkpt>
      <trkpt lat="47.08552" lon="6.71101">
        <ele>768.59997558594</ele>
        <time>2023-05-14T09:57:29.000Z</time>
      </trkpt>
      <trkpt lat="47.08545" lon="6.71097">
        <ele>768.79998779297</ele>
        <time>2023-05-14T09:57:35.000Z</time>
      </trkpt>
      <trkpt lat="47.08545" lon="6.71097">
        <ele>768.79998779297</ele>
        <time>2023-05-14T09:57:36.000Z</time>
      </trkpt>
      <trkpt lat="47.08538" lon="6.71094">
        <ele>768.79998779297</ele>
        <time>2023-05-14T09:57:48.000Z</time>
      </trkpt>
      <trkpt lat="47.08534" lon="6.71091">
        <ele>768.79998779297</ele>
        <time>2023-05-14T09:57:50.000Z</time>
      </trkpt>
      <trkpt lat="47.08525" lon="6.71076">
        <ele>769</ele>
        <time>2023-05-14T09:57:54.000Z</time>
      </trkpt>
      <trkpt lat="47.08522" lon="6.71049">
        <ele>769</ele>
        <time>2023-05-14T09:57:59.000Z</time>
      </trkpt>
      <trkpt lat="47.08532" lon="6.7102">
        <ele>768.59997558594</ele>
        <time>2023-05-14T09:58:03.000Z</time>
      </trkpt>
      <trkpt lat="47.08534" lon="6.71008">
        <ele>768.20001220703</ele>
        <time>2023-05-14T09:58:05.000Z</time>
      </trkpt>
      <trkpt lat="47.08532" lon="6.70993">
        <ele>767.79998779297</ele>
        <time>2023-05-14T09:58:07.000Z</time>
      </trkpt>
      <trkpt lat="47.08531" lon="6.70986">
        <ele>767.59997558594</ele>
        <time>2023-05-14T09:58:08.000Z</time>
      </trkpt>
      <trkpt lat="47.08526" lon="6.70965">
        <ele>767.40002441406</ele>
        <time>2023-05-14T09:58:12.000Z</time>
      </trkpt>
      <trkpt lat="47.08522" lon="6.70955">
        <ele>766.40002441406</ele>
        <time>2023-05-14T09:58:15.000Z</time>
      </trkpt>
      <trkpt lat="47.08517" lon="6.70947">
        <ele>765</ele>
        <time>2023-05-14T09:58:18.000Z</time>
      </trkpt>
      <trkpt lat="47.08515" lon="6.70943">
        <ele>763.79998779297</ele>
        <time>2023-05-14T09:58:20.000Z</time>
      </trkpt>
      <trkpt lat="47.08515" lon="6.7094">
        <ele>763.59997558594</ele>
        <time>2023-05-14T09:58:21.000Z</time>
      </trkpt>
      <trkpt lat="47.08517" lon="6.70937">
        <ele>763</ele>
        <time>2023-05-14T09:58:22.000Z</time>
      </trkpt>
      <trkpt lat="47.08518" lon="6.70935">
        <ele>762.79998779297</ele>
        <time>2023-05-14T09:58:23.000Z</time>
      </trkpt>
      <trkpt lat="47.08519" lon="6.7092">
        <ele>761.79998779297</ele>
        <time>2023-05-14T09:58:28.000Z</time>
      </trkpt>
      <trkpt lat="47.08519" lon="6.70904">
        <ele>762.20001220703</ele>
        <time>2023-05-14T09:58:32.000Z</time>
      </trkpt>
      <trkpt lat="47.08519" lon="6.70901">
        <ele>762.59997558594</ele>
        <time>2023-05-14T09:58:33.000Z</time>
      </trkpt>
      <trkpt lat="47.08518" lon="6.70892">
        <ele>763.79998779297</ele>
        <time>2023-05-14T09:58:36.000Z</time>
      </trkpt>
      <trkpt lat="47.08518" lon="6.70886">
        <ele>764.59997558594</ele>
        <time>2023-05-14T09:58:38.000Z</time>
      </trkpt>
      <trkpt lat="47.08518" lon="6.70883">
        <ele>765</ele>
        <time>2023-05-14T09:58:39.000Z</time>
      </trkpt>
      <trkpt lat="47.08515" lon="6.70877">
        <ele>766.20001220703</ele>
        <time>2023-05-14T09:58:42.000Z</time>
      </trkpt>
      <trkpt lat="47.0851" lon="6.70861">
        <ele>767.40002441406</ele>
        <time>2023-05-14T09:58:45.000Z</time>
      </trkpt>
      <trkpt lat="47.08508" lon="6.70857">
        <ele>768.40002441406</ele>
        <time>2023-05-14T09:58:48.000Z</time>
      </trkpt>
      <trkpt lat="47.08502" lon="6.70855">
        <ele>769</ele>
        <time>2023-05-14T09:58:49.000Z</time>
      </trkpt>
      <trkpt lat="47.08501" lon="6.70854">
        <ele>769.59997558594</ele>
        <time>2023-05-14T09:58:51.000Z</time>
      </trkpt>
      <trkpt lat="47.08499" lon="6.7085">
        <ele>770</ele>
        <time>2023-05-14T09:58:52.000Z</time>
      </trkpt>
      <trkpt lat="47.08498" lon="6.70843">
        <ele>770.79998779297</ele>
        <time>2023-05-14T09:58:54.000Z</time>
      </trkpt>
      <trkpt lat="47.08498" lon="6.7084">
        <ele>771.20001220703</ele>
        <time>2023-05-14T09:58:55.000Z</time>
      </trkpt>
      <trkpt lat="47.08499" lon="6.70837">
        <ele>772.20001220703</ele>
        <time>2023-05-14T09:58:57.000Z</time>
      </trkpt>
      <trkpt lat="47.08498" lon="6.70833">
        <ele>772.79998779297</ele>
        <time>2023-05-14T09:58:59.000Z</time>
      </trkpt>
      <trkpt lat="47.08495" lon="6.70828">
        <ele>773.20001220703</ele>
        <time>2023-05-14T09:59:01.000Z</time>
      </trkpt>
      <trkpt lat="47.08493" lon="6.70817">
        <ele>774.79998779297</ele>
        <time>2023-05-14T09:59:05.000Z</time>
      </trkpt>
      <trkpt lat="47.08492" lon="6.70817">
        <ele>775.20001220703</ele>
        <time>2023-05-14T09:59:06.000Z</time>
      </trkpt>
      <trkpt lat="47.08489" lon="6.70817">
        <ele>775.79998779297</ele>
        <time>2023-05-14T09:59:08.000Z</time>
      </trkpt>
      <trkpt lat="47.08483" lon="6.70811">
        <ele>777.20001220703</ele>
        <time>2023-05-14T09:59:12.000Z</time>
      </trkpt>
      <trkpt lat="47.08478" lon="6.70808">
        <ele>778.20001220703</ele>
        <time>2023-05-14T09:59:15.000Z</time>
      </trkpt>
      <trkpt lat="47.08475" lon="6.70799">
        <ele>779.59997558594</ele>
        <time>2023-05-14T09:59:18.000Z</time>
      </trkpt>
      <trkpt lat="47.08474" lon="6.70794">
        <ele>780.20001220703</ele>
        <time>2023-05-14T09:59:19.000Z</time>
      </trkpt>
      <trkpt lat="47.08474" lon="6.7079">
        <ele>780.59997558594</ele>
        <time>2023-05-14T09:59:20.000Z</time>
      </trkpt>
      <trkpt lat="47.08472" lon="6.70786">
        <ele>781.59997558594</ele>
        <time>2023-05-14T09:59:22.000Z</time>
      </trkpt>
      <trkpt lat="47.08471" lon="6.70785">
        <ele>781.79998779297</ele>
        <time>2023-05-14T09:59:23.000Z</time>
      </trkpt>
      <trkpt lat="47.08466" lon="6.70781">
        <ele>783</ele>
        <time>2023-05-14T09:59:26.000Z</time>
      </trkpt>
      <trkpt lat="47.08466" lon="6.70779">
        <ele>783.20001220703</ele>
        <time>2023-05-14T09:59:27.000Z</time>
      </trkpt>
      <trkpt lat="47.08464" lon="6.70778">
        <ele>784</ele>
        <time>2023-05-14T09:59:29.000Z</time>
      </trkpt>
      <trkpt lat="47.08459" lon="6.70773">
        <ele>785.20001220703</ele>
        <time>2023-05-14T09:59:33.000Z</time>
      </trkpt>
      <trkpt lat="47.08457" lon="6.70772">
        <ele>785.40002441406</ele>
        <time>2023-05-14T09:59:34.000Z</time>
      </trkpt>
      <trkpt lat="47.08455" lon="6.70771">
        <ele>786.20001220703</ele>
        <time>2023-05-14T09:59:36.000Z</time>
      </trkpt>
      <trkpt lat="47.08455" lon="6.70769">
        <ele>787</ele>
        <time>2023-05-14T09:59:38.000Z</time>
      </trkpt>
      <trkpt lat="47.08454" lon="6.70766">
        <ele>787.59997558594</ele>
        <time>2023-05-14T09:59:40.000Z</time>
      </trkpt>
      <trkpt lat="47.08456" lon="6.70759">
        <ele>788.79998779297</ele>
        <time>2023-05-14T09:59:43.000Z</time>
      </trkpt>
      <trkpt lat="47.08458" lon="6.70757">
        <ele>789.59997558594</ele>
        <time>2023-05-14T09:59:45.000Z</time>
      </trkpt>
      <trkpt lat="47.08461" lon="6.70755">
        <ele>790</ele>
        <time>2023-05-14T09:59:47.000Z</time>
      </trkpt>
      <trkpt lat="47.08462" lon="6.70756">
        <ele>790.20001220703</ele>
        <time>2023-05-14T09:59:49.000Z</time>
      </trkpt>
      <trkpt lat="47.08467" lon="6.70757">
        <ele>791.20001220703</ele>
        <time>2023-05-14T09:59:53.000Z</time>
      </trkpt>
      <trkpt lat="47.08473" lon="6.70758">
        <ele>792.20001220703</ele>
        <time>2023-05-14T09:59:58.000Z</time>
      </trkpt>
      <trkpt lat="47.08475" lon="6.7076">
        <ele>792.59997558594</ele>
        <time>2023-05-14T10:00:00.000Z</time>
      </trkpt>
      <trkpt lat="47.08479" lon="6.7076">
        <ele>793.20001220703</ele>
        <time>2023-05-14T10:00:03.000Z</time>
      </trkpt>
      <trkpt lat="47.0848" lon="6.7076">
        <ele>793.40002441406</ele>
        <time>2023-05-14T10:00:04.000Z</time>
      </trkpt>
      <trkpt lat="47.08482" lon="6.7076">
        <ele>793.79998779297</ele>
        <time>2023-05-14T10:00:06.000Z</time>
      </trkpt>
      <trkpt lat="47.08485" lon="6.70761">
        <ele>794.59997558594</ele>
        <time>2023-05-14T10:00:08.000Z</time>
      </trkpt>
      <trkpt lat="47.08489" lon="6.70761">
        <ele>795.20001220703</ele>
        <time>2023-05-14T10:00:11.000Z</time>
      </trkpt>
      <trkpt lat="47.08491" lon="6.70761">
        <ele>795.59997558594</ele>
        <time>2023-05-14T10:00:12.000Z</time>
      </trkpt>
      <trkpt lat="47.08493" lon="6.70763">
        <ele>795.79998779297</ele>
        <time>2023-05-14T10:00:13.000Z</time>
      </trkpt>
      <trkpt lat="47.08498" lon="6.70766">
        <ele>796.79998779297</ele>
        <time>2023-05-14T10:00:17.000Z</time>
      </trkpt>
      <trkpt lat="47.08502" lon="6.70768">
        <ele>797.20001220703</ele>
        <time>2023-05-14T10:00:19.000Z</time>
      </trkpt>
      <trkpt lat="47.08507" lon="6.70771">
        <ele>797.59997558594</ele>
        <time>2023-05-14T10:00:22.000Z</time>
      </trkpt>
      <trkpt lat="47.08509" lon="6.70771">
        <ele>797.79998779297</ele>
        <time>2023-05-14T10:00:23.000Z</time>
      </trkpt>
      <trkpt lat="47.08512" lon="6.70774">
        <ele>798</ele>
        <time>2023-05-14T10:00:25.000Z</time>
      </trkpt>
      <trkpt lat="47.08514" lon="6.70776">
        <ele>798.40002441406</ele>
        <time>2023-05-14T10:00:26.000Z</time>
      </trkpt>
      <trkpt lat="47.08519" lon="6.70778">
        <ele>798.59997558594</ele>
        <time>2023-05-14T10:00:28.000Z</time>
      </trkpt>
      <trkpt lat="47.08523" lon="6.70781">
        <ele>798.79998779297</ele>
        <time>2023-05-14T10:00:30.000Z</time>
      </trkpt>
      <trkpt lat="47.08532" lon="6.70791">
        <ele>799.59997558594</ele>
        <time>2023-05-14T10:00:36.000Z</time>
      </trkpt>
      <trkpt lat="47.08539" lon="6.70798">
        <ele>799.59997558594</ele>
        <time>2023-05-14T10:00:39.000Z</time>
      </trkpt>
      <trkpt lat="47.08545" lon="6.708">
        <ele>800</ele>
        <time>2023-05-14T10:00:43.000Z</time>
      </trkpt>
      <trkpt lat="47.08558" lon="6.70804">
        <ele>800.79998779297</ele>
        <time>2023-05-14T10:00:51.000Z</time>
      </trkpt>
      <trkpt lat="47.08571" lon="6.70808">
        <ele>801.79998779297</ele>
        <time>2023-05-14T10:00:59.000Z</time>
      </trkpt>
      <trkpt lat="47.08581" lon="6.70812">
        <ele>803</ele>
        <time>2023-05-14T10:01:05.000Z</time>
      </trkpt>
      <trkpt lat="47.08587" lon="6.70815">
        <ele>803.40002441406</ele>
        <time>2023-05-14T10:01:09.000Z</time>
      </trkpt>
      <trkpt lat="47.08589" lon="6.70818">
        <ele>804</ele>
        <time>2023-05-14T10:01:12.000Z</time>
      </trkpt>
      <trkpt lat="47.08601" lon="6.70823">
        <ele>804.59997558594</ele>
        <time>2023-05-14T10:01:18.000Z</time>
      </trkpt>
      <trkpt lat="47.08605" lon="6.70825">
        <ele>804.79998779297</ele>
        <time>2023-05-14T10:01:20.000Z</time>
      </trkpt>
      <trkpt lat="47.08611" lon="6.70828">
        <ele>805.59997558594</ele>
        <time>2023-05-14T10:01:24.000Z</time>
      </trkpt>
      <trkpt lat="47.08614" lon="6.7083">
        <ele>806</ele>
        <time>2023-05-14T10:01:26.000Z</time>
      </trkpt>
      <trkpt lat="47.0862" lon="6.70833">
        <ele>806.40002441406</ele>
        <time>2023-05-14T10:01:30.000Z</time>
      </trkpt>
      <trkpt lat="47.08622" lon="6.70834">
        <ele>806.59997558594</ele>
        <time>2023-05-14T10:01:31.000Z</time>
      </trkpt>
      <trkpt lat="47.08625" lon="6.70835">
        <ele>807</ele>
        <time>2023-05-14T10:01:33.000Z</time>
      </trkpt>
      <trkpt lat="47.08629" lon="6.70837">
        <ele>807.40002441406</ele>
        <time>2023-05-14T10:01:35.000Z</time>
      </trkpt>
      <trkpt lat="47.08635" lon="6.70842">
        <ele>808.20001220703</ele>
        <time>2023-05-14T10:01:39.000Z</time>
      </trkpt>
      <trkpt lat="47.08639" lon="6.70845">
        <ele>808.59997558594</ele>
        <time>2023-05-14T10:01:42.000Z</time>
      </trkpt>
      <trkpt lat="47.08643" lon="6.70847">
        <ele>809.20001220703</ele>
        <time>2023-05-14T10:01:46.000Z</time>
      </trkpt>
      <trkpt lat="47.08647" lon="6.70849">
        <ele>809.79998779297</ele>
        <time>2023-05-14T10:01:49.000Z</time>
      </trkpt>
      <trkpt lat="47.08651" lon="6.7085">
        <ele>810.20001220703</ele>
        <time>2023-05-14T10:01:51.000Z</time>
      </trkpt>
      <trkpt lat="47.08655" lon="6.7085">
        <ele>810.40002441406</ele>
        <time>2023-05-14T10:01:53.000Z</time>
      </trkpt>
      <trkpt lat="47.08656" lon="6.70852">
        <ele>810.59997558594</ele>
        <time>2023-05-14T10:01:54.000Z</time>
      </trkpt>
      <trkpt lat="47.08667" lon="6.70854">
        <ele>811.59997558594</ele>
        <time>2023-05-14T10:02:01.000Z</time>
      </trkpt>
      <trkpt lat="47.08675" lon="6.70853">
        <ele>812.79998779297</ele>
        <time>2023-05-14T10:02:07.000Z</time>
      </trkpt>
      <trkpt lat="47.08678" lon="6.70852">
        <ele>813</ele>
        <time>2023-05-14T10:02:09.000Z</time>
      </trkpt>
      <trkpt lat="47.08681" lon="6.70851">
        <ele>813.20001220703</ele>
        <time>2023-05-14T10:02:11.000Z</time>
      </trkpt>
      <trkpt lat="47.08688" lon="6.70847">
        <ele>813.59997558594</ele>
        <time>2023-05-14T10:02:15.000Z</time>
      </trkpt>
      <trkpt lat="47.08692" lon="6.70847">
        <ele>813.79998779297</ele>
        <time>2023-05-14T10:02:17.000Z</time>
      </trkpt>
      <trkpt lat="47.08704" lon="6.70846">
        <ele>814.20001220703</ele>
        <time>2023-05-14T10:02:23.000Z</time>
      </trkpt>
      <trkpt lat="47.08722" lon="6.70846">
        <ele>814.59997558594</ele>
        <time>2023-05-14T10:02:30.000Z</time>
      </trkpt>
      <trkpt lat="47.08728" lon="6.70847">
        <ele>814.79998779297</ele>
        <time>2023-05-14T10:02:33.000Z</time>
      </trkpt>
      <trkpt lat="47.08738" lon="6.7085">
        <ele>815</ele>
        <time>2023-05-14T10:02:38.000Z</time>
      </trkpt>
      <trkpt lat="47.08754" lon="6.70858">
        <ele>815.59997558594</ele>
        <time>2023-05-14T10:02:44.000Z</time>
      </trkpt>
      <trkpt lat="47.08762" lon="6.70868">
        <ele>816</ele>
        <time>2023-05-14T10:02:49.000Z</time>
      </trkpt>
      <trkpt lat="47.08765" lon="6.7087">
        <ele>816.20001220703</ele>
        <time>2023-05-14T10:02:50.000Z</time>
      </trkpt>
      <trkpt lat="47.08766" lon="6.70872">
        <ele>816.40002441406</ele>
        <time>2023-05-14T10:02:51.000Z</time>
      </trkpt>
      <trkpt lat="47.0877" lon="6.70877">
        <ele>816.59997558594</ele>
        <time>2023-05-14T10:02:54.000Z</time>
      </trkpt>
      <trkpt lat="47.08774" lon="6.70886">
        <ele>817.59997558594</ele>
        <time>2023-05-14T10:03:00.000Z</time>
      </trkpt>
      <trkpt lat="47.08776" lon="6.7089">
        <ele>817.79998779297</ele>
        <time>2023-05-14T10:03:01.000Z</time>
      </trkpt>
      <trkpt lat="47.08782" lon="6.70893">
        <ele>818.20001220703</ele>
        <time>2023-05-14T10:03:04.000Z</time>
      </trkpt>
      <trkpt lat="47.08787" lon="6.70899">
        <ele>818.79998779297</ele>
        <time>2023-05-14T10:03:08.000Z</time>
      </trkpt>
      <trkpt lat="47.0879" lon="6.70905">
        <ele>819.20001220703</ele>
        <time>2023-05-14T10:03:11.000Z</time>
      </trkpt>
      <trkpt lat="47.08793" lon="6.7091">
        <ele>819.79998779297</ele>
        <time>2023-05-14T10:03:14.000Z</time>
      </trkpt>
      <trkpt lat="47.08795" lon="6.70914">
        <ele>820.59997558594</ele>
        <time>2023-05-14T10:03:16.000Z</time>
      </trkpt>
      <trkpt lat="47.08798" lon="6.70916">
        <ele>821</ele>
        <time>2023-05-14T10:03:18.000Z</time>
      </trkpt>
      <trkpt lat="47.08802" lon="6.70919">
        <ele>822</ele>
        <time>2023-05-14T10:03:22.000Z</time>
      </trkpt>
      <trkpt lat="47.08803" lon="6.70922">
        <ele>822.79998779297</ele>
        <time>2023-05-14T10:03:24.000Z</time>
      </trkpt>
      <trkpt lat="47.08804" lon="6.70924">
        <ele>823</ele>
        <time>2023-05-14T10:03:25.000Z</time>
      </trkpt>
      <trkpt lat="47.08807" lon="6.70929">
        <ele>823.40002441406</ele>
        <time>2023-05-14T10:03:27.000Z</time>
      </trkpt>
      <trkpt lat="47.08815" lon="6.70937">
        <ele>824.40002441406</ele>
        <time>2023-05-14T10:03:31.000Z</time>
      </trkpt>
      <trkpt lat="47.08824" lon="6.70941">
        <ele>825.40002441406</ele>
        <time>2023-05-14T10:03:35.000Z</time>
      </trkpt>
      <trkpt lat="47.08832" lon="6.70939">
        <ele>826</ele>
        <time>2023-05-14T10:03:38.000Z</time>
      </trkpt>
      <trkpt lat="47.08836" lon="6.70937">
        <ele>826.79998779297</ele>
        <time>2023-05-14T10:03:41.000Z</time>
      </trkpt>
      <trkpt lat="47.08839" lon="6.70931">
        <ele>827</ele>
        <time>2023-05-14T10:03:44.000Z</time>
      </trkpt>
      <trkpt lat="47.08843" lon="6.70923">
        <ele>827.79998779297</ele>
        <time>2023-05-14T10:03:48.000Z</time>
      </trkpt>
      <trkpt lat="47.08845" lon="6.70918">
        <ele>828.20001220703</ele>
        <time>2023-05-14T10:03:50.000Z</time>
      </trkpt>
      <trkpt lat="47.08848" lon="6.70911">
        <ele>828.79998779297</ele>
        <time>2023-05-14T10:03:54.000Z</time>
      </trkpt>
      <trkpt lat="47.08851" lon="6.70902">
        <ele>829.59997558594</ele>
        <time>2023-05-14T10:03:58.000Z</time>
      </trkpt>
      <trkpt lat="47.08852" lon="6.709">
        <ele>830</ele>
        <time>2023-05-14T10:03:59.000Z</time>
      </trkpt>
      <trkpt lat="47.08856" lon="6.7089">
        <ele>830.79998779297</ele>
        <time>2023-05-14T10:04:04.000Z</time>
      </trkpt>
      <trkpt lat="47.08857" lon="6.70886">
        <ele>831</ele>
        <time>2023-05-14T10:04:06.000Z</time>
      </trkpt>
      <trkpt lat="47.08862" lon="6.70873">
        <ele>831.79998779297</ele>
        <time>2023-05-14T10:04:12.000Z</time>
      </trkpt>
      <trkpt lat="47.08863" lon="6.70868">
        <ele>832</ele>
        <time>2023-05-14T10:04:15.000Z</time>
      </trkpt>
      <trkpt lat="47.08866" lon="6.70861">
        <ele>832.59997558594</ele>
        <time>2023-05-14T10:04:18.000Z</time>
      </trkpt>
      <trkpt lat="47.08867" lon="6.70859">
        <ele>832.59997558594</ele>
        <time>2023-05-14T10:04:19.000Z</time>
      </trkpt>
      <trkpt lat="47.08868" lon="6.70851">
        <ele>833.20001220703</ele>
        <time>2023-05-14T10:04:22.000Z</time>
      </trkpt>
      <trkpt lat="47.08869" lon="6.70844">
        <ele>833.59997558594</ele>
        <time>2023-05-14T10:04:25.000Z</time>
      </trkpt>
      <trkpt lat="47.08867" lon="6.70832">
        <ele>834.20001220703</ele>
        <time>2023-05-14T10:04:29.000Z</time>
      </trkpt>
      <trkpt lat="47.08866" lon="6.70824">
        <ele>834.59997558594</ele>
        <time>2023-05-14T10:04:32.000Z</time>
      </trkpt>
      <trkpt lat="47.08866" lon="6.70811">
        <ele>835.40002441406</ele>
        <time>2023-05-14T10:04:38.000Z</time>
      </trkpt>
      <trkpt lat="47.08866" lon="6.70809">
        <ele>835.40002441406</ele>
        <time>2023-05-14T10:04:39.000Z</time>
      </trkpt>
      <trkpt lat="47.08865" lon="6.70806">
        <ele>835.40002441406</ele>
        <time>2023-05-14T10:04:40.000Z</time>
      </trkpt>
      <trkpt lat="47.0886" lon="6.70777">
        <ele>836.40002441406</ele>
        <time>2023-05-14T10:04:49.000Z</time>
      </trkpt>
      <trkpt lat="47.0886" lon="6.70772">
        <ele>836.40002441406</ele>
        <time>2023-05-14T10:04:51.000Z</time>
      </trkpt>
      <trkpt lat="47.08856" lon="6.70769">
        <ele>836.79998779297</ele>
        <time>2023-05-14T10:04:55.000Z</time>
      </trkpt>
      <trkpt lat="47.08847" lon="6.70759">
        <ele>837.20001220703</ele>
        <time>2023-05-14T10:05:02.000Z</time>
      </trkpt>
      <trkpt lat="47.08846" lon="6.70758">
        <ele>837.40002441406</ele>
        <time>2023-05-14T10:05:03.000Z</time>
      </trkpt>
      <trkpt lat="47.08838" lon="6.70752">
        <ele>838.20001220703</ele>
        <time>2023-05-14T10:05:08.000Z</time>
      </trkpt>
      <trkpt lat="47.08834" lon="6.70748">
        <ele>838.40002441406</ele>
        <time>2023-05-14T10:05:10.000Z</time>
      </trkpt>
      <trkpt lat="47.0882" lon="6.70736">
        <ele>839.20001220703</ele>
        <time>2023-05-14T10:05:17.000Z</time>
      </trkpt>
      <trkpt lat="47.08813" lon="6.70731">
        <ele>839.40002441406</ele>
        <time>2023-05-14T10:05:21.000Z</time>
      </trkpt>
      <trkpt lat="47.08806" lon="6.70729">
        <ele>839.79998779297</ele>
        <time>2023-05-14T10:05:24.000Z</time>
      </trkpt>
      <trkpt lat="47.08794" lon="6.70723">
        <ele>840</ele>
        <time>2023-05-14T10:05:30.000Z</time>
      </trkpt>
      <trkpt lat="47.08793" lon="6.70723">
        <ele>840.40002441406</ele>
        <time>2023-05-14T10:05:31.000Z</time>
      </trkpt>
      <trkpt lat="47.08787" lon="6.70723">
        <ele>840.40002441406</ele>
        <time>2023-05-14T10:05:35.000Z</time>
      </trkpt>
      <trkpt lat="47.08781" lon="6.70719">
        <ele>840.40002441406</ele>
        <time>2023-05-14T10:05:39.000Z</time>
      </trkpt>
      <trkpt lat="47.08778" lon="6.70717">
        <ele>840.40002441406</ele>
        <time>2023-05-14T10:05:41.000Z</time>
      </trkpt>
      <trkpt lat="47.08766" lon="6.70713">
        <ele>840.40002441406</ele>
        <time>2023-05-14T10:05:47.000Z</time>
      </trkpt>
      <trkpt lat="47.08745" lon="6.7071">
        <ele>841</ele>
        <time>2023-05-14T10:05:55.000Z</time>
      </trkpt>
      <trkpt lat="47.08734" lon="6.70708">
        <ele>841.40002441406</ele>
        <time>2023-05-14T10:06:00.000Z</time>
      </trkpt>
      <trkpt lat="47.0873" lon="6.7071">
        <ele>841.59997558594</ele>
        <time>2023-05-14T10:06:02.000Z</time>
      </trkpt>
      <trkpt lat="47.08715" lon="6.7071">
        <ele>842.20001220703</ele>
        <time>2023-05-14T10:06:08.000Z</time>
      </trkpt>
      <trkpt lat="47.08696" lon="6.70711">
        <ele>843.20001220703</ele>
        <time>2023-05-14T10:06:15.000Z</time>
      </trkpt>
      <trkpt lat="47.08692" lon="6.7071">
        <ele>843.40002441406</ele>
        <time>2023-05-14T10:06:16.000Z</time>
      </trkpt>
      <trkpt lat="47.08679" lon="6.70704">
        <ele>844.20001220703</ele>
        <time>2023-05-14T10:06:21.000Z</time>
      </trkpt>
      <trkpt lat="47.08673" lon="6.70701">
        <ele>844.59997558594</ele>
        <time>2023-05-14T10:06:23.000Z</time>
      </trkpt>
      <trkpt lat="47.08663" lon="6.707">
        <ele>845.79998779297</ele>
        <time>2023-05-14T10:06:28.000Z</time>
      </trkpt>
      <trkpt lat="47.08659" lon="6.70697">
        <ele>847</ele>
        <time>2023-05-14T10:06:32.000Z</time>
      </trkpt>
      <trkpt lat="47.08658" lon="6.70697">
        <ele>847.40002441406</ele>
        <time>2023-05-14T10:06:33.000Z</time>
      </trkpt>
      <trkpt lat="47.08656" lon="6.70698">
        <ele>847.79998779297</ele>
        <time>2023-05-14T10:06:34.000Z</time>
      </trkpt>
      <trkpt lat="47.08654" lon="6.70697">
        <ele>848.40002441406</ele>
        <time>2023-05-14T10:06:35.000Z</time>
      </trkpt>
      <trkpt lat="47.08646" lon="6.70696">
        <ele>849.40002441406</ele>
        <time>2023-05-14T10:06:39.000Z</time>
      </trkpt>
      <trkpt lat="47.08643" lon="6.70694">
        <ele>850</ele>
        <time>2023-05-14T10:06:41.000Z</time>
      </trkpt>
      <trkpt lat="47.08637" lon="6.70691">
        <ele>850.59997558594</ele>
        <time>2023-05-14T10:06:44.000Z</time>
      </trkpt>
      <trkpt lat="47.08625" lon="6.70686">
        <ele>851.79998779297</ele>
        <time>2023-05-14T10:06:49.000Z</time>
      </trkpt>
      <trkpt lat="47.08622" lon="6.70684">
        <ele>852.40002441406</ele>
        <time>2023-05-14T10:06:51.000Z</time>
      </trkpt>
      <trkpt lat="47.08618" lon="6.70682">
        <ele>852.79998779297</ele>
        <time>2023-05-14T10:06:53.000Z</time>
      </trkpt>
      <trkpt lat="47.08617" lon="6.7068">
        <ele>852.79998779297</ele>
        <time>2023-05-14T10:06:54.000Z</time>
      </trkpt>
      <trkpt lat="47.08615" lon="6.70679">
        <ele>853.20001220703</ele>
        <time>2023-05-14T10:06:55.000Z</time>
      </trkpt>
      <trkpt lat="47.08605" lon="6.70673">
        <ele>854</ele>
        <time>2023-05-14T10:07:00.000Z</time>
      </trkpt>
      <trkpt lat="47.08603" lon="6.70671">
        <ele>854.40002441406</ele>
        <time>2023-05-14T10:07:02.000Z</time>
      </trkpt>
      <trkpt lat="47.08601" lon="6.7067">
        <ele>854.40002441406</ele>
        <time>2023-05-14T10:07:03.000Z</time>
      </trkpt>
      <trkpt lat="47.08597" lon="6.70669">
        <ele>855</ele>
        <time>2023-05-14T10:07:05.000Z</time>
      </trkpt>
      <trkpt lat="47.08595" lon="6.70668">
        <ele>855.40002441406</ele>
        <time>2023-05-14T10:07:07.000Z</time>
      </trkpt>
      <trkpt lat="47.0859" lon="6.70665">
        <ele>855.79998779297</ele>
        <time>2023-05-14T10:07:10.000Z</time>
      </trkpt>
      <trkpt lat="47.08587" lon="6.70664">
        <ele>856</ele>
        <time>2023-05-14T10:07:12.000Z</time>
      </trkpt>
      <trkpt lat="47.08585" lon="6.70662">
        <ele>856.59997558594</ele>
        <time>2023-05-14T10:07:14.000Z</time>
      </trkpt>
      <trkpt lat="47.08585" lon="6.70661">
        <ele>856.59997558594</ele>
        <time>2023-05-14T10:07:15.000Z</time>
      </trkpt>
      <trkpt lat="47.08583" lon="6.7066">
        <ele>856.79998779297</ele>
        <time>2023-05-14T10:07:16.000Z</time>
      </trkpt>
      <trkpt lat="47.08581" lon="6.70658">
        <ele>857.20001220703</ele>
        <time>2023-05-14T10:07:18.000Z</time>
      </trkpt>
      <trkpt lat="47.08577" lon="6.70655">
        <ele>857.40002441406</ele>
        <time>2023-05-14T10:07:21.000Z</time>
      </trkpt>
      <trkpt lat="47.08575" lon="6.70655">
        <ele>857.59997558594</ele>
        <time>2023-05-14T10:07:22.000Z</time>
      </trkpt>
      <trkpt lat="47.0857" lon="6.70652">
        <ele>858.20001220703</ele>
        <time>2023-05-14T10:07:26.000Z</time>
      </trkpt>
      <trkpt lat="47.08569" lon="6.70651">
        <ele>858.40002441406</ele>
        <time>2023-05-14T10:07:27.000Z</time>
      </trkpt>
      <trkpt lat="47.08561" lon="6.70645">
        <ele>859.40002441406</ele>
        <time>2023-05-14T10:07:33.000Z</time>
      </trkpt>
      <trkpt lat="47.08558" lon="6.70644">
        <ele>859.59997558594</ele>
        <time>2023-05-14T10:07:35.000Z</time>
      </trkpt>
      <trkpt lat="47.08553" lon="6.70641">
        <ele>860.40002441406</ele>
        <time>2023-05-14T10:07:39.000Z</time>
      </trkpt>
      <trkpt lat="47.08549" lon="6.70638">
        <ele>861</ele>
        <time>2023-05-14T10:07:42.000Z</time>
      </trkpt>
      <trkpt lat="47.08548" lon="6.70637">
        <ele>861.20001220703</ele>
        <time>2023-05-14T10:07:43.000Z</time>
      </trkpt>
      <trkpt lat="47.08547" lon="6.70636">
        <ele>861.40002441406</ele>
        <time>2023-05-14T10:07:44.000Z</time>
      </trkpt>
      <trkpt lat="47.08545" lon="6.70635">
        <ele>861.79998779297</ele>
        <time>2023-05-14T10:07:46.000Z</time>
      </trkpt>
      <trkpt lat="47.0854" lon="6.7063">
        <ele>862.40002441406</ele>
        <time>2023-05-14T10:07:50.000Z</time>
      </trkpt>
      <trkpt lat="47.08533" lon="6.70624">
        <ele>863.59997558594</ele>
        <time>2023-05-14T10:07:55.000Z</time>
      </trkpt>
      <trkpt lat="47.08531" lon="6.70621">
        <ele>864</ele>
        <time>2023-05-14T10:07:57.000Z</time>
      </trkpt>
      <trkpt lat="47.0853" lon="6.7062">
        <ele>864.20001220703</ele>
        <time>2023-05-14T10:07:58.000Z</time>
      </trkpt>
      <trkpt lat="47.08529" lon="6.70619">
        <ele>864.59997558594</ele>
        <time>2023-05-14T10:07:59.000Z</time>
      </trkpt>
      <trkpt lat="47.08527" lon="6.70617">
        <ele>864.59997558594</ele>
        <time>2023-05-14T10:08:00.000Z</time>
      </trkpt>
      <trkpt lat="47.08522" lon="6.70612">
        <ele>865.59997558594</ele>
        <time>2023-05-14T10:08:04.000Z</time>
      </trkpt>
      <trkpt lat="47.0852" lon="6.70612">
        <ele>865.79998779297</ele>
        <time>2023-05-14T10:08:05.000Z</time>
      </trkpt>
      <trkpt lat="47.08517" lon="6.70606">
        <ele>866.40002441406</ele>
        <time>2023-05-14T10:08:08.000Z</time>
      </trkpt>
      <trkpt lat="47.08516" lon="6.70604">
        <ele>866.59997558594</ele>
        <time>2023-05-14T10:08:09.000Z</time>
      </trkpt>
      <trkpt lat="47.08515" lon="6.706">
        <ele>866.79998779297</ele>
        <time>2023-05-14T10:08:10.000Z</time>
      </trkpt>
      <trkpt lat="47.08514" lon="6.70598">
        <ele>867</ele>
        <time>2023-05-14T10:08:11.000Z</time>
      </trkpt>
      <trkpt lat="47.08512" lon="6.70594">
        <ele>867.40002441406</ele>
        <time>2023-05-14T10:08:14.000Z</time>
      </trkpt>
      <trkpt lat="47.08511" lon="6.70593">
        <ele>867.79998779297</ele>
        <time>2023-05-14T10:08:15.000Z</time>
      </trkpt>
      <trkpt lat="47.08509" lon="6.70589">
        <ele>868</ele>
        <time>2023-05-14T10:08:17.000Z</time>
      </trkpt>
      <trkpt lat="47.08507" lon="6.70585">
        <ele>868.79998779297</ele>
        <time>2023-05-14T10:08:20.000Z</time>
      </trkpt>
      <trkpt lat="47.08503" lon="6.70574">
        <ele>870</ele>
        <time>2023-05-14T10:08:27.000Z</time>
      </trkpt>
      <trkpt lat="47.08501" lon="6.70565">
        <ele>871</ele>
        <time>2023-05-14T10:08:32.000Z</time>
      </trkpt>
      <trkpt lat="47.085" lon="6.70564">
        <ele>871.40002441406</ele>
        <time>2023-05-14T10:08:33.000Z</time>
      </trkpt>
      <trkpt lat="47.08498" lon="6.70559">
        <ele>871.79998779297</ele>
        <time>2023-05-14T10:08:36.000Z</time>
      </trkpt>
      <trkpt lat="47.08497" lon="6.70557">
        <ele>872.20001220703</ele>
        <time>2023-05-14T10:08:38.000Z</time>
      </trkpt>
      <trkpt lat="47.08496" lon="6.70555">
        <ele>872.40002441406</ele>
        <time>2023-05-14T10:08:39.000Z</time>
      </trkpt>
      <trkpt lat="47.08495" lon="6.70551">
        <ele>873</ele>
        <time>2023-05-14T10:08:41.000Z</time>
      </trkpt>
      <trkpt lat="47.08494" lon="6.7055">
        <ele>873</ele>
        <time>2023-05-14T10:08:42.000Z</time>
      </trkpt>
      <trkpt lat="47.08492" lon="6.70544">
        <ele>873.59997558594</ele>
        <time>2023-05-14T10:08:45.000Z</time>
      </trkpt>
      <trkpt lat="47.08492" lon="6.70544">
        <ele>873.79998779297</ele>
        <time>2023-05-14T10:08:46.000Z</time>
      </trkpt>
      <trkpt lat="47.08488" lon="6.70533">
        <ele>874.79998779297</ele>
        <time>2023-05-14T10:08:50.000Z</time>
      </trkpt>
      <trkpt lat="47.08487" lon="6.70528">
        <ele>875.40002441406</ele>
        <time>2023-05-14T10:08:53.000Z</time>
      </trkpt>
      <trkpt lat="47.08486" lon="6.70525">
        <ele>875.79998779297</ele>
        <time>2023-05-14T10:08:55.000Z</time>
      </trkpt>
      <trkpt lat="47.08483" lon="6.7052">
        <ele>876.40002441406</ele>
        <time>2023-05-14T10:08:58.000Z</time>
      </trkpt>
      <trkpt lat="47.08481" lon="6.70512">
        <ele>877.20001220703</ele>
        <time>2023-05-14T10:09:01.000Z</time>
      </trkpt>
      <trkpt lat="47.0848" lon="6.7051">
        <ele>877.40002441406</ele>
        <time>2023-05-14T10:09:02.000Z</time>
      </trkpt>
      <trkpt lat="47.08477" lon="6.70502">
        <ele>878.20001220703</ele>
        <time>2023-05-14T10:09:07.000Z</time>
      </trkpt>
      <trkpt lat="47.08477" lon="6.705">
        <ele>878.40002441406</ele>
        <time>2023-05-14T10:09:08.000Z</time>
      </trkpt>
      <trkpt lat="47.08476" lon="6.70492">
        <ele>879.20001220703</ele>
        <time>2023-05-14T10:09:13.000Z</time>
      </trkpt>
      <trkpt lat="47.08475" lon="6.70489">
        <ele>879.40002441406</ele>
        <time>2023-05-14T10:09:15.000Z</time>
      </trkpt>
      <trkpt lat="47.08471" lon="6.70478">
        <ele>880</ele>
        <time>2023-05-14T10:09:21.000Z</time>
      </trkpt>
      <trkpt lat="47.0847" lon="6.70472">
        <ele>880.40002441406</ele>
        <time>2023-05-14T10:09:24.000Z</time>
      </trkpt>
      <trkpt lat="47.08469" lon="6.7047">
        <ele>880.59997558594</ele>
        <time>2023-05-14T10:09:25.000Z</time>
      </trkpt>
      <trkpt lat="47.08468" lon="6.70466">
        <ele>881.20001220703</ele>
        <time>2023-05-14T10:09:27.000Z</time>
      </trkpt>
      <trkpt lat="47.08465" lon="6.70459">
        <ele>881.79998779297</ele>
        <time>2023-05-14T10:09:31.000Z</time>
      </trkpt>
      <trkpt lat="47.08465" lon="6.70458">
        <ele>881.79998779297</ele>
        <time>2023-05-14T10:09:32.000Z</time>
      </trkpt>
      <trkpt lat="47.08463" lon="6.70456">
        <ele>882</ele>
        <time>2023-05-14T10:09:34.000Z</time>
      </trkpt>
      <trkpt lat="47.08463" lon="6.70452">
        <ele>882.59997558594</ele>
        <time>2023-05-14T10:09:36.000Z</time>
      </trkpt>
      <trkpt lat="47.08465" lon="6.70449">
        <ele>882.79998779297</ele>
        <time>2023-05-14T10:09:40.000Z</time>
      </trkpt>
      <trkpt lat="47.08471" lon="6.70449">
        <ele>883.79998779297</ele>
        <time>2023-05-14T10:09:46.000Z</time>
      </trkpt>
      <trkpt lat="47.08473" lon="6.70449">
        <ele>884</ele>
        <time>2023-05-14T10:09:48.000Z</time>
      </trkpt>
      <trkpt lat="47.08475" lon="6.70448">
        <ele>884.59997558594</ele>
        <time>2023-05-14T10:09:50.000Z</time>
      </trkpt>
      <trkpt lat="47.08478" lon="6.70449">
        <ele>885.20001220703</ele>
        <time>2023-05-14T10:09:52.000Z</time>
      </trkpt>
      <trkpt lat="47.0848" lon="6.70449">
        <ele>885.40002441406</ele>
        <time>2023-05-14T10:09:54.000Z</time>
      </trkpt>
      <trkpt lat="47.08481" lon="6.70449">
        <ele>885.79998779297</ele>
        <time>2023-05-14T10:09:56.000Z</time>
      </trkpt>
      <trkpt lat="47.08483" lon="6.70448">
        <ele>886.20001220703</ele>
        <time>2023-05-14T10:09:58.000Z</time>
      </trkpt>
      <trkpt lat="47.08486" lon="6.70448">
        <ele>886.40002441406</ele>
        <time>2023-05-14T10:10:00.000Z</time>
      </trkpt>
      <trkpt lat="47.08492" lon="6.70447">
        <ele>887</ele>
        <time>2023-05-14T10:10:04.000Z</time>
      </trkpt>
      <trkpt lat="47.08494" lon="6.70446">
        <ele>887.40002441406</ele>
        <time>2023-05-14T10:10:05.000Z</time>
      </trkpt>
      <trkpt lat="47.08498" lon="6.70445">
        <ele>887.79998779297</ele>
        <time>2023-05-14T10:10:07.000Z</time>
      </trkpt>
      <trkpt lat="47.08506" lon="6.70441">
        <ele>888.59997558594</ele>
        <time>2023-05-14T10:10:12.000Z</time>
      </trkpt>
      <trkpt lat="47.08511" lon="6.70436">
        <ele>889</ele>
        <time>2023-05-14T10:10:15.000Z</time>
      </trkpt>
      <trkpt lat="47.08515" lon="6.70425">
        <ele>889.59997558594</ele>
        <time>2023-05-14T10:10:20.000Z</time>
      </trkpt>
      <trkpt lat="47.08517" lon="6.70418">
        <ele>889.79998779297</ele>
        <time>2023-05-14T10:10:23.000Z</time>
      </trkpt>
      <trkpt lat="47.0852" lon="6.70403">
        <ele>890.79998779297</ele>
        <time>2023-05-14T10:10:31.000Z</time>
      </trkpt>
      <trkpt lat="47.08521" lon="6.70401">
        <ele>891</ele>
        <time>2023-05-14T10:10:32.000Z</time>
      </trkpt>
      <trkpt lat="47.08524" lon="6.70389">
        <ele>891.59997558594</ele>
        <time>2023-05-14T10:10:38.000Z</time>
      </trkpt>
      <trkpt lat="47.08525" lon="6.70384">
        <ele>891.79998779297</ele>
        <time>2023-05-14T10:10:40.000Z</time>
      </trkpt>
      <trkpt lat="47.08529" lon="6.70368">
        <ele>892.40002441406</ele>
        <time>2023-05-14T10:10:47.000Z</time>
      </trkpt>
      <trkpt lat="47.0853" lon="6.70359">
        <ele>892.79998779297</ele>
        <time>2023-05-14T10:10:51.000Z</time>
      </trkpt>
      <trkpt lat="47.08531" lon="6.70349">
        <ele>893.59997558594</ele>
        <time>2023-05-14T10:10:55.000Z</time>
      </trkpt>
      <trkpt lat="47.08532" lon="6.70341">
        <ele>894</ele>
        <time>2023-05-14T10:10:58.000Z</time>
      </trkpt>
      <trkpt lat="47.08534" lon="6.70329">
        <ele>894.79998779297</ele>
        <time>2023-05-14T10:11:03.000Z</time>
      </trkpt>
      <trkpt lat="47.08535" lon="6.70323">
        <ele>895.40002441406</ele>
        <time>2023-05-14T10:11:06.000Z</time>
      </trkpt>
      <trkpt lat="47.08539" lon="6.70309">
        <ele>896.59997558594</ele>
        <time>2023-05-14T10:11:12.000Z</time>
      </trkpt>
      <trkpt lat="47.08542" lon="6.70294">
        <ele>897.79998779297</ele>
        <time>2023-05-14T10:11:19.000Z</time>
      </trkpt>
      <trkpt lat="47.08545" lon="6.70281">
        <ele>898.79998779297</ele>
        <time>2023-05-14T10:11:25.000Z</time>
      </trkpt>
      <trkpt lat="47.08546" lon="6.70275">
        <ele>899.20001220703</ele>
        <time>2023-05-14T10:11:28.000Z</time>
      </trkpt>
      <trkpt lat="47.08547" lon="6.70267">
        <ele>899.79998779297</ele>
        <time>2023-05-14T10:11:33.000Z</time>
      </trkpt>
      <trkpt lat="47.08548" lon="6.70261">
        <ele>900.20001220703</ele>
        <time>2023-05-14T10:11:36.000Z</time>
      </trkpt>
      <trkpt lat="47.0855" lon="6.70248">
        <ele>900.79998779297</ele>
        <time>2023-05-14T10:11:43.000Z</time>
      </trkpt>
      <trkpt lat="47.08551" lon="6.70242">
        <ele>901.40002441406</ele>
        <time>2023-05-14T10:11:46.000Z</time>
      </trkpt>
      <trkpt lat="47.08553" lon="6.70233">
        <ele>902</ele>
        <time>2023-05-14T10:11:51.000Z</time>
      </trkpt>
      <trkpt lat="47.08553" lon="6.70227">
        <ele>902.59997558594</ele>
        <time>2023-05-14T10:11:54.000Z</time>
      </trkpt>
      <trkpt lat="47.08555" lon="6.70214">
        <ele>903.40002441406</ele>
        <time>2023-05-14T10:12:00.000Z</time>
      </trkpt>
      <trkpt lat="47.08555" lon="6.70212">
        <ele>903.40002441406</ele>
        <time>2023-05-14T10:12:01.000Z</time>
      </trkpt>
      <trkpt lat="47.08558" lon="6.70193">
        <ele>904.40002441406</ele>
        <time>2023-05-14T10:12:10.000Z</time>
      </trkpt>
      <trkpt lat="47.08559" lon="6.70187">
        <ele>904.59997558594</ele>
        <time>2023-05-14T10:12:12.000Z</time>
      </trkpt>
      <trkpt lat="47.08563" lon="6.70167">
        <ele>905.40002441406</ele>
        <time>2023-05-14T10:12:21.000Z</time>
      </trkpt>
      <trkpt lat="47.08563" lon="6.70165">
        <ele>905.40002441406</ele>
        <time>2023-05-14T10:12:22.000Z</time>
      </trkpt>
      <trkpt lat="47.08565" lon="6.70148">
        <ele>906.40002441406</ele>
        <time>2023-05-14T10:12:30.000Z</time>
      </trkpt>
      <trkpt lat="47.08565" lon="6.70143">
        <ele>906.79998779297</ele>
        <time>2023-05-14T10:12:32.000Z</time>
      </trkpt>
      <trkpt lat="47.08568" lon="6.70126">
        <ele>907.79998779297</ele>
        <time>2023-05-14T10:12:41.000Z</time>
      </trkpt>
      <trkpt lat="47.08569" lon="6.7012">
        <ele>908</ele>
        <time>2023-05-14T10:12:43.000Z</time>
      </trkpt>
      <trkpt lat="47.0857" lon="6.70106">
        <ele>908.79998779297</ele>
        <time>2023-05-14T10:12:49.000Z</time>
      </trkpt>
      <trkpt lat="47.08571" lon="6.70097">
        <ele>909.20001220703</ele>
        <time>2023-05-14T10:12:53.000Z</time>
      </trkpt>
      <trkpt lat="47.08571" lon="6.70087">
        <ele>910</ele>
        <time>2023-05-14T10:12:57.000Z</time>
      </trkpt>
      <trkpt lat="47.08572" lon="6.70073">
        <ele>910.59997558594</ele>
        <time>2023-05-14T10:13:03.000Z</time>
      </trkpt>
      <trkpt lat="47.08573" lon="6.70066">
        <ele>911</ele>
        <time>2023-05-14T10:13:06.000Z</time>
      </trkpt>
      <trkpt lat="47.08575" lon="6.70054">
        <ele>911.59997558594</ele>
        <time>2023-05-14T10:13:11.000Z</time>
      </trkpt>
      <trkpt lat="47.08575" lon="6.70049">
        <ele>911.79998779297</ele>
        <time>2023-05-14T10:13:13.000Z</time>
      </trkpt>
      <trkpt lat="47.08576" lon="6.70043">
        <ele>912</ele>
        <time>2023-05-14T10:13:16.000Z</time>
      </trkpt>
      <trkpt lat="47.08577" lon="6.70035">
        <ele>912.20001220703</ele>
        <time>2023-05-14T10:13:19.000Z</time>
      </trkpt>
      <trkpt lat="47.08578" lon="6.70014">
        <ele>913.20001220703</ele>
        <time>2023-05-14T10:13:27.000Z</time>
      </trkpt>
      <trkpt lat="47.0858" lon="6.69996">
        <ele>914.40002441406</ele>
        <time>2023-05-14T10:13:34.000Z</time>
      </trkpt>
      <trkpt lat="47.08581" lon="6.69987">
        <ele>914.79998779297</ele>
        <time>2023-05-14T10:13:38.000Z</time>
      </trkpt>
      <trkpt lat="47.08583" lon="6.69968">
        <ele>915.59997558594</ele>
        <time>2023-05-14T10:13:46.000Z</time>
      </trkpt>
      <trkpt lat="47.08583" lon="6.69958">
        <ele>916</ele>
        <time>2023-05-14T10:13:50.000Z</time>
      </trkpt>
      <trkpt lat="47.08585" lon="6.69941">
        <ele>917</ele>
        <time>2023-05-14T10:13:57.000Z</time>
      </trkpt>
      <trkpt lat="47.08584" lon="6.69934">
        <ele>917.40002441406</ele>
        <time>2023-05-14T10:14:00.000Z</time>
      </trkpt>
      <trkpt lat="47.08584" lon="6.6992">
        <ele>918</ele>
        <time>2023-05-14T10:14:06.000Z</time>
      </trkpt>
      <trkpt lat="47.08584" lon="6.69907">
        <ele>918.20001220703</ele>
        <time>2023-05-14T10:14:10.000Z</time>
      </trkpt>
      <trkpt lat="47.08583" lon="6.69874">
        <ele>919.20001220703</ele>
        <time>2023-05-14T10:14:20.000Z</time>
      </trkpt>
      <trkpt lat="47.08583" lon="6.69869">
        <ele>919.20001220703</ele>
        <time>2023-05-14T10:14:21.000Z</time>
      </trkpt>
      <trkpt lat="47.08583" lon="6.69848">
        <ele>919.40002441406</ele>
        <time>2023-05-14T10:14:28.000Z</time>
      </trkpt>
      <trkpt lat="47.08583" lon="6.6983">
        <ele>919.59997558594</ele>
        <time>2023-05-14T10:14:33.000Z</time>
      </trkpt>
      <trkpt lat="47.08583" lon="6.69826">
        <ele>919.59997558594</ele>
        <time>2023-05-14T10:14:34.000Z</time>
      </trkpt>
      <trkpt lat="47.0858" lon="6.69807">
        <ele>920.40002441406</ele>
        <time>2023-05-14T10:14:40.000Z</time>
      </trkpt>
      <trkpt lat="47.08579" lon="6.69804">
        <ele>920.79998779297</ele>
        <time>2023-05-14T10:14:41.000Z</time>
      </trkpt>
      <trkpt lat="47.08571" lon="6.69793">
        <ele>921.79998779297</ele>
        <time>2023-05-14T10:14:45.000Z</time>
      </trkpt>
      <trkpt lat="47.08565" lon="6.69784">
        <ele>922</ele>
        <time>2023-05-14T10:14:48.000Z</time>
      </trkpt>
      <trkpt lat="47.08553" lon="6.69766">
        <ele>922</ele>
        <time>2023-05-14T10:14:53.000Z</time>
      </trkpt>
      <trkpt lat="47.0854" lon="6.69746">
        <ele>922.20001220703</ele>
        <time>2023-05-14T10:15:01.000Z</time>
      </trkpt>
      <trkpt lat="47.08527" lon="6.69732">
        <ele>922.20001220703</ele>
        <time>2023-05-14T10:15:08.000Z</time>
      </trkpt>
      <trkpt lat="47.08509" lon="6.69715">
        <ele>921.79998779297</ele>
        <time>2023-05-14T10:15:14.000Z</time>
      </trkpt>
      <trkpt lat="47.08497" lon="6.69704">
        <ele>921.20001220703</ele>
        <time>2023-05-14T10:15:17.000Z</time>
      </trkpt>
      <trkpt lat="47.08488" lon="6.69701">
        <ele>920.79998779297</ele>
        <time>2023-05-14T10:15:19.000Z</time>
      </trkpt>
      <trkpt lat="47.08471" lon="6.69705">
        <ele>920.20001220703</ele>
        <time>2023-05-14T10:15:22.000Z</time>
      </trkpt>
      <trkpt lat="47.08464" lon="6.69707">
        <ele>920</ele>
        <time>2023-05-14T10:15:23.000Z</time>
      </trkpt>
      <trkpt lat="47.08451" lon="6.6971">
        <ele>919.79998779297</ele>
        <time>2023-05-14T10:15:25.000Z</time>
      </trkpt>
      <trkpt lat="47.08426" lon="6.69718">
        <ele>918.59997558594</ele>
        <time>2023-05-14T10:15:29.000Z</time>
      </trkpt>
      <trkpt lat="47.0842" lon="6.69719">
        <ele>918.40002441406</ele>
        <time>2023-05-14T10:15:30.000Z</time>
      </trkpt>
      <trkpt lat="47.08402" lon="6.6972">
        <ele>917.59997558594</ele>
        <time>2023-05-14T10:15:33.000Z</time>
      </trkpt>
      <trkpt lat="47.08396" lon="6.69719">
        <ele>917.59997558594</ele>
        <time>2023-05-14T10:15:34.000Z</time>
      </trkpt>
      <trkpt lat="47.08389" lon="6.69718">
        <ele>917.40002441406</ele>
        <time>2023-05-14T10:15:35.000Z</time>
      </trkpt>
      <trkpt lat="47.0837" lon="6.69713">
        <ele>917</ele>
        <time>2023-05-14T10:15:38.000Z</time>
      </trkpt>
      <trkpt lat="47.08357" lon="6.69709">
        <ele>916.79998779297</ele>
        <time>2023-05-14T10:15:40.000Z</time>
      </trkpt>
      <trkpt lat="47.08351" lon="6.69706">
        <ele>916.59997558594</ele>
        <time>2023-05-14T10:15:41.000Z</time>
      </trkpt>
      <trkpt lat="47.08346" lon="6.69705">
        <ele>916.59997558594</ele>
        <time>2023-05-14T10:15:42.000Z</time>
      </trkpt>
      <trkpt lat="47.0834" lon="6.69705">
        <ele>916.20001220703</ele>
        <time>2023-05-14T10:15:43.000Z</time>
      </trkpt>
      <trkpt lat="47.08334" lon="6.69706">
        <ele>916</ele>
        <time>2023-05-14T10:15:44.000Z</time>
      </trkpt>
      <trkpt lat="47.08328" lon="6.69708">
        <ele>915.79998779297</ele>
        <time>2023-05-14T10:15:45.000Z</time>
      </trkpt>
      <trkpt lat="47.08316" lon="6.69714">
        <ele>915.40002441406</ele>
        <time>2023-05-14T10:15:47.000Z</time>
      </trkpt>
      <trkpt lat="47.083" lon="6.69723">
        <ele>914.59997558594</ele>
        <time>2023-05-14T10:15:50.000Z</time>
      </trkpt>
      <trkpt lat="47.08296" lon="6.69727">
        <ele>914.40002441406</ele>
        <time>2023-05-14T10:15:51.000Z</time>
      </trkpt>
      <trkpt lat="47.08285" lon="6.69741">
        <ele>914.20001220703</ele>
        <time>2023-05-14T10:15:54.000Z</time>
      </trkpt>
      <trkpt lat="47.08279" lon="6.6975">
        <ele>914.20001220703</ele>
        <time>2023-05-14T10:15:56.000Z</time>
      </trkpt>
      <trkpt lat="47.08277" lon="6.69754">
        <ele>914.20001220703</ele>
        <time>2023-05-14T10:15:57.000Z</time>
      </trkpt>
      <trkpt lat="47.08268" lon="6.69767">
        <ele>914.20001220703</ele>
        <time>2023-05-14T10:16:01.000Z</time>
      </trkpt>
      <trkpt lat="47.08264" lon="6.69773">
        <ele>914.40002441406</ele>
        <time>2023-05-14T10:16:03.000Z</time>
      </trkpt>
      <trkpt lat="47.08254" lon="6.69784">
        <ele>914.59997558594</ele>
        <time>2023-05-14T10:16:07.000Z</time>
      </trkpt>
      <trkpt lat="47.08234" lon="6.69793">
        <ele>915.40002441406</ele>
        <time>2023-05-14T10:16:13.000Z</time>
      </trkpt>
      <trkpt lat="47.08222" lon="6.69794">
        <ele>915.59997558594</ele>
        <time>2023-05-14T10:16:18.000Z</time>
      </trkpt>
      <trkpt lat="47.08216" lon="6.69792">
        <ele>916.40002441406</ele>
        <time>2023-05-14T10:16:21.000Z</time>
      </trkpt>
      <trkpt lat="47.08211" lon="6.69794">
        <ele>917.40002441406</ele>
        <time>2023-05-14T10:16:24.000Z</time>
      </trkpt>
      <trkpt lat="47.0821" lon="6.69796">
        <ele>917.59997558594</ele>
        <time>2023-05-14T10:16:25.000Z</time>
      </trkpt>
      <trkpt lat="47.0821" lon="6.69798">
        <ele>918</ele>
        <time>2023-05-14T10:16:27.000Z</time>
      </trkpt>
      <trkpt lat="47.0821" lon="6.698">
        <ele>918</ele>
        <time>2023-05-14T10:16:28.000Z</time>
      </trkpt>
      <trkpt lat="47.0821" lon="6.69803">
        <ele>918.20001220703</ele>
        <time>2023-05-14T10:16:30.000Z</time>
      </trkpt>
      <trkpt lat="47.08209" lon="6.69808">
        <ele>918.40002441406</ele>
        <time>2023-05-14T10:16:33.000Z</time>
      </trkpt>
      <trkpt lat="47.08211" lon="6.6981">
        <ele>918.40002441406</ele>
        <time>2023-05-14T10:16:39.000Z</time>
      </trkpt>
      <trkpt lat="47.08213" lon="6.69809">
        <ele>918.40002441406</ele>
        <time>2023-05-14T10:16:40.000Z</time>
      </trkpt>
      <trkpt lat="47.08216" lon="6.69806">
        <ele>918.40002441406</ele>
        <time>2023-05-14T10:16:42.000Z</time>
      </trkpt>
      <trkpt lat="47.08216" lon="6.69801">
        <ele>918.20001220703</ele>
        <time>2023-05-14T10:16:44.000Z</time>
      </trkpt>
      <trkpt lat="47.08215" lon="6.698">
        <ele>918.20001220703</ele>
        <time>2023-05-14T10:16:45.000Z</time>
      </trkpt>
      <trkpt lat="47.0821" lon="6.69798">
        <ele>918.20001220703</ele>
        <time>2023-05-14T10:16:48.000Z</time>
      </trkpt>
      <trkpt lat="47.08192" lon="6.6979">
        <ele>918.79998779297</ele>
        <time>2023-05-14T10:16:56.000Z</time>
      </trkpt>
      <trkpt lat="47.08179" lon="6.69787">
        <ele>919.79998779297</ele>
        <time>2023-05-14T10:17:01.000Z</time>
      </trkpt>
      <trkpt lat="47.0817" lon="6.69785">
        <ele>920.20001220703</ele>
        <time>2023-05-14T10:17:04.000Z</time>
      </trkpt>
      <trkpt lat="47.08162" lon="6.69781">
        <ele>921</ele>
        <time>2023-05-14T10:17:07.000Z</time>
      </trkpt>
      <trkpt lat="47.08152" lon="6.69776">
        <ele>922.20001220703</ele>
        <time>2023-05-14T10:17:12.000Z</time>
      </trkpt>
      <trkpt lat="47.08147" lon="6.69776">
        <ele>922.59997558594</ele>
        <time>2023-05-14T10:17:14.000Z</time>
      </trkpt>
      <trkpt lat="47.08137" lon="6.69774">
        <ele>923.20001220703</ele>
        <time>2023-05-14T10:17:19.000Z</time>
      </trkpt>
      <trkpt lat="47.08135" lon="6.69773">
        <ele>923.40002441406</ele>
        <time>2023-05-14T10:17:20.000Z</time>
      </trkpt>
      <trkpt lat="47.08132" lon="6.69773">
        <ele>923.79998779297</ele>
        <time>2023-05-14T10:17:22.000Z</time>
      </trkpt>
      <trkpt lat="47.08128" lon="6.69771">
        <ele>924</ele>
        <time>2023-05-14T10:17:24.000Z</time>
      </trkpt>
      <trkpt lat="47.08123" lon="6.69768">
        <ele>924.40002441406</ele>
        <time>2023-05-14T10:17:26.000Z</time>
      </trkpt>
      <trkpt lat="47.08118" lon="6.69765">
        <ele>924.40002441406</ele>
        <time>2023-05-14T10:17:28.000Z</time>
      </trkpt>
      <trkpt lat="47.08114" lon="6.69764">
        <ele>924.59997558594</ele>
        <time>2023-05-14T10:17:30.000Z</time>
      </trkpt>
      <trkpt lat="47.08109" lon="6.69761">
        <ele>925</ele>
        <time>2023-05-14T10:17:33.000Z</time>
      </trkpt>
      <trkpt lat="47.08108" lon="6.69761">
        <ele>925.40002441406</ele>
        <time>2023-05-14T10:17:34.000Z</time>
      </trkpt>
      <trkpt lat="47.08105" lon="6.6976">
        <ele>926.20001220703</ele>
        <time>2023-05-14T10:17:36.000Z</time>
      </trkpt>
      <trkpt lat="47.08101" lon="6.69758">
        <ele>926.40002441406</ele>
        <time>2023-05-14T10:17:38.000Z</time>
      </trkpt>
      <trkpt lat="47.08099" lon="6.69757">
        <ele>926.59997558594</ele>
        <time>2023-05-14T10:17:39.000Z</time>
      </trkpt>
      <trkpt lat="47.08088" lon="6.69752">
        <ele>927.40002441406</ele>
        <time>2023-05-14T10:17:44.000Z</time>
      </trkpt>
      <trkpt lat="47.08078" lon="6.69746">
        <ele>928.20001220703</ele>
        <time>2023-05-14T10:17:48.000Z</time>
      </trkpt>
      <trkpt lat="47.08071" lon="6.69743">
        <ele>928.59997558594</ele>
        <time>2023-05-14T10:17:51.000Z</time>
      </trkpt>
      <trkpt lat="47.08059" lon="6.69745">
        <ele>929.40002441406</ele>
        <time>2023-05-14T10:17:57.000Z</time>
      </trkpt>
      <trkpt lat="47.08056" lon="6.69744">
        <ele>929.59997558594</ele>
        <time>2023-05-14T10:17:58.000Z</time>
      </trkpt>
      <trkpt lat="47.08054" lon="6.69744">
        <ele>929.59997558594</ele>
        <time>2023-05-14T10:17:59.000Z</time>
      </trkpt>
      <trkpt lat="47.08045" lon="6.69751">
        <ele>930.20001220703</ele>
        <time>2023-05-14T10:18:04.000Z</time>
      </trkpt>
      <trkpt lat="47.08041" lon="6.69756">
        <ele>930.59997558594</ele>
        <time>2023-05-14T10:18:08.000Z</time>
      </trkpt>
      <trkpt lat="47.08033" lon="6.69759">
        <ele>930.79998779297</ele>
        <time>2023-05-14T10:18:12.000Z</time>
      </trkpt>
      <trkpt lat="47.08013" lon="6.69756">
        <ele>931.20001220703</ele>
        <time>2023-05-14T10:18:21.000Z</time>
      </trkpt>
      <trkpt lat="47.08007" lon="6.69756">
        <ele>931.20001220703</ele>
        <time>2023-05-14T10:18:24.000Z</time>
      </trkpt>
      <trkpt lat="47.07995" lon="6.69758">
        <ele>931.20001220703</ele>
        <time>2023-05-14T10:18:29.000Z</time>
      </trkpt>
      <trkpt lat="47.07977" lon="6.69759">
        <ele>931</ele>
        <time>2023-05-14T10:18:35.000Z</time>
      </trkpt>
      <trkpt lat="47.07966" lon="6.69757">
        <ele>930.79998779297</ele>
        <time>2023-05-14T10:18:40.000Z</time>
      </trkpt>
      <trkpt lat="47.07954" lon="6.69758">
        <ele>930.40002441406</ele>
        <time>2023-05-14T10:18:44.000Z</time>
      </trkpt>
      <trkpt lat="47.07949" lon="6.69758">
        <ele>930.20001220703</ele>
        <time>2023-05-14T10:18:45.000Z</time>
      </trkpt>
      <trkpt lat="47.07936" lon="6.69751">
        <ele>929.59997558594</ele>
        <time>2023-05-14T10:18:48.000Z</time>
      </trkpt>
      <trkpt lat="47.07923" lon="6.69747">
        <ele>929</ele>
        <time>2023-05-14T10:18:51.000Z</time>
      </trkpt>
      <trkpt lat="47.07919" lon="6.69746">
        <ele>928.40002441406</ele>
        <time>2023-05-14T10:18:52.000Z</time>
      </trkpt>
      <trkpt lat="47.07904" lon="6.69737">
        <ele>927.79998779297</ele>
        <time>2023-05-14T10:18:57.000Z</time>
      </trkpt>
      <trkpt lat="47.07897" lon="6.69732">
        <ele>927.59997558594</ele>
        <time>2023-05-14T10:19:00.000Z</time>
      </trkpt>
      <trkpt lat="47.0789" lon="6.69732">
        <ele>927.40002441406</ele>
        <time>2023-05-14T10:19:02.000Z</time>
      </trkpt>
      <trkpt lat="47.07875" lon="6.69729">
        <ele>926.59997558594</ele>
        <time>2023-05-14T10:19:06.000Z</time>
      </trkpt>
      <trkpt lat="47.0787" lon="6.6973">
        <ele>926.40002441406</ele>
        <time>2023-05-14T10:19:07.000Z</time>
      </trkpt>
      <trkpt lat="47.0786" lon="6.69726">
        <ele>925.20001220703</ele>
        <time>2023-05-14T10:19:10.000Z</time>
      </trkpt>
      <trkpt lat="47.07852" lon="6.69723">
        <ele>924.59997558594</ele>
        <time>2023-05-14T10:19:12.000Z</time>
      </trkpt>
      <trkpt lat="47.07842" lon="6.69719">
        <ele>924</ele>
        <time>2023-05-14T10:19:14.000Z</time>
      </trkpt>
      <trkpt lat="47.07828" lon="6.69715">
        <ele>922.59997558594</ele>
        <time>2023-05-14T10:19:17.000Z</time>
      </trkpt>
      <trkpt lat="47.07822" lon="6.69713">
        <ele>922.20001220703</ele>
        <time>2023-05-14T10:19:18.000Z</time>
      </trkpt>
      <trkpt lat="47.07817" lon="6.69711">
        <ele>921.40002441406</ele>
        <time>2023-05-14T10:19:19.000Z</time>
      </trkpt>
      <trkpt lat="47.07798" lon="6.69702">
        <ele>920.20001220703</ele>
        <time>2023-05-14T10:19:23.000Z</time>
      </trkpt>
      <trkpt lat="47.07789" lon="6.69697">
        <ele>920</ele>
        <time>2023-05-14T10:19:25.000Z</time>
      </trkpt>
      <trkpt lat="47.07775" lon="6.6969">
        <ele>919</ele>
        <time>2023-05-14T10:19:29.000Z</time>
      </trkpt>
      <trkpt lat="47.07765" lon="6.69685">
        <ele>918.20001220703</ele>
        <time>2023-05-14T10:19:33.000Z</time>
      </trkpt>
      <trkpt lat="47.07762" lon="6.69683">
        <ele>917.59997558594</ele>
        <time>2023-05-14T10:19:35.000Z</time>
      </trkpt>
      <trkpt lat="47.0776" lon="6.69681">
        <ele>916.79998779297</ele>
        <time>2023-05-14T10:19:37.000Z</time>
      </trkpt>
      <trkpt lat="47.0776" lon="6.6968">
        <ele>915.59997558594</ele>
        <time>2023-05-14T10:19:40.000Z</time>
      </trkpt>
      <trkpt lat="47.07752" lon="6.6967">
        <ele>914</ele>
        <time>2023-05-14T10:20:34.000Z</time>
      </trkpt>
      <trkpt lat="47.07747" lon="6.69661">
        <ele>913.79998779297</ele>
        <time>2023-05-14T10:20:37.000Z</time>
      </trkpt>
      <trkpt lat="47.07736" lon="6.69643">
        <ele>913.40002441406</ele>
        <time>2023-05-14T10:20:42.000Z</time>
      </trkpt>
      <trkpt lat="47.07729" lon="6.69634">
        <ele>913.20001220703</ele>
        <time>2023-05-14T10:20:45.000Z</time>
      </trkpt>
      <trkpt lat="47.07721" lon="6.69622">
        <ele>912</ele>
        <time>2023-05-14T10:20:49.000Z</time>
      </trkpt>
      <trkpt lat="47.07709" lon="6.69611">
        <ele>910.59997558594</ele>
        <time>2023-05-14T10:20:55.000Z</time>
      </trkpt>
      <trkpt lat="47.07703" lon="6.69607">
        <ele>910.20001220703</ele>
        <time>2023-05-14T10:20:58.000Z</time>
      </trkpt>
      <trkpt lat="47.07704" lon="6.69601">
        <ele>910</ele>
        <time>2023-05-14T10:21:00.000Z</time>
      </trkpt>
      <trkpt lat="47.07705" lon="6.69597">
        <ele>909.79998779297</ele>
        <time>2023-05-14T10:21:02.000Z</time>
      </trkpt>
      <trkpt lat="47.07704" lon="6.69592">
        <ele>909.59997558594</ele>
        <time>2023-05-14T10:21:04.000Z</time>
      </trkpt>
      <trkpt lat="47.07703" lon="6.69589">
        <ele>909.40002441406</ele>
        <time>2023-05-14T10:21:05.000Z</time>
      </trkpt>
      <trkpt lat="47.07701" lon="6.69583">
        <ele>909.20001220703</ele>
        <time>2023-05-14T10:21:11.000Z</time>
      </trkpt>
      <trkpt lat="47.07704" lon="6.69579">
        <ele>909.20001220703</ele>
        <time>2023-05-14T10:21:19.000Z</time>
      </trkpt>
      <trkpt lat="47.07707" lon="6.69577">
        <ele>909.20001220703</ele>
        <time>2023-05-14T10:21:21.000Z</time>
      </trkpt>
      <trkpt lat="47.07708" lon="6.69574">
        <ele>909.20001220703</ele>
        <time>2023-05-14T10:21:22.000Z</time>
      </trkpt>
      <trkpt lat="47.07712" lon="6.69554">
        <ele>910</ele>
        <time>2023-05-14T10:21:28.000Z</time>
      </trkpt>
      <trkpt lat="47.07712" lon="6.69551">
        <ele>910</ele>
        <time>2023-05-14T10:21:29.000Z</time>
      </trkpt>
      <trkpt lat="47.07714" lon="6.6954">
        <ele>910.59997558594</ele>
        <time>2023-05-14T10:21:32.000Z</time>
      </trkpt>
      <trkpt lat="47.07718" lon="6.6952">
        <ele>911.79998779297</ele>
        <time>2023-05-14T10:21:38.000Z</time>
      </trkpt>
      <trkpt lat="47.07718" lon="6.69517">
        <ele>912</ele>
        <time>2023-05-14T10:21:39.000Z</time>
      </trkpt>
      <trkpt lat="47.07722" lon="6.69483">
        <ele>912.79998779297</ele>
        <time>2023-05-14T10:21:48.000Z</time>
      </trkpt>
      <trkpt lat="47.07723" lon="6.6947">
        <ele>913</ele>
        <time>2023-05-14T10:21:51.000Z</time>
      </trkpt>
      <trkpt lat="47.07725" lon="6.69444">
        <ele>913.20001220703</ele>
        <time>2023-05-14T10:21:57.000Z</time>
      </trkpt>
      <trkpt lat="47.07724" lon="6.6941">
        <ele>913.59997558594</ele>
        <time>2023-05-14T10:22:05.000Z</time>
      </trkpt>
      <trkpt lat="47.07723" lon="6.69385">
        <ele>914</ele>
        <time>2023-05-14T10:22:11.000Z</time>
      </trkpt>
      <trkpt lat="47.07722" lon="6.69368">
        <ele>914.59997558594</ele>
        <time>2023-05-14T10:22:15.000Z</time>
      </trkpt>
      <trkpt lat="47.07722" lon="6.6935">
        <ele>915</ele>
        <time>2023-05-14T10:22:19.000Z</time>
      </trkpt>
      <trkpt lat="47.07725" lon="6.69331">
        <ele>915.59997558594</ele>
        <time>2023-05-14T10:22:23.000Z</time>
      </trkpt>
      <trkpt lat="47.07726" lon="6.69298">
        <ele>916</ele>
        <time>2023-05-14T10:22:30.000Z</time>
      </trkpt>
      <trkpt lat="47.07718" lon="6.69275">
        <ele>915.79998779297</ele>
        <time>2023-05-14T10:22:36.000Z</time>
      </trkpt>
      <trkpt lat="47.07696" lon="6.69253">
        <ele>915.79998779297</ele>
        <time>2023-05-14T10:22:44.000Z</time>
      </trkpt>
      <trkpt lat="47.07683" lon="6.69224">
        <ele>915.79998779297</ele>
        <time>2023-05-14T10:22:50.000Z</time>
      </trkpt>
      <trkpt lat="47.07687" lon="6.69205">
        <ele>916</ele>
        <time>2023-05-14T10:22:54.000Z</time>
      </trkpt>
      <trkpt lat="47.07701" lon="6.69182">
        <ele>916.20001220703</ele>
        <time>2023-05-14T10:23:00.000Z</time>
      </trkpt>
      <trkpt lat="47.07704" lon="6.69179">
        <ele>916.40002441406</ele>
        <time>2023-05-14T10:23:01.000Z</time>
      </trkpt>
      <trkpt lat="47.07712" lon="6.69169">
        <ele>917.40002441406</ele>
        <time>2023-05-14T10:23:04.000Z</time>
      </trkpt>
      <trkpt lat="47.07716" lon="6.69163">
        <ele>918</ele>
        <time>2023-05-14T10:23:06.000Z</time>
      </trkpt>
      <trkpt lat="47.0772" lon="6.69157">
        <ele>918.79998779297</ele>
        <time>2023-05-14T10:23:08.000Z</time>
      </trkpt>
      <trkpt lat="47.07727" lon="6.69139">
        <ele>920</ele>
        <time>2023-05-14T10:23:13.000Z</time>
      </trkpt>
      <trkpt lat="47.07732" lon="6.69127">
        <ele>921.20001220703</ele>
        <time>2023-05-14T10:23:17.000Z</time>
      </trkpt>
      <trkpt lat="47.07734" lon="6.69118">
        <ele>922.20001220703</ele>
        <time>2023-05-14T10:23:20.000Z</time>
      </trkpt>
      <trkpt lat="47.07735" lon="6.69115">
        <ele>922.20001220703</ele>
        <time>2023-05-14T10:23:21.000Z</time>
      </trkpt>
      <trkpt lat="47.07738" lon="6.69105">
        <ele>923.20001220703</ele>
        <time>2023-05-14T10:23:25.000Z</time>
      </trkpt>
      <trkpt lat="47.07741" lon="6.69096">
        <ele>923.59997558594</ele>
        <time>2023-05-14T10:23:28.000Z</time>
      </trkpt>
      <trkpt lat="47.07742" lon="6.69087">
        <ele>924.20001220703</ele>
        <time>2023-05-14T10:23:31.000Z</time>
      </trkpt>
      <trkpt lat="47.07746" lon="6.69069">
        <ele>925.40002441406</ele>
        <time>2023-05-14T10:23:37.000Z</time>
      </trkpt>
      <trkpt lat="47.0775" lon="6.69046">
        <ele>926.59997558594</ele>
        <time>2023-05-14T10:23:45.000Z</time>
      </trkpt>
      <trkpt lat="47.07751" lon="6.69043">
        <ele>926.79998779297</ele>
        <time>2023-05-14T10:23:46.000Z</time>
      </trkpt>
      <trkpt lat="47.07753" lon="6.69028">
        <ele>927.59997558594</ele>
        <time>2023-05-14T10:23:51.000Z</time>
      </trkpt>
      <trkpt lat="47.07756" lon="6.69015">
        <ele>928.79998779297</ele>
        <time>2023-05-14T10:23:56.000Z</time>
      </trkpt>
      <trkpt lat="47.07758" lon="6.69003">
        <ele>929.79998779297</ele>
        <time>2023-05-14T10:24:01.000Z</time>
      </trkpt>
      <trkpt lat="47.0776" lon="6.68995">
        <ele>930.59997558594</ele>
        <time>2023-05-14T10:24:04.000Z</time>
      </trkpt>
      <trkpt lat="47.07759" lon="6.68989">
        <ele>931</ele>
        <time>2023-05-14T10:24:06.000Z</time>
      </trkpt>
      <trkpt lat="47.07755" lon="6.68976">
        <ele>931.40002441406</ele>
        <time>2023-05-14T10:24:11.000Z</time>
      </trkpt>
      <trkpt lat="47.07746" lon="6.68954">
        <ele>932</ele>
        <time>2023-05-14T10:24:19.000Z</time>
      </trkpt>
      <trkpt lat="47.07744" lon="6.68951">
        <ele>932</ele>
        <time>2023-05-14T10:24:20.000Z</time>
      </trkpt>
      <trkpt lat="47.07732" lon="6.68929">
        <ele>932.40002441406</ele>
        <time>2023-05-14T10:24:28.000Z</time>
      </trkpt>
      <trkpt lat="47.07717" lon="6.68903">
        <ele>932.79998779297</ele>
        <time>2023-05-14T10:24:37.000Z</time>
      </trkpt>
      <trkpt lat="47.07707" lon="6.68885">
        <ele>933</ele>
        <time>2023-05-14T10:24:42.000Z</time>
      </trkpt>
      <trkpt lat="47.07703" lon="6.68878">
        <ele>933</ele>
        <time>2023-05-14T10:24:44.000Z</time>
      </trkpt>
      <trkpt lat="47.07686" lon="6.68846">
        <ele>933.20001220703</ele>
        <time>2023-05-14T10:24:53.000Z</time>
      </trkpt>
      <trkpt lat="47.07673" lon="6.68811">
        <ele>933.40002441406</ele>
        <time>2023-05-14T10:25:01.000Z</time>
      </trkpt>
      <trkpt lat="47.07664" lon="6.68761">
        <ele>934.20001220703</ele>
        <time>2023-05-14T10:25:12.000Z</time>
      </trkpt>
      <trkpt lat="47.07661" lon="6.68747">
        <ele>934.40002441406</ele>
        <time>2023-05-14T10:25:15.000Z</time>
      </trkpt>
      <trkpt lat="47.07653" lon="6.68726">
        <ele>934.79998779297</ele>
        <time>2023-05-14T10:25:20.000Z</time>
      </trkpt>
      <trkpt lat="47.07643" lon="6.68701">
        <ele>935.40002441406</ele>
        <time>2023-05-14T10:25:26.000Z</time>
      </trkpt>
      <trkpt lat="47.07639" lon="6.68689">
        <ele>936.20001220703</ele>
        <time>2023-05-14T10:25:29.000Z</time>
      </trkpt>
      <trkpt lat="47.07633" lon="6.68671">
        <ele>936.79998779297</ele>
        <time>2023-05-14T10:25:33.000Z</time>
      </trkpt>
      <trkpt lat="47.07625" lon="6.68641">
        <ele>937.59997558594</ele>
        <time>2023-05-14T10:25:39.000Z</time>
      </trkpt>
      <trkpt lat="47.07622" lon="6.68628">
        <ele>938</ele>
        <time>2023-05-14T10:25:42.000Z</time>
      </trkpt>
      <trkpt lat="47.07616" lon="6.68606">
        <ele>938.59997558594</ele>
        <time>2023-05-14T10:25:47.000Z</time>
      </trkpt>
      <trkpt lat="47.07601" lon="6.68563">
        <ele>938.59997558594</ele>
        <time>2023-05-14T10:25:56.000Z</time>
      </trkpt>
      <trkpt lat="47.07589" lon="6.68521">
        <ele>938.20001220703</ele>
        <time>2023-05-14T10:26:03.000Z</time>
      </trkpt>
      <trkpt lat="47.07575" lon="6.68478">
        <ele>937.20001220703</ele>
        <time>2023-05-14T10:26:09.000Z</time>
      </trkpt>
      <trkpt lat="47.07569" lon="6.68462">
        <ele>937</ele>
        <time>2023-05-14T10:26:11.000Z</time>
      </trkpt>
      <trkpt lat="47.07558" lon="6.68436">
        <ele>936.40002441406</ele>
        <time>2023-05-14T10:26:14.000Z</time>
      </trkpt>
      <trkpt lat="47.07555" lon="6.68427">
        <ele>935.79998779297</ele>
        <time>2023-05-14T10:26:15.000Z</time>
      </trkpt>
      <trkpt lat="47.07538" lon="6.68389">
        <ele>934.59997558594</ele>
        <time>2023-05-14T10:26:19.000Z</time>
      </trkpt>
      <trkpt lat="47.0753" lon="6.68368">
        <ele>934.20001220703</ele>
        <time>2023-05-14T10:26:21.000Z</time>
      </trkpt>
      <trkpt lat="47.07523" lon="6.68346">
        <ele>933.59997558594</ele>
        <time>2023-05-14T10:26:23.000Z</time>
      </trkpt>
      <trkpt lat="47.07518" lon="6.68323">
        <ele>933.40002441406</ele>
        <time>2023-05-14T10:26:25.000Z</time>
      </trkpt>
      <trkpt lat="47.07514" lon="6.68289">
        <ele>932.20001220703</ele>
        <time>2023-05-14T10:26:28.000Z</time>
      </trkpt>
      <trkpt lat="47.0751" lon="6.68256">
        <ele>931.40002441406</ele>
        <time>2023-05-14T10:26:31.000Z</time>
      </trkpt>
      <trkpt lat="47.07508" lon="6.68235">
        <ele>930.79998779297</ele>
        <time>2023-05-14T10:26:33.000Z</time>
      </trkpt>
      <trkpt lat="47.07508" lon="6.68225">
        <ele>930.79998779297</ele>
        <time>2023-05-14T10:26:34.000Z</time>
      </trkpt>
      <trkpt lat="47.0751" lon="6.68205">
        <ele>930.59997558594</ele>
        <time>2023-05-14T10:26:36.000Z</time>
      </trkpt>
      <trkpt lat="47.07515" lon="6.68186">
        <ele>930.40002441406</ele>
        <time>2023-05-14T10:26:38.000Z</time>
      </trkpt>
      <trkpt lat="47.07522" lon="6.6817">
        <ele>930</ele>
        <time>2023-05-14T10:26:40.000Z</time>
      </trkpt>
      <trkpt lat="47.0753" lon="6.68155">
        <ele>930</ele>
        <time>2023-05-14T10:26:42.000Z</time>
      </trkpt>
      <trkpt lat="47.07547" lon="6.68128">
        <ele>929.79998779297</ele>
        <time>2023-05-14T10:26:46.000Z</time>
      </trkpt>
      <trkpt lat="47.0755" lon="6.68122">
        <ele>929.79998779297</ele>
        <time>2023-05-14T10:26:47.000Z</time>
      </trkpt>
      <trkpt lat="47.07552" lon="6.68114">
        <ele>929.59997558594</ele>
        <time>2023-05-14T10:26:48.000Z</time>
      </trkpt>
      <trkpt lat="47.07556" lon="6.68089">
        <ele>929.20001220703</ele>
        <time>2023-05-14T10:26:51.000Z</time>
      </trkpt>
      <trkpt lat="47.07557" lon="6.68073">
        <ele>928.79998779297</ele>
        <time>2023-05-14T10:26:53.000Z</time>
      </trkpt>
      <trkpt lat="47.07556" lon="6.68052">
        <ele>928.40002441406</ele>
        <time>2023-05-14T10:26:56.000Z</time>
      </trkpt>
      <trkpt lat="47.07555" lon="6.68045">
        <ele>928.20001220703</ele>
        <time>2023-05-14T10:26:57.000Z</time>
      </trkpt>
      <trkpt lat="47.07548" lon="6.68014">
        <ele>928</ele>
        <time>2023-05-14T10:27:02.000Z</time>
      </trkpt>
      <trkpt lat="47.07544" lon="6.67999">
        <ele>927.79998779297</ele>
        <time>2023-05-14T10:27:05.000Z</time>
      </trkpt>
      <trkpt lat="47.07542" lon="6.6799">
        <ele>927.79998779297</ele>
        <time>2023-05-14T10:27:07.000Z</time>
      </trkpt>
      <trkpt lat="47.07541" lon="6.67985">
        <ele>927.79998779297</ele>
        <time>2023-05-14T10:27:08.000Z</time>
      </trkpt>
      <trkpt lat="47.07537" lon="6.67958">
        <ele>927.59997558594</ele>
        <time>2023-05-14T10:27:13.000Z</time>
      </trkpt>
      <trkpt lat="47.07535" lon="6.67934">
        <ele>928</ele>
        <time>2023-05-14T10:27:17.000Z</time>
      </trkpt>
      <trkpt lat="47.07531" lon="6.67895">
        <ele>928</ele>
        <time>2023-05-14T10:27:25.000Z</time>
      </trkpt>
      <trkpt lat="47.07525" lon="6.67857">
        <ele>928.20001220703</ele>
        <time>2023-05-14T10:27:33.000Z</time>
      </trkpt>
      <trkpt lat="47.0751" lon="6.67829">
        <ele>928.40002441406</ele>
        <time>2023-05-14T10:27:39.000Z</time>
      </trkpt>
      <trkpt lat="47.07497" lon="6.67813">
        <ele>928.79998779297</ele>
        <time>2023-05-14T10:27:44.000Z</time>
      </trkpt>
      <trkpt lat="47.07491" lon="6.67802">
        <ele>929.20001220703</ele>
        <time>2023-05-14T10:27:47.000Z</time>
      </trkpt>
      <trkpt lat="47.07487" lon="6.67795">
        <ele>930.20001220703</ele>
        <time>2023-05-14T10:27:49.000Z</time>
      </trkpt>
      <trkpt lat="47.07481" lon="6.67781">
        <ele>931.20001220703</ele>
        <time>2023-05-14T10:27:53.000Z</time>
      </trkpt>
      <trkpt lat="47.0748" lon="6.67777">
        <ele>931.20001220703</ele>
        <time>2023-05-14T10:27:54.000Z</time>
      </trkpt>
      <trkpt lat="47.07479" lon="6.67773">
        <ele>931.59997558594</ele>
        <time>2023-05-14T10:27:55.000Z</time>
      </trkpt>
      <trkpt lat="47.07475" lon="6.67758">
        <ele>932.40002441406</ele>
        <time>2023-05-14T10:27:59.000Z</time>
      </trkpt>
      <trkpt lat="47.07471" lon="6.67743">
        <ele>933</ele>
        <time>2023-05-14T10:28:03.000Z</time>
      </trkpt>
      <trkpt lat="47.07468" lon="6.67728">
        <ele>933.59997558594</ele>
        <time>2023-05-14T10:28:07.000Z</time>
      </trkpt>
      <trkpt lat="47.07466" lon="6.67708">
        <ele>934.59997558594</ele>
        <time>2023-05-14T10:28:12.000Z</time>
      </trkpt>
      <trkpt lat="47.07463" lon="6.67684">
        <ele>935</ele>
        <time>2023-05-14T10:28:19.000Z</time>
      </trkpt>
      <trkpt lat="47.07456" lon="6.67659">
        <ele>935.40002441406</ele>
        <time>2023-05-14T10:28:26.000Z</time>
      </trkpt>
      <trkpt lat="47.07451" lon="6.67638">
        <ele>935.59997558594</ele>
        <time>2023-05-14T10:28:32.000Z</time>
      </trkpt>
      <trkpt lat="47.07449" lon="6.67631">
        <ele>936</ele>
        <time>2023-05-14T10:28:34.000Z</time>
      </trkpt>
      <trkpt lat="47.07444" lon="6.67608">
        <ele>936.79998779297</ele>
        <time>2023-05-14T10:28:41.000Z</time>
      </trkpt>
      <trkpt lat="47.07442" lon="6.67603">
        <ele>937</ele>
        <time>2023-05-14T10:28:43.000Z</time>
      </trkpt>
      <trkpt lat="47.07438" lon="6.67592">
        <ele>937.79998779297</ele>
        <time>2023-05-14T10:28:47.000Z</time>
      </trkpt>
      <trkpt lat="47.07435" lon="6.67583">
        <ele>938</ele>
        <time>2023-05-14T10:28:50.000Z</time>
      </trkpt>
      <trkpt lat="47.07426" lon="6.67564">
        <ele>938.79998779297</ele>
        <time>2023-05-14T10:28:56.000Z</time>
      </trkpt>
      <trkpt lat="47.07421" lon="6.67556">
        <ele>939.20001220703</ele>
        <time>2023-05-14T10:28:59.000Z</time>
      </trkpt>
      <trkpt lat="47.0741" lon="6.67534">
        <ele>940</ele>
        <time>2023-05-14T10:29:06.000Z</time>
      </trkpt>
      <trkpt lat="47.07405" lon="6.67525">
        <ele>940.40002441406</ele>
        <time>2023-05-14T10:29:09.000Z</time>
      </trkpt>
      <trkpt lat="47.07397" lon="6.67511">
        <ele>941.20001220703</ele>
        <time>2023-05-14T10:29:14.000Z</time>
      </trkpt>
      <trkpt lat="47.07391" lon="6.67501">
        <ele>941.79998779297</ele>
        <time>2023-05-14T10:29:18.000Z</time>
      </trkpt>
      <trkpt lat="47.07388" lon="6.67495">
        <ele>942.40002441406</ele>
        <time>2023-05-14T10:29:20.000Z</time>
      </trkpt>
      <trkpt lat="47.07375" lon="6.67475">
        <ele>943.40002441406</ele>
        <time>2023-05-14T10:29:27.000Z</time>
      </trkpt>
      <trkpt lat="47.07373" lon="6.67472">
        <ele>943.40002441406</ele>
        <time>2023-05-14T10:29:28.000Z</time>
      </trkpt>
      <trkpt lat="47.07363" lon="6.67453">
        <ele>944.40002441406</ele>
        <time>2023-05-14T10:29:34.000Z</time>
      </trkpt>
      <trkpt lat="47.07358" lon="6.67442">
        <ele>945</ele>
        <time>2023-05-14T10:29:37.000Z</time>
      </trkpt>
      <trkpt lat="47.0735" lon="6.67421">
        <ele>945.59997558594</ele>
        <time>2023-05-14T10:29:43.000Z</time>
      </trkpt>
      <trkpt lat="47.07346" lon="6.67414">
        <ele>945.59997558594</ele>
        <time>2023-05-14T10:29:45.000Z</time>
      </trkpt>
      <trkpt lat="47.07333" lon="6.67382">
        <ele>945.59997558594</ele>
        <time>2023-05-14T10:29:54.000Z</time>
      </trkpt>
      <trkpt lat="47.07321" lon="6.67353">
        <ele>944.79998779297</ele>
        <time>2023-05-14T10:30:00.000Z</time>
      </trkpt>
      <trkpt lat="47.07318" lon="6.67348">
        <ele>944.79998779297</ele>
        <time>2023-05-14T10:30:01.000Z</time>
      </trkpt>
      <trkpt lat="47.07312" lon="6.67333">
        <ele>944.59997558594</ele>
        <time>2023-05-14T10:30:04.000Z</time>
      </trkpt>
      <trkpt lat="47.07302" lon="6.67311">
        <ele>944</ele>
        <time>2023-05-14T10:30:09.000Z</time>
      </trkpt>
      <trkpt lat="47.07294" lon="6.67291">
        <ele>944</ele>
        <time>2023-05-14T10:30:14.000Z</time>
      </trkpt>
      <trkpt lat="47.07279" lon="6.67265">
        <ele>944.20001220703</ele>
        <time>2023-05-14T10:30:20.000Z</time>
      </trkpt>
      <trkpt lat="47.07274" lon="6.67256">
        <ele>944.20001220703</ele>
        <time>2023-05-14T10:30:22.000Z</time>
      </trkpt>
      <trkpt lat="47.07271" lon="6.67251">
        <ele>944.20001220703</ele>
        <time>2023-05-14T10:30:23.000Z</time>
      </trkpt>
      <trkpt lat="47.07263" lon="6.67235">
        <ele>943.79998779297</ele>
        <time>2023-05-14T10:30:26.000Z</time>
      </trkpt>
      <trkpt lat="47.07259" lon="6.67225">
        <ele>943.59997558594</ele>
        <time>2023-05-14T10:30:28.000Z</time>
      </trkpt>
      <trkpt lat="47.07256" lon="6.6722">
        <ele>943.59997558594</ele>
        <time>2023-05-14T10:30:29.000Z</time>
      </trkpt>
      <trkpt lat="47.07232" lon="6.67175">
        <ele>943</ele>
        <time>2023-05-14T10:30:37.000Z</time>
      </trkpt>
      <trkpt lat="47.07221" lon="6.67158">
        <ele>942.59997558594</ele>
        <time>2023-05-14T10:30:40.000Z</time>
      </trkpt>
      <trkpt lat="47.07209" lon="6.67142">
        <ele>942.20001220703</ele>
        <time>2023-05-14T10:30:43.000Z</time>
      </trkpt>
      <trkpt lat="47.07193" lon="6.67117">
        <ele>942</ele>
        <time>2023-05-14T10:30:48.000Z</time>
      </trkpt>
      <trkpt lat="47.07188" lon="6.67109">
        <ele>941.79998779297</ele>
        <time>2023-05-14T10:30:50.000Z</time>
      </trkpt>
      <trkpt lat="47.07172" lon="6.67082">
        <ele>941.59997558594</ele>
        <time>2023-05-14T10:30:57.000Z</time>
      </trkpt>
      <trkpt lat="47.07153" lon="6.67048">
        <ele>941.40002441406</ele>
        <time>2023-05-14T10:31:04.000Z</time>
      </trkpt>
      <trkpt lat="47.07142" lon="6.6703">
        <ele>941.40002441406</ele>
        <time>2023-05-14T10:31:07.000Z</time>
      </trkpt>
      <trkpt lat="47.07127" lon="6.67004">
        <ele>940.59997558594</ele>
        <time>2023-05-14T10:31:11.000Z</time>
      </trkpt>
      <trkpt lat="47.07117" lon="6.66981">
        <ele>939.79998779297</ele>
        <time>2023-05-14T10:31:14.000Z</time>
      </trkpt>
      <trkpt lat="47.07112" lon="6.66965">
        <ele>939.40002441406</ele>
        <time>2023-05-14T10:31:16.000Z</time>
      </trkpt>
      <trkpt lat="47.07104" lon="6.66936">
        <ele>939</ele>
        <time>2023-05-14T10:31:20.000Z</time>
      </trkpt>
      <trkpt lat="47.07103" lon="6.6692">
        <ele>938.59997558594</ele>
        <time>2023-05-14T10:31:22.000Z</time>
      </trkpt>
      <trkpt lat="47.07103" lon="6.66905">
        <ele>938.40002441406</ele>
        <time>2023-05-14T10:31:24.000Z</time>
      </trkpt>
      <trkpt lat="47.07106" lon="6.6687">
        <ele>938</ele>
        <time>2023-05-14T10:31:29.000Z</time>
      </trkpt>
      <trkpt lat="47.07107" lon="6.66839">
        <ele>938</ele>
        <time>2023-05-14T10:31:33.000Z</time>
      </trkpt>
      <trkpt lat="47.07106" lon="6.66817">
        <ele>938</ele>
        <time>2023-05-14T10:31:36.000Z</time>
      </trkpt>
      <trkpt lat="47.07105" lon="6.6681">
        <ele>938</ele>
        <time>2023-05-14T10:31:37.000Z</time>
      </trkpt>
      <trkpt lat="47.07099" lon="6.66784">
        <ele>938</ele>
        <time>2023-05-14T10:31:41.000Z</time>
      </trkpt>
      <trkpt lat="47.07096" lon="6.66772">
        <ele>938.40002441406</ele>
        <time>2023-05-14T10:31:43.000Z</time>
      </trkpt>
      <trkpt lat="47.07092" lon="6.66758">
        <ele>938.79998779297</ele>
        <time>2023-05-14T10:31:46.000Z</time>
      </trkpt>
      <trkpt lat="47.07092" lon="6.66753">
        <ele>939</ele>
        <time>2023-05-14T10:31:47.000Z</time>
      </trkpt>
      <trkpt lat="47.07089" lon="6.66744">
        <ele>939.59997558594</ele>
        <time>2023-05-14T10:31:49.000Z</time>
      </trkpt>
      <trkpt lat="47.07084" lon="6.66728">
        <ele>941</ele>
        <time>2023-05-14T10:31:52.000Z</time>
      </trkpt>
      <trkpt lat="47.07082" lon="6.66724">
        <ele>941.20001220703</ele>
        <time>2023-05-14T10:31:53.000Z</time>
      </trkpt>
      <trkpt lat="47.07076" lon="6.66709">
        <ele>942.20001220703</ele>
        <time>2023-05-14T10:31:56.000Z</time>
      </trkpt>
      <trkpt lat="47.07072" lon="6.66698">
        <ele>942.79998779297</ele>
        <time>2023-05-14T10:31:58.000Z</time>
      </trkpt>
      <trkpt lat="47.07063" lon="6.66682">
        <ele>943.59997558594</ele>
        <time>2023-05-14T10:32:01.000Z</time>
      </trkpt>
      <trkpt lat="47.07059" lon="6.66678">
        <ele>943.59997558594</ele>
        <time>2023-05-14T10:32:02.000Z</time>
      </trkpt>
      <trkpt lat="47.07038" lon="6.66644">
        <ele>944.59997558594</ele>
        <time>2023-05-14T10:32:09.000Z</time>
      </trkpt>
      <trkpt lat="47.07031" lon="6.66636">
        <ele>944.59997558594</ele>
        <time>2023-05-14T10:32:11.000Z</time>
      </trkpt>
      <trkpt lat="47.07028" lon="6.66632">
        <ele>944.59997558594</ele>
        <time>2023-05-14T10:32:12.000Z</time>
      </trkpt>
      <trkpt lat="47.07019" lon="6.66621">
        <ele>944.59997558594</ele>
        <time>2023-05-14T10:32:15.000Z</time>
      </trkpt>
      <trkpt lat="47.0699" lon="6.66574">
        <ele>944</ele>
        <time>2023-05-14T10:32:25.000Z</time>
      </trkpt>
      <trkpt lat="47.06966" lon="6.6653">
        <ele>943.79998779297</ele>
        <time>2023-05-14T10:32:33.000Z</time>
      </trkpt>
      <trkpt lat="47.06947" lon="6.66496">
        <ele>943.59997558594</ele>
        <time>2023-05-14T10:32:40.000Z</time>
      </trkpt>
      <trkpt lat="47.06939" lon="6.66482">
        <ele>943.59997558594</ele>
        <time>2023-05-14T10:32:43.000Z</time>
      </trkpt>
      <trkpt lat="47.06926" lon="6.66452">
        <ele>943.20001220703</ele>
        <time>2023-05-14T10:32:49.000Z</time>
      </trkpt>
      <trkpt lat="47.06925" lon="6.66446">
        <ele>943.20001220703</ele>
        <time>2023-05-14T10:32:50.000Z</time>
      </trkpt>
      <trkpt lat="47.06924" lon="6.66434">
        <ele>943.20001220703</ele>
        <time>2023-05-14T10:32:52.000Z</time>
      </trkpt>
      <trkpt lat="47.06925" lon="6.66421">
        <ele>943.20001220703</ele>
        <time>2023-05-14T10:32:54.000Z</time>
      </trkpt>
      <trkpt lat="47.06929" lon="6.6641">
        <ele>943.59997558594</ele>
        <time>2023-05-14T10:32:56.000Z</time>
      </trkpt>
      <trkpt lat="47.06937" lon="6.66394">
        <ele>943.79998779297</ele>
        <time>2023-05-14T10:32:59.000Z</time>
      </trkpt>
      <trkpt lat="47.06965" lon="6.66356">
        <ele>944.20001220703</ele>
        <time>2023-05-14T10:33:07.000Z</time>
      </trkpt>
      <trkpt lat="47.06987" lon="6.66332">
        <ele>943.59997558594</ele>
        <time>2023-05-14T10:33:11.000Z</time>
      </trkpt>
      <trkpt lat="47.06994" lon="6.66315">
        <ele>943.20001220703</ele>
        <time>2023-05-14T10:33:13.000Z</time>
      </trkpt>
      <trkpt lat="47.06995" lon="6.66306">
        <ele>942.59997558594</ele>
        <time>2023-05-14T10:33:14.000Z</time>
      </trkpt>
      <trkpt lat="47.06995" lon="6.66289">
        <ele>941.59997558594</ele>
        <time>2023-05-14T10:33:16.000Z</time>
      </trkpt>
      <trkpt lat="47.06993" lon="6.66282">
        <ele>941.40002441406</ele>
        <time>2023-05-14T10:33:17.000Z</time>
      </trkpt>
      <trkpt lat="47.0699" lon="6.66275">
        <ele>941</ele>
        <time>2023-05-14T10:33:18.000Z</time>
      </trkpt>
      <trkpt lat="47.06981" lon="6.66262">
        <ele>940.79998779297</ele>
        <time>2023-05-14T10:33:20.000Z</time>
      </trkpt>
      <trkpt lat="47.0697" lon="6.66251">
        <ele>940.20001220703</ele>
        <time>2023-05-14T10:33:22.000Z</time>
      </trkpt>
      <trkpt lat="47.06964" lon="6.66246">
        <ele>940</ele>
        <time>2023-05-14T10:33:23.000Z</time>
      </trkpt>
      <trkpt lat="47.0695" lon="6.66228">
        <ele>939.59997558594</ele>
        <time>2023-05-14T10:33:26.000Z</time>
      </trkpt>
      <trkpt lat="47.06935" lon="6.66203">
        <ele>939.20001220703</ele>
        <time>2023-05-14T10:33:30.000Z</time>
      </trkpt>
      <trkpt lat="47.06931" lon="6.66196">
        <ele>939.20001220703</ele>
        <time>2023-05-14T10:33:31.000Z</time>
      </trkpt>
      <trkpt lat="47.06928" lon="6.66189">
        <ele>939</ele>
        <time>2023-05-14T10:33:32.000Z</time>
      </trkpt>
      <trkpt lat="47.06922" lon="6.66175">
        <ele>939</ele>
        <time>2023-05-14T10:33:34.000Z</time>
      </trkpt>
      <trkpt lat="47.06916" lon="6.66163">
        <ele>938.79998779297</ele>
        <time>2023-05-14T10:33:36.000Z</time>
      </trkpt>
      <trkpt lat="47.06907" lon="6.66145">
        <ele>938.79998779297</ele>
        <time>2023-05-14T10:33:39.000Z</time>
      </trkpt>
      <trkpt lat="47.06891" lon="6.66112">
        <ele>939</ele>
        <time>2023-05-14T10:33:44.000Z</time>
      </trkpt>
      <trkpt lat="47.06876" lon="6.66078">
        <ele>939.79998779297</ele>
        <time>2023-05-14T10:33:50.000Z</time>
      </trkpt>
      <trkpt lat="47.06873" lon="6.66068">
        <ele>940</ele>
        <time>2023-05-14T10:33:52.000Z</time>
      </trkpt>
      <trkpt lat="47.06863" lon="6.66044">
        <ele>941</ele>
        <time>2023-05-14T10:33:57.000Z</time>
      </trkpt>
      <trkpt lat="47.06855" lon="6.66025">
        <ele>942.40002441406</ele>
        <time>2023-05-14T10:34:01.000Z</time>
      </trkpt>
      <trkpt lat="47.06849" lon="6.66011">
        <ele>943.40002441406</ele>
        <time>2023-05-14T10:34:04.000Z</time>
      </trkpt>
      <trkpt lat="47.06846" lon="6.66002">
        <ele>944.20001220703</ele>
        <time>2023-05-14T10:34:06.000Z</time>
      </trkpt>
      <trkpt lat="47.06845" lon="6.65998">
        <ele>945</ele>
        <time>2023-05-14T10:34:07.000Z</time>
      </trkpt>
      <trkpt lat="47.06842" lon="6.65988">
        <ele>946</ele>
        <time>2023-05-14T10:34:10.000Z</time>
      </trkpt>
      <trkpt lat="47.06841" lon="6.65984">
        <ele>946.40002441406</ele>
        <time>2023-05-14T10:34:11.000Z</time>
      </trkpt>
      <trkpt lat="47.06839" lon="6.65977">
        <ele>947.20001220703</ele>
        <time>2023-05-14T10:34:13.000Z</time>
      </trkpt>
      <trkpt lat="47.06836" lon="6.6596">
        <ele>948.20001220703</ele>
        <time>2023-05-14T10:34:18.000Z</time>
      </trkpt>
      <trkpt lat="47.06834" lon="6.65953">
        <ele>948.59997558594</ele>
        <time>2023-05-14T10:34:20.000Z</time>
      </trkpt>
      <trkpt lat="47.06832" lon="6.65943">
        <ele>949.40002441406</ele>
        <time>2023-05-14T10:34:23.000Z</time>
      </trkpt>
      <trkpt lat="47.06829" lon="6.65923">
        <ele>950.40002441406</ele>
        <time>2023-05-14T10:34:29.000Z</time>
      </trkpt>
      <trkpt lat="47.06828" lon="6.6592">
        <ele>950.40002441406</ele>
        <time>2023-05-14T10:34:30.000Z</time>
      </trkpt>
      <trkpt lat="47.06824" lon="6.65899">
        <ele>951.40002441406</ele>
        <time>2023-05-14T10:34:37.000Z</time>
      </trkpt>
      <trkpt lat="47.06822" lon="6.65892">
        <ele>951.79998779297</ele>
        <time>2023-05-14T10:34:39.000Z</time>
      </trkpt>
      <trkpt lat="47.06821" lon="6.65883">
        <ele>952.59997558594</ele>
        <time>2023-05-14T10:34:42.000Z</time>
      </trkpt>
      <trkpt lat="47.06819" lon="6.6587">
        <ele>953.59997558594</ele>
        <time>2023-05-14T10:34:47.000Z</time>
      </trkpt>
      <trkpt lat="47.06819" lon="6.65867">
        <ele>954</ele>
        <time>2023-05-14T10:34:48.000Z</time>
      </trkpt>
      <trkpt lat="47.06817" lon="6.65855">
        <ele>954.79998779297</ele>
        <time>2023-05-14T10:34:52.000Z</time>
      </trkpt>
      <trkpt lat="47.06814" lon="6.65839">
        <ele>955.40002441406</ele>
        <time>2023-05-14T10:34:57.000Z</time>
      </trkpt>
      <trkpt lat="47.06812" lon="6.65829">
        <ele>955.79998779297</ele>
        <time>2023-05-14T10:35:00.000Z</time>
      </trkpt>
      <trkpt lat="47.06808" lon="6.65802">
        <ele>956.59997558594</ele>
        <time>2023-05-14T10:35:08.000Z</time>
      </trkpt>
      <trkpt lat="47.06807" lon="6.65796">
        <ele>956.79998779297</ele>
        <time>2023-05-14T10:35:10.000Z</time>
      </trkpt>
      <trkpt lat="47.06805" lon="6.65773">
        <ele>957.40002441406</ele>
        <time>2023-05-14T10:35:16.000Z</time>
      </trkpt>
      <trkpt lat="47.06804" lon="6.65758">
        <ele>957.79998779297</ele>
        <time>2023-05-14T10:35:20.000Z</time>
      </trkpt>
      <trkpt lat="47.06805" lon="6.65745">
        <ele>958.20001220703</ele>
        <time>2023-05-14T10:35:23.000Z</time>
      </trkpt>
      <trkpt lat="47.06808" lon="6.65722">
        <ele>958.40002441406</ele>
        <time>2023-05-14T10:35:29.000Z</time>
      </trkpt>
      <trkpt lat="47.0681" lon="6.65697">
        <ele>958.20001220703</ele>
        <time>2023-05-14T10:35:34.000Z</time>
      </trkpt>
      <trkpt lat="47.06811" lon="6.65659">
        <ele>957.79998779297</ele>
        <time>2023-05-14T10:35:40.000Z</time>
      </trkpt>
      <trkpt lat="47.06811" lon="6.65651">
        <ele>957.79998779297</ele>
        <time>2023-05-14T10:35:41.000Z</time>
      </trkpt>
      <trkpt lat="47.068" lon="6.65625">
        <ele>957.20001220703</ele>
        <time>2023-05-14T10:35:45.000Z</time>
      </trkpt>
      <trkpt lat="47.06797" lon="6.65618">
        <ele>957</ele>
        <time>2023-05-14T10:35:46.000Z</time>
      </trkpt>
      <trkpt lat="47.06794" lon="6.65612">
        <ele>956.79998779297</ele>
        <time>2023-05-14T10:35:47.000Z</time>
      </trkpt>
      <trkpt lat="47.06782" lon="6.65597">
        <ele>956.59997558594</ele>
        <time>2023-05-14T10:35:49.000Z</time>
      </trkpt>
      <trkpt lat="47.06778" lon="6.65583">
        <ele>956.20001220703</ele>
        <time>2023-05-14T10:35:51.000Z</time>
      </trkpt>
      <trkpt lat="47.06773" lon="6.65578">
        <ele>956</ele>
        <time>2023-05-14T10:35:52.000Z</time>
      </trkpt>
      <trkpt lat="47.06758" lon="6.65573">
        <ele>955.79998779297</ele>
        <time>2023-05-14T10:35:54.000Z</time>
      </trkpt>
      <trkpt lat="47.06748" lon="6.65569">
        <ele>955.40002441406</ele>
        <time>2023-05-14T10:35:56.000Z</time>
      </trkpt>
      <trkpt lat="47.06735" lon="6.65571">
        <ele>955.40002441406</ele>
        <time>2023-05-14T10:35:58.000Z</time>
      </trkpt>
      <trkpt lat="47.06709" lon="6.6557">
        <ele>955.20001220703</ele>
        <time>2023-05-14T10:36:04.000Z</time>
      </trkpt>
      <trkpt lat="47.06705" lon="6.65571">
        <ele>954.79998779297</ele>
        <time>2023-05-14T10:36:05.000Z</time>
      </trkpt>
      <trkpt lat="47.0668" lon="6.6557">
        <ele>954.59997558594</ele>
        <time>2023-05-14T10:36:12.000Z</time>
      </trkpt>
      <trkpt lat="47.06677" lon="6.65569">
        <ele>954.59997558594</ele>
        <time>2023-05-14T10:36:13.000Z</time>
      </trkpt>
      <trkpt lat="47.06662" lon="6.65558">
        <ele>954.40002441406</ele>
        <time>2023-05-14T10:36:17.000Z</time>
      </trkpt>
      <trkpt lat="47.06639" lon="6.65533">
        <ele>954.20001220703</ele>
        <time>2023-05-14T10:36:23.000Z</time>
      </trkpt>
      <trkpt lat="47.06624" lon="6.6552">
        <ele>954.20001220703</ele>
        <time>2023-05-14T10:36:26.000Z</time>
      </trkpt>
      <trkpt lat="47.06611" lon="6.65513">
        <ele>954</ele>
        <time>2023-05-14T10:36:28.000Z</time>
      </trkpt>
      <trkpt lat="47.06597" lon="6.65502">
        <ele>953.79998779297</ele>
        <time>2023-05-14T10:36:30.000Z</time>
      </trkpt>
      <trkpt lat="47.06591" lon="6.65495">
        <ele>953.59997558594</ele>
        <time>2023-05-14T10:36:31.000Z</time>
      </trkpt>
      <trkpt lat="47.06584" lon="6.65487">
        <ele>953</ele>
        <time>2023-05-14T10:36:32.000Z</time>
      </trkpt>
      <trkpt lat="47.06579" lon="6.65479">
        <ele>952.40002441406</ele>
        <time>2023-05-14T10:36:33.000Z</time>
      </trkpt>
      <trkpt lat="47.06564" lon="6.65456">
        <ele>951.40002441406</ele>
        <time>2023-05-14T10:36:36.000Z</time>
      </trkpt>
      <trkpt lat="47.0656" lon="6.65448">
        <ele>951</ele>
        <time>2023-05-14T10:36:37.000Z</time>
      </trkpt>
      <trkpt lat="47.06537" lon="6.65409">
        <ele>950.40002441406</ele>
        <time>2023-05-14T10:36:43.000Z</time>
      </trkpt>
      <trkpt lat="47.06534" lon="6.65404">
        <ele>950.20001220703</ele>
        <time>2023-05-14T10:36:44.000Z</time>
      </trkpt>
      <trkpt lat="47.06529" lon="6.65398">
        <ele>950</ele>
        <time>2023-05-14T10:36:45.000Z</time>
      </trkpt>
      <trkpt lat="47.06512" lon="6.65385">
        <ele>949.59997558594</ele>
        <time>2023-05-14T10:36:48.000Z</time>
      </trkpt>
      <trkpt lat="47.06508" lon="6.65383">
        <ele>949.40002441406</ele>
        <time>2023-05-14T10:36:49.000Z</time>
      </trkpt>
      <trkpt lat="47.06495" lon="6.65379">
        <ele>949.40002441406</ele>
        <time>2023-05-14T10:36:51.000Z</time>
      </trkpt>
      <trkpt lat="47.06489" lon="6.6538">
        <ele>949.20001220703</ele>
        <time>2023-05-14T10:36:52.000Z</time>
      </trkpt>
      <trkpt lat="47.06482" lon="6.65381">
        <ele>949.20001220703</ele>
        <time>2023-05-14T10:36:53.000Z</time>
      </trkpt>
      <trkpt lat="47.06476" lon="6.65383">
        <ele>949</ele>
        <time>2023-05-14T10:36:54.000Z</time>
      </trkpt>
      <trkpt lat="47.06459" lon="6.65391">
        <ele>948.59997558594</ele>
        <time>2023-05-14T10:36:57.000Z</time>
      </trkpt>
      <trkpt lat="47.06449" lon="6.65395">
        <ele>948.40002441406</ele>
        <time>2023-05-14T10:36:59.000Z</time>
      </trkpt>
      <trkpt lat="47.06437" lon="6.65394">
        <ele>948.20001220703</ele>
        <time>2023-05-14T10:37:01.000Z</time>
      </trkpt>
      <trkpt lat="47.06431" lon="6.65392">
        <ele>947.79998779297</ele>
        <time>2023-05-14T10:37:02.000Z</time>
      </trkpt>
      <trkpt lat="47.06418" lon="6.65387">
        <ele>947.40002441406</ele>
        <time>2023-05-14T10:37:04.000Z</time>
      </trkpt>
      <trkpt lat="47.06405" lon="6.6538">
        <ele>947</ele>
        <time>2023-05-14T10:37:06.000Z</time>
      </trkpt>
      <trkpt lat="47.06398" lon="6.65375">
        <ele>946.59997558594</ele>
        <time>2023-05-14T10:37:07.000Z</time>
      </trkpt>
      <trkpt lat="47.06363" lon="6.65346">
        <ele>945.40002441406</ele>
        <time>2023-05-14T10:37:12.000Z</time>
      </trkpt>
      <trkpt lat="47.0633" lon="6.65325">
        <ele>944.20001220703</ele>
        <time>2023-05-14T10:37:16.000Z</time>
      </trkpt>
      <trkpt lat="47.06321" lon="6.65322">
        <ele>944</ele>
        <time>2023-05-14T10:37:17.000Z</time>
      </trkpt>
      <trkpt lat="47.06313" lon="6.65321">
        <ele>943.59997558594</ele>
        <time>2023-05-14T10:37:18.000Z</time>
      </trkpt>
      <trkpt lat="47.06297" lon="6.65322">
        <ele>942.59997558594</ele>
        <time>2023-05-14T10:37:20.000Z</time>
      </trkpt>
      <trkpt lat="47.0629" lon="6.65324">
        <ele>942.20001220703</ele>
        <time>2023-05-14T10:37:21.000Z</time>
      </trkpt>
      <trkpt lat="47.06276" lon="6.6533">
        <ele>941.40002441406</ele>
        <time>2023-05-14T10:37:23.000Z</time>
      </trkpt>
      <trkpt lat="47.06271" lon="6.65333">
        <ele>941.40002441406</ele>
        <time>2023-05-14T10:37:24.000Z</time>
      </trkpt>
      <trkpt lat="47.06266" lon="6.65337">
        <ele>941.20001220703</ele>
        <time>2023-05-14T10:37:25.000Z</time>
      </trkpt>
      <trkpt lat="47.06237" lon="6.65353">
        <ele>940.79998779297</ele>
        <time>2023-05-14T10:37:31.000Z</time>
      </trkpt>
      <trkpt lat="47.06202" lon="6.65364">
        <ele>940.40002441406</ele>
        <time>2023-05-14T10:37:38.000Z</time>
      </trkpt>
      <trkpt lat="47.06167" lon="6.6537">
        <ele>939.59997558594</ele>
        <time>2023-05-14T10:37:43.000Z</time>
      </trkpt>
      <trkpt lat="47.06147" lon="6.65368">
        <ele>938.20001220703</ele>
        <time>2023-05-14T10:37:46.000Z</time>
      </trkpt>
      <trkpt lat="47.06133" lon="6.65362">
        <ele>937.79998779297</ele>
        <time>2023-05-14T10:37:48.000Z</time>
      </trkpt>
      <trkpt lat="47.06121" lon="6.65354">
        <ele>937</ele>
        <time>2023-05-14T10:37:50.000Z</time>
      </trkpt>
      <trkpt lat="47.06115" lon="6.65351">
        <ele>936.79998779297</ele>
        <time>2023-05-14T10:37:51.000Z</time>
      </trkpt>
      <trkpt lat="47.06106" lon="6.65347">
        <ele>935</ele>
        <time>2023-05-14T10:37:53.000Z</time>
      </trkpt>
      <trkpt lat="47.06101" lon="6.65346">
        <ele>934.59997558594</ele>
        <time>2023-05-14T10:37:54.000Z</time>
      </trkpt>
      <trkpt lat="47.06097" lon="6.65345">
        <ele>933.79998779297</ele>
        <time>2023-05-14T10:37:55.000Z</time>
      </trkpt>
      <trkpt lat="47.0609" lon="6.65342">
        <ele>932.20001220703</ele>
        <time>2023-05-14T10:37:57.000Z</time>
      </trkpt>
      <trkpt lat="47.06085" lon="6.65338">
        <ele>931.59997558594</ele>
        <time>2023-05-14T10:37:59.000Z</time>
      </trkpt>
      <trkpt lat="47.06084" lon="6.65337">
        <ele>931</ele>
        <time>2023-05-14T10:38:01.000Z</time>
      </trkpt>
      <trkpt lat="47.06084" lon="6.65336">
        <ele>930.40002441406</ele>
        <time>2023-05-14T10:38:02.000Z</time>
      </trkpt>
      <trkpt lat="47.06084" lon="6.65336">
        <ele>930.20001220703</ele>
        <time>2023-05-14T10:38:03.000Z</time>
      </trkpt>
      <trkpt lat="47.0608" lon="6.65335">
        <ele>929</ele>
        <time>2023-05-14T10:38:27.000Z</time>
      </trkpt>
      <trkpt lat="47.06078" lon="6.65332">
        <ele>929</ele>
        <time>2023-05-14T10:38:28.000Z</time>
      </trkpt>
      <trkpt lat="47.06076" lon="6.6533">
        <ele>929</ele>
        <time>2023-05-14T10:38:29.000Z</time>
      </trkpt>
      <trkpt lat="47.0606" lon="6.65314">
        <ele>928.79998779297</ele>
        <time>2023-05-14T10:38:36.000Z</time>
      </trkpt>
      <trkpt lat="47.06051" lon="6.65301">
        <ele>928.40002441406</ele>
        <time>2023-05-14T10:38:42.000Z</time>
      </trkpt>
      <trkpt lat="47.0605" lon="6.65299">
        <ele>928.40002441406</ele>
        <time>2023-05-14T10:38:43.000Z</time>
      </trkpt>
      <trkpt lat="47.06039" lon="6.65282">
        <ele>928.20001220703</ele>
        <time>2023-05-14T10:38:50.000Z</time>
      </trkpt>
      <trkpt lat="47.06037" lon="6.65278">
        <ele>928</ele>
        <time>2023-05-14T10:38:51.000Z</time>
      </trkpt>
      <trkpt lat="47.06022" lon="6.65258">
        <ele>927.79998779297</ele>
        <time>2023-05-14T10:38:57.000Z</time>
      </trkpt>
      <trkpt lat="47.0601" lon="6.6524">
        <ele>928</ele>
        <time>2023-05-14T10:39:03.000Z</time>
      </trkpt>
      <trkpt lat="47.06007" lon="6.6524">
        <ele>928.20001220703</ele>
        <time>2023-05-14T10:39:05.000Z</time>
      </trkpt>
      <trkpt lat="47.06006" lon="6.65239">
        <ele>928.40002441406</ele>
        <time>2023-05-14T10:39:07.000Z</time>
      </trkpt>
      <trkpt lat="47.06006" lon="6.6524">
        <ele>928.59997558594</ele>
        <time>2023-05-14T10:39:10.000Z</time>
      </trkpt>
      <trkpt lat="47.06004" lon="6.65236">
        <ele>929.20001220703</ele>
        <time>2023-05-14T10:39:38.000Z</time>
      </trkpt>
      <trkpt lat="47.06004" lon="6.65233">
        <ele>929.20001220703</ele>
        <time>2023-05-14T10:39:39.000Z</time>
      </trkpt>
      <trkpt lat="47.06001" lon="6.65219">
        <ele>929.40002441406</ele>
        <time>2023-05-14T10:39:42.000Z</time>
      </trkpt>
      <trkpt lat="47.05998" lon="6.65211">
        <ele>929.40002441406</ele>
        <time>2023-05-14T10:39:44.000Z</time>
      </trkpt>
      <trkpt lat="47.05984" lon="6.65188">
        <ele>930.20001220703</ele>
        <time>2023-05-14T10:39:52.000Z</time>
      </trkpt>
      <trkpt lat="47.05983" lon="6.65186">
        <ele>930.20001220703</ele>
        <time>2023-05-14T10:39:55.000Z</time>
      </trkpt>
      <trkpt lat="47.05976" lon="6.65175">
        <ele>930.59997558594</ele>
        <time>2023-05-14T10:41:52.000Z</time>
      </trkpt>
      <trkpt lat="47.05974" lon="6.65171">
        <ele>930.59997558594</ele>
        <time>2023-05-14T10:41:53.000Z</time>
      </trkpt>
      <trkpt lat="47.05964" lon="6.65153">
        <ele>930.40002441406</ele>
        <time>2023-05-14T10:41:57.000Z</time>
      </trkpt>
      <trkpt lat="47.0595" lon="6.6513">
        <ele>930.20001220703</ele>
        <time>2023-05-14T10:42:04.000Z</time>
      </trkpt>
      <trkpt lat="47.05928" lon="6.65096">
        <ele>930</ele>
        <time>2023-05-14T10:42:12.000Z</time>
      </trkpt>
      <trkpt lat="47.05912" lon="6.65074">
        <ele>929.59997558594</ele>
        <time>2023-05-14T10:42:17.000Z</time>
      </trkpt>
      <trkpt lat="47.05909" lon="6.65069">
        <ele>929.40002441406</ele>
        <time>2023-05-14T10:42:18.000Z</time>
      </trkpt>
      <trkpt lat="47.05888" lon="6.65043">
        <ele>929.20001220703</ele>
        <time>2023-05-14T10:42:24.000Z</time>
      </trkpt>
      <trkpt lat="47.05873" lon="6.65025">
        <ele>928.40002441406</ele>
        <time>2023-05-14T10:42:28.000Z</time>
      </trkpt>
      <trkpt lat="47.05858" lon="6.65007">
        <ele>927.40002441406</ele>
        <time>2023-05-14T10:42:32.000Z</time>
      </trkpt>
      <trkpt lat="47.0585" lon="6.64993">
        <ele>926.40002441406</ele>
        <time>2023-05-14T10:42:35.000Z</time>
      </trkpt>
      <trkpt lat="47.05847" lon="6.64987">
        <ele>926.20001220703</ele>
        <time>2023-05-14T10:42:36.000Z</time>
      </trkpt>
      <trkpt lat="47.0584" lon="6.64974">
        <ele>926</ele>
        <time>2023-05-14T10:42:38.000Z</time>
      </trkpt>
      <trkpt lat="47.05832" lon="6.64963">
        <ele>925.40002441406</ele>
        <time>2023-05-14T10:42:40.000Z</time>
      </trkpt>
      <trkpt lat="47.05828" lon="6.64958">
        <ele>925.20001220703</ele>
        <time>2023-05-14T10:42:41.000Z</time>
      </trkpt>
      <trkpt lat="47.0582" lon="6.64949">
        <ele>925</ele>
        <time>2023-05-14T10:42:43.000Z</time>
      </trkpt>
      <trkpt lat="47.05805" lon="6.64927">
        <ele>924.59997558594</ele>
        <time>2023-05-14T10:42:48.000Z</time>
      </trkpt>
      <trkpt lat="47.058" lon="6.64912">
        <ele>924.40002441406</ele>
        <time>2023-05-14T10:42:50.000Z</time>
      </trkpt>
      <trkpt lat="47.05791" lon="6.64895">
        <ele>924.40002441406</ele>
        <time>2023-05-14T10:42:53.000Z</time>
      </trkpt>
      <trkpt lat="47.05789" lon="6.6489">
        <ele>924.40002441406</ele>
        <time>2023-05-14T10:42:54.000Z</time>
      </trkpt>
      <trkpt lat="47.05774" lon="6.64868">
        <ele>924.79998779297</ele>
        <time>2023-05-14T10:42:59.000Z</time>
      </trkpt>
      <trkpt lat="47.05751" lon="6.64832">
        <ele>924</ele>
        <time>2023-05-14T10:43:08.000Z</time>
      </trkpt>
      <trkpt lat="47.05725" lon="6.64801">
        <ele>923.20001220703</ele>
        <time>2023-05-14T10:43:17.000Z</time>
      </trkpt>
      <trkpt lat="47.05724" lon="6.64798">
        <ele>923</ele>
        <time>2023-05-14T10:43:18.000Z</time>
      </trkpt>
      <trkpt lat="47.05724" lon="6.64794">
        <ele>921.79998779297</ele>
        <time>2023-05-14T10:43:21.000Z</time>
      </trkpt>
      <trkpt lat="47.05724" lon="6.64794">
        <ele>921.20001220703</ele>
        <time>2023-05-14T10:43:22.000Z</time>
      </trkpt>
      <trkpt lat="47.05717" lon="6.64795">
        <ele>920.20001220703</ele>
        <time>2023-05-14T10:44:02.000Z</time>
      </trkpt>
      <trkpt lat="47.05714" lon="6.64797">
        <ele>920.20001220703</ele>
        <time>2023-05-14T10:44:03.000Z</time>
      </trkpt>
      <trkpt lat="47.0571" lon="6.64797">
        <ele>920</ele>
        <time>2023-05-14T10:44:04.000Z</time>
      </trkpt>
      <trkpt lat="47.05694" lon="6.64795">
        <ele>919.20001220703</ele>
        <time>2023-05-14T10:44:08.000Z</time>
      </trkpt>
      <trkpt lat="47.0569" lon="6.64794">
        <ele>918.59997558594</ele>
        <time>2023-05-14T10:44:09.000Z</time>
      </trkpt>
      <trkpt lat="47.05685" lon="6.64793">
        <ele>918.20001220703</ele>
        <time>2023-05-14T10:44:10.000Z</time>
      </trkpt>
      <trkpt lat="47.05681" lon="6.64792">
        <ele>918</ele>
        <time>2023-05-14T10:44:11.000Z</time>
      </trkpt>
      <trkpt lat="47.05671" lon="6.64782">
        <ele>917.20001220703</ele>
        <time>2023-05-14T10:44:14.000Z</time>
      </trkpt>
      <trkpt lat="47.05668" lon="6.64779">
        <ele>917</ele>
        <time>2023-05-14T10:44:15.000Z</time>
      </trkpt>
      <trkpt lat="47.05662" lon="6.64773">
        <ele>915.59997558594</ele>
        <time>2023-05-14T10:44:17.000Z</time>
      </trkpt>
      <trkpt lat="47.05646" lon="6.64767">
        <ele>914</ele>
        <time>2023-05-14T10:44:21.000Z</time>
      </trkpt>
      <trkpt lat="47.05631" lon="6.64773">
        <ele>912.59997558594</ele>
        <time>2023-05-14T10:44:25.000Z</time>
      </trkpt>
      <trkpt lat="47.05624" lon="6.64776">
        <ele>911.59997558594</ele>
        <time>2023-05-14T10:44:27.000Z</time>
      </trkpt>
      <trkpt lat="47.0562" lon="6.64777">
        <ele>911.20001220703</ele>
        <time>2023-05-14T10:44:28.000Z</time>
      </trkpt>
      <trkpt lat="47.0561" lon="6.64778">
        <ele>910.79998779297</ele>
        <time>2023-05-14T10:44:30.000Z</time>
      </trkpt>
      <trkpt lat="47.05605" lon="6.64776">
        <ele>910.59997558594</ele>
        <time>2023-05-14T10:44:31.000Z</time>
      </trkpt>
      <trkpt lat="47.05593" lon="6.64769">
        <ele>910</ele>
        <time>2023-05-14T10:44:33.000Z</time>
      </trkpt>
      <trkpt lat="47.05578" lon="6.64755">
        <ele>909.40002441406</ele>
        <time>2023-05-14T10:44:36.000Z</time>
      </trkpt>
      <trkpt lat="47.05574" lon="6.6475">
        <ele>908.79998779297</ele>
        <time>2023-05-14T10:44:37.000Z</time>
      </trkpt>
      <trkpt lat="47.05558" lon="6.6473">
        <ele>907.59997558594</ele>
        <time>2023-05-14T10:44:40.000Z</time>
      </trkpt>
      <trkpt lat="47.05553" lon="6.64724">
        <ele>906.59997558594</ele>
        <time>2023-05-14T10:44:41.000Z</time>
      </trkpt>
      <trkpt lat="47.05542" lon="6.64711">
        <ele>905.40002441406</ele>
        <time>2023-05-14T10:44:43.000Z</time>
      </trkpt>
      <trkpt lat="47.05533" lon="6.64698">
        <ele>904.79998779297</ele>
        <time>2023-05-14T10:44:45.000Z</time>
      </trkpt>
      <trkpt lat="47.05529" lon="6.64692">
        <ele>904.40002441406</ele>
        <time>2023-05-14T10:44:46.000Z</time>
      </trkpt>
      <trkpt lat="47.05521" lon="6.64679">
        <ele>903</ele>
        <time>2023-05-14T10:44:48.000Z</time>
      </trkpt>
      <trkpt lat="47.05517" lon="6.64672">
        <ele>902.40002441406</ele>
        <time>2023-05-14T10:44:49.000Z</time>
      </trkpt>
      <trkpt lat="47.05509" lon="6.64657">
        <ele>900.79998779297</ele>
        <time>2023-05-14T10:44:51.000Z</time>
      </trkpt>
      <trkpt lat="47.05501" lon="6.64641">
        <ele>899.40002441406</ele>
        <time>2023-05-14T10:44:53.000Z</time>
      </trkpt>
      <trkpt lat="47.05494" lon="6.64622">
        <ele>898</ele>
        <time>2023-05-14T10:44:55.000Z</time>
      </trkpt>
      <trkpt lat="47.05491" lon="6.64612">
        <ele>897.20001220703</ele>
        <time>2023-05-14T10:44:56.000Z</time>
      </trkpt>
      <trkpt lat="47.05484" lon="6.64595">
        <ele>896.40002441406</ele>
        <time>2023-05-14T10:44:58.000Z</time>
      </trkpt>
      <trkpt lat="47.0548" lon="6.64587">
        <ele>896</ele>
        <time>2023-05-14T10:44:59.000Z</time>
      </trkpt>
      <trkpt lat="47.05477" lon="6.6458">
        <ele>895.20001220703</ele>
        <time>2023-05-14T10:45:00.000Z</time>
      </trkpt>
      <trkpt lat="47.05473" lon="6.64571">
        <ele>894.79998779297</ele>
        <time>2023-05-14T10:45:01.000Z</time>
      </trkpt>
      <trkpt lat="47.05469" lon="6.64563">
        <ele>894</ele>
        <time>2023-05-14T10:45:02.000Z</time>
      </trkpt>
      <trkpt lat="47.05459" lon="6.64547">
        <ele>892.40002441406</ele>
        <time>2023-05-14T10:45:04.000Z</time>
      </trkpt>
      <trkpt lat="47.05448" lon="6.64529">
        <ele>891.40002441406</ele>
        <time>2023-05-14T10:45:06.000Z</time>
      </trkpt>
      <trkpt lat="47.05443" lon="6.64521">
        <ele>890.59997558594</ele>
        <time>2023-05-14T10:45:07.000Z</time>
      </trkpt>
      <trkpt lat="47.05432" lon="6.64506">
        <ele>890</ele>
        <time>2023-05-14T10:45:09.000Z</time>
      </trkpt>
      <trkpt lat="47.05426" lon="6.64497">
        <ele>889.79998779297</ele>
        <time>2023-05-14T10:45:10.000Z</time>
      </trkpt>
      <trkpt lat="47.0542" lon="6.6449">
        <ele>888.59997558594</ele>
        <time>2023-05-14T10:45:11.000Z</time>
      </trkpt>
      <trkpt lat="47.05415" lon="6.64484">
        <ele>887.40002441406</ele>
        <time>2023-05-14T10:45:12.000Z</time>
      </trkpt>
      <trkpt lat="47.05398" lon="6.64463">
        <ele>886.20001220703</ele>
        <time>2023-05-14T10:45:15.000Z</time>
      </trkpt>
      <trkpt lat="47.05382" lon="6.64448">
        <ele>884.79998779297</ele>
        <time>2023-05-14T10:45:18.000Z</time>
      </trkpt>
      <trkpt lat="47.0537" lon="6.64437">
        <ele>884.20001220703</ele>
        <time>2023-05-14T10:45:20.000Z</time>
      </trkpt>
      <trkpt lat="47.05364" lon="6.64432">
        <ele>883.40002441406</ele>
        <time>2023-05-14T10:45:21.000Z</time>
      </trkpt>
      <trkpt lat="47.05353" lon="6.64423">
        <ele>882.20001220703</ele>
        <time>2023-05-14T10:45:23.000Z</time>
      </trkpt>
      <trkpt lat="47.05341" lon="6.6441">
        <ele>880.79998779297</ele>
        <time>2023-05-14T10:45:25.000Z</time>
      </trkpt>
      <trkpt lat="47.0533" lon="6.64398">
        <ele>879</ele>
        <time>2023-05-14T10:45:27.000Z</time>
      </trkpt>
      <trkpt lat="47.05318" lon="6.64386">
        <ele>877.59997558594</ele>
        <time>2023-05-14T10:45:29.000Z</time>
      </trkpt>
      <trkpt lat="47.05307" lon="6.64374">
        <ele>876.40002441406</ele>
        <time>2023-05-14T10:45:31.000Z</time>
      </trkpt>
      <trkpt lat="47.05305" lon="6.64371">
        <ele>875.59997558594</ele>
        <time>2023-05-14T10:45:32.000Z</time>
      </trkpt>
      <trkpt lat="47.05303" lon="6.64369">
        <ele>875.40002441406</ele>
        <time>2023-05-14T10:45:33.000Z</time>
      </trkpt>
      <trkpt lat="47.05302" lon="6.64367">
        <ele>874.59997558594</ele>
        <time>2023-05-14T10:45:34.000Z</time>
      </trkpt>
      <trkpt lat="47.05301" lon="6.64366">
        <ele>873.40002441406</ele>
        <time>2023-05-14T10:45:35.000Z</time>
      </trkpt>
      <trkpt lat="47.05301" lon="6.64364">
        <ele>872.40002441406</ele>
        <time>2023-05-14T10:45:38.000Z</time>
      </trkpt>
      <trkpt lat="47.05301" lon="6.64364">
        <ele>871.79998779297</ele>
        <time>2023-05-14T10:45:39.000Z</time>
      </trkpt>
      <trkpt lat="47.05294" lon="6.6435">
        <ele>871.40002441406</ele>
        <time>2023-05-14T10:46:00.000Z</time>
      </trkpt>
      <trkpt lat="47.0529" lon="6.64345">
        <ele>871.40002441406</ele>
        <time>2023-05-14T10:46:02.000Z</time>
      </trkpt>
      <trkpt lat="47.05286" lon="6.64336">
        <ele>871.40002441406</ele>
        <time>2023-05-14T10:46:05.000Z</time>
      </trkpt>
      <trkpt lat="47.05277" lon="6.64325">
        <ele>871.20001220703</ele>
        <time>2023-05-14T10:46:09.000Z</time>
      </trkpt>
      <trkpt lat="47.05276" lon="6.64323">
        <ele>871.20001220703</ele>
        <time>2023-05-14T10:46:10.000Z</time>
      </trkpt>
      <trkpt lat="47.05275" lon="6.64321">
        <ele>871.20001220703</ele>
        <time>2023-05-14T10:46:11.000Z</time>
      </trkpt>
      <trkpt lat="47.05271" lon="6.64312">
        <ele>871</ele>
        <time>2023-05-14T10:46:14.000Z</time>
      </trkpt>
      <trkpt lat="47.05263" lon="6.643">
        <ele>871</ele>
        <time>2023-05-14T10:46:19.000Z</time>
      </trkpt>
      <trkpt lat="47.05251" lon="6.64284">
        <ele>871</ele>
        <time>2023-05-14T10:46:25.000Z</time>
      </trkpt>
      <trkpt lat="47.05249" lon="6.6428">
        <ele>871.20001220703</ele>
        <time>2023-05-14T10:46:27.000Z</time>
      </trkpt>
      <trkpt lat="47.05246" lon="6.64275">
        <ele>871.59997558594</ele>
        <time>2023-05-14T10:46:29.000Z</time>
      </trkpt>
      <trkpt lat="47.05244" lon="6.64273">
        <ele>871.79998779297</ele>
        <time>2023-05-14T10:46:30.000Z</time>
      </trkpt>
      <trkpt lat="47.0524" lon="6.64267">
        <ele>872.20001220703</ele>
        <time>2023-05-14T10:46:32.000Z</time>
      </trkpt>
      <trkpt lat="47.05233" lon="6.64249">
        <ele>873.20001220703</ele>
        <time>2023-05-14T10:46:37.000Z</time>
      </trkpt>
      <trkpt lat="47.05226" lon="6.6424">
        <ele>874.20001220703</ele>
        <time>2023-05-14T10:46:41.000Z</time>
      </trkpt>
      <trkpt lat="47.05222" lon="6.64234">
        <ele>874.79998779297</ele>
        <time>2023-05-14T10:46:43.000Z</time>
      </trkpt>
      <trkpt lat="47.05216" lon="6.64221">
        <ele>875.40002441406</ele>
        <time>2023-05-14T10:46:46.000Z</time>
      </trkpt>
      <trkpt lat="47.05213" lon="6.64211">
        <ele>876.20001220703</ele>
        <time>2023-05-14T10:46:49.000Z</time>
      </trkpt>
      <trkpt lat="47.0521" lon="6.64209">
        <ele>876.20001220703</ele>
        <time>2023-05-14T10:46:50.000Z</time>
      </trkpt>
      <trkpt lat="47.05209" lon="6.64206">
        <ele>876.59997558594</ele>
        <time>2023-05-14T10:46:52.000Z</time>
      </trkpt>
      <trkpt lat="47.05208" lon="6.64205">
        <ele>876.59997558594</ele>
        <time>2023-05-14T10:46:53.000Z</time>
      </trkpt>
      <trkpt lat="47.05205" lon="6.642">
        <ele>876.79998779297</ele>
        <time>2023-05-14T10:46:55.000Z</time>
      </trkpt>
      <trkpt lat="47.05203" lon="6.64198">
        <ele>876.79998779297</ele>
        <time>2023-05-14T10:46:56.000Z</time>
      </trkpt>
      <trkpt lat="47.05192" lon="6.64177">
        <ele>877.20001220703</ele>
        <time>2023-05-14T10:47:03.000Z</time>
      </trkpt>
      <trkpt lat="47.05189" lon="6.64167">
        <ele>877.40002441406</ele>
        <time>2023-05-14T10:47:06.000Z</time>
      </trkpt>
      <trkpt lat="47.05188" lon="6.64164">
        <ele>877.40002441406</ele>
        <time>2023-05-14T10:47:07.000Z</time>
      </trkpt>
      <trkpt lat="47.05186" lon="6.64156">
        <ele>877.79998779297</ele>
        <time>2023-05-14T10:47:10.000Z</time>
      </trkpt>
      <trkpt lat="47.05182" lon="6.64147">
        <ele>877.79998779297</ele>
        <time>2023-05-14T10:47:12.000Z</time>
      </trkpt>
      <trkpt lat="47.05165" lon="6.64116">
        <ele>878.40002441406</ele>
        <time>2023-05-14T10:47:20.000Z</time>
      </trkpt>
      <trkpt lat="47.05151" lon="6.64094">
        <ele>879</ele>
        <time>2023-05-14T10:47:27.000Z</time>
      </trkpt>
      <trkpt lat="47.0515" lon="6.6409">
        <ele>879</ele>
        <time>2023-05-14T10:47:28.000Z</time>
      </trkpt>
      <trkpt lat="47.05142" lon="6.64077">
        <ele>879.20001220703</ele>
        <time>2023-05-14T10:47:33.000Z</time>
      </trkpt>
      <trkpt lat="47.05122" lon="6.64048">
        <ele>879</ele>
        <time>2023-05-14T10:47:41.000Z</time>
      </trkpt>
      <trkpt lat="47.05106" lon="6.64016">
        <ele>878.20001220703</ele>
        <time>2023-05-14T10:47:48.000Z</time>
      </trkpt>
      <trkpt lat="47.05093" lon="6.6399">
        <ele>877.59997558594</ele>
        <time>2023-05-14T10:47:53.000Z</time>
      </trkpt>
      <trkpt lat="47.05088" lon="6.63979">
        <ele>877.40002441406</ele>
        <time>2023-05-14T10:47:55.000Z</time>
      </trkpt>
      <trkpt lat="47.05085" lon="6.63973">
        <ele>877.20001220703</ele>
        <time>2023-05-14T10:47:56.000Z</time>
      </trkpt>
      <trkpt lat="47.05081" lon="6.63965">
        <ele>876.79998779297</ele>
        <time>2023-05-14T10:47:57.000Z</time>
      </trkpt>
      <trkpt lat="47.05068" lon="6.63944">
        <ele>876.20001220703</ele>
        <time>2023-05-14T10:48:00.000Z</time>
      </trkpt>
      <trkpt lat="47.05064" lon="6.63937">
        <ele>875.79998779297</ele>
        <time>2023-05-14T10:48:01.000Z</time>
      </trkpt>
      <trkpt lat="47.05055" lon="6.63921">
        <ele>874.79998779297</ele>
        <time>2023-05-14T10:48:03.000Z</time>
      </trkpt>
      <trkpt lat="47.05052" lon="6.63913">
        <ele>874.40002441406</ele>
        <time>2023-05-14T10:48:04.000Z</time>
      </trkpt>
      <trkpt lat="47.05049" lon="6.63907">
        <ele>874</ele>
        <time>2023-05-14T10:48:05.000Z</time>
      </trkpt>
      <trkpt lat="47.05045" lon="6.63899">
        <ele>873.40002441406</ele>
        <time>2023-05-14T10:48:06.000Z</time>
      </trkpt>
      <trkpt lat="47.05035" lon="6.63882">
        <ele>872.79998779297</ele>
        <time>2023-05-14T10:48:08.000Z</time>
      </trkpt>
      <trkpt lat="47.05032" lon="6.63873">
        <ele>872.40002441406</ele>
        <time>2023-05-14T10:48:09.000Z</time>
      </trkpt>
      <trkpt lat="47.05031" lon="6.63868">
        <ele>872</ele>
        <time>2023-05-14T10:48:10.000Z</time>
      </trkpt>
      <trkpt lat="47.05029" lon="6.63862">
        <ele>871.79998779297</ele>
        <time>2023-05-14T10:48:11.000Z</time>
      </trkpt>
      <trkpt lat="47.05028" lon="6.63847">
        <ele>871.40002441406</ele>
        <time>2023-05-14T10:48:14.000Z</time>
      </trkpt>
      <trkpt lat="47.05027" lon="6.63844">
        <ele>871.20001220703</ele>
        <time>2023-05-14T10:48:15.000Z</time>
      </trkpt>
      <trkpt lat="47.05021" lon="6.63827">
        <ele>870.59997558594</ele>
        <time>2023-05-14T10:48:19.000Z</time>
      </trkpt>
      <trkpt lat="47.05018" lon="6.63807">
        <ele>870.40002441406</ele>
        <time>2023-05-14T10:48:22.000Z</time>
      </trkpt>
      <trkpt lat="47.05015" lon="6.63796">
        <ele>870.20001220703</ele>
        <time>2023-05-14T10:48:24.000Z</time>
      </trkpt>
      <trkpt lat="47.05009" lon="6.63764">
        <ele>870</ele>
        <time>2023-05-14T10:48:29.000Z</time>
      </trkpt>
      <trkpt lat="47.05007" lon="6.63755">
        <ele>869.79998779297</ele>
        <time>2023-05-14T10:48:31.000Z</time>
      </trkpt>
      <trkpt lat="47.05004" lon="6.63741">
        <ele>869.59997558594</ele>
        <time>2023-05-14T10:48:34.000Z</time>
      </trkpt>
      <trkpt lat="47.04998" lon="6.6373">
        <ele>869.40002441406</ele>
        <time>2023-05-14T10:48:36.000Z</time>
      </trkpt>
      <trkpt lat="47.04992" lon="6.63722">
        <ele>869.20001220703</ele>
        <time>2023-05-14T10:48:38.000Z</time>
      </trkpt>
      <trkpt lat="47.04987" lon="6.63708">
        <ele>868.79998779297</ele>
        <time>2023-05-14T10:48:41.000Z</time>
      </trkpt>
      <trkpt lat="47.04985" lon="6.63703">
        <ele>868.59997558594</ele>
        <time>2023-05-14T10:48:42.000Z</time>
      </trkpt>
      <trkpt lat="47.04983" lon="6.63697">
        <ele>868.59997558594</ele>
        <time>2023-05-14T10:48:43.000Z</time>
      </trkpt>
      <trkpt lat="47.04979" lon="6.63686">
        <ele>868.40002441406</ele>
        <time>2023-05-14T10:48:45.000Z</time>
      </trkpt>
      <trkpt lat="47.04974" lon="6.63674">
        <ele>868.20001220703</ele>
        <time>2023-05-14T10:48:47.000Z</time>
      </trkpt>
      <trkpt lat="47.04967" lon="6.63663">
        <ele>868</ele>
        <time>2023-05-14T10:48:49.000Z</time>
      </trkpt>
      <trkpt lat="47.04957" lon="6.63646">
        <ele>867.20001220703</ele>
        <time>2023-05-14T10:48:52.000Z</time>
      </trkpt>
      <trkpt lat="47.04953" lon="6.63641">
        <ele>866.79998779297</ele>
        <time>2023-05-14T10:48:53.000Z</time>
      </trkpt>
      <trkpt lat="47.0494" lon="6.63624">
        <ele>865.40002441406</ele>
        <time>2023-05-14T10:48:56.000Z</time>
      </trkpt>
      <trkpt lat="47.04931" lon="6.63613">
        <ele>864.79998779297</ele>
        <time>2023-05-14T10:48:58.000Z</time>
      </trkpt>
      <trkpt lat="47.04925" lon="6.63607">
        <ele>864.40002441406</ele>
        <time>2023-05-14T10:48:59.000Z</time>
      </trkpt>
      <trkpt lat="47.0492" lon="6.636">
        <ele>863.20001220703</ele>
        <time>2023-05-14T10:49:00.000Z</time>
      </trkpt>
      <trkpt lat="47.04914" lon="6.63593">
        <ele>862.20001220703</ele>
        <time>2023-05-14T10:49:01.000Z</time>
      </trkpt>
      <trkpt lat="47.04912" lon="6.63587">
        <ele>861.79998779297</ele>
        <time>2023-05-14T10:49:02.000Z</time>
      </trkpt>
      <trkpt lat="47.04909" lon="6.6358">
        <ele>859.59997558594</ele>
        <time>2023-05-14T10:49:03.000Z</time>
      </trkpt>
      <trkpt lat="47.04906" lon="6.63574">
        <ele>859</ele>
        <time>2023-05-14T10:49:04.000Z</time>
      </trkpt>
      <trkpt lat="47.04902" lon="6.63569">
        <ele>858</ele>
        <time>2023-05-14T10:49:05.000Z</time>
      </trkpt>
      <trkpt lat="47.04898" lon="6.63564">
        <ele>857.79998779297</ele>
        <time>2023-05-14T10:49:06.000Z</time>
      </trkpt>
      <trkpt lat="47.04889" lon="6.63553">
        <ele>856.20001220703</ele>
        <time>2023-05-14T10:49:08.000Z</time>
      </trkpt>
      <trkpt lat="47.04877" lon="6.63541">
        <ele>854.79998779297</ele>
        <time>2023-05-14T10:49:10.000Z</time>
      </trkpt>
      <trkpt lat="47.04871" lon="6.63537">
        <ele>854.40002441406</ele>
        <time>2023-05-14T10:49:11.000Z</time>
      </trkpt>
      <trkpt lat="47.04865" lon="6.63533">
        <ele>853.59997558594</ele>
        <time>2023-05-14T10:49:12.000Z</time>
      </trkpt>
      <trkpt lat="47.04856" lon="6.63518">
        <ele>852.40002441406</ele>
        <time>2023-05-14T10:49:14.000Z</time>
      </trkpt>
      <trkpt lat="47.04845" lon="6.63506">
        <ele>850.79998779297</ele>
        <time>2023-05-14T10:49:16.000Z</time>
      </trkpt>
      <trkpt lat="47.04834" lon="6.63492">
        <ele>849.59997558594</ele>
        <time>2023-05-14T10:49:18.000Z</time>
      </trkpt>
      <trkpt lat="47.04828" lon="6.63485">
        <ele>848.40002441406</ele>
        <time>2023-05-14T10:49:19.000Z</time>
      </trkpt>
      <trkpt lat="47.04818" lon="6.63471">
        <ele>847</ele>
        <time>2023-05-14T10:49:21.000Z</time>
      </trkpt>
      <trkpt lat="47.04816" lon="6.63466">
        <ele>846.20001220703</ele>
        <time>2023-05-14T10:49:22.000Z</time>
      </trkpt>
      <trkpt lat="47.04812" lon="6.63458">
        <ele>844.79998779297</ele>
        <time>2023-05-14T10:49:23.000Z</time>
      </trkpt>
      <trkpt lat="47.04806" lon="6.63451">
        <ele>843.79998779297</ele>
        <time>2023-05-14T10:49:24.000Z</time>
      </trkpt>
      <trkpt lat="47.048" lon="6.63444">
        <ele>843.40002441406</ele>
        <time>2023-05-14T10:49:25.000Z</time>
      </trkpt>
      <trkpt lat="47.04796" lon="6.63438">
        <ele>842.40002441406</ele>
        <time>2023-05-14T10:49:26.000Z</time>
      </trkpt>
      <trkpt lat="47.04792" lon="6.63433">
        <ele>842</ele>
        <time>2023-05-14T10:49:27.000Z</time>
      </trkpt>
      <trkpt lat="47.04787" lon="6.63427">
        <ele>841</ele>
        <time>2023-05-14T10:49:28.000Z</time>
      </trkpt>
      <trkpt lat="47.04777" lon="6.63413">
        <ele>839.79998779297</ele>
        <time>2023-05-14T10:49:30.000Z</time>
      </trkpt>
      <trkpt lat="47.04768" lon="6.63402">
        <ele>838</ele>
        <time>2023-05-14T10:49:32.000Z</time>
      </trkpt>
      <trkpt lat="47.04754" lon="6.63383">
        <ele>836.59997558594</ele>
        <time>2023-05-14T10:49:35.000Z</time>
      </trkpt>
      <trkpt lat="47.04747" lon="6.63372">
        <ele>836.20001220703</ele>
        <time>2023-05-14T10:49:37.000Z</time>
      </trkpt>
      <trkpt lat="47.04736" lon="6.63354">
        <ele>834.79998779297</ele>
        <time>2023-05-14T10:49:40.000Z</time>
      </trkpt>
      <trkpt lat="47.04731" lon="6.63343">
        <ele>833.59997558594</ele>
        <time>2023-05-14T10:49:42.000Z</time>
      </trkpt>
      <trkpt lat="47.04728" lon="6.63336">
        <ele>833.20001220703</ele>
        <time>2023-05-14T10:49:43.000Z</time>
      </trkpt>
      <trkpt lat="47.04725" lon="6.6333">
        <ele>832.40002441406</ele>
        <time>2023-05-14T10:49:44.000Z</time>
      </trkpt>
      <trkpt lat="47.04722" lon="6.63326">
        <ele>832</ele>
        <time>2023-05-14T10:49:45.000Z</time>
      </trkpt>
      <trkpt lat="47.04709" lon="6.63306">
        <ele>830.59997558594</ele>
        <time>2023-05-14T10:49:48.000Z</time>
      </trkpt>
      <trkpt lat="47.04701" lon="6.63293">
        <ele>829.79998779297</ele>
        <time>2023-05-14T10:49:50.000Z</time>
      </trkpt>
      <trkpt lat="47.04698" lon="6.63286">
        <ele>829.40002441406</ele>
        <time>2023-05-14T10:49:51.000Z</time>
      </trkpt>
      <trkpt lat="47.04694" lon="6.63278">
        <ele>829</ele>
        <time>2023-05-14T10:49:52.000Z</time>
      </trkpt>
      <trkpt lat="47.04688" lon="6.6326">
        <ele>828</ele>
        <time>2023-05-14T10:49:54.000Z</time>
      </trkpt>
      <trkpt lat="47.04684" lon="6.63244">
        <ele>826.20001220703</ele>
        <time>2023-05-14T10:49:56.000Z</time>
      </trkpt>
      <trkpt lat="47.04684" lon="6.63236">
        <ele>825.79998779297</ele>
        <time>2023-05-14T10:49:57.000Z</time>
      </trkpt>
      <trkpt lat="47.04686" lon="6.63215">
        <ele>825.20001220703</ele>
        <time>2023-05-14T10:50:00.000Z</time>
      </trkpt>
      <trkpt lat="47.04687" lon="6.63209">
        <ele>825</ele>
        <time>2023-05-14T10:50:01.000Z</time>
      </trkpt>
      <trkpt lat="47.04689" lon="6.63197">
        <ele>824.79998779297</ele>
        <time>2023-05-14T10:50:03.000Z</time>
      </trkpt>
      <trkpt lat="47.04699" lon="6.63174">
        <ele>824</ele>
        <time>2023-05-14T10:50:07.000Z</time>
      </trkpt>
      <trkpt lat="47.047" lon="6.63169">
        <ele>823.79998779297</ele>
        <time>2023-05-14T10:50:08.000Z</time>
      </trkpt>
      <trkpt lat="47.04705" lon="6.63144">
        <ele>823.40002441406</ele>
        <time>2023-05-14T10:50:12.000Z</time>
      </trkpt>
      <trkpt lat="47.04716" lon="6.63109">
        <ele>823.20001220703</ele>
        <time>2023-05-14T10:50:18.000Z</time>
      </trkpt>
      <trkpt lat="47.04722" lon="6.63091">
        <ele>823.59997558594</ele>
        <time>2023-05-14T10:50:21.000Z</time>
      </trkpt>
      <trkpt lat="47.04726" lon="6.63077">
        <ele>823.59997558594</ele>
        <time>2023-05-14T10:50:23.000Z</time>
      </trkpt>
      <trkpt lat="47.0473" lon="6.63058">
        <ele>823</ele>
        <time>2023-05-14T10:50:26.000Z</time>
      </trkpt>
      <trkpt lat="47.04737" lon="6.63038">
        <ele>821.79998779297</ele>
        <time>2023-05-14T10:50:29.000Z</time>
      </trkpt>
      <trkpt lat="47.04741" lon="6.63025">
        <ele>821.20001220703</ele>
        <time>2023-05-14T10:50:31.000Z</time>
      </trkpt>
      <trkpt lat="47.04744" lon="6.63019">
        <ele>820.40002441406</ele>
        <time>2023-05-14T10:50:32.000Z</time>
      </trkpt>
      <trkpt lat="47.04753" lon="6.63003">
        <ele>819.59997558594</ele>
        <time>2023-05-14T10:50:35.000Z</time>
      </trkpt>
      <trkpt lat="47.04762" lon="6.6299">
        <ele>819.59997558594</ele>
        <time>2023-05-14T10:50:37.000Z</time>
      </trkpt>
      <trkpt lat="47.04766" lon="6.62985">
        <ele>819.40002441406</ele>
        <time>2023-05-14T10:50:38.000Z</time>
      </trkpt>
      <trkpt lat="47.04774" lon="6.62976">
        <ele>819</ele>
        <time>2023-05-14T10:50:40.000Z</time>
      </trkpt>
      <trkpt lat="47.04779" lon="6.62971">
        <ele>819</ele>
        <time>2023-05-14T10:50:41.000Z</time>
      </trkpt>
      <trkpt lat="47.04788" lon="6.62964">
        <ele>818.40002441406</ele>
        <time>2023-05-14T10:50:43.000Z</time>
      </trkpt>
      <trkpt lat="47.04791" lon="6.62962">
        <ele>818.40002441406</ele>
        <time>2023-05-14T10:50:44.000Z</time>
      </trkpt>
      <trkpt lat="47.04796" lon="6.62959">
        <ele>818.40002441406</ele>
        <time>2023-05-14T10:50:45.000Z</time>
      </trkpt>
      <trkpt lat="47.04808" lon="6.62945">
        <ele>817.20001220703</ele>
        <time>2023-05-14T10:50:48.000Z</time>
      </trkpt>
      <trkpt lat="47.04812" lon="6.62941">
        <ele>817.20001220703</ele>
        <time>2023-05-14T10:50:49.000Z</time>
      </trkpt>
      <trkpt lat="47.04816" lon="6.62938">
        <ele>817</ele>
        <time>2023-05-14T10:50:50.000Z</time>
      </trkpt>
      <trkpt lat="47.04823" lon="6.62928">
        <ele>817.20001220703</ele>
        <time>2023-05-14T10:50:52.000Z</time>
      </trkpt>
      <trkpt lat="47.04831" lon="6.6292">
        <ele>817.59997558594</ele>
        <time>2023-05-14T10:50:54.000Z</time>
      </trkpt>
      <trkpt lat="47.04844" lon="6.62905">
        <ele>817.20001220703</ele>
        <time>2023-05-14T10:50:57.000Z</time>
      </trkpt>
      <trkpt lat="47.04847" lon="6.629">
        <ele>817.40002441406</ele>
        <time>2023-05-14T10:50:58.000Z</time>
      </trkpt>
      <trkpt lat="47.04852" lon="6.62894">
        <ele>817.40002441406</ele>
        <time>2023-05-14T10:50:59.000Z</time>
      </trkpt>
      <trkpt lat="47.04863" lon="6.62879">
        <ele>816.79998779297</ele>
        <time>2023-05-14T10:51:02.000Z</time>
      </trkpt>
      <trkpt lat="47.04866" lon="6.62876">
        <ele>816.79998779297</ele>
        <time>2023-05-14T10:51:03.000Z</time>
      </trkpt>
      <trkpt lat="47.0489" lon="6.62851">
        <ele>816.59997558594</ele>
        <time>2023-05-14T10:51:09.000Z</time>
      </trkpt>
      <trkpt lat="47.04908" lon="6.6282">
        <ele>816.40002441406</ele>
        <time>2023-05-14T10:51:15.000Z</time>
      </trkpt>
      <trkpt lat="47.04925" lon="6.62811">
        <ele>816.20001220703</ele>
        <time>2023-05-14T10:51:20.000Z</time>
      </trkpt>
      <trkpt lat="47.04928" lon="6.6281">
        <ele>816.20001220703</ele>
        <time>2023-05-14T10:51:21.000Z</time>
      </trkpt>
      <trkpt lat="47.04939" lon="6.62806">
        <ele>815.79998779297</ele>
        <time>2023-05-14T10:51:25.000Z</time>
      </trkpt>
      <trkpt lat="47.04961" lon="6.62798">
        <ele>815.20001220703</ele>
        <time>2023-05-14T10:51:31.000Z</time>
      </trkpt>
      <trkpt lat="47.04963" lon="6.62797">
        <ele>815</ele>
        <time>2023-05-14T10:51:32.000Z</time>
      </trkpt>
      <trkpt lat="47.04975" lon="6.62796">
        <ele>814.79998779297</ele>
        <time>2023-05-14T10:51:36.000Z</time>
      </trkpt>
      <trkpt lat="47.04981" lon="6.62794">
        <ele>814.40002441406</ele>
        <time>2023-05-14T10:51:38.000Z</time>
      </trkpt>
      <trkpt lat="47.0499" lon="6.62786">
        <ele>814.20001220703</ele>
        <time>2023-05-14T10:51:41.000Z</time>
      </trkpt>
      <trkpt lat="47.05006" lon="6.62774">
        <ele>814</ele>
        <time>2023-05-14T10:51:45.000Z</time>
      </trkpt>
      <trkpt lat="47.05009" lon="6.62771">
        <ele>813.40002441406</ele>
        <time>2023-05-14T10:51:46.000Z</time>
      </trkpt>
      <trkpt lat="47.05021" lon="6.62761">
        <ele>812.59997558594</ele>
        <time>2023-05-14T10:51:50.000Z</time>
      </trkpt>
      <trkpt lat="47.0504" lon="6.62748">
        <ele>812</ele>
        <time>2023-05-14T10:51:56.000Z</time>
      </trkpt>
      <trkpt lat="47.05052" lon="6.6274">
        <ele>811.59997558594</ele>
        <time>2023-05-14T10:51:59.000Z</time>
      </trkpt>
      <trkpt lat="47.05055" lon="6.62738">
        <ele>811.59997558594</ele>
        <time>2023-05-14T10:52:00.000Z</time>
      </trkpt>
      <trkpt lat="47.05057" lon="6.62739">
        <ele>811.40002441406</ele>
        <time>2023-05-14T10:52:01.000Z</time>
      </trkpt>
      <trkpt lat="47.05058" lon="6.62738">
        <ele>810.59997558594</ele>
        <time>2023-05-14T10:52:04.000Z</time>
      </trkpt>
      <trkpt lat="47.05058" lon="6.62738">
        <ele>810.40002441406</ele>
        <time>2023-05-14T10:52:05.000Z</time>
      </trkpt>
      <trkpt lat="47.05063" lon="6.62736">
        <ele>810</ele>
        <time>2023-05-14T10:52:13.000Z</time>
      </trkpt>
      <trkpt lat="47.05076" lon="6.62731">
        <ele>809.59997558594</ele>
        <time>2023-05-14T10:52:18.000Z</time>
      </trkpt>
      <trkpt lat="47.05097" lon="6.62734">
        <ele>809.20001220703</ele>
        <time>2023-05-14T10:52:23.000Z</time>
      </trkpt>
      <trkpt lat="47.05112" lon="6.6273">
        <ele>808.40002441406</ele>
        <time>2023-05-14T10:52:27.000Z</time>
      </trkpt>
      <trkpt lat="47.05142" lon="6.62729">
        <ele>807.40002441406</ele>
        <time>2023-05-14T10:52:32.000Z</time>
      </trkpt>
      <trkpt lat="47.05148" lon="6.6273">
        <ele>807.20001220703</ele>
        <time>2023-05-14T10:52:33.000Z</time>
      </trkpt>
      <trkpt lat="47.05164" lon="6.62733">
        <ele>806.79998779297</ele>
        <time>2023-05-14T10:52:36.000Z</time>
      </trkpt>
      <trkpt lat="47.05168" lon="6.62735">
        <ele>806.79998779297</ele>
        <time>2023-05-14T10:52:37.000Z</time>
      </trkpt>
      <trkpt lat="47.05172" lon="6.62737">
        <ele>806.20001220703</ele>
        <time>2023-05-14T10:52:38.000Z</time>
      </trkpt>
      <trkpt lat="47.05175" lon="6.62738">
        <ele>806</ele>
        <time>2023-05-14T10:52:39.000Z</time>
      </trkpt>
      <trkpt lat="47.05184" lon="6.62741">
        <ele>805.40002441406</ele>
        <time>2023-05-14T10:52:41.000Z</time>
      </trkpt>
      <trkpt lat="47.052" lon="6.62746">
        <ele>805</ele>
        <time>2023-05-14T10:52:44.000Z</time>
      </trkpt>
      <trkpt lat="47.05208" lon="6.62755">
        <ele>804.79998779297</ele>
        <time>2023-05-14T10:52:46.000Z</time>
      </trkpt>
      <trkpt lat="47.05226" lon="6.62761">
        <ele>805</ele>
        <time>2023-05-14T10:52:50.000Z</time>
      </trkpt>
      <trkpt lat="47.0523" lon="6.6276">
        <ele>805.20001220703</ele>
        <time>2023-05-14T10:52:51.000Z</time>
      </trkpt>
      <trkpt lat="47.05233" lon="6.62762">
        <ele>805.40002441406</ele>
        <time>2023-05-14T10:52:52.000Z</time>
      </trkpt>
      <trkpt lat="47.0524" lon="6.62768">
        <ele>805.40002441406</ele>
        <time>2023-05-14T10:52:54.000Z</time>
      </trkpt>
      <trkpt lat="47.05244" lon="6.62771">
        <ele>805.40002441406</ele>
        <time>2023-05-14T10:52:55.000Z</time>
      </trkpt>
      <trkpt lat="47.05253" lon="6.62773">
        <ele>806</ele>
        <time>2023-05-14T10:52:57.000Z</time>
      </trkpt>
      <trkpt lat="47.05258" lon="6.62774">
        <ele>806.20001220703</ele>
        <time>2023-05-14T10:52:58.000Z</time>
      </trkpt>
      <trkpt lat="47.05263" lon="6.62777">
        <ele>806.40002441406</ele>
        <time>2023-05-14T10:52:59.000Z</time>
      </trkpt>
      <trkpt lat="47.05266" lon="6.6278">
        <ele>806.59997558594</ele>
        <time>2023-05-14T10:53:00.000Z</time>
      </trkpt>
      <trkpt lat="47.05274" lon="6.62783">
        <ele>806.79998779297</ele>
        <time>2023-05-14T10:53:02.000Z</time>
      </trkpt>
      <trkpt lat="47.05278" lon="6.62782">
        <ele>806.79998779297</ele>
        <time>2023-05-14T10:53:03.000Z</time>
      </trkpt>
      <trkpt lat="47.05287" lon="6.62779">
        <ele>807</ele>
        <time>2023-05-14T10:53:05.000Z</time>
      </trkpt>
      <trkpt lat="47.05296" lon="6.62784">
        <ele>807.20001220703</ele>
        <time>2023-05-14T10:53:08.000Z</time>
      </trkpt>
      <trkpt lat="47.05315" lon="6.62794">
        <ele>807.20001220703</ele>
        <time>2023-05-14T10:53:13.000Z</time>
      </trkpt>
      <trkpt lat="47.05343" lon="6.62805">
        <ele>807.40002441406</ele>
        <time>2023-05-14T10:53:19.000Z</time>
      </trkpt>
      <trkpt lat="47.05362" lon="6.62816">
        <ele>807.40002441406</ele>
        <time>2023-05-14T10:53:25.000Z</time>
      </trkpt>
      <trkpt lat="47.05371" lon="6.62821">
        <ele>807.40002441406</ele>
        <time>2023-05-14T10:53:28.000Z</time>
      </trkpt>
      <trkpt lat="47.05374" lon="6.6282">
        <ele>807.40002441406</ele>
        <time>2023-05-14T10:53:29.000Z</time>
      </trkpt>
      <trkpt lat="47.05384" lon="6.62812">
        <ele>807.20001220703</ele>
        <time>2023-05-14T10:53:32.000Z</time>
      </trkpt>
      <trkpt lat="47.05388" lon="6.62807">
        <ele>807.20001220703</ele>
        <time>2023-05-14T10:53:33.000Z</time>
      </trkpt>
      <trkpt lat="47.05391" lon="6.62801">
        <ele>807</ele>
        <time>2023-05-14T10:53:34.000Z</time>
      </trkpt>
      <trkpt lat="47.05402" lon="6.6278">
        <ele>806.40002441406</ele>
        <time>2023-05-14T10:53:37.000Z</time>
      </trkpt>
      <trkpt lat="47.05406" lon="6.62772">
        <ele>806.20001220703</ele>
        <time>2023-05-14T10:53:38.000Z</time>
      </trkpt>
      <trkpt lat="47.05412" lon="6.62753">
        <ele>805.59997558594</ele>
        <time>2023-05-14T10:53:40.000Z</time>
      </trkpt>
      <trkpt lat="47.05414" lon="6.62741">
        <ele>805.40002441406</ele>
        <time>2023-05-14T10:53:41.000Z</time>
      </trkpt>
      <trkpt lat="47.05415" lon="6.6273">
        <ele>805</ele>
        <time>2023-05-14T10:53:42.000Z</time>
      </trkpt>
      <trkpt lat="47.05418" lon="6.627">
        <ele>803.40002441406</ele>
        <time>2023-05-14T10:53:45.000Z</time>
      </trkpt>
      <trkpt lat="47.0542" lon="6.6269">
        <ele>803</ele>
        <time>2023-05-14T10:53:46.000Z</time>
      </trkpt>
      <trkpt lat="47.05423" lon="6.62681">
        <ele>802.59997558594</ele>
        <time>2023-05-14T10:53:47.000Z</time>
      </trkpt>
      <trkpt lat="47.0543" lon="6.62662">
        <ele>802</ele>
        <time>2023-05-14T10:53:49.000Z</time>
      </trkpt>
      <trkpt lat="47.05434" lon="6.62654">
        <ele>801.79998779297</ele>
        <time>2023-05-14T10:53:50.000Z</time>
      </trkpt>
      <trkpt lat="47.05444" lon="6.62639">
        <ele>801</ele>
        <time>2023-05-14T10:53:52.000Z</time>
      </trkpt>
      <trkpt lat="47.0545" lon="6.62633">
        <ele>800.79998779297</ele>
        <time>2023-05-14T10:53:53.000Z</time>
      </trkpt>
      <trkpt lat="47.05461" lon="6.62622">
        <ele>800.40002441406</ele>
        <time>2023-05-14T10:53:55.000Z</time>
      </trkpt>
      <trkpt lat="47.05473" lon="6.62617">
        <ele>800</ele>
        <time>2023-05-14T10:53:57.000Z</time>
      </trkpt>
      <trkpt lat="47.05479" lon="6.62617">
        <ele>799.59997558594</ele>
        <time>2023-05-14T10:53:58.000Z</time>
      </trkpt>
      <trkpt lat="47.05485" lon="6.62617">
        <ele>799.59997558594</ele>
        <time>2023-05-14T10:53:59.000Z</time>
      </trkpt>
      <trkpt lat="47.05495" lon="6.62619">
        <ele>799.40002441406</ele>
        <time>2023-05-14T10:54:01.000Z</time>
      </trkpt>
      <trkpt lat="47.05505" lon="6.62622">
        <ele>799.20001220703</ele>
        <time>2023-05-14T10:54:03.000Z</time>
      </trkpt>
      <trkpt lat="47.05514" lon="6.62627">
        <ele>799</ele>
        <time>2023-05-14T10:54:05.000Z</time>
      </trkpt>
      <trkpt lat="47.05535" lon="6.62636">
        <ele>798.59997558594</ele>
        <time>2023-05-14T10:54:10.000Z</time>
      </trkpt>
      <trkpt lat="47.05566" lon="6.62644">
        <ele>798.40002441406</ele>
        <time>2023-05-14T10:54:18.000Z</time>
      </trkpt>
      <trkpt lat="47.05593" lon="6.6265">
        <ele>799.20001220703</ele>
        <time>2023-05-14T10:54:24.000Z</time>
      </trkpt>
      <trkpt lat="47.05611" lon="6.62657">
        <ele>799.59997558594</ele>
        <time>2023-05-14T10:54:28.000Z</time>
      </trkpt>
      <trkpt lat="47.05624" lon="6.62663">
        <ele>800</ele>
        <time>2023-05-14T10:54:31.000Z</time>
      </trkpt>
      <trkpt lat="47.05637" lon="6.62669">
        <ele>800.20001220703</ele>
        <time>2023-05-14T10:54:34.000Z</time>
      </trkpt>
      <trkpt lat="47.0565" lon="6.62675">
        <ele>800.40002441406</ele>
        <time>2023-05-14T10:54:37.000Z</time>
      </trkpt>
      <trkpt lat="47.05654" lon="6.62676">
        <ele>800.59997558594</ele>
        <time>2023-05-14T10:54:38.000Z</time>
      </trkpt>
      <trkpt lat="47.05663" lon="6.62675">
        <ele>800.59997558594</ele>
        <time>2023-05-14T10:54:40.000Z</time>
      </trkpt>
      <trkpt lat="47.05668" lon="6.62674">
        <ele>800.59997558594</ele>
        <time>2023-05-14T10:54:41.000Z</time>
      </trkpt>
      <trkpt lat="47.05672" lon="6.62671">
        <ele>800.59997558594</ele>
        <time>2023-05-14T10:54:42.000Z</time>
      </trkpt>
      <trkpt lat="47.05681" lon="6.62662">
        <ele>800.40002441406</ele>
        <time>2023-05-14T10:54:44.000Z</time>
      </trkpt>
      <trkpt lat="47.05684" lon="6.62657">
        <ele>800.40002441406</ele>
        <time>2023-05-14T10:54:45.000Z</time>
      </trkpt>
      <trkpt lat="47.05687" lon="6.62651">
        <ele>800.20001220703</ele>
        <time>2023-05-14T10:54:46.000Z</time>
      </trkpt>
      <trkpt lat="47.05698" lon="6.62621">
        <ele>799.59997558594</ele>
        <time>2023-05-14T10:54:50.000Z</time>
      </trkpt>
      <trkpt lat="47.05701" lon="6.62613">
        <ele>799.20001220703</ele>
        <time>2023-05-14T10:54:51.000Z</time>
      </trkpt>
      <trkpt lat="47.05716" lon="6.62573">
        <ele>798</ele>
        <time>2023-05-14T10:54:56.000Z</time>
      </trkpt>
      <trkpt lat="47.05724" lon="6.62558">
        <ele>797.59997558594</ele>
        <time>2023-05-14T10:54:58.000Z</time>
      </trkpt>
      <trkpt lat="47.05735" lon="6.62535">
        <ele>796.79998779297</ele>
        <time>2023-05-14T10:55:01.000Z</time>
      </trkpt>
      <trkpt lat="47.0575" lon="6.62505">
        <ele>795.59997558594</ele>
        <time>2023-05-14T10:55:05.000Z</time>
      </trkpt>
      <trkpt lat="47.05758" lon="6.6249">
        <ele>795</ele>
        <time>2023-05-14T10:55:07.000Z</time>
      </trkpt>
      <trkpt lat="47.05766" lon="6.62476">
        <ele>794.40002441406</ele>
        <time>2023-05-14T10:55:09.000Z</time>
      </trkpt>
      <trkpt lat="47.05784" lon="6.62449">
        <ele>793.59997558594</ele>
        <time>2023-05-14T10:55:13.000Z</time>
      </trkpt>
      <trkpt lat="47.05789" lon="6.62444">
        <ele>793.40002441406</ele>
        <time>2023-05-14T10:55:14.000Z</time>
      </trkpt>
      <trkpt lat="47.05792" lon="6.6244">
        <ele>793.20001220703</ele>
        <time>2023-05-14T10:55:15.000Z</time>
      </trkpt>
      <trkpt lat="47.05802" lon="6.62433">
        <ele>793.20001220703</ele>
        <time>2023-05-14T10:55:17.000Z</time>
      </trkpt>
      <trkpt lat="47.05805" lon="6.6243">
        <ele>792.79998779297</ele>
        <time>2023-05-14T10:55:18.000Z</time>
      </trkpt>
      <trkpt lat="47.05806" lon="6.62426">
        <ele>792.20001220703</ele>
        <time>2023-05-14T10:55:19.000Z</time>
      </trkpt>
      <trkpt lat="47.05808" lon="6.62414">
        <ele>791.59997558594</ele>
        <time>2023-05-14T10:55:21.000Z</time>
      </trkpt>
      <trkpt lat="47.05807" lon="6.62407">
        <ele>791.40002441406</ele>
        <time>2023-05-14T10:55:22.000Z</time>
      </trkpt>
      <trkpt lat="47.05805" lon="6.62401">
        <ele>791</ele>
        <time>2023-05-14T10:55:23.000Z</time>
      </trkpt>
      <trkpt lat="47.05792" lon="6.62381">
        <ele>790</ele>
        <time>2023-05-14T10:55:27.000Z</time>
      </trkpt>
      <trkpt lat="47.05789" lon="6.62376">
        <ele>790</ele>
        <time>2023-05-14T10:55:28.000Z</time>
      </trkpt>
      <trkpt lat="47.05768" lon="6.62342">
        <ele>789.20001220703</ele>
        <time>2023-05-14T10:55:35.000Z</time>
      </trkpt>
      <trkpt lat="47.05755" lon="6.62322">
        <ele>788.79998779297</ele>
        <time>2023-05-14T10:55:39.000Z</time>
      </trkpt>
      <trkpt lat="47.05744" lon="6.62303">
        <ele>788.59997558594</ele>
        <time>2023-05-14T10:55:43.000Z</time>
      </trkpt>
      <trkpt lat="47.0573" lon="6.6228">
        <ele>788.40002441406</ele>
        <time>2023-05-14T10:55:48.000Z</time>
      </trkpt>
      <trkpt lat="47.05728" lon="6.62277">
        <ele>788.40002441406</ele>
        <time>2023-05-14T10:55:49.000Z</time>
      </trkpt>
      <trkpt lat="47.05725" lon="6.62272">
        <ele>788.20001220703</ele>
        <time>2023-05-14T10:55:50.000Z</time>
      </trkpt>
      <trkpt lat="47.05723" lon="6.62267">
        <ele>788</ele>
        <time>2023-05-14T10:55:51.000Z</time>
      </trkpt>
      <trkpt lat="47.05702" lon="6.62231">
        <ele>787</ele>
        <time>2023-05-14T10:55:59.000Z</time>
      </trkpt>
      <trkpt lat="47.057" lon="6.62228">
        <ele>787</ele>
        <time>2023-05-14T10:56:00.000Z</time>
      </trkpt>
      <trkpt lat="47.05692" lon="6.62218">
        <ele>786.79998779297</ele>
        <time>2023-05-14T10:56:04.000Z</time>
      </trkpt>
      <trkpt lat="47.05689" lon="6.62215">
        <ele>786.59997558594</ele>
        <time>2023-05-14T10:56:08.000Z</time>
      </trkpt>
      <trkpt lat="47.05689" lon="6.62215">
        <ele>786.59997558594</ele>
        <time>2023-05-14T10:56:09.000Z</time>
      </trkpt>
      <trkpt lat="47.05684" lon="6.62214">
        <ele>786.20001220703</ele>
        <time>2023-05-14T10:57:00.000Z</time>
      </trkpt>
      <trkpt lat="47.05678" lon="6.62211">
        <ele>786</ele>
        <time>2023-05-14T10:57:02.000Z</time>
      </trkpt>
      <trkpt lat="47.05653" lon="6.62197">
        <ele>785.40002441406</ele>
        <time>2023-05-14T10:57:08.000Z</time>
      </trkpt>
      <trkpt lat="47.05644" lon="6.62191">
        <ele>785</ele>
        <time>2023-05-14T10:57:10.000Z</time>
      </trkpt>
      <trkpt lat="47.05627" lon="6.62179">
        <ele>784.59997558594</ele>
        <time>2023-05-14T10:57:14.000Z</time>
      </trkpt>
      <trkpt lat="47.05608" lon="6.62166">
        <ele>783.79998779297</ele>
        <time>2023-05-14T10:57:18.000Z</time>
      </trkpt>
      <trkpt lat="47.05592" lon="6.62153">
        <ele>783.20001220703</ele>
        <time>2023-05-14T10:57:21.000Z</time>
      </trkpt>
      <trkpt lat="47.05582" lon="6.62139">
        <ele>782.79998779297</ele>
        <time>2023-05-14T10:57:23.000Z</time>
      </trkpt>
      <trkpt lat="47.05573" lon="6.62122">
        <ele>781.59997558594</ele>
        <time>2023-05-14T10:57:25.000Z</time>
      </trkpt>
      <trkpt lat="47.05566" lon="6.62101">
        <ele>781</ele>
        <time>2023-05-14T10:57:27.000Z</time>
      </trkpt>
      <trkpt lat="47.05563" lon="6.62078">
        <ele>780.59997558594</ele>
        <time>2023-05-14T10:57:29.000Z</time>
      </trkpt>
      <trkpt lat="47.05563" lon="6.62055">
        <ele>780</ele>
        <time>2023-05-14T10:57:31.000Z</time>
      </trkpt>
      <trkpt lat="47.05567" lon="6.62032">
        <ele>779.20001220703</ele>
        <time>2023-05-14T10:57:33.000Z</time>
      </trkpt>
      <trkpt lat="47.05579" lon="6.62">
        <ele>778</ele>
        <time>2023-05-14T10:57:36.000Z</time>
      </trkpt>
      <trkpt lat="47.05595" lon="6.61954">
        <ele>776.79998779297</ele>
        <time>2023-05-14T10:57:40.000Z</time>
      </trkpt>
      <trkpt lat="47.05599" lon="6.61943">
        <ele>776.40002441406</ele>
        <time>2023-05-14T10:57:41.000Z</time>
      </trkpt>
      <trkpt lat="47.05611" lon="6.6191">
        <ele>775.59997558594</ele>
        <time>2023-05-14T10:57:44.000Z</time>
      </trkpt>
      <trkpt lat="47.05625" lon="6.61877">
        <ele>774.20001220703</ele>
        <time>2023-05-14T10:57:47.000Z</time>
      </trkpt>
      <trkpt lat="47.0563" lon="6.61867">
        <ele>773.59997558594</ele>
        <time>2023-05-14T10:57:48.000Z</time>
      </trkpt>
      <trkpt lat="47.05643" lon="6.6185">
        <ele>773</ele>
        <time>2023-05-14T10:57:50.000Z</time>
      </trkpt>
      <trkpt lat="47.05657" lon="6.61836">
        <ele>772</ele>
        <time>2023-05-14T10:57:52.000Z</time>
      </trkpt>
      <trkpt lat="47.05664" lon="6.6183">
        <ele>771.59997558594</ele>
        <time>2023-05-14T10:57:53.000Z</time>
      </trkpt>
      <trkpt lat="47.05685" lon="6.61811">
        <ele>770.20001220703</ele>
        <time>2023-05-14T10:57:56.000Z</time>
      </trkpt>
      <trkpt lat="47.05695" lon="6.61793">
        <ele>769.40002441406</ele>
        <time>2023-05-14T10:57:58.000Z</time>
      </trkpt>
      <trkpt lat="47.05699" lon="6.61782">
        <ele>768.79998779297</ele>
        <time>2023-05-14T10:57:59.000Z</time>
      </trkpt>
      <trkpt lat="47.05707" lon="6.61752">
        <ele>767.59997558594</ele>
        <time>2023-05-14T10:58:02.000Z</time>
      </trkpt>
      <trkpt lat="47.05707" lon="6.61743">
        <ele>767.40002441406</ele>
        <time>2023-05-14T10:58:03.000Z</time>
      </trkpt>
      <trkpt lat="47.05706" lon="6.61733">
        <ele>766.59997558594</ele>
        <time>2023-05-14T10:58:04.000Z</time>
      </trkpt>
      <trkpt lat="47.05699" lon="6.61716">
        <ele>765.40002441406</ele>
        <time>2023-05-14T10:58:06.000Z</time>
      </trkpt>
      <trkpt lat="47.05691" lon="6.61701">
        <ele>764</ele>
        <time>2023-05-14T10:58:08.000Z</time>
      </trkpt>
      <trkpt lat="47.05679" lon="6.61673">
        <ele>762.79998779297</ele>
        <time>2023-05-14T10:58:12.000Z</time>
      </trkpt>
      <trkpt lat="47.05671" lon="6.61648">
        <ele>762.40002441406</ele>
        <time>2023-05-14T10:58:16.000Z</time>
      </trkpt>
      <trkpt lat="47.05662" lon="6.6162">
        <ele>762.40002441406</ele>
        <time>2023-05-14T10:58:20.000Z</time>
      </trkpt>
      <trkpt lat="47.05658" lon="6.61605">
        <ele>762.20001220703</ele>
        <time>2023-05-14T10:58:22.000Z</time>
      </trkpt>
      <trkpt lat="47.05655" lon="6.61594">
        <ele>762.40002441406</ele>
        <time>2023-05-14T10:58:24.000Z</time>
      </trkpt>
      <trkpt lat="47.05655" lon="6.61588">
        <ele>762.40002441406</ele>
        <time>2023-05-14T10:58:25.000Z</time>
      </trkpt>
      <trkpt lat="47.05661" lon="6.61566">
        <ele>762.59997558594</ele>
        <time>2023-05-14T10:58:29.000Z</time>
      </trkpt>
      <trkpt lat="47.05662" lon="6.6156">
        <ele>762.59997558594</ele>
        <time>2023-05-14T10:58:30.000Z</time>
      </trkpt>
      <trkpt lat="47.05661" lon="6.61542">
        <ele>762.79998779297</ele>
        <time>2023-05-14T10:58:33.000Z</time>
      </trkpt>
      <trkpt lat="47.05653" lon="6.61522">
        <ele>763.40002441406</ele>
        <time>2023-05-14T10:58:39.000Z</time>
      </trkpt>
      <trkpt lat="47.05648" lon="6.61519">
        <ele>764</ele>
        <time>2023-05-14T10:58:43.000Z</time>
      </trkpt>
      <trkpt lat="47.05647" lon="6.61519">
        <ele>764</ele>
        <time>2023-05-14T10:58:44.000Z</time>
      </trkpt>
      <trkpt lat="47.05647" lon="6.61519">
        <ele>764.20001220703</ele>
        <time>2023-05-14T10:58:46.000Z</time>
      </trkpt>
      <trkpt lat="47.05647" lon="6.61516">
        <ele>763.79998779297</ele>
        <time>2023-05-14T10:59:43.000Z</time>
      </trkpt>
      <trkpt lat="47.05647" lon="6.61514">
        <ele>763.79998779297</ele>
        <time>2023-05-14T10:59:44.000Z</time>
      </trkpt>
      <trkpt lat="47.05649" lon="6.61498">
        <ele>763.79998779297</ele>
        <time>2023-05-14T10:59:50.000Z</time>
      </trkpt>
      <trkpt lat="47.05652" lon="6.61471">
        <ele>765</ele>
        <time>2023-05-14T10:59:57.000Z</time>
      </trkpt>
      <trkpt lat="47.05653" lon="6.61467">
        <ele>765</ele>
        <time>2023-05-14T10:59:58.000Z</time>
      </trkpt>
      <trkpt lat="47.05654" lon="6.61439">
        <ele>766.20001220703</ele>
        <time>2023-05-14T11:00:05.000Z</time>
      </trkpt>
      <trkpt lat="47.05654" lon="6.61435">
        <ele>766.40002441406</ele>
        <time>2023-05-14T11:00:06.000Z</time>
      </trkpt>
      <trkpt lat="47.05653" lon="6.61422">
        <ele>767.20001220703</ele>
        <time>2023-05-14T11:00:09.000Z</time>
      </trkpt>
      <trkpt lat="47.05648" lon="6.61397">
        <ele>768</ele>
        <time>2023-05-14T11:00:15.000Z</time>
      </trkpt>
      <trkpt lat="47.05646" lon="6.61389">
        <ele>768.20001220703</ele>
        <time>2023-05-14T11:00:17.000Z</time>
      </trkpt>
      <trkpt lat="47.0564" lon="6.61369">
        <ele>769.20001220703</ele>
        <time>2023-05-14T11:00:22.000Z</time>
      </trkpt>
      <trkpt lat="47.05636" lon="6.61354">
        <ele>769.59997558594</ele>
        <time>2023-05-14T11:00:26.000Z</time>
      </trkpt>
      <trkpt lat="47.05634" lon="6.6135">
        <ele>769.79998779297</ele>
        <time>2023-05-14T11:00:28.000Z</time>
      </trkpt>
      <trkpt lat="47.05629" lon="6.61334">
        <ele>770.40002441406</ele>
        <time>2023-05-14T11:00:34.000Z</time>
      </trkpt>
      <trkpt lat="47.05627" lon="6.61329">
        <ele>770.59997558594</ele>
        <time>2023-05-14T11:00:36.000Z</time>
      </trkpt>
      <trkpt lat="47.05621" lon="6.61311">
        <ele>770.79998779297</ele>
        <time>2023-05-14T11:00:41.000Z</time>
      </trkpt>
      <trkpt lat="47.05615" lon="6.61294">
        <ele>771.59997558594</ele>
        <time>2023-05-14T11:00:46.000Z</time>
      </trkpt>
      <trkpt lat="47.05614" lon="6.61291">
        <ele>771.79998779297</ele>
        <time>2023-05-14T11:00:47.000Z</time>
      </trkpt>
      <trkpt lat="47.05602" lon="6.6126">
        <ele>772.59997558594</ele>
        <time>2023-05-14T11:00:55.000Z</time>
      </trkpt>
      <trkpt lat="47.056" lon="6.61256">
        <ele>772.79998779297</ele>
        <time>2023-05-14T11:00:56.000Z</time>
      </trkpt>
      <trkpt lat="47.0559" lon="6.61234">
        <ele>773.79998779297</ele>
        <time>2023-05-14T11:01:02.000Z</time>
      </trkpt>
      <trkpt lat="47.05574" lon="6.61201">
        <ele>775</ele>
        <time>2023-05-14T11:01:11.000Z</time>
      </trkpt>
      <trkpt lat="47.05563" lon="6.6118">
        <ele>775.20001220703</ele>
        <time>2023-05-14T11:01:18.000Z</time>
      </trkpt>
      <trkpt lat="47.05547" lon="6.61145">
        <ele>774.59997558594</ele>
        <time>2023-05-14T11:01:26.000Z</time>
      </trkpt>
      <trkpt lat="47.05538" lon="6.61133">
        <ele>774.20001220703</ele>
        <time>2023-05-14T11:01:29.000Z</time>
      </trkpt>
      <trkpt lat="47.0553" lon="6.61124">
        <ele>774</ele>
        <time>2023-05-14T11:01:31.000Z</time>
      </trkpt>
      <trkpt lat="47.05511" lon="6.61107">
        <ele>773.20001220703</ele>
        <time>2023-05-14T11:01:35.000Z</time>
      </trkpt>
      <trkpt lat="47.05506" lon="6.61102">
        <ele>773</ele>
        <time>2023-05-14T11:01:36.000Z</time>
      </trkpt>
      <trkpt lat="47.05497" lon="6.61092">
        <ele>772.59997558594</ele>
        <time>2023-05-14T11:01:38.000Z</time>
      </trkpt>
      <trkpt lat="47.05478" lon="6.61073">
        <ele>771.79998779297</ele>
        <time>2023-05-14T11:01:41.000Z</time>
      </trkpt>
      <trkpt lat="47.05462" lon="6.61058">
        <ele>771</ele>
        <time>2023-05-14T11:01:44.000Z</time>
      </trkpt>
      <trkpt lat="47.05456" lon="6.61052">
        <ele>770.59997558594</ele>
        <time>2023-05-14T11:01:45.000Z</time>
      </trkpt>
      <trkpt lat="47.05445" lon="6.61038">
        <ele>768.79998779297</ele>
        <time>2023-05-14T11:01:48.000Z</time>
      </trkpt>
      <trkpt lat="47.05442" lon="6.61032">
        <ele>768.40002441406</ele>
        <time>2023-05-14T11:01:49.000Z</time>
      </trkpt>
      <trkpt lat="47.05441" lon="6.61027">
        <ele>767.59997558594</ele>
        <time>2023-05-14T11:01:50.000Z</time>
      </trkpt>
      <trkpt lat="47.05442" lon="6.61015">
        <ele>766.40002441406</ele>
        <time>2023-05-14T11:01:52.000Z</time>
      </trkpt>
      <trkpt lat="47.05445" lon="6.6101">
        <ele>765.79998779297</ele>
        <time>2023-05-14T11:01:53.000Z</time>
      </trkpt>
      <trkpt lat="47.0545" lon="6.61">
        <ele>765</ele>
        <time>2023-05-14T11:01:55.000Z</time>
      </trkpt>
      <trkpt lat="47.05455" lon="6.60988">
        <ele>764.59997558594</ele>
        <time>2023-05-14T11:01:57.000Z</time>
      </trkpt>
      <trkpt lat="47.05457" lon="6.60983">
        <ele>764.40002441406</ele>
        <time>2023-05-14T11:01:58.000Z</time>
      </trkpt>
      <trkpt lat="47.05466" lon="6.60952">
        <ele>764</ele>
        <time>2023-05-14T11:02:03.000Z</time>
      </trkpt>
      <trkpt lat="47.05466" lon="6.60947">
        <ele>763.79998779297</ele>
        <time>2023-05-14T11:02:04.000Z</time>
      </trkpt>
      <trkpt lat="47.05468" lon="6.60935">
        <ele>763.59997558594</ele>
        <time>2023-05-14T11:02:06.000Z</time>
      </trkpt>
      <trkpt lat="47.05468" lon="6.60929">
        <ele>763.59997558594</ele>
        <time>2023-05-14T11:02:07.000Z</time>
      </trkpt>
      <trkpt lat="47.05469" lon="6.60917">
        <ele>763.40002441406</ele>
        <time>2023-05-14T11:02:09.000Z</time>
      </trkpt>
      <trkpt lat="47.05475" lon="6.60899">
        <ele>763</ele>
        <time>2023-05-14T11:02:12.000Z</time>
      </trkpt>
      <trkpt lat="47.05484" lon="6.60877">
        <ele>762.79998779297</ele>
        <time>2023-05-14T11:02:17.000Z</time>
      </trkpt>
      <trkpt lat="47.05484" lon="6.60871">
        <ele>762.79998779297</ele>
        <time>2023-05-14T11:02:18.000Z</time>
      </trkpt>
      <trkpt lat="47.05482" lon="6.60866">
        <ele>762.59997558594</ele>
        <time>2023-05-14T11:02:19.000Z</time>
      </trkpt>
      <trkpt lat="47.05477" lon="6.60861">
        <ele>762.59997558594</ele>
        <time>2023-05-14T11:02:21.000Z</time>
      </trkpt>
      <trkpt lat="47.05464" lon="6.60849">
        <ele>762.40002441406</ele>
        <time>2023-05-14T11:02:25.000Z</time>
      </trkpt>
      <trkpt lat="47.05455" lon="6.60836">
        <ele>762.40002441406</ele>
        <time>2023-05-14T11:02:28.000Z</time>
      </trkpt>
      <trkpt lat="47.05438" lon="6.60809">
        <ele>762.20001220703</ele>
        <time>2023-05-14T11:02:33.000Z</time>
      </trkpt>
      <trkpt lat="47.05434" lon="6.60797">
        <ele>762.20001220703</ele>
        <time>2023-05-14T11:02:35.000Z</time>
      </trkpt>
      <trkpt lat="47.05432" lon="6.60786">
        <ele>762.20001220703</ele>
        <time>2023-05-14T11:02:37.000Z</time>
      </trkpt>
      <trkpt lat="47.05431" lon="6.60763">
        <ele>762.20001220703</ele>
        <time>2023-05-14T11:02:41.000Z</time>
      </trkpt>
      <trkpt lat="47.05432" lon="6.60734">
        <ele>762.20001220703</ele>
        <time>2023-05-14T11:02:45.000Z</time>
      </trkpt>
      <trkpt lat="47.05434" lon="6.60699">
        <ele>762.20001220703</ele>
        <time>2023-05-14T11:02:50.000Z</time>
      </trkpt>
      <trkpt lat="47.05437" lon="6.60642">
        <ele>762.59997558594</ele>
        <time>2023-05-14T11:02:58.000Z</time>
      </trkpt>
      <trkpt lat="47.0544" lon="6.60607">
        <ele>762.40002441406</ele>
        <time>2023-05-14T11:03:04.000Z</time>
      </trkpt>
      <trkpt lat="47.05441" lon="6.6057">
        <ele>762.59997558594</ele>
        <time>2023-05-14T11:03:11.000Z</time>
      </trkpt>
      <trkpt lat="47.05445" lon="6.60528">
        <ele>762.40002441406</ele>
        <time>2023-05-14T11:03:18.000Z</time>
      </trkpt>
      <trkpt lat="47.05448" lon="6.60495">
        <ele>762.40002441406</ele>
        <time>2023-05-14T11:03:23.000Z</time>
      </trkpt>
      <trkpt lat="47.0545" lon="6.60491">
        <ele>762.40002441406</ele>
        <time>2023-05-14T11:03:24.000Z</time>
      </trkpt>
      <trkpt lat="47.05453" lon="6.60487">
        <ele>762.40002441406</ele>
        <time>2023-05-14T11:03:25.000Z</time>
      </trkpt>
      <trkpt lat="47.05459" lon="6.60486">
        <ele>762.59997558594</ele>
        <time>2023-05-14T11:03:27.000Z</time>
      </trkpt>
      <trkpt lat="47.05476" lon="6.60488">
        <ele>763.20001220703</ele>
        <time>2023-05-14T11:03:33.000Z</time>
      </trkpt>
      <trkpt lat="47.05488" lon="6.60486">
        <ele>764.20001220703</ele>
        <time>2023-05-14T11:03:40.000Z</time>
      </trkpt>
      <trkpt lat="47.0549" lon="6.60484">
        <ele>764.20001220703</ele>
        <time>2023-05-14T11:03:41.000Z</time>
      </trkpt>
      <trkpt lat="47.05492" lon="6.60479">
        <ele>764.40002441406</ele>
        <time>2023-05-14T11:03:44.000Z</time>
      </trkpt>
      <trkpt lat="47.0549" lon="6.60463">
        <ele>764.40002441406</ele>
        <time>2023-05-14T11:03:49.000Z</time>
      </trkpt>
      <trkpt lat="47.05484" lon="6.60439">
        <ele>764.40002441406</ele>
        <time>2023-05-14T11:03:54.000Z</time>
      </trkpt>
      <trkpt lat="47.05477" lon="6.60411">
        <ele>764</ele>
        <time>2023-05-14T11:03:59.000Z</time>
      </trkpt>
      <trkpt lat="47.05473" lon="6.60392">
        <ele>763.79998779297</ele>
        <time>2023-05-14T11:04:02.000Z</time>
      </trkpt>
      <trkpt lat="47.05468" lon="6.6037">
        <ele>763.20001220703</ele>
        <time>2023-05-14T11:04:06.000Z</time>
      </trkpt>
      <trkpt lat="47.05468" lon="6.60365">
        <ele>763</ele>
        <time>2023-05-14T11:04:07.000Z</time>
      </trkpt>
      <trkpt lat="47.05459" lon="6.60333">
        <ele>762.59997558594</ele>
        <time>2023-05-14T11:04:12.000Z</time>
      </trkpt>
      <trkpt lat="47.05456" lon="6.60322">
        <ele>762.59997558594</ele>
        <time>2023-05-14T11:04:14.000Z</time>
      </trkpt>
      <trkpt lat="47.05449" lon="6.60294">
        <ele>762.40002441406</ele>
        <time>2023-05-14T11:04:18.000Z</time>
      </trkpt>
      <trkpt lat="47.05443" lon="6.60271">
        <ele>762.40002441406</ele>
        <time>2023-05-14T11:04:22.000Z</time>
      </trkpt>
      <trkpt lat="47.0544" lon="6.60257">
        <ele>762.40002441406</ele>
        <time>2023-05-14T11:04:25.000Z</time>
      </trkpt>
      <trkpt lat="47.05435" lon="6.6024">
        <ele>762.20001220703</ele>
        <time>2023-05-14T11:04:28.000Z</time>
      </trkpt>
      <trkpt lat="47.05431" lon="6.60223">
        <ele>762.20001220703</ele>
        <time>2023-05-14T11:04:32.000Z</time>
      </trkpt>
      <trkpt lat="47.05426" lon="6.60209">
        <ele>762.40002441406</ele>
        <time>2023-05-14T11:04:33.000Z</time>
      </trkpt>
      <trkpt lat="47.05418" lon="6.60167">
        <ele>762.40002441406</ele>
        <time>2023-05-14T11:04:40.000Z</time>
      </trkpt>
      <trkpt lat="47.05419" lon="6.60155">
        <ele>762.40002441406</ele>
        <time>2023-05-14T11:04:42.000Z</time>
      </trkpt>
      <trkpt lat="47.05421" lon="6.6015">
        <ele>762.20001220703</ele>
        <time>2023-05-14T11:04:43.000Z</time>
      </trkpt>
      <trkpt lat="47.0543" lon="6.60132">
        <ele>762.20001220703</ele>
        <time>2023-05-14T11:04:48.000Z</time>
      </trkpt>
      <trkpt lat="47.05432" lon="6.60127">
        <ele>762.40002441406</ele>
        <time>2023-05-14T11:04:50.000Z</time>
      </trkpt>
      <trkpt lat="47.05433" lon="6.60112">
        <ele>762.79998779297</ele>
        <time>2023-05-14T11:04:54.000Z</time>
      </trkpt>
      <trkpt lat="47.05432" lon="6.6011">
        <ele>763</ele>
        <time>2023-05-14T11:04:55.000Z</time>
      </trkpt>
      <trkpt lat="47.0543" lon="6.60103">
        <ele>763.79998779297</ele>
        <time>2023-05-14T11:05:00.000Z</time>
      </trkpt>
      <trkpt lat="47.0543" lon="6.60103">
        <ele>763.79998779297</ele>
        <time>2023-05-14T11:05:01.000Z</time>
      </trkpt>
      <trkpt lat="47.05427" lon="6.60119">
        <ele>766</ele>
        <time>2023-05-14T12:08:39.000Z</time>
      </trkpt>
      <trkpt lat="47.05425" lon="6.60118">
        <ele>766</ele>
        <time>2023-05-14T12:08:40.000Z</time>
      </trkpt>
      <trkpt lat="47.05424" lon="6.60116">
        <ele>766</ele>
        <time>2023-05-14T12:08:41.000Z</time>
      </trkpt>
      <trkpt lat="47.05412" lon="6.60099">
        <ele>765.79998779297</ele>
        <time>2023-05-14T12:08:48.000Z</time>
      </trkpt>
      <trkpt lat="47.054" lon="6.60076">
        <ele>765.79998779297</ele>
        <time>2023-05-14T12:08:57.000Z</time>
      </trkpt>
      <trkpt lat="47.05398" lon="6.6007">
        <ele>765.79998779297</ele>
        <time>2023-05-14T12:08:59.000Z</time>
      </trkpt>
      <trkpt lat="47.05397" lon="6.60058">
        <ele>765.79998779297</ele>
        <time>2023-05-14T12:09:02.000Z</time>
      </trkpt>
      <trkpt lat="47.05396" lon="6.6004">
        <ele>765.79998779297</ele>
        <time>2023-05-14T12:09:07.000Z</time>
      </trkpt>
      <trkpt lat="47.05397" lon="6.60037">
        <ele>766</ele>
        <time>2023-05-14T12:09:08.000Z</time>
      </trkpt>
      <trkpt lat="47.05397" lon="6.60016">
        <ele>766.20001220703</ele>
        <time>2023-05-14T12:09:14.000Z</time>
      </trkpt>
      <trkpt lat="47.05395" lon="6.59999">
        <ele>766.40002441406</ele>
        <time>2023-05-14T12:09:18.000Z</time>
      </trkpt>
      <trkpt lat="47.05383" lon="6.59982">
        <ele>766.40002441406</ele>
        <time>2023-05-14T12:09:24.000Z</time>
      </trkpt>
      <trkpt lat="47.05377" lon="6.59976">
        <ele>766.59997558594</ele>
        <time>2023-05-14T12:09:30.000Z</time>
      </trkpt>
      <trkpt lat="47.05377" lon="6.59976">
        <ele>766.59997558594</ele>
        <time>2023-05-14T12:09:31.000Z</time>
      </trkpt>
      <trkpt lat="47.05372" lon="6.59973">
        <ele>766.40002441406</ele>
        <time>2023-05-14T12:09:35.000Z</time>
      </trkpt>
      <trkpt lat="47.05368" lon="6.59969">
        <ele>766.59997558594</ele>
        <time>2023-05-14T12:09:37.000Z</time>
      </trkpt>
      <trkpt lat="47.05352" lon="6.59955">
        <ele>766.79998779297</ele>
        <time>2023-05-14T12:09:43.000Z</time>
      </trkpt>
      <trkpt lat="47.05335" lon="6.59939">
        <ele>766.79998779297</ele>
        <time>2023-05-14T12:09:49.000Z</time>
      </trkpt>
      <trkpt lat="47.05329" lon="6.59932">
        <ele>766.79998779297</ele>
        <time>2023-05-14T12:09:51.000Z</time>
      </trkpt>
      <trkpt lat="47.0531" lon="6.5992">
        <ele>766.79998779297</ele>
        <time>2023-05-14T12:09:56.000Z</time>
      </trkpt>
      <trkpt lat="47.05289" lon="6.5992">
        <ele>766.59997558594</ele>
        <time>2023-05-14T12:10:01.000Z</time>
      </trkpt>
      <trkpt lat="47.05266" lon="6.59926">
        <ele>766.20001220703</ele>
        <time>2023-05-14T12:10:07.000Z</time>
      </trkpt>
      <trkpt lat="47.05264" lon="6.59926">
        <ele>766</ele>
        <time>2023-05-14T12:10:08.000Z</time>
      </trkpt>
      <trkpt lat="47.05262" lon="6.59926">
        <ele>766</ele>
        <time>2023-05-14T12:10:09.000Z</time>
      </trkpt>
      <trkpt lat="47.0526" lon="6.59927">
        <ele>765.79998779297</ele>
        <time>2023-05-14T12:10:11.000Z</time>
      </trkpt>
      <trkpt lat="47.0526" lon="6.59929">
        <ele>765.79998779297</ele>
        <time>2023-05-14T12:10:12.000Z</time>
      </trkpt>
      <trkpt lat="47.05262" lon="6.59932">
        <ele>765.59997558594</ele>
        <time>2023-05-14T12:10:14.000Z</time>
      </trkpt>
      <trkpt lat="47.05276" lon="6.59926">
        <ele>765.40002441406</ele>
        <time>2023-05-14T12:10:19.000Z</time>
      </trkpt>
      <trkpt lat="47.05291" lon="6.59918">
        <ele>765.40002441406</ele>
        <time>2023-05-14T12:10:24.000Z</time>
      </trkpt>
      <trkpt lat="47.05292" lon="6.59915">
        <ele>765.40002441406</ele>
        <time>2023-05-14T12:10:25.000Z</time>
      </trkpt>
      <trkpt lat="47.0529" lon="6.59908">
        <ele>765.40002441406</ele>
        <time>2023-05-14T12:10:27.000Z</time>
      </trkpt>
      <trkpt lat="47.05273" lon="6.59899">
        <ele>765.40002441406</ele>
        <time>2023-05-14T12:10:31.000Z</time>
      </trkpt>
      <trkpt lat="47.05256" lon="6.59894">
        <ele>765.20001220703</ele>
        <time>2023-05-14T12:10:35.000Z</time>
      </trkpt>
      <trkpt lat="47.05244" lon="6.59889">
        <ele>765</ele>
        <time>2023-05-14T12:10:38.000Z</time>
      </trkpt>
      <trkpt lat="47.05221" lon="6.59884">
        <ele>764.59997558594</ele>
        <time>2023-05-14T12:10:45.000Z</time>
      </trkpt>
      <trkpt lat="47.05215" lon="6.59886">
        <ele>764.40002441406</ele>
        <time>2023-05-14T12:10:48.000Z</time>
      </trkpt>
      <trkpt lat="47.05214" lon="6.59884">
        <ele>764.20001220703</ele>
        <time>2023-05-14T12:10:49.000Z</time>
      </trkpt>
      <trkpt lat="47.052" lon="6.59877">
        <ele>764.20001220703</ele>
        <time>2023-05-14T12:10:54.000Z</time>
      </trkpt>
      <trkpt lat="47.05178" lon="6.59869">
        <ele>764.20001220703</ele>
        <time>2023-05-14T12:11:01.000Z</time>
      </trkpt>
      <trkpt lat="47.05174" lon="6.59868">
        <ele>764.20001220703</ele>
        <time>2023-05-14T12:11:02.000Z</time>
      </trkpt>
      <trkpt lat="47.05146" lon="6.59857">
        <ele>764.20001220703</ele>
        <time>2023-05-14T12:11:09.000Z</time>
      </trkpt>
      <trkpt lat="47.05106" lon="6.59837">
        <ele>764.20001220703</ele>
        <time>2023-05-14T12:11:18.000Z</time>
      </trkpt>
      <trkpt lat="47.0509" lon="6.59823">
        <ele>764.20001220703</ele>
        <time>2023-05-14T12:11:22.000Z</time>
      </trkpt>
      <trkpt lat="47.05064" lon="6.59808">
        <ele>764.40002441406</ele>
        <time>2023-05-14T12:11:28.000Z</time>
      </trkpt>
      <trkpt lat="47.05036" lon="6.59783">
        <ele>764.40002441406</ele>
        <time>2023-05-14T12:11:35.000Z</time>
      </trkpt>
      <trkpt lat="47.0501" lon="6.59752">
        <ele>764</ele>
        <time>2023-05-14T12:11:43.000Z</time>
      </trkpt>
      <trkpt lat="47.05005" lon="6.59744">
        <ele>764</ele>
        <time>2023-05-14T12:11:45.000Z</time>
      </trkpt>
      <trkpt lat="47.04991" lon="6.5972">
        <ele>763.79998779297</ele>
        <time>2023-05-14T12:11:51.000Z</time>
      </trkpt>
      <trkpt lat="47.04984" lon="6.59709">
        <ele>763.79998779297</ele>
        <time>2023-05-14T12:11:53.000Z</time>
      </trkpt>
      <trkpt lat="47.04979" lon="6.59692">
        <ele>763.79998779297</ele>
        <time>2023-05-14T12:11:56.000Z</time>
      </trkpt>
      <trkpt lat="47.04969" lon="6.59648">
        <ele>763.79998779297</ele>
        <time>2023-05-14T12:12:04.000Z</time>
      </trkpt>
      <trkpt lat="47.04966" lon="6.59599">
        <ele>764.20001220703</ele>
        <time>2023-05-14T12:12:13.000Z</time>
      </trkpt>
      <trkpt lat="47.04959" lon="6.59555">
        <ele>764.20001220703</ele>
        <time>2023-05-14T12:12:20.000Z</time>
      </trkpt>
      <trkpt lat="47.04942" lon="6.59523">
        <ele>764</ele>
        <time>2023-05-14T12:12:26.000Z</time>
      </trkpt>
      <trkpt lat="47.04921" lon="6.59498">
        <ele>763.79998779297</ele>
        <time>2023-05-14T12:12:33.000Z</time>
      </trkpt>
      <trkpt lat="47.04905" lon="6.59483">
        <ele>763.79998779297</ele>
        <time>2023-05-14T12:12:38.000Z</time>
      </trkpt>
      <trkpt lat="47.0489" lon="6.59469">
        <ele>763.79998779297</ele>
        <time>2023-05-14T12:12:43.000Z</time>
      </trkpt>
      <trkpt lat="47.04855" lon="6.59445">
        <ele>764</ele>
        <time>2023-05-14T12:12:52.000Z</time>
      </trkpt>
      <trkpt lat="47.04815" lon="6.59413">
        <ele>764</ele>
        <time>2023-05-14T12:13:02.000Z</time>
      </trkpt>
      <trkpt lat="47.04788" lon="6.59386">
        <ele>763.79998779297</ele>
        <time>2023-05-14T12:13:10.000Z</time>
      </trkpt>
      <trkpt lat="47.04763" lon="6.59351">
        <ele>763.59997558594</ele>
        <time>2023-05-14T12:13:19.000Z</time>
      </trkpt>
      <trkpt lat="47.04747" lon="6.59312">
        <ele>763.59997558594</ele>
        <time>2023-05-14T12:13:26.000Z</time>
      </trkpt>
      <trkpt lat="47.04742" lon="6.59295">
        <ele>763.59997558594</ele>
        <time>2023-05-14T12:13:29.000Z</time>
      </trkpt>
      <trkpt lat="47.04738" lon="6.59285">
        <ele>763.59997558594</ele>
        <time>2023-05-14T12:13:31.000Z</time>
      </trkpt>
      <trkpt lat="47.04736" lon="6.59281">
        <ele>763.59997558594</ele>
        <time>2023-05-14T12:13:32.000Z</time>
      </trkpt>
      <trkpt lat="47.04733" lon="6.59278">
        <ele>763.59997558594</ele>
        <time>2023-05-14T12:13:33.000Z</time>
      </trkpt>
      <trkpt lat="47.04726" lon="6.59279">
        <ele>763.59997558594</ele>
        <time>2023-05-14T12:13:35.000Z</time>
      </trkpt>
      <trkpt lat="47.04714" lon="6.59294">
        <ele>763.59997558594</ele>
        <time>2023-05-14T12:13:39.000Z</time>
      </trkpt>
      <trkpt lat="47.04694" lon="6.59331">
        <ele>763.59997558594</ele>
        <time>2023-05-14T12:13:47.000Z</time>
      </trkpt>
      <trkpt lat="47.04691" lon="6.59336">
        <ele>763.79998779297</ele>
        <time>2023-05-14T12:13:49.000Z</time>
      </trkpt>
      <trkpt lat="47.04665" lon="6.59385">
        <ele>763.59997558594</ele>
        <time>2023-05-14T12:13:58.000Z</time>
      </trkpt>
      <trkpt lat="47.04646" lon="6.59416">
        <ele>763.59997558594</ele>
        <time>2023-05-14T12:14:06.000Z</time>
      </trkpt>
      <trkpt lat="47.04633" lon="6.59425">
        <ele>763.59997558594</ele>
        <time>2023-05-14T12:14:10.000Z</time>
      </trkpt>
      <trkpt lat="47.04619" lon="6.59412">
        <ele>763.59997558594</ele>
        <time>2023-05-14T12:14:14.000Z</time>
      </trkpt>
      <trkpt lat="47.04593" lon="6.59385">
        <ele>763.40002441406</ele>
        <time>2023-05-14T12:14:21.000Z</time>
      </trkpt>
      <trkpt lat="47.04557" lon="6.59353">
        <ele>763.59997558594</ele>
        <time>2023-05-14T12:14:31.000Z</time>
      </trkpt>
      <trkpt lat="47.04525" lon="6.59331">
        <ele>763.40002441406</ele>
        <time>2023-05-14T12:14:39.000Z</time>
      </trkpt>
      <trkpt lat="47.0452" lon="6.5933">
        <ele>763.40002441406</ele>
        <time>2023-05-14T12:14:40.000Z</time>
      </trkpt>
      <trkpt lat="47.04516" lon="6.5933">
        <ele>763.40002441406</ele>
        <time>2023-05-14T12:14:41.000Z</time>
      </trkpt>
      <trkpt lat="47.04501" lon="6.59336">
        <ele>763.40002441406</ele>
        <time>2023-05-14T12:14:45.000Z</time>
      </trkpt>
      <trkpt lat="47.04469" lon="6.59355">
        <ele>763.59997558594</ele>
        <time>2023-05-14T12:14:53.000Z</time>
      </trkpt>
      <trkpt lat="47.04461" lon="6.59358">
        <ele>763.59997558594</ele>
        <time>2023-05-14T12:14:55.000Z</time>
      </trkpt>
      <trkpt lat="47.04441" lon="6.59361">
        <ele>763.59997558594</ele>
        <time>2023-05-14T12:15:00.000Z</time>
      </trkpt>
      <trkpt lat="47.04402" lon="6.59357">
        <ele>763.59997558594</ele>
        <time>2023-05-14T12:15:10.000Z</time>
      </trkpt>
      <trkpt lat="47.04356" lon="6.59348">
        <ele>763.59997558594</ele>
        <time>2023-05-14T12:15:22.000Z</time>
      </trkpt>
      <trkpt lat="47.0432" lon="6.5933">
        <ele>763.59997558594</ele>
        <time>2023-05-14T12:15:31.000Z</time>
      </trkpt>
      <trkpt lat="47.04289" lon="6.59312">
        <ele>763.59997558594</ele>
        <time>2023-05-14T12:15:39.000Z</time>
      </trkpt>
      <trkpt lat="47.04285" lon="6.59308">
        <ele>763.59997558594</ele>
        <time>2023-05-14T12:15:40.000Z</time>
      </trkpt>
      <trkpt lat="47.04267" lon="6.59277">
        <ele>763.59997558594</ele>
        <time>2023-05-14T12:15:47.000Z</time>
      </trkpt>
      <trkpt lat="47.04247" lon="6.59234">
        <ele>763.79998779297</ele>
        <time>2023-05-14T12:15:55.000Z</time>
      </trkpt>
      <trkpt lat="47.04243" lon="6.5923">
        <ele>763.79998779297</ele>
        <time>2023-05-14T12:15:56.000Z</time>
      </trkpt>
      <trkpt lat="47.04235" lon="6.59221">
        <ele>763.79998779297</ele>
        <time>2023-05-14T12:15:58.000Z</time>
      </trkpt>
      <trkpt lat="47.04218" lon="6.59209">
        <ele>763.79998779297</ele>
        <time>2023-05-14T12:16:02.000Z</time>
      </trkpt>
      <trkpt lat="47.04191" lon="6.59199">
        <ele>763.59997558594</ele>
        <time>2023-05-14T12:16:09.000Z</time>
      </trkpt>
      <trkpt lat="47.04187" lon="6.59198">
        <ele>763.59997558594</ele>
        <time>2023-05-14T12:16:10.000Z</time>
      </trkpt>
      <trkpt lat="47.04163" lon="6.592">
        <ele>764</ele>
        <time>2023-05-14T12:16:16.000Z</time>
      </trkpt>
      <trkpt lat="47.04131" lon="6.5921">
        <ele>764</ele>
        <time>2023-05-14T12:16:24.000Z</time>
      </trkpt>
      <trkpt lat="47.04089" lon="6.59229">
        <ele>764.20001220703</ele>
        <time>2023-05-14T12:16:34.000Z</time>
      </trkpt>
      <trkpt lat="47.04074" lon="6.59242">
        <ele>764</ele>
        <time>2023-05-14T12:16:39.000Z</time>
      </trkpt>
      <trkpt lat="47.04063" lon="6.5926">
        <ele>764.20001220703</ele>
        <time>2023-05-14T12:16:45.000Z</time>
      </trkpt>
      <trkpt lat="47.0405" lon="6.59296">
        <ele>764.20001220703</ele>
        <time>2023-05-14T12:16:55.000Z</time>
      </trkpt>
      <trkpt lat="47.04046" lon="6.5932">
        <ele>764.40002441406</ele>
        <time>2023-05-14T12:17:03.000Z</time>
      </trkpt>
      <trkpt lat="47.04042" lon="6.59339">
        <ele>764.20001220703</ele>
        <time>2023-05-14T12:17:11.000Z</time>
      </trkpt>
      <trkpt lat="47.04031" lon="6.59344">
        <ele>764.20001220703</ele>
        <time>2023-05-14T12:17:17.000Z</time>
      </trkpt>
      <trkpt lat="47.04029" lon="6.59344">
        <ele>764.20001220703</ele>
        <time>2023-05-14T12:17:18.000Z</time>
      </trkpt>
      <trkpt lat="47.04021" lon="6.59342">
        <ele>764.40002441406</ele>
        <time>2023-05-14T12:17:21.000Z</time>
      </trkpt>
      <trkpt lat="47.04018" lon="6.59341">
        <ele>764.40002441406</ele>
        <time>2023-05-14T12:17:22.000Z</time>
      </trkpt>
      <trkpt lat="47.03988" lon="6.59335">
        <ele>764.59997558594</ele>
        <time>2023-05-14T12:17:31.000Z</time>
      </trkpt>
      <trkpt lat="47.03958" lon="6.5933">
        <ele>764.79998779297</ele>
        <time>2023-05-14T12:17:41.000Z</time>
      </trkpt>
      <trkpt lat="47.03928" lon="6.59323">
        <ele>765</ele>
        <time>2023-05-14T12:17:50.000Z</time>
      </trkpt>
      <trkpt lat="47.03916" lon="6.59323">
        <ele>765</ele>
        <time>2023-05-14T12:17:55.000Z</time>
      </trkpt>
      <trkpt lat="47.03901" lon="6.59322">
        <ele>765</ele>
        <time>2023-05-14T12:18:00.000Z</time>
      </trkpt>
      <trkpt lat="47.03876" lon="6.59324">
        <ele>765</ele>
        <time>2023-05-14T12:18:09.000Z</time>
      </trkpt>
      <trkpt lat="47.03864" lon="6.59325">
        <ele>765.40002441406</ele>
        <time>2023-05-14T12:18:14.000Z</time>
      </trkpt>
      <trkpt lat="47.03858" lon="6.59327">
        <ele>765.40002441406</ele>
        <time>2023-05-14T12:18:16.000Z</time>
      </trkpt>
      <trkpt lat="47.03832" lon="6.59329">
        <ele>765.40002441406</ele>
        <time>2023-05-14T12:18:26.000Z</time>
      </trkpt>
      <trkpt lat="47.03819" lon="6.59324">
        <ele>765.40002441406</ele>
        <time>2023-05-14T12:18:31.000Z</time>
      </trkpt>
      <trkpt lat="47.03808" lon="6.59309">
        <ele>765.59997558594</ele>
        <time>2023-05-14T12:18:37.000Z</time>
      </trkpt>
      <trkpt lat="47.03793" lon="6.59289">
        <ele>766</ele>
        <time>2023-05-14T12:18:45.000Z</time>
      </trkpt>
      <trkpt lat="47.03783" lon="6.59278">
        <ele>766.20001220703</ele>
        <time>2023-05-14T12:18:50.000Z</time>
      </trkpt>
      <trkpt lat="47.03771" lon="6.59265">
        <ele>766.59997558594</ele>
        <time>2023-05-14T12:18:56.000Z</time>
      </trkpt>
      <trkpt lat="47.0377" lon="6.59263">
        <ele>766.59997558594</ele>
        <time>2023-05-14T12:18:57.000Z</time>
      </trkpt>
      <trkpt lat="47.03758" lon="6.59247">
        <ele>767</ele>
        <time>2023-05-14T12:19:04.000Z</time>
      </trkpt>
      <trkpt lat="47.03755" lon="6.59243">
        <ele>767.20001220703</ele>
        <time>2023-05-14T12:19:06.000Z</time>
      </trkpt>
      <trkpt lat="47.03748" lon="6.59239">
        <ele>767.40002441406</ele>
        <time>2023-05-14T12:19:10.000Z</time>
      </trkpt>
      <trkpt lat="47.03743" lon="6.59239">
        <ele>767.59997558594</ele>
        <time>2023-05-14T12:19:12.000Z</time>
      </trkpt>
      <trkpt lat="47.03739" lon="6.59243">
        <ele>767.59997558594</ele>
        <time>2023-05-14T12:19:14.000Z</time>
      </trkpt>
      <trkpt lat="47.03737" lon="6.59247">
        <ele>767.59997558594</ele>
        <time>2023-05-14T12:19:15.000Z</time>
      </trkpt>
      <trkpt lat="47.03725" lon="6.59265">
        <ele>767.79998779297</ele>
        <time>2023-05-14T12:19:21.000Z</time>
      </trkpt>
      <trkpt lat="47.03707" lon="6.59275">
        <ele>767.79998779297</ele>
        <time>2023-05-14T12:19:28.000Z</time>
      </trkpt>
      <trkpt lat="47.03692" lon="6.59292">
        <ele>767.79998779297</ele>
        <time>2023-05-14T12:19:34.000Z</time>
      </trkpt>
      <trkpt lat="47.03677" lon="6.59301">
        <ele>768</ele>
        <time>2023-05-14T12:19:41.000Z</time>
      </trkpt>
      <trkpt lat="47.03675" lon="6.593">
        <ele>768</ele>
        <time>2023-05-14T12:19:42.000Z</time>
      </trkpt>
      <trkpt lat="47.03668" lon="6.59297">
        <ele>768.20001220703</ele>
        <time>2023-05-14T12:19:46.000Z</time>
      </trkpt>
      <trkpt lat="47.03664" lon="6.59293">
        <ele>768.20001220703</ele>
        <time>2023-05-14T12:19:48.000Z</time>
      </trkpt>
      <trkpt lat="47.03658" lon="6.59297">
        <ele>768.40002441406</ele>
        <time>2023-05-14T12:19:51.000Z</time>
      </trkpt>
      <trkpt lat="47.03644" lon="6.5932">
        <ele>768.40002441406</ele>
        <time>2023-05-14T12:19:59.000Z</time>
      </trkpt>
      <trkpt lat="47.03629" lon="6.59341">
        <ele>768.20001220703</ele>
        <time>2023-05-14T12:20:06.000Z</time>
      </trkpt>
      <trkpt lat="47.03624" lon="6.59354">
        <ele>768.20001220703</ele>
        <time>2023-05-14T12:20:09.000Z</time>
      </trkpt>
      <trkpt lat="47.03614" lon="6.59371">
        <ele>768.40002441406</ele>
        <time>2023-05-14T12:20:14.000Z</time>
      </trkpt>
      <trkpt lat="47.03603" lon="6.59387">
        <ele>768.79998779297</ele>
        <time>2023-05-14T12:20:19.000Z</time>
      </trkpt>
      <trkpt lat="47.03599" lon="6.59394">
        <ele>769.20001220703</ele>
        <time>2023-05-14T12:20:21.000Z</time>
      </trkpt>
      <trkpt lat="47.03574" lon="6.5943">
        <ele>770</ele>
        <time>2023-05-14T12:20:31.000Z</time>
      </trkpt>
      <trkpt lat="47.03571" lon="6.59433">
        <ele>770</ele>
        <time>2023-05-14T12:20:32.000Z</time>
      </trkpt>
      <trkpt lat="47.03555" lon="6.59443">
        <ele>769.79998779297</ele>
        <time>2023-05-14T12:20:37.000Z</time>
      </trkpt>
      <trkpt lat="47.0353" lon="6.5945">
        <ele>770</ele>
        <time>2023-05-14T12:20:44.000Z</time>
      </trkpt>
      <trkpt lat="47.03502" lon="6.59459">
        <ele>770.40002441406</ele>
        <time>2023-05-14T12:20:52.000Z</time>
      </trkpt>
      <trkpt lat="47.0349" lon="6.59462">
        <ele>770.59997558594</ele>
        <time>2023-05-14T12:20:57.000Z</time>
      </trkpt>
      <trkpt lat="47.03484" lon="6.59462">
        <ele>770.59997558594</ele>
        <time>2023-05-14T12:21:03.000Z</time>
      </trkpt>
      <trkpt lat="47.03493" lon="6.59461">
        <ele>770</ele>
        <time>2023-05-14T12:21:38.000Z</time>
      </trkpt>
      <trkpt lat="47.03495" lon="6.5946">
        <ele>770</ele>
        <time>2023-05-14T12:21:39.000Z</time>
      </trkpt>
      <trkpt lat="47.03498" lon="6.59459">
        <ele>770.20001220703</ele>
        <time>2023-05-14T12:21:40.000Z</time>
      </trkpt>
      <trkpt lat="47.03515" lon="6.59455">
        <ele>770.40002441406</ele>
        <time>2023-05-14T12:21:46.000Z</time>
      </trkpt>
      <trkpt lat="47.03538" lon="6.59451">
        <ele>770.40002441406</ele>
        <time>2023-05-14T12:21:53.000Z</time>
      </trkpt>
      <trkpt lat="47.03554" lon="6.59447">
        <ele>770.20001220703</ele>
        <time>2023-05-14T12:21:59.000Z</time>
      </trkpt>
      <trkpt lat="47.03574" lon="6.59434">
        <ele>770</ele>
        <time>2023-05-14T12:22:06.000Z</time>
      </trkpt>
      <trkpt lat="47.0359" lon="6.59412">
        <ele>770</ele>
        <time>2023-05-14T12:22:12.000Z</time>
      </trkpt>
      <trkpt lat="47.03618" lon="6.59374">
        <ele>769.79998779297</ele>
        <time>2023-05-14T12:22:21.000Z</time>
      </trkpt>
      <trkpt lat="47.03632" lon="6.5935">
        <ele>769</ele>
        <time>2023-05-14T12:22:26.000Z</time>
      </trkpt>
      <trkpt lat="47.03634" lon="6.59345">
        <ele>768.79998779297</ele>
        <time>2023-05-14T12:22:28.000Z</time>
      </trkpt>
      <trkpt lat="47.03639" lon="6.59336">
        <ele>768.79998779297</ele>
        <time>2023-05-14T12:22:29.000Z</time>
      </trkpt>
      <trkpt lat="47.03649" lon="6.59321">
        <ele>768.59997558594</ele>
        <time>2023-05-14T12:22:33.000Z</time>
      </trkpt>
      <trkpt lat="47.03651" lon="6.59317">
        <ele>768.40002441406</ele>
        <time>2023-05-14T12:22:34.000Z</time>
      </trkpt>
      <trkpt lat="47.0366" lon="6.59303">
        <ele>768.20001220703</ele>
        <time>2023-05-14T12:22:39.000Z</time>
      </trkpt>
      <trkpt lat="47.03662" lon="6.59299">
        <ele>768</ele>
        <time>2023-05-14T12:22:42.000Z</time>
      </trkpt>
      <trkpt lat="47.03663" lon="6.59297">
        <ele>768</ele>
        <time>2023-05-14T12:22:44.000Z</time>
      </trkpt>
      <trkpt lat="47.03663" lon="6.59297">
        <ele>768</ele>
        <time>2023-05-14T12:22:46.000Z</time>
      </trkpt>
      <trkpt lat="47.03657" lon="6.59301">
        <ele>767.79998779297</ele>
        <time>2023-05-14T12:22:56.000Z</time>
      </trkpt>
      <trkpt lat="47.03655" lon="6.59304">
        <ele>767.79998779297</ele>
        <time>2023-05-14T12:22:57.000Z</time>
      </trkpt>
      <trkpt lat="47.03643" lon="6.59325">
        <ele>767.79998779297</ele>
        <time>2023-05-14T12:23:03.000Z</time>
      </trkpt>
      <trkpt lat="47.03626" lon="6.59354">
        <ele>768</ele>
        <time>2023-05-14T12:23:11.000Z</time>
      </trkpt>
      <trkpt lat="47.0361" lon="6.59382">
        <ele>768</ele>
        <time>2023-05-14T12:23:18.000Z</time>
      </trkpt>
      <trkpt lat="47.03599" lon="6.594">
        <ele>768.59997558594</ele>
        <time>2023-05-14T12:23:24.000Z</time>
      </trkpt>
      <trkpt lat="47.03597" lon="6.59403">
        <ele>768.59997558594</ele>
        <time>2023-05-14T12:23:25.000Z</time>
      </trkpt>
      <trkpt lat="47.03587" lon="6.59417">
        <ele>769</ele>
        <time>2023-05-14T12:23:28.000Z</time>
      </trkpt>
      <trkpt lat="47.03568" lon="6.59437">
        <ele>769.40002441406</ele>
        <time>2023-05-14T12:23:34.000Z</time>
      </trkpt>
      <trkpt lat="47.03551" lon="6.59446">
        <ele>769.40002441406</ele>
        <time>2023-05-14T12:23:40.000Z</time>
      </trkpt>
      <trkpt lat="47.03526" lon="6.59454">
        <ele>769.20001220703</ele>
        <time>2023-05-14T12:23:47.000Z</time>
      </trkpt>
      <trkpt lat="47.03501" lon="6.59461">
        <ele>769.79998779297</ele>
        <time>2023-05-14T12:23:54.000Z</time>
      </trkpt>
      <trkpt lat="47.03489" lon="6.59464">
        <ele>770.20001220703</ele>
        <time>2023-05-14T12:23:58.000Z</time>
      </trkpt>
      <trkpt lat="47.03485" lon="6.59465">
        <ele>770.40002441406</ele>
        <time>2023-05-14T12:24:00.000Z</time>
      </trkpt>
      <trkpt lat="47.03465" lon="6.59471">
        <ele>770</ele>
        <time>2023-05-14T12:24:06.000Z</time>
      </trkpt>
      <trkpt lat="47.03444" lon="6.59477">
        <ele>770.20001220703</ele>
        <time>2023-05-14T12:24:12.000Z</time>
      </trkpt>
      <trkpt lat="47.03421" lon="6.59478">
        <ele>770.40002441406</ele>
        <time>2023-05-14T12:24:20.000Z</time>
      </trkpt>
      <trkpt lat="47.03392" lon="6.59478">
        <ele>771</ele>
        <time>2023-05-14T12:24:28.000Z</time>
      </trkpt>
      <trkpt lat="47.03373" lon="6.59475">
        <ele>771.40002441406</ele>
        <time>2023-05-14T12:24:33.000Z</time>
      </trkpt>
      <trkpt lat="47.03357" lon="6.59475">
        <ele>771.59997558594</ele>
        <time>2023-05-14T12:24:38.000Z</time>
      </trkpt>
      <trkpt lat="47.03328" lon="6.59471">
        <ele>772.20001220703</ele>
        <time>2023-05-14T12:24:46.000Z</time>
      </trkpt>
      <trkpt lat="47.03304" lon="6.59475">
        <ele>772.20001220703</ele>
        <time>2023-05-14T12:24:52.000Z</time>
      </trkpt>
      <trkpt lat="47.03289" lon="6.59482">
        <ele>772.20001220703</ele>
        <time>2023-05-14T12:24:57.000Z</time>
      </trkpt>
      <trkpt lat="47.03271" lon="6.59488">
        <ele>772.40002441406</ele>
        <time>2023-05-14T12:25:02.000Z</time>
      </trkpt>
      <trkpt lat="47.0325" lon="6.59493">
        <ele>772.59997558594</ele>
        <time>2023-05-14T12:25:08.000Z</time>
      </trkpt>
      <trkpt lat="47.03221" lon="6.59496">
        <ele>772.79998779297</ele>
        <time>2023-05-14T12:25:16.000Z</time>
      </trkpt>
      <trkpt lat="47.03199" lon="6.59487">
        <ele>773.20001220703</ele>
        <time>2023-05-14T12:25:23.000Z</time>
      </trkpt>
      <trkpt lat="47.03195" lon="6.59479">
        <ele>773.20001220703</ele>
        <time>2023-05-14T12:25:25.000Z</time>
      </trkpt>
      <trkpt lat="47.03194" lon="6.59474">
        <ele>773.20001220703</ele>
        <time>2023-05-14T12:25:26.000Z</time>
      </trkpt>
      <trkpt lat="47.03197" lon="6.59465">
        <ele>773.40002441406</ele>
        <time>2023-05-14T12:25:28.000Z</time>
      </trkpt>
      <trkpt lat="47.03203" lon="6.59456">
        <ele>773.40002441406</ele>
        <time>2023-05-14T12:25:30.000Z</time>
      </trkpt>
      <trkpt lat="47.03221" lon="6.59429">
        <ele>773.59997558594</ele>
        <time>2023-05-14T12:25:37.000Z</time>
      </trkpt>
      <trkpt lat="47.03232" lon="6.59417">
        <ele>773.40002441406</ele>
        <time>2023-05-14T12:25:40.000Z</time>
      </trkpt>
      <trkpt lat="47.0324" lon="6.59406">
        <ele>773.40002441406</ele>
        <time>2023-05-14T12:25:42.000Z</time>
      </trkpt>
      <trkpt lat="47.03266" lon="6.5937">
        <ele>773.20001220703</ele>
        <time>2023-05-14T12:25:49.000Z</time>
      </trkpt>
      <trkpt lat="47.03282" lon="6.59345">
        <ele>773.20001220703</ele>
        <time>2023-05-14T12:25:55.000Z</time>
      </trkpt>
      <trkpt lat="47.03295" lon="6.59317">
        <ele>773.40002441406</ele>
        <time>2023-05-14T12:26:02.000Z</time>
      </trkpt>
      <trkpt lat="47.03308" lon="6.59282">
        <ele>774</ele>
        <time>2023-05-14T12:26:08.000Z</time>
      </trkpt>
      <trkpt lat="47.03327" lon="6.59238">
        <ele>774</ele>
        <time>2023-05-14T12:26:15.000Z</time>
      </trkpt>
      <trkpt lat="47.0335" lon="6.59199">
        <ele>774</ele>
        <time>2023-05-14T12:26:23.000Z</time>
      </trkpt>
      <trkpt lat="47.03383" lon="6.59153">
        <ele>774.20001220703</ele>
        <time>2023-05-14T12:26:34.000Z</time>
      </trkpt>
      <trkpt lat="47.03399" lon="6.59122">
        <ele>774.59997558594</ele>
        <time>2023-05-14T12:26:40.000Z</time>
      </trkpt>
      <trkpt lat="47.03401" lon="6.59117">
        <ele>774.59997558594</ele>
        <time>2023-05-14T12:26:41.000Z</time>
      </trkpt>
      <trkpt lat="47.03416" lon="6.59077">
        <ele>775.79998779297</ele>
        <time>2023-05-14T12:26:50.000Z</time>
      </trkpt>
      <trkpt lat="47.03421" lon="6.59061">
        <ele>776</ele>
        <time>2023-05-14T12:26:52.000Z</time>
      </trkpt>
      <trkpt lat="47.03426" lon="6.59045">
        <ele>776.40002441406</ele>
        <time>2023-05-14T12:26:55.000Z</time>
      </trkpt>
      <trkpt lat="47.03432" lon="6.59028">
        <ele>777</ele>
        <time>2023-05-14T12:26:58.000Z</time>
      </trkpt>
      <trkpt lat="47.03441" lon="6.59006">
        <ele>777.40002441406</ele>
        <time>2023-05-14T12:27:02.000Z</time>
      </trkpt>
      <trkpt lat="47.03443" lon="6.59002">
        <ele>777.40002441406</ele>
        <time>2023-05-14T12:27:03.000Z</time>
      </trkpt>
      <trkpt lat="47.0345" lon="6.58985">
        <ele>778</ele>
        <time>2023-05-14T12:27:07.000Z</time>
      </trkpt>
      <trkpt lat="47.03457" lon="6.58962">
        <ele>778.20001220703</ele>
        <time>2023-05-14T12:27:13.000Z</time>
      </trkpt>
      <trkpt lat="47.03449" lon="6.58947">
        <ele>778.40002441406</ele>
        <time>2023-05-14T12:27:17.000Z</time>
      </trkpt>
      <trkpt lat="47.03431" lon="6.58939">
        <ele>778.79998779297</ele>
        <time>2023-05-14T12:27:23.000Z</time>
      </trkpt>
      <trkpt lat="47.03428" lon="6.58937">
        <ele>779</ele>
        <time>2023-05-14T12:27:24.000Z</time>
      </trkpt>
      <trkpt lat="47.03413" lon="6.5893">
        <ele>780.20001220703</ele>
        <time>2023-05-14T12:27:30.000Z</time>
      </trkpt>
      <trkpt lat="47.03408" lon="6.58927">
        <ele>780.79998779297</ele>
        <time>2023-05-14T12:27:32.000Z</time>
      </trkpt>
      <trkpt lat="47.03402" lon="6.58924">
        <ele>781.20001220703</ele>
        <time>2023-05-14T12:27:34.000Z</time>
      </trkpt>
      <trkpt lat="47.03389" lon="6.58915">
        <ele>782.40002441406</ele>
        <time>2023-05-14T12:27:39.000Z</time>
      </trkpt>
      <trkpt lat="47.03381" lon="6.5891">
        <ele>782.79998779297</ele>
        <time>2023-05-14T12:27:42.000Z</time>
      </trkpt>
      <trkpt lat="47.03374" lon="6.58905">
        <ele>783.40002441406</ele>
        <time>2023-05-14T12:27:45.000Z</time>
      </trkpt>
      <trkpt lat="47.03363" lon="6.58898">
        <ele>784.79998779297</ele>
        <time>2023-05-14T12:27:50.000Z</time>
      </trkpt>
      <trkpt lat="47.0336" lon="6.58896">
        <ele>785</ele>
        <time>2023-05-14T12:27:51.000Z</time>
      </trkpt>
      <trkpt lat="47.03351" lon="6.5889">
        <ele>785.79998779297</ele>
        <time>2023-05-14T12:27:55.000Z</time>
      </trkpt>
      <trkpt lat="47.03332" lon="6.58879">
        <ele>786.59997558594</ele>
        <time>2023-05-14T12:28:03.000Z</time>
      </trkpt>
      <trkpt lat="47.03324" lon="6.58874">
        <ele>787</ele>
        <time>2023-05-14T12:28:06.000Z</time>
      </trkpt>
      <trkpt lat="47.03309" lon="6.58867">
        <ele>787.40002441406</ele>
        <time>2023-05-14T12:28:12.000Z</time>
      </trkpt>
      <trkpt lat="47.03301" lon="6.58863">
        <ele>788</ele>
        <time>2023-05-14T12:28:16.000Z</time>
      </trkpt>
      <trkpt lat="47.03293" lon="6.5886">
        <ele>788.59997558594</ele>
        <time>2023-05-14T12:28:20.000Z</time>
      </trkpt>
      <trkpt lat="47.03285" lon="6.58857">
        <ele>789.20001220703</ele>
        <time>2023-05-14T12:28:24.000Z</time>
      </trkpt>
      <trkpt lat="47.03275" lon="6.58854">
        <ele>790.40002441406</ele>
        <time>2023-05-14T12:28:29.000Z</time>
      </trkpt>
      <trkpt lat="47.03268" lon="6.58853">
        <ele>790.79998779297</ele>
        <time>2023-05-14T12:28:32.000Z</time>
      </trkpt>
      <trkpt lat="47.03259" lon="6.58852">
        <ele>791.40002441406</ele>
        <time>2023-05-14T12:28:36.000Z</time>
      </trkpt>
      <trkpt lat="47.03249" lon="6.5885">
        <ele>792.20001220703</ele>
        <time>2023-05-14T12:28:41.000Z</time>
      </trkpt>
      <trkpt lat="47.03245" lon="6.5885">
        <ele>792.40002441406</ele>
        <time>2023-05-14T12:28:43.000Z</time>
      </trkpt>
      <trkpt lat="47.03224" lon="6.58845">
        <ele>793.59997558594</ele>
        <time>2023-05-14T12:28:52.000Z</time>
      </trkpt>
      <trkpt lat="47.0322" lon="6.58843">
        <ele>793.79998779297</ele>
        <time>2023-05-14T12:28:54.000Z</time>
      </trkpt>
      <trkpt lat="47.032" lon="6.58834">
        <ele>794.59997558594</ele>
        <time>2023-05-14T12:29:04.000Z</time>
      </trkpt>
      <trkpt lat="47.03198" lon="6.58832">
        <ele>794.79998779297</ele>
        <time>2023-05-14T12:29:05.000Z</time>
      </trkpt>
      <trkpt lat="47.03184" lon="6.58822">
        <ele>795.79998779297</ele>
        <time>2023-05-14T12:29:12.000Z</time>
      </trkpt>
      <trkpt lat="47.03159" lon="6.58803">
        <ele>796.59997558594</ele>
        <time>2023-05-14T12:29:23.000Z</time>
      </trkpt>
      <trkpt lat="47.03145" lon="6.58791">
        <ele>796.40002441406</ele>
        <time>2023-05-14T12:29:30.000Z</time>
      </trkpt>
      <trkpt lat="47.03142" lon="6.58789">
        <ele>796.40002441406</ele>
        <time>2023-05-14T12:29:31.000Z</time>
      </trkpt>
      <trkpt lat="47.03127" lon="6.58776">
        <ele>796.79998779297</ele>
        <time>2023-05-14T12:29:38.000Z</time>
      </trkpt>
      <trkpt lat="47.03111" lon="6.58764">
        <ele>797.59997558594</ele>
        <time>2023-05-14T12:29:45.000Z</time>
      </trkpt>
      <trkpt lat="47.03105" lon="6.58759">
        <ele>797.79998779297</ele>
        <time>2023-05-14T12:29:48.000Z</time>
      </trkpt>
      <trkpt lat="47.03098" lon="6.58751">
        <ele>798.59997558594</ele>
        <time>2023-05-14T12:29:52.000Z</time>
      </trkpt>
      <trkpt lat="47.03093" lon="6.58748">
        <ele>799</ele>
        <time>2023-05-14T12:29:54.000Z</time>
      </trkpt>
      <trkpt lat="47.03076" lon="6.58734">
        <ele>800.20001220703</ele>
        <time>2023-05-14T12:30:01.000Z</time>
      </trkpt>
      <trkpt lat="47.03064" lon="6.58727">
        <ele>801.20001220703</ele>
        <time>2023-05-14T12:30:06.000Z</time>
      </trkpt>
      <trkpt lat="47.0306" lon="6.58725">
        <ele>801.59997558594</ele>
        <time>2023-05-14T12:30:08.000Z</time>
      </trkpt>
      <trkpt lat="47.0305" lon="6.58719">
        <ele>802.40002441406</ele>
        <time>2023-05-14T12:30:12.000Z</time>
      </trkpt>
      <trkpt lat="47.03036" lon="6.58715">
        <ele>803.40002441406</ele>
        <time>2023-05-14T12:30:18.000Z</time>
      </trkpt>
      <trkpt lat="47.03032" lon="6.58714">
        <ele>803.79998779297</ele>
        <time>2023-05-14T12:30:20.000Z</time>
      </trkpt>
      <trkpt lat="47.03016" lon="6.58713">
        <ele>804.79998779297</ele>
        <time>2023-05-14T12:30:27.000Z</time>
      </trkpt>
      <trkpt lat="47.03014" lon="6.58713">
        <ele>805</ele>
        <time>2023-05-14T12:30:28.000Z</time>
      </trkpt>
      <trkpt lat="47.03" lon="6.58709">
        <ele>806</ele>
        <time>2023-05-14T12:30:34.000Z</time>
      </trkpt>
      <trkpt lat="47.02998" lon="6.58708">
        <ele>806.20001220703</ele>
        <time>2023-05-14T12:30:35.000Z</time>
      </trkpt>
      <trkpt lat="47.02981" lon="6.58696">
        <ele>806.79998779297</ele>
        <time>2023-05-14T12:30:43.000Z</time>
      </trkpt>
      <trkpt lat="47.02963" lon="6.58682">
        <ele>807</ele>
        <time>2023-05-14T12:30:51.000Z</time>
      </trkpt>
      <trkpt lat="47.02961" lon="6.58681">
        <ele>807</ele>
        <time>2023-05-14T12:30:52.000Z</time>
      </trkpt>
      <trkpt lat="47.02938" lon="6.58665">
        <ele>807.40002441406</ele>
        <time>2023-05-14T12:31:02.000Z</time>
      </trkpt>
      <trkpt lat="47.02921" lon="6.58652">
        <ele>808.20001220703</ele>
        <time>2023-05-14T12:31:10.000Z</time>
      </trkpt>
      <trkpt lat="47.02902" lon="6.58631">
        <ele>809</ele>
        <time>2023-05-14T12:31:20.000Z</time>
      </trkpt>
      <trkpt lat="47.029" lon="6.58629">
        <ele>809.20001220703</ele>
        <time>2023-05-14T12:31:21.000Z</time>
      </trkpt>
      <trkpt lat="47.0288" lon="6.58607">
        <ele>809.79998779297</ele>
        <time>2023-05-14T12:31:31.000Z</time>
      </trkpt>
      <trkpt lat="47.02868" lon="6.58594">
        <ele>810.20001220703</ele>
        <time>2023-05-14T12:31:37.000Z</time>
      </trkpt>
      <trkpt lat="47.02864" lon="6.5859">
        <ele>810.40002441406</ele>
        <time>2023-05-14T12:31:39.000Z</time>
      </trkpt>
      <trkpt lat="47.02846" lon="6.58574">
        <ele>811.20001220703</ele>
        <time>2023-05-14T12:31:48.000Z</time>
      </trkpt>
      <trkpt lat="47.02826" lon="6.58556">
        <ele>812.40002441406</ele>
        <time>2023-05-14T12:31:58.000Z</time>
      </trkpt>
      <trkpt lat="47.02814" lon="6.58547">
        <ele>813.59997558594</ele>
        <time>2023-05-14T12:32:03.000Z</time>
      </trkpt>
      <trkpt lat="47.02799" lon="6.58535">
        <ele>813.79998779297</ele>
        <time>2023-05-14T12:32:09.000Z</time>
      </trkpt>
      <trkpt lat="47.0278" lon="6.5852">
        <ele>814.20001220703</ele>
        <time>2023-05-14T12:32:15.000Z</time>
      </trkpt>
      <trkpt lat="47.02766" lon="6.58507">
        <ele>814.20001220703</ele>
        <time>2023-05-14T12:32:21.000Z</time>
      </trkpt>
      <trkpt lat="47.02749" lon="6.58487">
        <ele>814.40002441406</ele>
        <time>2023-05-14T12:32:29.000Z</time>
      </trkpt>
      <trkpt lat="47.02744" lon="6.58477">
        <ele>814.59997558594</ele>
        <time>2023-05-14T12:32:32.000Z</time>
      </trkpt>
      <trkpt lat="47.02734" lon="6.58457">
        <ele>814.79998779297</ele>
        <time>2023-05-14T12:32:37.000Z</time>
      </trkpt>
      <trkpt lat="47.02715" lon="6.58426">
        <ele>814.79998779297</ele>
        <time>2023-05-14T12:32:44.000Z</time>
      </trkpt>
      <trkpt lat="47.02696" lon="6.58408">
        <ele>814.20001220703</ele>
        <time>2023-05-14T12:32:49.000Z</time>
      </trkpt>
      <trkpt lat="47.02692" lon="6.58404">
        <ele>814.20001220703</ele>
        <time>2023-05-14T12:32:50.000Z</time>
      </trkpt>
      <trkpt lat="47.0268" lon="6.58389">
        <ele>813.59997558594</ele>
        <time>2023-05-14T12:32:53.000Z</time>
      </trkpt>
      <trkpt lat="47.02677" lon="6.58383">
        <ele>813.40002441406</ele>
        <time>2023-05-14T12:32:54.000Z</time>
      </trkpt>
      <trkpt lat="47.02674" lon="6.58376">
        <ele>813.40002441406</ele>
        <time>2023-05-14T12:32:55.000Z</time>
      </trkpt>
      <trkpt lat="47.02673" lon="6.5837">
        <ele>813.40002441406</ele>
        <time>2023-05-14T12:32:56.000Z</time>
      </trkpt>
      <trkpt lat="47.02672" lon="6.58356">
        <ele>813</ele>
        <time>2023-05-14T12:32:58.000Z</time>
      </trkpt>
      <trkpt lat="47.02673" lon="6.58351">
        <ele>813</ele>
        <time>2023-05-14T12:32:59.000Z</time>
      </trkpt>
      <trkpt lat="47.02678" lon="6.58328">
        <ele>812.79998779297</ele>
        <time>2023-05-14T12:33:04.000Z</time>
      </trkpt>
      <trkpt lat="47.0269" lon="6.58306">
        <ele>813.40002441406</ele>
        <time>2023-05-14T12:33:10.000Z</time>
      </trkpt>
      <trkpt lat="47.02705" lon="6.58287">
        <ele>813.40002441406</ele>
        <time>2023-05-14T12:33:14.000Z</time>
      </trkpt>
      <trkpt lat="47.02722" lon="6.58265">
        <ele>813</ele>
        <time>2023-05-14T12:33:18.000Z</time>
      </trkpt>
      <trkpt lat="47.02732" lon="6.58253">
        <ele>812.79998779297</ele>
        <time>2023-05-14T12:33:20.000Z</time>
      </trkpt>
      <trkpt lat="47.02736" lon="6.58247">
        <ele>812.40002441406</ele>
        <time>2023-05-14T12:33:21.000Z</time>
      </trkpt>
      <trkpt lat="47.02745" lon="6.58233">
        <ele>812</ele>
        <time>2023-05-14T12:33:23.000Z</time>
      </trkpt>
      <trkpt lat="47.02753" lon="6.58217">
        <ele>811.40002441406</ele>
        <time>2023-05-14T12:33:25.000Z</time>
      </trkpt>
      <trkpt lat="47.02756" lon="6.58207">
        <ele>811.20001220703</ele>
        <time>2023-05-14T12:33:26.000Z</time>
      </trkpt>
      <trkpt lat="47.02762" lon="6.58187">
        <ele>810.20001220703</ele>
        <time>2023-05-14T12:33:28.000Z</time>
      </trkpt>
      <trkpt lat="47.02764" lon="6.58177">
        <ele>810</ele>
        <time>2023-05-14T12:33:29.000Z</time>
      </trkpt>
      <trkpt lat="47.02772" lon="6.58146">
        <ele>809</ele>
        <time>2023-05-14T12:33:32.000Z</time>
      </trkpt>
      <trkpt lat="47.02776" lon="6.58125">
        <ele>808.40002441406</ele>
        <time>2023-05-14T12:33:34.000Z</time>
      </trkpt>
      <trkpt lat="47.02777" lon="6.58114">
        <ele>807.79998779297</ele>
        <time>2023-05-14T12:33:35.000Z</time>
      </trkpt>
      <trkpt lat="47.02776" lon="6.58102">
        <ele>807.59997558594</ele>
        <time>2023-05-14T12:33:36.000Z</time>
      </trkpt>
      <trkpt lat="47.02773" lon="6.58078">
        <ele>806.79998779297</ele>
        <time>2023-05-14T12:33:38.000Z</time>
      </trkpt>
      <trkpt lat="47.02769" lon="6.58066">
        <ele>806.20001220703</ele>
        <time>2023-05-14T12:33:39.000Z</time>
      </trkpt>
      <trkpt lat="47.0276" lon="6.58042">
        <ele>805.20001220703</ele>
        <time>2023-05-14T12:33:41.000Z</time>
      </trkpt>
      <trkpt lat="47.02756" lon="6.58031">
        <ele>804.59997558594</ele>
        <time>2023-05-14T12:33:42.000Z</time>
      </trkpt>
      <trkpt lat="47.02749" lon="6.58006">
        <ele>803.40002441406</ele>
        <time>2023-05-14T12:33:44.000Z</time>
      </trkpt>
      <trkpt lat="47.0274" lon="6.57982">
        <ele>802.40002441406</ele>
        <time>2023-05-14T12:33:46.000Z</time>
      </trkpt>
      <trkpt lat="47.02734" lon="6.5797">
        <ele>802.20001220703</ele>
        <time>2023-05-14T12:33:47.000Z</time>
      </trkpt>
      <trkpt lat="47.02714" lon="6.57937">
        <ele>801.20001220703</ele>
        <time>2023-05-14T12:33:50.000Z</time>
      </trkpt>
      <trkpt lat="47.02696" lon="6.57905">
        <ele>799.79998779297</ele>
        <time>2023-05-14T12:33:53.000Z</time>
      </trkpt>
      <trkpt lat="47.02688" lon="6.57891">
        <ele>799.40002441406</ele>
        <time>2023-05-14T12:33:54.000Z</time>
      </trkpt>
      <trkpt lat="47.02678" lon="6.57868">
        <ele>798.59997558594</ele>
        <time>2023-05-14T12:33:56.000Z</time>
      </trkpt>
      <trkpt lat="47.02661" lon="6.57827">
        <ele>797.40002441406</ele>
        <time>2023-05-14T12:33:59.000Z</time>
      </trkpt>
      <trkpt lat="47.02652" lon="6.57802">
        <ele>796.20001220703</ele>
        <time>2023-05-14T12:34:01.000Z</time>
      </trkpt>
      <trkpt lat="47.02643" lon="6.57775">
        <ele>795</ele>
        <time>2023-05-14T12:34:03.000Z</time>
      </trkpt>
      <trkpt lat="47.02635" lon="6.57747">
        <ele>793.59997558594</ele>
        <time>2023-05-14T12:34:05.000Z</time>
      </trkpt>
      <trkpt lat="47.02621" lon="6.57707">
        <ele>792.79998779297</ele>
        <time>2023-05-14T12:34:08.000Z</time>
      </trkpt>
      <trkpt lat="47.02614" lon="6.57696">
        <ele>792</ele>
        <time>2023-05-14T12:34:09.000Z</time>
      </trkpt>
      <trkpt lat="47.02607" lon="6.57685">
        <ele>791.79998779297</ele>
        <time>2023-05-14T12:34:10.000Z</time>
      </trkpt>
      <trkpt lat="47.02592" lon="6.57667">
        <ele>790.79998779297</ele>
        <time>2023-05-14T12:34:12.000Z</time>
      </trkpt>
      <trkpt lat="47.02585" lon="6.5766">
        <ele>790.20001220703</ele>
        <time>2023-05-14T12:34:13.000Z</time>
      </trkpt>
      <trkpt lat="47.02578" lon="6.57653">
        <ele>789.59997558594</ele>
        <time>2023-05-14T12:34:14.000Z</time>
      </trkpt>
      <trkpt lat="47.02573" lon="6.57647">
        <ele>789.40002441406</ele>
        <time>2023-05-14T12:34:15.000Z</time>
      </trkpt>
      <trkpt lat="47.02569" lon="6.57638">
        <ele>788.79998779297</ele>
        <time>2023-05-14T12:34:16.000Z</time>
      </trkpt>
      <trkpt lat="47.02568" lon="6.57629">
        <ele>788.40002441406</ele>
        <time>2023-05-14T12:34:17.000Z</time>
      </trkpt>
      <trkpt lat="47.02569" lon="6.57618">
        <ele>788</ele>
        <time>2023-05-14T12:34:18.000Z</time>
      </trkpt>
      <trkpt lat="47.02572" lon="6.5761">
        <ele>787.79998779297</ele>
        <time>2023-05-14T12:34:19.000Z</time>
      </trkpt>
      <trkpt lat="47.02578" lon="6.57599">
        <ele>787.20001220703</ele>
        <time>2023-05-14T12:34:20.000Z</time>
      </trkpt>
      <trkpt lat="47.02582" lon="6.57594">
        <ele>786.40002441406</ele>
        <time>2023-05-14T12:34:21.000Z</time>
      </trkpt>
      <trkpt lat="47.02587" lon="6.57589">
        <ele>786.20001220703</ele>
        <time>2023-05-14T12:34:22.000Z</time>
      </trkpt>
      <trkpt lat="47.02596" lon="6.57581">
        <ele>785.40002441406</ele>
        <time>2023-05-14T12:34:24.000Z</time>
      </trkpt>
      <trkpt lat="47.026" lon="6.57577">
        <ele>785</ele>
        <time>2023-05-14T12:34:25.000Z</time>
      </trkpt>
      <trkpt lat="47.02605" lon="6.57574">
        <ele>784.40002441406</ele>
        <time>2023-05-14T12:34:26.000Z</time>
      </trkpt>
      <trkpt lat="47.02612" lon="6.57569">
        <ele>783.40002441406</ele>
        <time>2023-05-14T12:34:27.000Z</time>
      </trkpt>
      <trkpt lat="47.02616" lon="6.57566">
        <ele>782.20001220703</ele>
        <time>2023-05-14T12:34:28.000Z</time>
      </trkpt>
      <trkpt lat="47.02622" lon="6.57561">
        <ele>781.79998779297</ele>
        <time>2023-05-14T12:34:29.000Z</time>
      </trkpt>
      <trkpt lat="47.02629" lon="6.57554">
        <ele>781</ele>
        <time>2023-05-14T12:34:30.000Z</time>
      </trkpt>
      <trkpt lat="47.0264" lon="6.57544">
        <ele>779.79998779297</ele>
        <time>2023-05-14T12:34:32.000Z</time>
      </trkpt>
      <trkpt lat="47.0266" lon="6.57524">
        <ele>778.59997558594</ele>
        <time>2023-05-14T12:34:35.000Z</time>
      </trkpt>
      <trkpt lat="47.02671" lon="6.57512">
        <ele>777.40002441406</ele>
        <time>2023-05-14T12:34:37.000Z</time>
      </trkpt>
      <trkpt lat="47.02691" lon="6.57493">
        <ele>776.40002441406</ele>
        <time>2023-05-14T12:34:40.000Z</time>
      </trkpt>
      <trkpt lat="47.02699" lon="6.57484">
        <ele>776</ele>
        <time>2023-05-14T12:34:41.000Z</time>
      </trkpt>
      <trkpt lat="47.02719" lon="6.57466">
        <ele>774.40002441406</ele>
        <time>2023-05-14T12:34:44.000Z</time>
      </trkpt>
      <trkpt lat="47.0273" lon="6.57451">
        <ele>773.40002441406</ele>
        <time>2023-05-14T12:34:46.000Z</time>
      </trkpt>
      <trkpt lat="47.02734" lon="6.57442">
        <ele>773</ele>
        <time>2023-05-14T12:34:47.000Z</time>
      </trkpt>
      <trkpt lat="47.02736" lon="6.57433">
        <ele>772.59997558594</ele>
        <time>2023-05-14T12:34:48.000Z</time>
      </trkpt>
      <trkpt lat="47.02738" lon="6.57424">
        <ele>772.40002441406</ele>
        <time>2023-05-14T12:34:49.000Z</time>
      </trkpt>
      <trkpt lat="47.02739" lon="6.57414">
        <ele>771.79998779297</ele>
        <time>2023-05-14T12:34:50.000Z</time>
      </trkpt>
      <trkpt lat="47.0274" lon="6.57392">
        <ele>771.40002441406</ele>
        <time>2023-05-14T12:34:53.000Z</time>
      </trkpt>
      <trkpt lat="47.02741" lon="6.57344">
        <ele>771.20001220703</ele>
        <time>2023-05-14T12:35:00.000Z</time>
      </trkpt>
      <trkpt lat="47.02745" lon="6.573">
        <ele>770.79998779297</ele>
        <time>2023-05-14T12:35:06.000Z</time>
      </trkpt>
      <trkpt lat="47.02746" lon="6.57283">
        <ele>770.59997558594</ele>
        <time>2023-05-14T12:35:09.000Z</time>
      </trkpt>
      <trkpt lat="47.02747" lon="6.57268">
        <ele>770.59997558594</ele>
        <time>2023-05-14T12:35:13.000Z</time>
      </trkpt>
      <trkpt lat="47.0275" lon="6.57263">
        <ele>770.59997558594</ele>
        <time>2023-05-14T12:35:14.000Z</time>
      </trkpt>
      <trkpt lat="47.0275" lon="6.57252">
        <ele>770.59997558594</ele>
        <time>2023-05-14T12:35:17.000Z</time>
      </trkpt>
      <trkpt lat="47.0275" lon="6.57252">
        <ele>770.79998779297</ele>
        <time>2023-05-14T12:35:18.000Z</time>
      </trkpt>
      <trkpt lat="47.02743" lon="6.57238">
        <ele>770.79998779297</ele>
        <time>2023-05-14T12:35:20.000Z</time>
      </trkpt>
      <trkpt lat="47.02736" lon="6.5723">
        <ele>771</ele>
        <time>2023-05-14T12:35:22.000Z</time>
      </trkpt>
      <trkpt lat="47.02724" lon="6.57211">
        <ele>771</ele>
        <time>2023-05-14T12:35:26.000Z</time>
      </trkpt>
      <trkpt lat="47.02716" lon="6.57195">
        <ele>771</ele>
        <time>2023-05-14T12:35:29.000Z</time>
      </trkpt>
      <trkpt lat="47.02687" lon="6.57148">
        <ele>771.20001220703</ele>
        <time>2023-05-14T12:35:39.000Z</time>
      </trkpt>
      <trkpt lat="47.02672" lon="6.57123">
        <ele>771.59997558594</ele>
        <time>2023-05-14T12:35:45.000Z</time>
      </trkpt>
      <trkpt lat="47.02663" lon="6.5711">
        <ele>771.79998779297</ele>
        <time>2023-05-14T12:35:48.000Z</time>
      </trkpt>
      <trkpt lat="47.02641" lon="6.57084">
        <ele>772.40002441406</ele>
        <time>2023-05-14T12:35:54.000Z</time>
      </trkpt>
      <trkpt lat="47.02614" lon="6.57066">
        <ele>772.40002441406</ele>
        <time>2023-05-14T12:36:00.000Z</time>
      </trkpt>
      <trkpt lat="47.02591" lon="6.57045">
        <ele>772.20001220703</ele>
        <time>2023-05-14T12:36:06.000Z</time>
      </trkpt>
      <trkpt lat="47.02587" lon="6.57041">
        <ele>772.20001220703</ele>
        <time>2023-05-14T12:36:07.000Z</time>
      </trkpt>
      <trkpt lat="47.02567" lon="6.57011">
        <ele>771.59997558594</ele>
        <time>2023-05-14T12:36:14.000Z</time>
      </trkpt>
      <trkpt lat="47.02548" lon="6.56969">
        <ele>772.20001220703</ele>
        <time>2023-05-14T12:36:22.000Z</time>
      </trkpt>
      <trkpt lat="47.02534" lon="6.56923">
        <ele>773</ele>
        <time>2023-05-14T12:36:30.000Z</time>
      </trkpt>
      <trkpt lat="47.02532" lon="6.56911">
        <ele>773</ele>
        <time>2023-05-14T12:36:32.000Z</time>
      </trkpt>
      <trkpt lat="47.02526" lon="6.5684">
        <ele>773.59997558594</ele>
        <time>2023-05-14T12:36:43.000Z</time>
      </trkpt>
      <trkpt lat="47.02521" lon="6.56818">
        <ele>773.59997558594</ele>
        <time>2023-05-14T12:36:46.000Z</time>
      </trkpt>
      <trkpt lat="47.0252" lon="6.56814">
        <ele>773.79998779297</ele>
        <time>2023-05-14T12:36:47.000Z</time>
      </trkpt>
      <trkpt lat="47.02515" lon="6.56803">
        <ele>774</ele>
        <time>2023-05-14T12:36:49.000Z</time>
      </trkpt>
      <trkpt lat="47.02512" lon="6.56798">
        <ele>774</ele>
        <time>2023-05-14T12:36:50.000Z</time>
      </trkpt>
      <trkpt lat="47.02489" lon="6.56767">
        <ele>774.40002441406</ele>
        <time>2023-05-14T12:36:57.000Z</time>
      </trkpt>
      <trkpt lat="47.02454" lon="6.56736">
        <ele>774.79998779297</ele>
        <time>2023-05-14T12:37:06.000Z</time>
      </trkpt>
      <trkpt lat="47.02416" lon="6.56705">
        <ele>775.20001220703</ele>
        <time>2023-05-14T12:37:16.000Z</time>
      </trkpt>
      <trkpt lat="47.02382" lon="6.56685">
        <ele>775.40002441406</ele>
        <time>2023-05-14T12:37:25.000Z</time>
      </trkpt>
      <trkpt lat="47.02378" lon="6.56683">
        <ele>775.40002441406</ele>
        <time>2023-05-14T12:37:26.000Z</time>
      </trkpt>
      <trkpt lat="47.02355" lon="6.56671">
        <ele>775.59997558594</ele>
        <time>2023-05-14T12:37:33.000Z</time>
      </trkpt>
      <trkpt lat="47.02349" lon="6.56668">
        <ele>775.79998779297</ele>
        <time>2023-05-14T12:37:35.000Z</time>
      </trkpt>
      <trkpt lat="47.02335" lon="6.56658">
        <ele>776.40002441406</ele>
        <time>2023-05-14T12:37:39.000Z</time>
      </trkpt>
      <trkpt lat="47.02318" lon="6.56642">
        <ele>776.79998779297</ele>
        <time>2023-05-14T12:37:45.000Z</time>
      </trkpt>
      <trkpt lat="47.02316" lon="6.56639">
        <ele>777</ele>
        <time>2023-05-14T12:37:46.000Z</time>
      </trkpt>
      <trkpt lat="47.02313" lon="6.56626">
        <ele>777.59997558594</ele>
        <time>2023-05-14T12:37:50.000Z</time>
      </trkpt>
      <trkpt lat="47.02313" lon="6.56622">
        <ele>778</ele>
        <time>2023-05-14T12:37:51.000Z</time>
      </trkpt>
      <trkpt lat="47.02315" lon="6.56612">
        <ele>779.20001220703</ele>
        <time>2023-05-14T12:37:54.000Z</time>
      </trkpt>
      <trkpt lat="47.02315" lon="6.56607">
        <ele>779.79998779297</ele>
        <time>2023-05-14T12:37:56.000Z</time>
      </trkpt>
      <trkpt lat="47.02315" lon="6.56607">
        <ele>780.59997558594</ele>
        <time>2023-05-14T12:37:58.000Z</time>
      </trkpt>
      <trkpt lat="47.0232" lon="6.56596">
        <ele>781.79998779297</ele>
        <time>2023-05-14T12:38:39.000Z</time>
      </trkpt>
      <trkpt lat="47.02322" lon="6.56592">
        <ele>781.79998779297</ele>
        <time>2023-05-14T12:38:40.000Z</time>
      </trkpt>
      <trkpt lat="47.02323" lon="6.56576">
        <ele>782.40002441406</ele>
        <time>2023-05-14T12:38:44.000Z</time>
      </trkpt>
      <trkpt lat="47.02323" lon="6.56572">
        <ele>782.59997558594</ele>
        <time>2023-05-14T12:38:45.000Z</time>
      </trkpt>
      <trkpt lat="47.02321" lon="6.56567">
        <ele>783</ele>
        <time>2023-05-14T12:38:46.000Z</time>
      </trkpt>
      <trkpt lat="47.02313" lon="6.56556">
        <ele>784</ele>
        <time>2023-05-14T12:38:50.000Z</time>
      </trkpt>
      <trkpt lat="47.02311" lon="6.56554">
        <ele>784.20001220703</ele>
        <time>2023-05-14T12:38:52.000Z</time>
      </trkpt>
      <trkpt lat="47.02299" lon="6.56546">
        <ele>785</ele>
        <time>2023-05-14T12:38:56.000Z</time>
      </trkpt>
      <trkpt lat="47.02295" lon="6.56544">
        <ele>785.59997558594</ele>
        <time>2023-05-14T12:38:58.000Z</time>
      </trkpt>
      <trkpt lat="47.02291" lon="6.56543">
        <ele>786.40002441406</ele>
        <time>2023-05-14T12:39:00.000Z</time>
      </trkpt>
      <trkpt lat="47.02285" lon="6.5654">
        <ele>787.40002441406</ele>
        <time>2023-05-14T12:39:03.000Z</time>
      </trkpt>
      <trkpt lat="47.02278" lon="6.56534">
        <ele>788.40002441406</ele>
        <time>2023-05-14T12:39:07.000Z</time>
      </trkpt>
      <trkpt lat="47.02278" lon="6.56534">
        <ele>788.40002441406</ele>
        <time>2023-05-14T12:39:08.000Z</time>
      </trkpt>
      <trkpt lat="47.02269" lon="6.56524">
        <ele>789.59997558594</ele>
        <time>2023-05-14T12:39:13.000Z</time>
      </trkpt>
      <trkpt lat="47.02266" lon="6.56519">
        <ele>790.20001220703</ele>
        <time>2023-05-14T12:39:16.000Z</time>
      </trkpt>
      <trkpt lat="47.02261" lon="6.5651">
        <ele>790.59997558594</ele>
        <time>2023-05-14T12:39:20.000Z</time>
      </trkpt>
      <trkpt lat="47.02255" lon="6.56496">
        <ele>791.79998779297</ele>
        <time>2023-05-14T12:39:25.000Z</time>
      </trkpt>
      <trkpt lat="47.02255" lon="6.56494">
        <ele>792.20001220703</ele>
        <time>2023-05-14T12:39:26.000Z</time>
      </trkpt>
      <trkpt lat="47.02252" lon="6.56484">
        <ele>793</ele>
        <time>2023-05-14T12:39:30.000Z</time>
      </trkpt>
      <trkpt lat="47.02249" lon="6.56473">
        <ele>794.20001220703</ele>
        <time>2023-05-14T12:39:35.000Z</time>
      </trkpt>
      <trkpt lat="47.02248" lon="6.56468">
        <ele>794.20001220703</ele>
        <time>2023-05-14T12:39:36.000Z</time>
      </trkpt>
      <trkpt lat="47.02245" lon="6.56449">
        <ele>795.20001220703</ele>
        <time>2023-05-14T12:39:45.000Z</time>
      </trkpt>
      <trkpt lat="47.02243" lon="6.56437">
        <ele>795.79998779297</ele>
        <time>2023-05-14T12:39:49.000Z</time>
      </trkpt>
      <trkpt lat="47.02242" lon="6.5643">
        <ele>796.20001220703</ele>
        <time>2023-05-14T12:39:52.000Z</time>
      </trkpt>
      <trkpt lat="47.0224" lon="6.56411">
        <ele>797.40002441406</ele>
        <time>2023-05-14T12:40:00.000Z</time>
      </trkpt>
      <trkpt lat="47.02239" lon="6.56409">
        <ele>797.40002441406</ele>
        <time>2023-05-14T12:40:01.000Z</time>
      </trkpt>
      <trkpt lat="47.02239" lon="6.56393">
        <ele>798.40002441406</ele>
        <time>2023-05-14T12:40:08.000Z</time>
      </trkpt>
      <trkpt lat="47.0224" lon="6.56385">
        <ele>798.79998779297</ele>
        <time>2023-05-14T12:40:11.000Z</time>
      </trkpt>
      <trkpt lat="47.02241" lon="6.56376">
        <ele>799.20001220703</ele>
        <time>2023-05-14T12:40:15.000Z</time>
      </trkpt>
      <trkpt lat="47.02241" lon="6.56376">
        <ele>799.40002441406</ele>
        <time>2023-05-14T12:40:16.000Z</time>
      </trkpt>
      <trkpt lat="47.02241" lon="6.56371">
        <ele>799.59997558594</ele>
        <time>2023-05-14T12:40:18.000Z</time>
      </trkpt>
      <trkpt lat="47.02243" lon="6.56353">
        <ele>800.59997558594</ele>
        <time>2023-05-14T12:40:25.000Z</time>
      </trkpt>
      <trkpt lat="47.02244" lon="6.56343">
        <ele>801.20001220703</ele>
        <time>2023-05-14T12:40:29.000Z</time>
      </trkpt>
      <trkpt lat="47.02245" lon="6.56336">
        <ele>801.59997558594</ele>
        <time>2023-05-14T12:40:32.000Z</time>
      </trkpt>
      <trkpt lat="47.02247" lon="6.56329">
        <ele>802</ele>
        <time>2023-05-14T12:40:37.000Z</time>
      </trkpt>
      <trkpt lat="47.02249" lon="6.56318">
        <ele>802.59997558594</ele>
        <time>2023-05-14T12:40:41.000Z</time>
      </trkpt>
      <trkpt lat="47.02251" lon="6.56309">
        <ele>802.79998779297</ele>
        <time>2023-05-14T12:40:45.000Z</time>
      </trkpt>
      <trkpt lat="47.02253" lon="6.56286">
        <ele>803.59997558594</ele>
        <time>2023-05-14T12:40:54.000Z</time>
      </trkpt>
      <trkpt lat="47.02252" lon="6.56283">
        <ele>803.59997558594</ele>
        <time>2023-05-14T12:40:55.000Z</time>
      </trkpt>
      <trkpt lat="47.02251" lon="6.56262">
        <ele>804.59997558594</ele>
        <time>2023-05-14T12:41:05.000Z</time>
      </trkpt>
      <trkpt lat="47.0225" lon="6.56257">
        <ele>804.79998779297</ele>
        <time>2023-05-14T12:41:06.000Z</time>
      </trkpt>
      <trkpt lat="47.02249" lon="6.5624">
        <ele>805.59997558594</ele>
        <time>2023-05-14T12:41:13.000Z</time>
      </trkpt>
      <trkpt lat="47.02248" lon="6.56231">
        <ele>806</ele>
        <time>2023-05-14T12:41:17.000Z</time>
      </trkpt>
      <trkpt lat="47.02247" lon="6.56218">
        <ele>806.79998779297</ele>
        <time>2023-05-14T12:41:23.000Z</time>
      </trkpt>
      <trkpt lat="47.02247" lon="6.56209">
        <ele>807.40002441406</ele>
        <time>2023-05-14T12:41:27.000Z</time>
      </trkpt>
      <trkpt lat="47.02247" lon="6.56201">
        <ele>808</ele>
        <time>2023-05-14T12:41:31.000Z</time>
      </trkpt>
      <trkpt lat="47.02247" lon="6.56197">
        <ele>808.40002441406</ele>
        <time>2023-05-14T12:41:33.000Z</time>
      </trkpt>
      <trkpt lat="47.02248" lon="6.56195">
        <ele>808.59997558594</ele>
        <time>2023-05-14T12:41:34.000Z</time>
      </trkpt>
      <trkpt lat="47.02248" lon="6.56189">
        <ele>809</ele>
        <time>2023-05-14T12:41:37.000Z</time>
      </trkpt>
      <trkpt lat="47.02249" lon="6.56187">
        <ele>809.20001220703</ele>
        <time>2023-05-14T12:41:38.000Z</time>
      </trkpt>
      <trkpt lat="47.02252" lon="6.56172">
        <ele>810.20001220703</ele>
        <time>2023-05-14T12:41:45.000Z</time>
      </trkpt>
      <trkpt lat="47.02253" lon="6.5617">
        <ele>810.20001220703</ele>
        <time>2023-05-14T12:41:46.000Z</time>
      </trkpt>
      <trkpt lat="47.02254" lon="6.56164">
        <ele>811.40002441406</ele>
        <time>2023-05-14T12:41:50.000Z</time>
      </trkpt>
      <trkpt lat="47.02254" lon="6.5616">
        <ele>811.59997558594</ele>
        <time>2023-05-14T12:41:51.000Z</time>
      </trkpt>
      <trkpt lat="47.02256" lon="6.56157">
        <ele>812</ele>
        <time>2023-05-14T12:41:53.000Z</time>
      </trkpt>
      <trkpt lat="47.02257" lon="6.56152">
        <ele>812.59997558594</ele>
        <time>2023-05-14T12:41:56.000Z</time>
      </trkpt>
      <trkpt lat="47.02259" lon="6.56148">
        <ele>813.20001220703</ele>
        <time>2023-05-14T12:41:58.000Z</time>
      </trkpt>
      <trkpt lat="47.02259" lon="6.56144">
        <ele>813.40002441406</ele>
        <time>2023-05-14T12:42:00.000Z</time>
      </trkpt>
      <trkpt lat="47.02259" lon="6.56141">
        <ele>813.79998779297</ele>
        <time>2023-05-14T12:42:01.000Z</time>
      </trkpt>
      <trkpt lat="47.02261" lon="6.56136">
        <ele>814.20001220703</ele>
        <time>2023-05-14T12:42:03.000Z</time>
      </trkpt>
      <trkpt lat="47.02262" lon="6.56134">
        <ele>814.20001220703</ele>
        <time>2023-05-14T12:42:04.000Z</time>
      </trkpt>
      <trkpt lat="47.02262" lon="6.56133">
        <ele>814.40002441406</ele>
        <time>2023-05-14T12:42:05.000Z</time>
      </trkpt>
      <trkpt lat="47.02262" lon="6.5613">
        <ele>814.79998779297</ele>
        <time>2023-05-14T12:42:07.000Z</time>
      </trkpt>
      <trkpt lat="47.02264" lon="6.56125">
        <ele>814.79998779297</ele>
        <time>2023-05-14T12:42:08.000Z</time>
      </trkpt>
      <trkpt lat="47.02267" lon="6.56111">
        <ele>816</ele>
        <time>2023-05-14T12:42:13.000Z</time>
      </trkpt>
      <trkpt lat="47.02269" lon="6.56107">
        <ele>816.40002441406</ele>
        <time>2023-05-14T12:42:15.000Z</time>
      </trkpt>
      <trkpt lat="47.02273" lon="6.56103">
        <ele>817.20001220703</ele>
        <time>2023-05-14T12:42:18.000Z</time>
      </trkpt>
      <trkpt lat="47.02282" lon="6.56096">
        <ele>818.40002441406</ele>
        <time>2023-05-14T12:42:24.000Z</time>
      </trkpt>
      <trkpt lat="47.02289" lon="6.5609">
        <ele>819.59997558594</ele>
        <time>2023-05-14T12:42:29.000Z</time>
      </trkpt>
      <trkpt lat="47.02293" lon="6.56086">
        <ele>820</ele>
        <time>2023-05-14T12:42:32.000Z</time>
      </trkpt>
      <trkpt lat="47.02295" lon="6.56083">
        <ele>820.59997558594</ele>
        <time>2023-05-14T12:42:34.000Z</time>
      </trkpt>
      <trkpt lat="47.023" lon="6.56074">
        <ele>821.20001220703</ele>
        <time>2023-05-14T12:42:39.000Z</time>
      </trkpt>
      <trkpt lat="47.02302" lon="6.5607">
        <ele>821.59997558594</ele>
        <time>2023-05-14T12:42:41.000Z</time>
      </trkpt>
      <trkpt lat="47.02304" lon="6.56064">
        <ele>822.20001220703</ele>
        <time>2023-05-14T12:42:45.000Z</time>
      </trkpt>
      <trkpt lat="47.02307" lon="6.56053">
        <ele>822.79998779297</ele>
        <time>2023-05-14T12:42:50.000Z</time>
      </trkpt>
      <trkpt lat="47.02309" lon="6.56045">
        <ele>823.20001220703</ele>
        <time>2023-05-14T12:42:53.000Z</time>
      </trkpt>
      <trkpt lat="47.0231" lon="6.56038">
        <ele>824</ele>
        <time>2023-05-14T12:42:56.000Z</time>
      </trkpt>
      <trkpt lat="47.02312" lon="6.56025">
        <ele>825</ele>
        <time>2023-05-14T12:43:01.000Z</time>
      </trkpt>
      <trkpt lat="47.02312" lon="6.56023">
        <ele>825.20001220703</ele>
        <time>2023-05-14T12:43:02.000Z</time>
      </trkpt>
      <trkpt lat="47.02314" lon="6.56018">
        <ele>825.59997558594</ele>
        <time>2023-05-14T12:43:04.000Z</time>
      </trkpt>
      <trkpt lat="47.02314" lon="6.56014">
        <ele>826.20001220703</ele>
        <time>2023-05-14T12:43:06.000Z</time>
      </trkpt>
      <trkpt lat="47.02315" lon="6.56007">
        <ele>826.59997558594</ele>
        <time>2023-05-14T12:43:09.000Z</time>
      </trkpt>
      <trkpt lat="47.02315" lon="6.55999">
        <ele>827.20001220703</ele>
        <time>2023-05-14T12:43:12.000Z</time>
      </trkpt>
      <trkpt lat="47.02312" lon="6.55987">
        <ele>828</ele>
        <time>2023-05-14T12:43:17.000Z</time>
      </trkpt>
      <trkpt lat="47.02306" lon="6.55972">
        <ele>828.20001220703</ele>
        <time>2023-05-14T12:43:24.000Z</time>
      </trkpt>
      <trkpt lat="47.02301" lon="6.55963">
        <ele>828.20001220703</ele>
        <time>2023-05-14T12:43:27.000Z</time>
      </trkpt>
      <trkpt lat="47.02295" lon="6.55952">
        <ele>828.40002441406</ele>
        <time>2023-05-14T12:43:33.000Z</time>
      </trkpt>
      <trkpt lat="47.02283" lon="6.55944">
        <ele>829.40002441406</ele>
        <time>2023-05-14T12:43:39.000Z</time>
      </trkpt>
      <trkpt lat="47.02278" lon="6.5594">
        <ele>830.40002441406</ele>
        <time>2023-05-14T12:43:42.000Z</time>
      </trkpt>
      <trkpt lat="47.02268" lon="6.55932">
        <ele>831.40002441406</ele>
        <time>2023-05-14T12:43:49.000Z</time>
      </trkpt>
      <trkpt lat="47.02263" lon="6.55928">
        <ele>831.59997558594</ele>
        <time>2023-05-14T12:43:51.000Z</time>
      </trkpt>
      <trkpt lat="47.02242" lon="6.55911">
        <ele>832</ele>
        <time>2023-05-14T12:44:02.000Z</time>
      </trkpt>
      <trkpt lat="47.02228" lon="6.55898">
        <ele>832.20001220703</ele>
        <time>2023-05-14T12:44:11.000Z</time>
      </trkpt>
      <trkpt lat="47.02206" lon="6.55879">
        <ele>832.20001220703</ele>
        <time>2023-05-14T12:44:21.000Z</time>
      </trkpt>
      <trkpt lat="47.02199" lon="6.55873">
        <ele>832.59997558594</ele>
        <time>2023-05-14T12:44:26.000Z</time>
      </trkpt>
      <trkpt lat="47.02193" lon="6.55867">
        <ele>833.20001220703</ele>
        <time>2023-05-14T12:44:29.000Z</time>
      </trkpt>
      <trkpt lat="47.02181" lon="6.55857">
        <ele>833.59997558594</ele>
        <time>2023-05-14T12:44:33.000Z</time>
      </trkpt>
      <trkpt lat="47.02173" lon="6.55848">
        <ele>834.20001220703</ele>
        <time>2023-05-14T12:44:37.000Z</time>
      </trkpt>
      <trkpt lat="47.02161" lon="6.55835">
        <ele>834.59997558594</ele>
        <time>2023-05-14T12:44:43.000Z</time>
      </trkpt>
      <trkpt lat="47.02159" lon="6.55834">
        <ele>834.79998779297</ele>
        <time>2023-05-14T12:44:44.000Z</time>
      </trkpt>
      <trkpt lat="47.02146" lon="6.55819">
        <ele>835.59997558594</ele>
        <time>2023-05-14T12:44:50.000Z</time>
      </trkpt>
      <trkpt lat="47.0214" lon="6.55814">
        <ele>836</ele>
        <time>2023-05-14T12:44:52.000Z</time>
      </trkpt>
      <trkpt lat="47.02121" lon="6.55795">
        <ele>836.20001220703</ele>
        <time>2023-05-14T12:44:58.000Z</time>
      </trkpt>
      <trkpt lat="47.02097" lon="6.55771">
        <ele>836.40002441406</ele>
        <time>2023-05-14T12:45:06.000Z</time>
      </trkpt>
      <trkpt lat="47.02085" lon="6.5576">
        <ele>836.59997558594</ele>
        <time>2023-05-14T12:45:11.000Z</time>
      </trkpt>
      <trkpt lat="47.02062" lon="6.55737">
        <ele>836.79998779297</ele>
        <time>2023-05-14T12:45:19.000Z</time>
      </trkpt>
      <trkpt lat="47.02059" lon="6.55735">
        <ele>836.79998779297</ele>
        <time>2023-05-14T12:45:20.000Z</time>
      </trkpt>
      <trkpt lat="47.02039" lon="6.55715">
        <ele>837.79998779297</ele>
        <time>2023-05-14T12:45:28.000Z</time>
      </trkpt>
      <trkpt lat="47.02035" lon="6.55711">
        <ele>838</ele>
        <time>2023-05-14T12:45:30.000Z</time>
      </trkpt>
      <trkpt lat="47.02029" lon="6.55705">
        <ele>839</ele>
        <time>2023-05-14T12:45:33.000Z</time>
      </trkpt>
      <trkpt lat="47.02021" lon="6.55696">
        <ele>839.59997558594</ele>
        <time>2023-05-14T12:45:37.000Z</time>
      </trkpt>
      <trkpt lat="47.02015" lon="6.55691">
        <ele>840.20001220703</ele>
        <time>2023-05-14T12:45:40.000Z</time>
      </trkpt>
      <trkpt lat="47.02005" lon="6.55684">
        <ele>840.79998779297</ele>
        <time>2023-05-14T12:45:45.000Z</time>
      </trkpt>
      <trkpt lat="47.02001" lon="6.55679">
        <ele>841.20001220703</ele>
        <time>2023-05-14T12:45:48.000Z</time>
      </trkpt>
      <trkpt lat="47.01994" lon="6.55673">
        <ele>841.59997558594</ele>
        <time>2023-05-14T12:45:51.000Z</time>
      </trkpt>
      <trkpt lat="47.01989" lon="6.55669">
        <ele>842.40002441406</ele>
        <time>2023-05-14T12:45:54.000Z</time>
      </trkpt>
      <trkpt lat="47.01981" lon="6.55662">
        <ele>843.20001220703</ele>
        <time>2023-05-14T12:45:58.000Z</time>
      </trkpt>
      <trkpt lat="47.01977" lon="6.55658">
        <ele>843.59997558594</ele>
        <time>2023-05-14T12:46:00.000Z</time>
      </trkpt>
      <trkpt lat="47.01971" lon="6.55654">
        <ele>843.79998779297</ele>
        <time>2023-05-14T12:46:03.000Z</time>
      </trkpt>
      <trkpt lat="47.01967" lon="6.55651">
        <ele>844.20001220703</ele>
        <time>2023-05-14T12:46:05.000Z</time>
      </trkpt>
      <trkpt lat="47.01962" lon="6.55646">
        <ele>844.59997558594</ele>
        <time>2023-05-14T12:46:08.000Z</time>
      </trkpt>
      <trkpt lat="47.01955" lon="6.5564">
        <ele>845</ele>
        <time>2023-05-14T12:46:12.000Z</time>
      </trkpt>
      <trkpt lat="47.01947" lon="6.55631">
        <ele>845.59997558594</ele>
        <time>2023-05-14T12:46:17.000Z</time>
      </trkpt>
      <trkpt lat="47.01944" lon="6.55627">
        <ele>845.79998779297</ele>
        <time>2023-05-14T12:46:19.000Z</time>
      </trkpt>
      <trkpt lat="47.01935" lon="6.55616">
        <ele>846.40002441406</ele>
        <time>2023-05-14T12:46:24.000Z</time>
      </trkpt>
      <trkpt lat="47.01931" lon="6.55613">
        <ele>846.79998779297</ele>
        <time>2023-05-14T12:46:26.000Z</time>
      </trkpt>
      <trkpt lat="47.0193" lon="6.5561">
        <ele>846.79998779297</ele>
        <time>2023-05-14T12:46:27.000Z</time>
      </trkpt>
      <trkpt lat="47.01928" lon="6.55605">
        <ele>847</ele>
        <time>2023-05-14T12:46:29.000Z</time>
      </trkpt>
      <trkpt lat="47.01926" lon="6.55604">
        <ele>847.20001220703</ele>
        <time>2023-05-14T12:46:30.000Z</time>
      </trkpt>
      <trkpt lat="47.01917" lon="6.55591">
        <ele>848</ele>
        <time>2023-05-14T12:46:35.000Z</time>
      </trkpt>
      <trkpt lat="47.01911" lon="6.5558">
        <ele>848.20001220703</ele>
        <time>2023-05-14T12:46:39.000Z</time>
      </trkpt>
      <trkpt lat="47.019" lon="6.55561">
        <ele>848.79998779297</ele>
        <time>2023-05-14T12:46:47.000Z</time>
      </trkpt>
      <trkpt lat="47.01897" lon="6.55556">
        <ele>849</ele>
        <time>2023-05-14T12:46:49.000Z</time>
      </trkpt>
      <trkpt lat="47.01887" lon="6.5554">
        <ele>849.40002441406</ele>
        <time>2023-05-14T12:46:56.000Z</time>
      </trkpt>
      <trkpt lat="47.01868" lon="6.5551">
        <ele>850</ele>
        <time>2023-05-14T12:47:09.000Z</time>
      </trkpt>
      <trkpt lat="47.01866" lon="6.55505">
        <ele>850.20001220703</ele>
        <time>2023-05-14T12:47:11.000Z</time>
      </trkpt>
      <trkpt lat="47.01854" lon="6.55488">
        <ele>851</ele>
        <time>2023-05-14T12:47:19.000Z</time>
      </trkpt>
      <trkpt lat="47.01853" lon="6.55485">
        <ele>851.20001220703</ele>
        <time>2023-05-14T12:47:20.000Z</time>
      </trkpt>
      <trkpt lat="47.01843" lon="6.55472">
        <ele>852</ele>
        <time>2023-05-14T12:47:26.000Z</time>
      </trkpt>
      <trkpt lat="47.0184" lon="6.55468">
        <ele>852.40002441406</ele>
        <time>2023-05-14T12:47:28.000Z</time>
      </trkpt>
      <trkpt lat="47.01839" lon="6.55467">
        <ele>852.59997558594</ele>
        <time>2023-05-14T12:47:29.000Z</time>
      </trkpt>
      <trkpt lat="47.01834" lon="6.55461">
        <ele>853</ele>
        <time>2023-05-14T12:47:32.000Z</time>
      </trkpt>
      <trkpt lat="47.01831" lon="6.55457">
        <ele>853.20001220703</ele>
        <time>2023-05-14T12:47:34.000Z</time>
      </trkpt>
      <trkpt lat="47.01822" lon="6.55444">
        <ele>853.79998779297</ele>
        <time>2023-05-14T12:47:39.000Z</time>
      </trkpt>
      <trkpt lat="47.01815" lon="6.55432">
        <ele>854.40002441406</ele>
        <time>2023-05-14T12:47:44.000Z</time>
      </trkpt>
      <trkpt lat="47.01812" lon="6.55424">
        <ele>854.59997558594</ele>
        <time>2023-05-14T12:47:47.000Z</time>
      </trkpt>
      <trkpt lat="47.01805" lon="6.55413">
        <ele>854.79998779297</ele>
        <time>2023-05-14T12:47:52.000Z</time>
      </trkpt>
      <trkpt lat="47.01794" lon="6.55391">
        <ele>855.40002441406</ele>
        <time>2023-05-14T12:48:00.000Z</time>
      </trkpt>
      <trkpt lat="47.0179" lon="6.55382">
        <ele>855.40002441406</ele>
        <time>2023-05-14T12:48:03.000Z</time>
      </trkpt>
      <trkpt lat="47.01787" lon="6.55377">
        <ele>855.40002441406</ele>
        <time>2023-05-14T12:48:06.000Z</time>
      </trkpt>
      <trkpt lat="47.01778" lon="6.55359">
        <ele>855.59997558594</ele>
        <time>2023-05-14T12:48:15.000Z</time>
      </trkpt>
      <trkpt lat="47.01773" lon="6.55347">
        <ele>855.59997558594</ele>
        <time>2023-05-14T12:48:21.000Z</time>
      </trkpt>
      <trkpt lat="47.01763" lon="6.55332">
        <ele>856</ele>
        <time>2023-05-14T12:48:27.000Z</time>
      </trkpt>
      <trkpt lat="47.0175" lon="6.55313">
        <ele>856.20001220703</ele>
        <time>2023-05-14T12:48:33.000Z</time>
      </trkpt>
      <trkpt lat="47.01746" lon="6.55305">
        <ele>856.40002441406</ele>
        <time>2023-05-14T12:48:35.000Z</time>
      </trkpt>
      <trkpt lat="47.01733" lon="6.55279">
        <ele>856.59997558594</ele>
        <time>2023-05-14T12:48:44.000Z</time>
      </trkpt>
      <trkpt lat="47.01726" lon="6.55262">
        <ele>857.40002441406</ele>
        <time>2023-05-14T12:48:50.000Z</time>
      </trkpt>
      <trkpt lat="47.01725" lon="6.5526">
        <ele>857.40002441406</ele>
        <time>2023-05-14T12:48:51.000Z</time>
      </trkpt>
      <trkpt lat="47.01717" lon="6.55242">
        <ele>857.79998779297</ele>
        <time>2023-05-14T12:48:58.000Z</time>
      </trkpt>
      <trkpt lat="47.01716" lon="6.55236">
        <ele>858.40002441406</ele>
        <time>2023-05-14T12:49:00.000Z</time>
      </trkpt>
      <trkpt lat="47.01713" lon="6.55223">
        <ele>858.59997558594</ele>
        <time>2023-05-14T12:49:04.000Z</time>
      </trkpt>
      <trkpt lat="47.0171" lon="6.5521">
        <ele>859.40002441406</ele>
        <time>2023-05-14T12:49:09.000Z</time>
      </trkpt>
      <trkpt lat="47.01709" lon="6.55207">
        <ele>859.40002441406</ele>
        <time>2023-05-14T12:49:10.000Z</time>
      </trkpt>
      <trkpt lat="47.01705" lon="6.55194">
        <ele>860.40002441406</ele>
        <time>2023-05-14T12:49:15.000Z</time>
      </trkpt>
      <trkpt lat="47.01704" lon="6.55191">
        <ele>860.79998779297</ele>
        <time>2023-05-14T12:49:16.000Z</time>
      </trkpt>
      <trkpt lat="47.01701" lon="6.55178">
        <ele>861.40002441406</ele>
        <time>2023-05-14T12:49:21.000Z</time>
      </trkpt>
      <trkpt lat="47.017" lon="6.55173">
        <ele>862.20001220703</ele>
        <time>2023-05-14T12:49:23.000Z</time>
      </trkpt>
      <trkpt lat="47.01698" lon="6.55167">
        <ele>862.79998779297</ele>
        <time>2023-05-14T12:49:25.000Z</time>
      </trkpt>
      <trkpt lat="47.01696" lon="6.55153">
        <ele>863.79998779297</ele>
        <time>2023-05-14T12:49:30.000Z</time>
      </trkpt>
      <trkpt lat="47.01696" lon="6.55147">
        <ele>864.40002441406</ele>
        <time>2023-05-14T12:49:32.000Z</time>
      </trkpt>
      <trkpt lat="47.01696" lon="6.55143">
        <ele>864.59997558594</ele>
        <time>2023-05-14T12:49:34.000Z</time>
      </trkpt>
      <trkpt lat="47.01696" lon="6.55138">
        <ele>864.79998779297</ele>
        <time>2023-05-14T12:49:36.000Z</time>
      </trkpt>
      <trkpt lat="47.01695" lon="6.55126">
        <ele>866.20001220703</ele>
        <time>2023-05-14T12:49:41.000Z</time>
      </trkpt>
      <trkpt lat="47.01694" lon="6.55122">
        <ele>866.79998779297</ele>
        <time>2023-05-14T12:49:43.000Z</time>
      </trkpt>
      <trkpt lat="47.01693" lon="6.55117">
        <ele>867.20001220703</ele>
        <time>2023-05-14T12:49:45.000Z</time>
      </trkpt>
      <trkpt lat="47.01692" lon="6.55112">
        <ele>867.79998779297</ele>
        <time>2023-05-14T12:49:48.000Z</time>
      </trkpt>
      <trkpt lat="47.01691" lon="6.5511">
        <ele>868.20001220703</ele>
        <time>2023-05-14T12:49:50.000Z</time>
      </trkpt>
      <trkpt lat="47.01689" lon="6.55097">
        <ele>869.40002441406</ele>
        <time>2023-05-14T12:49:55.000Z</time>
      </trkpt>
      <trkpt lat="47.01687" lon="6.5509">
        <ele>870</ele>
        <time>2023-05-14T12:49:58.000Z</time>
      </trkpt>
      <trkpt lat="47.01685" lon="6.55086">
        <ele>870.59997558594</ele>
        <time>2023-05-14T12:50:00.000Z</time>
      </trkpt>
      <trkpt lat="47.0168" lon="6.55077">
        <ele>872.20001220703</ele>
        <time>2023-05-14T12:50:04.000Z</time>
      </trkpt>
      <trkpt lat="47.01678" lon="6.55071">
        <ele>872.59997558594</ele>
        <time>2023-05-14T12:50:06.000Z</time>
      </trkpt>
      <trkpt lat="47.01675" lon="6.55064">
        <ele>873.20001220703</ele>
        <time>2023-05-14T12:50:08.000Z</time>
      </trkpt>
      <trkpt lat="47.01673" lon="6.55062">
        <ele>873.20001220703</ele>
        <time>2023-05-14T12:50:09.000Z</time>
      </trkpt>
      <trkpt lat="47.0167" lon="6.55061">
        <ele>873.59997558594</ele>
        <time>2023-05-14T12:50:10.000Z</time>
      </trkpt>
      <trkpt lat="47.01668" lon="6.55058">
        <ele>874.40002441406</ele>
        <time>2023-05-14T12:50:12.000Z</time>
      </trkpt>
      <trkpt lat="47.01665" lon="6.55054">
        <ele>875.40002441406</ele>
        <time>2023-05-14T12:50:15.000Z</time>
      </trkpt>
      <trkpt lat="47.01663" lon="6.55051">
        <ele>876.20001220703</ele>
        <time>2023-05-14T12:50:18.000Z</time>
      </trkpt>
      <trkpt lat="47.01663" lon="6.5505">
        <ele>876.40002441406</ele>
        <time>2023-05-14T12:50:19.000Z</time>
      </trkpt>
      <trkpt lat="47.01662" lon="6.55047">
        <ele>877.40002441406</ele>
        <time>2023-05-14T12:50:23.000Z</time>
      </trkpt>
      <trkpt lat="47.01661" lon="6.55046">
        <ele>877.79998779297</ele>
        <time>2023-05-14T12:50:24.000Z</time>
      </trkpt>
      <trkpt lat="47.01658" lon="6.55042">
        <ele>878.59997558594</ele>
        <time>2023-05-14T12:50:27.000Z</time>
      </trkpt>
      <trkpt lat="47.01656" lon="6.55039">
        <ele>879.20001220703</ele>
        <time>2023-05-14T12:50:29.000Z</time>
      </trkpt>
      <trkpt lat="47.01654" lon="6.55035">
        <ele>880</ele>
        <time>2023-05-14T12:50:31.000Z</time>
      </trkpt>
      <trkpt lat="47.01651" lon="6.55031">
        <ele>881</ele>
        <time>2023-05-14T12:50:34.000Z</time>
      </trkpt>
      <trkpt lat="47.01649" lon="6.55031">
        <ele>881.40002441406</ele>
        <time>2023-05-14T12:50:35.000Z</time>
      </trkpt>
      <trkpt lat="47.01642" lon="6.55024">
        <ele>882.20001220703</ele>
        <time>2023-05-14T12:50:38.000Z</time>
      </trkpt>
      <trkpt lat="47.01637" lon="6.55017">
        <ele>883</ele>
        <time>2023-05-14T12:50:41.000Z</time>
      </trkpt>
      <trkpt lat="47.01635" lon="6.55013">
        <ele>883.40002441406</ele>
        <time>2023-05-14T12:50:43.000Z</time>
      </trkpt>
      <trkpt lat="47.0163" lon="6.5501">
        <ele>884.20001220703</ele>
        <time>2023-05-14T12:50:46.000Z</time>
      </trkpt>
      <trkpt lat="47.01629" lon="6.55008">
        <ele>884.59997558594</ele>
        <time>2023-05-14T12:50:47.000Z</time>
      </trkpt>
      <trkpt lat="47.01627" lon="6.55003">
        <ele>884.59997558594</ele>
        <time>2023-05-14T12:50:48.000Z</time>
      </trkpt>
      <trkpt lat="47.01624" lon="6.54998">
        <ele>885.59997558594</ele>
        <time>2023-05-14T12:50:52.000Z</time>
      </trkpt>
      <trkpt lat="47.0162" lon="6.55">
        <ele>886.20001220703</ele>
        <time>2023-05-14T12:50:54.000Z</time>
      </trkpt>
      <trkpt lat="47.01618" lon="6.55">
        <ele>886.59997558594</ele>
        <time>2023-05-14T12:50:56.000Z</time>
      </trkpt>
      <trkpt lat="47.01614" lon="6.54996">
        <ele>887.20001220703</ele>
        <time>2023-05-14T12:50:59.000Z</time>
      </trkpt>
      <trkpt lat="47.01611" lon="6.54995">
        <ele>887.59997558594</ele>
        <time>2023-05-14T12:51:02.000Z</time>
      </trkpt>
      <trkpt lat="47.0161" lon="6.54993">
        <ele>888</ele>
        <time>2023-05-14T12:51:03.000Z</time>
      </trkpt>
      <trkpt lat="47.01606" lon="6.54991">
        <ele>888.20001220703</ele>
        <time>2023-05-14T12:51:05.000Z</time>
      </trkpt>
      <trkpt lat="47.01602" lon="6.5499">
        <ele>888.59997558594</ele>
        <time>2023-05-14T12:51:08.000Z</time>
      </trkpt>
      <trkpt lat="47.01599" lon="6.54992">
        <ele>889</ele>
        <time>2023-05-14T12:51:10.000Z</time>
      </trkpt>
      <trkpt lat="47.01589" lon="6.54986">
        <ele>889.79998779297</ele>
        <time>2023-05-14T12:51:16.000Z</time>
      </trkpt>
      <trkpt lat="47.01587" lon="6.54983">
        <ele>890</ele>
        <time>2023-05-14T12:51:17.000Z</time>
      </trkpt>
      <trkpt lat="47.01584" lon="6.54981">
        <ele>890.20001220703</ele>
        <time>2023-05-14T12:51:18.000Z</time>
      </trkpt>
      <trkpt lat="47.01579" lon="6.54979">
        <ele>890.40002441406</ele>
        <time>2023-05-14T12:51:20.000Z</time>
      </trkpt>
      <trkpt lat="47.0157" lon="6.54973">
        <ele>891</ele>
        <time>2023-05-14T12:51:24.000Z</time>
      </trkpt>
      <trkpt lat="47.01567" lon="6.54972">
        <ele>891.20001220703</ele>
        <time>2023-05-14T12:51:27.000Z</time>
      </trkpt>
      <trkpt lat="47.01564" lon="6.54969">
        <ele>892</ele>
        <time>2023-05-14T12:51:30.000Z</time>
      </trkpt>
      <trkpt lat="47.0156" lon="6.54964">
        <ele>892.59997558594</ele>
        <time>2023-05-14T12:51:34.000Z</time>
      </trkpt>
      <trkpt lat="47.01555" lon="6.5496">
        <ele>893.20001220703</ele>
        <time>2023-05-14T12:51:38.000Z</time>
      </trkpt>
      <trkpt lat="47.01546" lon="6.54955">
        <ele>894</ele>
        <time>2023-05-14T12:51:44.000Z</time>
      </trkpt>
      <trkpt lat="47.01545" lon="6.54954">
        <ele>894.20001220703</ele>
        <time>2023-05-14T12:51:45.000Z</time>
      </trkpt>
      <trkpt lat="47.01539" lon="6.5495">
        <ele>895.20001220703</ele>
        <time>2023-05-14T12:51:50.000Z</time>
      </trkpt>
      <trkpt lat="47.01538" lon="6.54949">
        <ele>895.40002441406</ele>
        <time>2023-05-14T12:51:51.000Z</time>
      </trkpt>
      <trkpt lat="47.01535" lon="6.54948">
        <ele>895.79998779297</ele>
        <time>2023-05-14T12:51:53.000Z</time>
      </trkpt>
      <trkpt lat="47.01532" lon="6.54944">
        <ele>896.40002441406</ele>
        <time>2023-05-14T12:51:56.000Z</time>
      </trkpt>
      <trkpt lat="47.01531" lon="6.54943">
        <ele>896.79998779297</ele>
        <time>2023-05-14T12:51:57.000Z</time>
      </trkpt>
      <trkpt lat="47.01527" lon="6.54936">
        <ele>897.40002441406</ele>
        <time>2023-05-14T12:52:01.000Z</time>
      </trkpt>
      <trkpt lat="47.01525" lon="6.54934">
        <ele>897.59997558594</ele>
        <time>2023-05-14T12:52:02.000Z</time>
      </trkpt>
      <trkpt lat="47.01524" lon="6.54933">
        <ele>897.79998779297</ele>
        <time>2023-05-14T12:52:03.000Z</time>
      </trkpt>
      <trkpt lat="47.0152" lon="6.5493">
        <ele>898.79998779297</ele>
        <time>2023-05-14T12:52:06.000Z</time>
      </trkpt>
      <trkpt lat="47.01515" lon="6.54927">
        <ele>899.20001220703</ele>
        <time>2023-05-14T12:52:10.000Z</time>
      </trkpt>
      <trkpt lat="47.01512" lon="6.54925">
        <ele>899.79998779297</ele>
        <time>2023-05-14T12:52:12.000Z</time>
      </trkpt>
      <trkpt lat="47.0151" lon="6.54923">
        <ele>900.20001220703</ele>
        <time>2023-05-14T12:52:13.000Z</time>
      </trkpt>
      <trkpt lat="47.01504" lon="6.54915">
        <ele>900.79998779297</ele>
        <time>2023-05-14T12:52:16.000Z</time>
      </trkpt>
      <trkpt lat="47.01502" lon="6.54913">
        <ele>901.20001220703</ele>
        <time>2023-05-14T12:52:17.000Z</time>
      </trkpt>
      <trkpt lat="47.01501" lon="6.54913">
        <ele>901.40002441406</ele>
        <time>2023-05-14T12:52:18.000Z</time>
      </trkpt>
      <trkpt lat="47.01497" lon="6.54909">
        <ele>902.20001220703</ele>
        <time>2023-05-14T12:52:21.000Z</time>
      </trkpt>
      <trkpt lat="47.01495" lon="6.54908">
        <ele>902.79998779297</ele>
        <time>2023-05-14T12:52:23.000Z</time>
      </trkpt>
      <trkpt lat="47.01488" lon="6.54903">
        <ele>903.20001220703</ele>
        <time>2023-05-14T12:52:28.000Z</time>
      </trkpt>
      <trkpt lat="47.01481" lon="6.54895">
        <ele>904.20001220703</ele>
        <time>2023-05-14T12:52:33.000Z</time>
      </trkpt>
      <trkpt lat="47.01478" lon="6.54894">
        <ele>904.79998779297</ele>
        <time>2023-05-14T12:52:35.000Z</time>
      </trkpt>
      <trkpt lat="47.01477" lon="6.54893">
        <ele>904.79998779297</ele>
        <time>2023-05-14T12:52:36.000Z</time>
      </trkpt>
      <trkpt lat="47.01474" lon="6.54889">
        <ele>905.20001220703</ele>
        <time>2023-05-14T12:52:38.000Z</time>
      </trkpt>
      <trkpt lat="47.0147" lon="6.54885">
        <ele>906</ele>
        <time>2023-05-14T12:52:41.000Z</time>
      </trkpt>
      <trkpt lat="47.0147" lon="6.54883">
        <ele>906.20001220703</ele>
        <time>2023-05-14T12:52:42.000Z</time>
      </trkpt>
      <trkpt lat="47.0147" lon="6.5488">
        <ele>906.20001220703</ele>
        <time>2023-05-14T12:52:44.000Z</time>
      </trkpt>
      <trkpt lat="47.01467" lon="6.54876">
        <ele>906.59997558594</ele>
        <time>2023-05-14T12:52:46.000Z</time>
      </trkpt>
      <trkpt lat="47.01463" lon="6.54869">
        <ele>907.40002441406</ele>
        <time>2023-05-14T12:52:49.000Z</time>
      </trkpt>
      <trkpt lat="47.01455" lon="6.54861">
        <ele>908.59997558594</ele>
        <time>2023-05-14T12:52:54.000Z</time>
      </trkpt>
      <trkpt lat="47.01447" lon="6.54854">
        <ele>909.79998779297</ele>
        <time>2023-05-14T12:53:00.000Z</time>
      </trkpt>
      <trkpt lat="47.01443" lon="6.54851">
        <ele>910.40002441406</ele>
        <time>2023-05-14T12:53:02.000Z</time>
      </trkpt>
      <trkpt lat="47.01441" lon="6.54849">
        <ele>910.79998779297</ele>
        <time>2023-05-14T12:53:04.000Z</time>
      </trkpt>
      <trkpt lat="47.01437" lon="6.54847">
        <ele>911.59997558594</ele>
        <time>2023-05-14T12:53:09.000Z</time>
      </trkpt>
      <trkpt lat="47.01435" lon="6.54845">
        <ele>911.79998779297</ele>
        <time>2023-05-14T12:53:11.000Z</time>
      </trkpt>
      <trkpt lat="47.01433" lon="6.54841">
        <ele>912.40002441406</ele>
        <time>2023-05-14T12:53:14.000Z</time>
      </trkpt>
      <trkpt lat="47.01431" lon="6.5484">
        <ele>912.59997558594</ele>
        <time>2023-05-14T12:53:15.000Z</time>
      </trkpt>
      <trkpt lat="47.01428" lon="6.54839">
        <ele>913</ele>
        <time>2023-05-14T12:53:17.000Z</time>
      </trkpt>
      <trkpt lat="47.01425" lon="6.54836">
        <ele>913.59997558594</ele>
        <time>2023-05-14T12:53:19.000Z</time>
      </trkpt>
      <trkpt lat="47.01424" lon="6.54834">
        <ele>913.79998779297</ele>
        <time>2023-05-14T12:53:20.000Z</time>
      </trkpt>
      <trkpt lat="47.01419" lon="6.54829">
        <ele>914.40002441406</ele>
        <time>2023-05-14T12:53:24.000Z</time>
      </trkpt>
      <trkpt lat="47.01416" lon="6.54825">
        <ele>914.79998779297</ele>
        <time>2023-05-14T12:53:26.000Z</time>
      </trkpt>
      <trkpt lat="47.01414" lon="6.5482">
        <ele>915.20001220703</ele>
        <time>2023-05-14T12:53:29.000Z</time>
      </trkpt>
      <trkpt lat="47.01411" lon="6.54814">
        <ele>915.79998779297</ele>
        <time>2023-05-14T12:53:31.000Z</time>
      </trkpt>
      <trkpt lat="47.01409" lon="6.54811">
        <ele>915.79998779297</ele>
        <time>2023-05-14T12:53:32.000Z</time>
      </trkpt>
      <trkpt lat="47.01403" lon="6.54803">
        <ele>916.40002441406</ele>
        <time>2023-05-14T12:53:37.000Z</time>
      </trkpt>
      <trkpt lat="47.01401" lon="6.54798">
        <ele>916.79998779297</ele>
        <time>2023-05-14T12:53:39.000Z</time>
      </trkpt>
      <trkpt lat="47.01396" lon="6.54792">
        <ele>917.59997558594</ele>
        <time>2023-05-14T12:53:43.000Z</time>
      </trkpt>
      <trkpt lat="47.01395" lon="6.54788">
        <ele>917.79998779297</ele>
        <time>2023-05-14T12:53:45.000Z</time>
      </trkpt>
      <trkpt lat="47.01394" lon="6.54782">
        <ele>918.79998779297</ele>
        <time>2023-05-14T12:53:50.000Z</time>
      </trkpt>
      <trkpt lat="47.01394" lon="6.5478">
        <ele>919</ele>
        <time>2023-05-14T12:53:51.000Z</time>
      </trkpt>
      <trkpt lat="47.01392" lon="6.54778">
        <ele>919.20001220703</ele>
        <time>2023-05-14T12:53:53.000Z</time>
      </trkpt>
      <trkpt lat="47.01391" lon="6.54775">
        <ele>919.40002441406</ele>
        <time>2023-05-14T12:53:55.000Z</time>
      </trkpt>
      <trkpt lat="47.0139" lon="6.54773">
        <ele>919.59997558594</ele>
        <time>2023-05-14T12:53:56.000Z</time>
      </trkpt>
      <trkpt lat="47.01388" lon="6.5477">
        <ele>920</ele>
        <time>2023-05-14T12:53:58.000Z</time>
      </trkpt>
      <trkpt lat="47.01384" lon="6.54763">
        <ele>920.59997558594</ele>
        <time>2023-05-14T12:54:01.000Z</time>
      </trkpt>
      <trkpt lat="47.01381" lon="6.54754">
        <ele>921.20001220703</ele>
        <time>2023-05-14T12:54:05.000Z</time>
      </trkpt>
      <trkpt lat="47.01376" lon="6.54747">
        <ele>921.59997558594</ele>
        <time>2023-05-14T12:54:08.000Z</time>
      </trkpt>
      <trkpt lat="47.01369" lon="6.54737">
        <ele>922</ele>
        <time>2023-05-14T12:54:12.000Z</time>
      </trkpt>
      <trkpt lat="47.01367" lon="6.54732">
        <ele>922.20001220703</ele>
        <time>2023-05-14T12:54:15.000Z</time>
      </trkpt>
      <trkpt lat="47.01366" lon="6.5473">
        <ele>922.20001220703</ele>
        <time>2023-05-14T12:54:16.000Z</time>
      </trkpt>
      <trkpt lat="47.01354" lon="6.54716">
        <ele>922.79998779297</ele>
        <time>2023-05-14T12:54:22.000Z</time>
      </trkpt>
      <trkpt lat="47.01352" lon="6.54714">
        <ele>923.20001220703</ele>
        <time>2023-05-14T12:54:23.000Z</time>
      </trkpt>
      <trkpt lat="47.0135" lon="6.54711">
        <ele>923.40002441406</ele>
        <time>2023-05-14T12:54:25.000Z</time>
      </trkpt>
      <trkpt lat="47.01349" lon="6.54708">
        <ele>923.59997558594</ele>
        <time>2023-05-14T12:54:26.000Z</time>
      </trkpt>
      <trkpt lat="47.01348" lon="6.54706">
        <ele>924.20001220703</ele>
        <time>2023-05-14T12:54:28.000Z</time>
      </trkpt>
      <trkpt lat="47.01346" lon="6.54706">
        <ele>924.40002441406</ele>
        <time>2023-05-14T12:54:30.000Z</time>
      </trkpt>
      <trkpt lat="47.01345" lon="6.54704">
        <ele>925</ele>
        <time>2023-05-14T12:54:31.000Z</time>
      </trkpt>
      <trkpt lat="47.01344" lon="6.54703">
        <ele>925.20001220703</ele>
        <time>2023-05-14T12:54:32.000Z</time>
      </trkpt>
      <trkpt lat="47.0134" lon="6.54698">
        <ele>926.20001220703</ele>
        <time>2023-05-14T12:54:37.000Z</time>
      </trkpt>
      <trkpt lat="47.01337" lon="6.54693">
        <ele>926.79998779297</ele>
        <time>2023-05-14T12:54:40.000Z</time>
      </trkpt>
      <trkpt lat="47.01335" lon="6.5469">
        <ele>927</ele>
        <time>2023-05-14T12:54:42.000Z</time>
      </trkpt>
      <trkpt lat="47.01334" lon="6.54688">
        <ele>927.20001220703</ele>
        <time>2023-05-14T12:54:43.000Z</time>
      </trkpt>
      <trkpt lat="47.01334" lon="6.54686">
        <ele>927.40002441406</ele>
        <time>2023-05-14T12:54:44.000Z</time>
      </trkpt>
      <trkpt lat="47.01334" lon="6.54685">
        <ele>927.59997558594</ele>
        <time>2023-05-14T12:54:45.000Z</time>
      </trkpt>
      <trkpt lat="47.01334" lon="6.54679">
        <ele>928.20001220703</ele>
        <time>2023-05-14T12:54:48.000Z</time>
      </trkpt>
      <trkpt lat="47.01334" lon="6.54674">
        <ele>928.59997558594</ele>
        <time>2023-05-14T12:54:50.000Z</time>
      </trkpt>
      <trkpt lat="47.01336" lon="6.54669">
        <ele>929.20001220703</ele>
        <time>2023-05-14T12:54:52.000Z</time>
      </trkpt>
      <trkpt lat="47.01336" lon="6.54656">
        <ele>930.40002441406</ele>
        <time>2023-05-14T12:54:57.000Z</time>
      </trkpt>
      <trkpt lat="47.01335" lon="6.54653">
        <ele>930.59997558594</ele>
        <time>2023-05-14T12:54:59.000Z</time>
      </trkpt>
      <trkpt lat="47.01335" lon="6.54652">
        <ele>930.79998779297</ele>
        <time>2023-05-14T12:55:01.000Z</time>
      </trkpt>
      <trkpt lat="47.01335" lon="6.54652">
        <ele>931</ele>
        <time>2023-05-14T12:55:02.000Z</time>
      </trkpt>
      <trkpt lat="47.01304" lon="6.54609">
        <ele>933.40002441406</ele>
        <time>2023-05-14T12:56:12.000Z</time>
      </trkpt>
      <trkpt lat="47.01303" lon="6.54606">
        <ele>933.40002441406</ele>
        <time>2023-05-14T12:56:13.000Z</time>
      </trkpt>
      <trkpt lat="47.01301" lon="6.54603">
        <ele>933.20001220703</ele>
        <time>2023-05-14T12:56:14.000Z</time>
      </trkpt>
      <trkpt lat="47.013" lon="6.54599">
        <ele>932.79998779297</ele>
        <time>2023-05-14T12:56:17.000Z</time>
      </trkpt>
      <trkpt lat="47.01298" lon="6.54597">
        <ele>932.40002441406</ele>
        <time>2023-05-14T12:56:19.000Z</time>
      </trkpt>
      <trkpt lat="47.01298" lon="6.54597">
        <ele>932.40002441406</ele>
        <time>2023-05-14T12:56:21.000Z</time>
      </trkpt>
      <trkpt lat="47.01262" lon="6.54518">
        <ele>934.20001220703</ele>
        <time>2023-05-14T12:56:53.000Z</time>
      </trkpt>
      <trkpt lat="47.01261" lon="6.54508">
        <ele>934.20001220703</ele>
        <time>2023-05-14T12:56:54.000Z</time>
      </trkpt>
      <trkpt lat="47.01261" lon="6.54502">
        <ele>935.59997558594</ele>
        <time>2023-05-14T12:56:57.000Z</time>
      </trkpt>
      <trkpt lat="47.01262" lon="6.545">
        <ele>935.79998779297</ele>
        <time>2023-05-14T12:56:58.000Z</time>
      </trkpt>
      <trkpt lat="47.01262" lon="6.545">
        <ele>936.59997558594</ele>
        <time>2023-05-14T12:57:00.000Z</time>
      </trkpt>
      <trkpt lat="47.01257" lon="6.54483">
        <ele>937.59997558594</ele>
        <time>2023-05-14T12:57:05.000Z</time>
      </trkpt>
      <trkpt lat="47.01254" lon="6.54474">
        <ele>938.40002441406</ele>
        <time>2023-05-14T12:57:10.000Z</time>
      </trkpt>
      <trkpt lat="47.01253" lon="6.54471">
        <ele>938.79998779297</ele>
        <time>2023-05-14T12:57:11.000Z</time>
      </trkpt>
      <trkpt lat="47.01252" lon="6.54467">
        <ele>939.79998779297</ele>
        <time>2023-05-14T12:57:14.000Z</time>
      </trkpt>
      <trkpt lat="47.0125" lon="6.54463">
        <ele>939.79998779297</ele>
        <time>2023-05-14T12:57:15.000Z</time>
      </trkpt>
      <trkpt lat="47.01249" lon="6.5446">
        <ele>940.20001220703</ele>
        <time>2023-05-14T12:57:16.000Z</time>
      </trkpt>
      <trkpt lat="47.01247" lon="6.54455">
        <ele>941</ele>
        <time>2023-05-14T12:57:20.000Z</time>
      </trkpt>
      <trkpt lat="47.01244" lon="6.54448">
        <ele>941.79998779297</ele>
        <time>2023-05-14T12:57:23.000Z</time>
      </trkpt>
      <trkpt lat="47.0124" lon="6.54442">
        <ele>942.20001220703</ele>
        <time>2023-05-14T12:57:25.000Z</time>
      </trkpt>
      <trkpt lat="47.01239" lon="6.5444">
        <ele>942.59997558594</ele>
        <time>2023-05-14T12:57:27.000Z</time>
      </trkpt>
      <trkpt lat="47.01236" lon="6.54435">
        <ele>942.79998779297</ele>
        <time>2023-05-14T12:57:29.000Z</time>
      </trkpt>
      <trkpt lat="47.01234" lon="6.54432">
        <ele>943.20001220703</ele>
        <time>2023-05-14T12:57:30.000Z</time>
      </trkpt>
      <trkpt lat="47.0123" lon="6.54426">
        <ele>943.79998779297</ele>
        <time>2023-05-14T12:57:33.000Z</time>
      </trkpt>
      <trkpt lat="47.01228" lon="6.54421">
        <ele>944.40002441406</ele>
        <time>2023-05-14T12:57:35.000Z</time>
      </trkpt>
      <trkpt lat="47.01228" lon="6.54418">
        <ele>944.40002441406</ele>
        <time>2023-05-14T12:57:36.000Z</time>
      </trkpt>
      <trkpt lat="47.01224" lon="6.54411">
        <ele>945</ele>
        <time>2023-05-14T12:57:40.000Z</time>
      </trkpt>
      <trkpt lat="47.01224" lon="6.54412">
        <ele>945.20001220703</ele>
        <time>2023-05-14T12:57:42.000Z</time>
      </trkpt>
      <trkpt lat="47.01223" lon="6.5441">
        <ele>945.40002441406</ele>
        <time>2023-05-14T12:57:44.000Z</time>
      </trkpt>
      <trkpt lat="47.0122" lon="6.54407">
        <ele>946</ele>
        <time>2023-05-14T12:57:50.000Z</time>
      </trkpt>
      <trkpt lat="47.01217" lon="6.54403">
        <ele>946.40002441406</ele>
        <time>2023-05-14T12:57:53.000Z</time>
      </trkpt>
      <trkpt lat="47.01213" lon="6.54395">
        <ele>947.40002441406</ele>
        <time>2023-05-14T12:57:58.000Z</time>
      </trkpt>
      <trkpt lat="47.01213" lon="6.54393">
        <ele>947.59997558594</ele>
        <time>2023-05-14T12:57:59.000Z</time>
      </trkpt>
      <trkpt lat="47.01206" lon="6.5438">
        <ele>948.59997558594</ele>
        <time>2023-05-14T12:58:05.000Z</time>
      </trkpt>
      <trkpt lat="47.01205" lon="6.54378">
        <ele>949</ele>
        <time>2023-05-14T12:58:06.000Z</time>
      </trkpt>
      <trkpt lat="47.012" lon="6.54371">
        <ele>950.20001220703</ele>
        <time>2023-05-14T12:58:09.000Z</time>
      </trkpt>
      <trkpt lat="47.01198" lon="6.54369">
        <ele>950.40002441406</ele>
        <time>2023-05-14T12:58:10.000Z</time>
      </trkpt>
      <trkpt lat="47.01196" lon="6.54368">
        <ele>951</ele>
        <time>2023-05-14T12:58:11.000Z</time>
      </trkpt>
      <trkpt lat="47.01194" lon="6.54366">
        <ele>951.40002441406</ele>
        <time>2023-05-14T12:58:12.000Z</time>
      </trkpt>
      <trkpt lat="47.01192" lon="6.54364">
        <ele>951.79998779297</ele>
        <time>2023-05-14T12:58:14.000Z</time>
      </trkpt>
      <trkpt lat="47.01191" lon="6.54363">
        <ele>952</ele>
        <time>2023-05-14T12:58:15.000Z</time>
      </trkpt>
      <trkpt lat="47.01181" lon="6.54352">
        <ele>952.20001220703</ele>
        <time>2023-05-14T12:58:20.000Z</time>
      </trkpt>
      <trkpt lat="47.0118" lon="6.5435">
        <ele>952.20001220703</ele>
        <time>2023-05-14T12:58:21.000Z</time>
      </trkpt>
      <trkpt lat="47.01176" lon="6.5434">
        <ele>952.20001220703</ele>
        <time>2023-05-14T12:58:24.000Z</time>
      </trkpt>
      <trkpt lat="47.01175" lon="6.54337">
        <ele>952.59997558594</ele>
        <time>2023-05-14T12:58:25.000Z</time>
      </trkpt>
      <trkpt lat="47.0117" lon="6.54323">
        <ele>952.79998779297</ele>
        <time>2023-05-14T12:58:31.000Z</time>
      </trkpt>
      <trkpt lat="47.01169" lon="6.54321">
        <ele>952.79998779297</ele>
        <time>2023-05-14T12:58:32.000Z</time>
      </trkpt>
      <trkpt lat="47.0116" lon="6.543">
        <ele>953.40002441406</ele>
        <time>2023-05-14T12:58:39.000Z</time>
      </trkpt>
      <trkpt lat="47.01157" lon="6.54294">
        <ele>953.40002441406</ele>
        <time>2023-05-14T12:58:41.000Z</time>
      </trkpt>
      <trkpt lat="47.01153" lon="6.54282">
        <ele>953.40002441406</ele>
        <time>2023-05-14T12:58:44.000Z</time>
      </trkpt>
      <trkpt lat="47.01143" lon="6.54261">
        <ele>954.20001220703</ele>
        <time>2023-05-14T12:58:51.000Z</time>
      </trkpt>
      <trkpt lat="47.01143" lon="6.5426">
        <ele>954.20001220703</ele>
        <time>2023-05-14T12:58:52.000Z</time>
      </trkpt>
      <trkpt lat="47.01136" lon="6.54248">
        <ele>954.59997558594</ele>
        <time>2023-05-14T12:58:57.000Z</time>
      </trkpt>
      <trkpt lat="47.01128" lon="6.54227">
        <ele>954.59997558594</ele>
        <time>2023-05-14T12:59:04.000Z</time>
      </trkpt>
      <trkpt lat="47.01119" lon="6.54211">
        <ele>954.59997558594</ele>
        <time>2023-05-14T12:59:10.000Z</time>
      </trkpt>
      <trkpt lat="47.01116" lon="6.54204">
        <ele>954.59997558594</ele>
        <time>2023-05-14T12:59:12.000Z</time>
      </trkpt>
      <trkpt lat="47.01103" lon="6.5418">
        <ele>954.59997558594</ele>
        <time>2023-05-14T12:59:19.000Z</time>
      </trkpt>
      <trkpt lat="47.01091" lon="6.54157">
        <ele>954.20001220703</ele>
        <time>2023-05-14T12:59:25.000Z</time>
      </trkpt>
      <trkpt lat="47.01086" lon="6.54147">
        <ele>954.20001220703</ele>
        <time>2023-05-14T12:59:28.000Z</time>
      </trkpt>
      <trkpt lat="47.01067" lon="6.54114">
        <ele>954</ele>
        <time>2023-05-14T12:59:37.000Z</time>
      </trkpt>
      <trkpt lat="47.01038" lon="6.54081">
        <ele>954</ele>
        <time>2023-05-14T12:59:48.000Z</time>
      </trkpt>
      <trkpt lat="47.01004" lon="6.54049">
        <ele>954</ele>
        <time>2023-05-14T12:59:59.000Z</time>
      </trkpt>
      <trkpt lat="47.0098" lon="6.54019">
        <ele>954.40002441406</ele>
        <time>2023-05-14T13:00:08.000Z</time>
      </trkpt>
      <trkpt lat="47.00966" lon="6.53994">
        <ele>954.40002441406</ele>
        <time>2023-05-14T13:00:14.000Z</time>
      </trkpt>
      <trkpt lat="47.00959" lon="6.53982">
        <ele>954.20001220703</ele>
        <time>2023-05-14T13:00:17.000Z</time>
      </trkpt>
      <trkpt lat="47.00936" lon="6.5394">
        <ele>954.20001220703</ele>
        <time>2023-05-14T13:00:27.000Z</time>
      </trkpt>
      <trkpt lat="47.00914" lon="6.539">
        <ele>954</ele>
        <time>2023-05-14T13:00:37.000Z</time>
      </trkpt>
      <trkpt lat="47.00893" lon="6.53871">
        <ele>953.79998779297</ele>
        <time>2023-05-14T13:00:45.000Z</time>
      </trkpt>
      <trkpt lat="47.00873" lon="6.53858">
        <ele>953.59997558594</ele>
        <time>2023-05-14T13:00:51.000Z</time>
      </trkpt>
      <trkpt lat="47.00853" lon="6.53854">
        <ele>953.59997558594</ele>
        <time>2023-05-14T13:00:57.000Z</time>
      </trkpt>
      <trkpt lat="47.0085" lon="6.53854">
        <ele>953.40002441406</ele>
        <time>2023-05-14T13:00:58.000Z</time>
      </trkpt>
      <trkpt lat="47.00822" lon="6.53846">
        <ele>953.40002441406</ele>
        <time>2023-05-14T13:01:06.000Z</time>
      </trkpt>
      <trkpt lat="47.00798" lon="6.53828">
        <ele>953.79998779297</ele>
        <time>2023-05-14T13:01:14.000Z</time>
      </trkpt>
      <trkpt lat="47.0078" lon="6.5381">
        <ele>954</ele>
        <time>2023-05-14T13:01:20.000Z</time>
      </trkpt>
      <trkpt lat="47.00763" lon="6.53797">
        <ele>954.59997558594</ele>
        <time>2023-05-14T13:01:25.000Z</time>
      </trkpt>
      <trkpt lat="47.0076" lon="6.53795">
        <ele>954.59997558594</ele>
        <time>2023-05-14T13:01:26.000Z</time>
      </trkpt>
      <trkpt lat="47.00735" lon="6.53784">
        <ele>955</ele>
        <time>2023-05-14T13:01:34.000Z</time>
      </trkpt>
      <trkpt lat="47.00725" lon="6.53781">
        <ele>955.79998779297</ele>
        <time>2023-05-14T13:01:37.000Z</time>
      </trkpt>
      <trkpt lat="47.00715" lon="6.53775">
        <ele>956.79998779297</ele>
        <time>2023-05-14T13:01:41.000Z</time>
      </trkpt>
      <trkpt lat="47.00707" lon="6.53769">
        <ele>958</ele>
        <time>2023-05-14T13:01:44.000Z</time>
      </trkpt>
      <trkpt lat="47.00697" lon="6.53759">
        <ele>959.59997558594</ele>
        <time>2023-05-14T13:01:48.000Z</time>
      </trkpt>
      <trkpt lat="47.00692" lon="6.53756">
        <ele>960.20001220703</ele>
        <time>2023-05-14T13:01:50.000Z</time>
      </trkpt>
      <trkpt lat="47.00687" lon="6.53754">
        <ele>960.59997558594</ele>
        <time>2023-05-14T13:01:52.000Z</time>
      </trkpt>
      <trkpt lat="47.00674" lon="6.5375">
        <ele>961.59997558594</ele>
        <time>2023-05-14T13:01:57.000Z</time>
      </trkpt>
      <trkpt lat="47.00672" lon="6.53749">
        <ele>961.79998779297</ele>
        <time>2023-05-14T13:01:58.000Z</time>
      </trkpt>
      <trkpt lat="47.00663" lon="6.53741">
        <ele>962.59997558594</ele>
        <time>2023-05-14T13:02:02.000Z</time>
      </trkpt>
      <trkpt lat="47.00655" lon="6.53732">
        <ele>963.20001220703</ele>
        <time>2023-05-14T13:02:06.000Z</time>
      </trkpt>
      <trkpt lat="47.00649" lon="6.53724">
        <ele>963.59997558594</ele>
        <time>2023-05-14T13:02:10.000Z</time>
      </trkpt>
      <trkpt lat="47.00643" lon="6.53715">
        <ele>964.40002441406</ele>
        <time>2023-05-14T13:02:14.000Z</time>
      </trkpt>
      <trkpt lat="47.00635" lon="6.53704">
        <ele>964.79998779297</ele>
        <time>2023-05-14T13:02:19.000Z</time>
      </trkpt>
      <trkpt lat="47.00632" lon="6.53699">
        <ele>964.79998779297</ele>
        <time>2023-05-14T13:02:21.000Z</time>
      </trkpt>
      <trkpt lat="47.00622" lon="6.53686">
        <ele>965.20001220703</ele>
        <time>2023-05-14T13:02:27.000Z</time>
      </trkpt>
      <trkpt lat="47.0062" lon="6.53685">
        <ele>965.40002441406</ele>
        <time>2023-05-14T13:02:28.000Z</time>
      </trkpt>
      <trkpt lat="47.00612" lon="6.53673">
        <ele>965.79998779297</ele>
        <time>2023-05-14T13:02:33.000Z</time>
      </trkpt>
      <trkpt lat="47.00608" lon="6.53666">
        <ele>966.20001220703</ele>
        <time>2023-05-14T13:02:37.000Z</time>
      </trkpt>
      <trkpt lat="47.00602" lon="6.53657">
        <ele>967</ele>
        <time>2023-05-14T13:02:42.000Z</time>
      </trkpt>
      <trkpt lat="47.00601" lon="6.53654">
        <ele>967.20001220703</ele>
        <time>2023-05-14T13:02:44.000Z</time>
      </trkpt>
      <trkpt lat="47.00596" lon="6.53644">
        <ele>967.59997558594</ele>
        <time>2023-05-14T13:02:49.000Z</time>
      </trkpt>
      <trkpt lat="47.00588" lon="6.53634">
        <ele>968</ele>
        <time>2023-05-14T13:02:54.000Z</time>
      </trkpt>
      <trkpt lat="47.00586" lon="6.53631">
        <ele>968.20001220703</ele>
        <time>2023-05-14T13:02:56.000Z</time>
      </trkpt>
      <trkpt lat="47.00585" lon="6.53627">
        <ele>968.20001220703</ele>
        <time>2023-05-14T13:02:58.000Z</time>
      </trkpt>
      <trkpt lat="47.00579" lon="6.53621">
        <ele>968.20001220703</ele>
        <time>2023-05-14T13:03:01.000Z</time>
      </trkpt>
      <trkpt lat="47.00575" lon="6.53614">
        <ele>968.40002441406</ele>
        <time>2023-05-14T13:03:03.000Z</time>
      </trkpt>
      <trkpt lat="47.00571" lon="6.53602">
        <ele>968.59997558594</ele>
        <time>2023-05-14T13:03:07.000Z</time>
      </trkpt>
      <trkpt lat="47.00565" lon="6.53591">
        <ele>968.79998779297</ele>
        <time>2023-05-14T13:03:10.000Z</time>
      </trkpt>
      <trkpt lat="47.00561" lon="6.53586">
        <ele>969</ele>
        <time>2023-05-14T13:03:12.000Z</time>
      </trkpt>
      <trkpt lat="47.00557" lon="6.53575">
        <ele>969</ele>
        <time>2023-05-14T13:03:14.000Z</time>
      </trkpt>
      <trkpt lat="47.00547" lon="6.53537">
        <ele>970</ele>
        <time>2023-05-14T13:03:23.000Z</time>
      </trkpt>
      <trkpt lat="47.00547" lon="6.53535">
        <ele>970</ele>
        <time>2023-05-14T13:03:24.000Z</time>
      </trkpt>
      <trkpt lat="47.00546" lon="6.53519">
        <ele>971</ele>
        <time>2023-05-14T13:03:30.000Z</time>
      </trkpt>
      <trkpt lat="47.00545" lon="6.53516">
        <ele>971</ele>
        <time>2023-05-14T13:03:31.000Z</time>
      </trkpt>
      <trkpt lat="47.00543" lon="6.53511">
        <ele>971.40002441406</ele>
        <time>2023-05-14T13:03:33.000Z</time>
      </trkpt>
      <trkpt lat="47.0054" lon="6.53503">
        <ele>972</ele>
        <time>2023-05-14T13:03:36.000Z</time>
      </trkpt>
      <trkpt lat="47.00538" lon="6.53501">
        <ele>972.40002441406</ele>
        <time>2023-05-14T13:03:37.000Z</time>
      </trkpt>
      <trkpt lat="47.00537" lon="6.535">
        <ele>972.40002441406</ele>
        <time>2023-05-14T13:03:38.000Z</time>
      </trkpt>
      <trkpt lat="47.00535" lon="6.53492">
        <ele>973</ele>
        <time>2023-05-14T13:03:42.000Z</time>
      </trkpt>
      <trkpt lat="47.00531" lon="6.53484">
        <ele>973.40002441406</ele>
        <time>2023-05-14T13:03:45.000Z</time>
      </trkpt>
      <trkpt lat="47.0053" lon="6.53474">
        <ele>973.59997558594</ele>
        <time>2023-05-14T13:03:47.000Z</time>
      </trkpt>
      <trkpt lat="47.00526" lon="6.53464">
        <ele>974</ele>
        <time>2023-05-14T13:03:50.000Z</time>
      </trkpt>
      <trkpt lat="47.00524" lon="6.53459">
        <ele>974</ele>
        <time>2023-05-14T13:03:52.000Z</time>
      </trkpt>
      <trkpt lat="47.00519" lon="6.53447">
        <ele>974.20001220703</ele>
        <time>2023-05-14T13:03:56.000Z</time>
      </trkpt>
      <trkpt lat="47.00519" lon="6.53445">
        <ele>974.20001220703</ele>
        <time>2023-05-14T13:03:57.000Z</time>
      </trkpt>
      <trkpt lat="47.00518" lon="6.53443">
        <ele>974.20001220703</ele>
        <time>2023-05-14T13:03:58.000Z</time>
      </trkpt>
      <trkpt lat="47.00514" lon="6.53435">
        <ele>974.20001220703</ele>
        <time>2023-05-14T13:04:01.000Z</time>
      </trkpt>
      <trkpt lat="47.00514" lon="6.53431">
        <ele>974.20001220703</ele>
        <time>2023-05-14T13:04:02.000Z</time>
      </trkpt>
      <trkpt lat="47.00513" lon="6.53425">
        <ele>974.20001220703</ele>
        <time>2023-05-14T13:04:04.000Z</time>
      </trkpt>
      <trkpt lat="47.00504" lon="6.53405">
        <ele>974.59997558594</ele>
        <time>2023-05-14T13:04:08.000Z</time>
      </trkpt>
      <trkpt lat="47.00501" lon="6.53393">
        <ele>974.40002441406</ele>
        <time>2023-05-14T13:04:12.000Z</time>
      </trkpt>
      <trkpt lat="47.005" lon="6.53385">
        <ele>974.59997558594</ele>
        <time>2023-05-14T13:04:14.000Z</time>
      </trkpt>
      <trkpt lat="47.00497" lon="6.53377">
        <ele>974.59997558594</ele>
        <time>2023-05-14T13:04:17.000Z</time>
      </trkpt>
      <trkpt lat="47.00496" lon="6.53371">
        <ele>974.79998779297</ele>
        <time>2023-05-14T13:04:19.000Z</time>
      </trkpt>
      <trkpt lat="47.00488" lon="6.53346">
        <ele>975</ele>
        <time>2023-05-14T13:04:24.000Z</time>
      </trkpt>
      <trkpt lat="47.00486" lon="6.53344">
        <ele>975</ele>
        <time>2023-05-14T13:04:25.000Z</time>
      </trkpt>
      <trkpt lat="47.00481" lon="6.53326">
        <ele>975</ele>
        <time>2023-05-14T13:04:30.000Z</time>
      </trkpt>
      <trkpt lat="47.0048" lon="6.53322">
        <ele>975</ele>
        <time>2023-05-14T13:04:31.000Z</time>
      </trkpt>
      <trkpt lat="47.00468" lon="6.53294">
        <ele>974.20001220703</ele>
        <time>2023-05-14T13:04:36.000Z</time>
      </trkpt>
      <trkpt lat="47.00466" lon="6.53282">
        <ele>974</ele>
        <time>2023-05-14T13:04:38.000Z</time>
      </trkpt>
      <trkpt lat="47.00459" lon="6.53259">
        <ele>973.20001220703</ele>
        <time>2023-05-14T13:04:41.000Z</time>
      </trkpt>
      <trkpt lat="47.00458" lon="6.53254">
        <ele>973</ele>
        <time>2023-05-14T13:04:42.000Z</time>
      </trkpt>
      <trkpt lat="47.00455" lon="6.5324">
        <ele>972.20001220703</ele>
        <time>2023-05-14T13:04:46.000Z</time>
      </trkpt>
      <trkpt lat="47.00455" lon="6.5324">
        <ele>971.79998779297</ele>
        <time>2023-05-14T13:04:47.000Z</time>
      </trkpt>
      <trkpt lat="47.00456" lon="6.53238">
        <ele>971.59997558594</ele>
        <time>2023-05-14T13:04:48.000Z</time>
      </trkpt>
      <trkpt lat="47.00449" lon="6.53235">
        <ele>971.20001220703</ele>
        <time>2023-05-14T13:04:51.000Z</time>
      </trkpt>
      <trkpt lat="47.00447" lon="6.53233">
        <ele>971.20001220703</ele>
        <time>2023-05-14T13:04:52.000Z</time>
      </trkpt>
      <trkpt lat="47.00434" lon="6.53219">
        <ele>970.79998779297</ele>
        <time>2023-05-14T13:04:58.000Z</time>
      </trkpt>
      <trkpt lat="47.00419" lon="6.53209">
        <ele>971</ele>
        <time>2023-05-14T13:05:04.000Z</time>
      </trkpt>
      <trkpt lat="47.00399" lon="6.53193">
        <ele>972</ele>
        <time>2023-05-14T13:05:13.000Z</time>
      </trkpt>
      <trkpt lat="47.00371" lon="6.53165">
        <ele>972.79998779297</ele>
        <time>2023-05-14T13:05:24.000Z</time>
      </trkpt>
      <trkpt lat="47.00363" lon="6.53157">
        <ele>972.79998779297</ele>
        <time>2023-05-14T13:05:30.000Z</time>
      </trkpt>
      <trkpt lat="47.00361" lon="6.53154">
        <ele>972.79998779297</ele>
        <time>2023-05-14T13:05:31.000Z</time>
      </trkpt>
      <trkpt lat="47.00357" lon="6.53148">
        <ele>972.40002441406</ele>
        <time>2023-05-14T13:05:34.000Z</time>
      </trkpt>
      <trkpt lat="47.00351" lon="6.53139">
        <ele>971.79998779297</ele>
        <time>2023-05-14T13:05:42.000Z</time>
      </trkpt>
      <trkpt lat="47.00351" lon="6.53142">
        <ele>972.59997558594</ele>
        <time>2023-05-14T13:11:13.000Z</time>
      </trkpt>
      <trkpt lat="47.00349" lon="6.5314">
        <ele>972.59997558594</ele>
        <time>2023-05-14T13:11:14.000Z</time>
      </trkpt>
      <trkpt lat="47.00347" lon="6.53138">
        <ele>972.59997558594</ele>
        <time>2023-05-14T13:11:15.000Z</time>
      </trkpt>
      <trkpt lat="47.00334" lon="6.53122">
        <ele>972.40002441406</ele>
        <time>2023-05-14T13:11:20.000Z</time>
      </trkpt>
      <trkpt lat="47.00311" lon="6.5309">
        <ele>972</ele>
        <time>2023-05-14T13:11:29.000Z</time>
      </trkpt>
      <trkpt lat="47.00289" lon="6.53059">
        <ele>972</ele>
        <time>2023-05-14T13:11:37.000Z</time>
      </trkpt>
      <trkpt lat="47.00271" lon="6.53028">
        <ele>972</ele>
        <time>2023-05-14T13:11:45.000Z</time>
      </trkpt>
      <trkpt lat="47.00262" lon="6.53014">
        <ele>972.40002441406</ele>
        <time>2023-05-14T13:11:49.000Z</time>
      </trkpt>
      <trkpt lat="47.00258" lon="6.53008">
        <ele>972.40002441406</ele>
        <time>2023-05-14T13:11:51.000Z</time>
      </trkpt>
      <trkpt lat="47.00248" lon="6.52991">
        <ele>972.40002441406</ele>
        <time>2023-05-14T13:11:57.000Z</time>
      </trkpt>
      <trkpt lat="47.00237" lon="6.52972">
        <ele>972.20001220703</ele>
        <time>2023-05-14T13:12:05.000Z</time>
      </trkpt>
      <trkpt lat="47.00226" lon="6.52955">
        <ele>972.20001220703</ele>
        <time>2023-05-14T13:12:10.000Z</time>
      </trkpt>
      <trkpt lat="47.0021" lon="6.52928">
        <ele>972.40002441406</ele>
        <time>2023-05-14T13:12:17.000Z</time>
      </trkpt>
      <trkpt lat="47.00189" lon="6.52889">
        <ele>971.59997558594</ele>
        <time>2023-05-14T13:12:27.000Z</time>
      </trkpt>
      <trkpt lat="47.00187" lon="6.52885">
        <ele>971.59997558594</ele>
        <time>2023-05-14T13:12:28.000Z</time>
      </trkpt>
      <trkpt lat="47.00179" lon="6.52871">
        <ele>971.40002441406</ele>
        <time>2023-05-14T13:12:32.000Z</time>
      </trkpt>
      <trkpt lat="47.0017" lon="6.52859">
        <ele>971.20001220703</ele>
        <time>2023-05-14T13:12:36.000Z</time>
      </trkpt>
      <trkpt lat="47.0016" lon="6.52842">
        <ele>971</ele>
        <time>2023-05-14T13:12:42.000Z</time>
      </trkpt>
      <trkpt lat="47.00153" lon="6.52832">
        <ele>971</ele>
        <time>2023-05-14T13:12:48.000Z</time>
      </trkpt>
      <trkpt lat="47.00142" lon="6.52815">
        <ele>971</ele>
        <time>2023-05-14T13:12:56.000Z</time>
      </trkpt>
      <trkpt lat="47.00138" lon="6.52807">
        <ele>971.20001220703</ele>
        <time>2023-05-14T13:13:03.000Z</time>
      </trkpt>
      <trkpt lat="47.00136" lon="6.52828">
        <ele>971.59997558594</ele>
        <time>2023-05-14T13:17:38.000Z</time>
      </trkpt>
      <trkpt lat="47.00136" lon="6.52834">
        <ele>971.59997558594</ele>
        <time>2023-05-14T13:17:40.000Z</time>
      </trkpt>
      <trkpt lat="47.00135" lon="6.52836">
        <ele>971.59997558594</ele>
        <time>2023-05-14T13:17:41.000Z</time>
      </trkpt>
      <trkpt lat="47.00129" lon="6.52845">
        <ele>971.79998779297</ele>
        <time>2023-05-14T13:17:45.000Z</time>
      </trkpt>
      <trkpt lat="47.00125" lon="6.52865">
        <ele>973.20001220703</ele>
        <time>2023-05-14T13:17:51.000Z</time>
      </trkpt>
      <trkpt lat="47.00121" lon="6.52872">
        <ele>974.40002441406</ele>
        <time>2023-05-14T13:17:54.000Z</time>
      </trkpt>
      <trkpt lat="47.00116" lon="6.52879">
        <ele>975.20001220703</ele>
        <time>2023-05-14T13:17:57.000Z</time>
      </trkpt>
      <trkpt lat="47.00115" lon="6.5288">
        <ele>975.40002441406</ele>
        <time>2023-05-14T13:17:58.000Z</time>
      </trkpt>
      <trkpt lat="47.00109" lon="6.52882">
        <ele>976.59997558594</ele>
        <time>2023-05-14T13:18:02.000Z</time>
      </trkpt>
      <trkpt lat="47.00104" lon="6.52882">
        <ele>977.59997558594</ele>
        <time>2023-05-14T13:18:06.000Z</time>
      </trkpt>
      <trkpt lat="47.00102" lon="6.52882">
        <ele>978.20001220703</ele>
        <time>2023-05-14T13:18:08.000Z</time>
      </trkpt>
      <trkpt lat="47.00099" lon="6.52881">
        <ele>979</ele>
        <time>2023-05-14T13:18:10.000Z</time>
      </trkpt>
      <trkpt lat="47.00095" lon="6.5288">
        <ele>980</ele>
        <time>2023-05-14T13:18:14.000Z</time>
      </trkpt>
      <trkpt lat="47.00094" lon="6.52878">
        <ele>980.20001220703</ele>
        <time>2023-05-14T13:18:15.000Z</time>
      </trkpt>
      <trkpt lat="47.00094" lon="6.52876">
        <ele>980.40002441406</ele>
        <time>2023-05-14T13:18:17.000Z</time>
      </trkpt>
      <trkpt lat="47.00093" lon="6.52875">
        <ele>980.59997558594</ele>
        <time>2023-05-14T13:18:18.000Z</time>
      </trkpt>
      <trkpt lat="47.00089" lon="6.52873">
        <ele>981.20001220703</ele>
        <time>2023-05-14T13:18:21.000Z</time>
      </trkpt>
      <trkpt lat="47.00087" lon="6.52872">
        <ele>981.59997558594</ele>
        <time>2023-05-14T13:18:24.000Z</time>
      </trkpt>
      <trkpt lat="47.00083" lon="6.5287">
        <ele>982.20001220703</ele>
        <time>2023-05-14T13:18:29.000Z</time>
      </trkpt>
      <trkpt lat="47.00081" lon="6.52869">
        <ele>982.59997558594</ele>
        <time>2023-05-14T13:18:33.000Z</time>
      </trkpt>
      <trkpt lat="47.0008" lon="6.52868">
        <ele>982.59997558594</ele>
        <time>2023-05-14T13:18:35.000Z</time>
      </trkpt>
      <trkpt lat="47.00077" lon="6.52866">
        <ele>983</ele>
        <time>2023-05-14T13:18:39.000Z</time>
      </trkpt>
      <trkpt lat="47.00077" lon="6.52864">
        <ele>983.20001220703</ele>
        <time>2023-05-14T13:18:40.000Z</time>
      </trkpt>
      <trkpt lat="47.00072" lon="6.52861">
        <ele>984</ele>
        <time>2023-05-14T13:18:45.000Z</time>
      </trkpt>
      <trkpt lat="47.00071" lon="6.52861">
        <ele>984.20001220703</ele>
        <time>2023-05-14T13:18:47.000Z</time>
      </trkpt>
      <trkpt lat="47.00069" lon="6.52859">
        <ele>985.40002441406</ele>
        <time>2023-05-14T13:18:53.000Z</time>
      </trkpt>
      <trkpt lat="47.00069" lon="6.52859">
        <ele>985.59997558594</ele>
        <time>2023-05-14T13:18:54.000Z</time>
      </trkpt>
      <trkpt lat="47.00067" lon="6.52857">
        <ele>986.20001220703</ele>
        <time>2023-05-14T13:18:58.000Z</time>
      </trkpt>
      <trkpt lat="46.99931" lon="6.52762">
        <ele>1006.799987793</ele>
        <time>2023-05-14T13:22:13.000Z</time>
      </trkpt>
      <trkpt lat="46.9993" lon="6.52764">
        <ele>1006.799987793</ele>
        <time>2023-05-14T13:22:14.000Z</time>
      </trkpt>
      <trkpt lat="46.99927" lon="6.52765">
        <ele>1007</ele>
        <time>2023-05-14T13:22:15.000Z</time>
      </trkpt>
      <trkpt lat="46.99924" lon="6.52764">
        <ele>1007.4000244141</ele>
        <time>2023-05-14T13:22:17.000Z</time>
      </trkpt>
      <trkpt lat="46.99922" lon="6.52763">
        <ele>1007.799987793</ele>
        <time>2023-05-14T13:22:18.000Z</time>
      </trkpt>
      <trkpt lat="46.99921" lon="6.52763">
        <ele>1008</ele>
        <time>2023-05-14T13:22:19.000Z</time>
      </trkpt>
      <trkpt lat="46.99919" lon="6.52764">
        <ele>1008.799987793</ele>
        <time>2023-05-14T13:22:21.000Z</time>
      </trkpt>
      <trkpt lat="46.99914" lon="6.52764">
        <ele>1009.200012207</ele>
        <time>2023-05-14T13:22:24.000Z</time>
      </trkpt>
      <trkpt lat="46.9991" lon="6.52764">
        <ele>1010</ele>
        <time>2023-05-14T13:22:27.000Z</time>
      </trkpt>
      <trkpt lat="46.99901" lon="6.52765">
        <ele>1010.799987793</ele>
        <time>2023-05-14T13:22:33.000Z</time>
      </trkpt>
      <trkpt lat="46.99899" lon="6.52768">
        <ele>1011.200012207</ele>
        <time>2023-05-14T13:22:35.000Z</time>
      </trkpt>
      <trkpt lat="46.99896" lon="6.52772">
        <ele>1011.5999755859</ele>
        <time>2023-05-14T13:22:38.000Z</time>
      </trkpt>
      <trkpt lat="46.99896" lon="6.52773">
        <ele>1011.799987793</ele>
        <time>2023-05-14T13:22:39.000Z</time>
      </trkpt>
      <trkpt lat="46.99892" lon="6.5278">
        <ele>1012.4000244141</ele>
        <time>2023-05-14T13:22:44.000Z</time>
      </trkpt>
      <trkpt lat="46.9989" lon="6.52784">
        <ele>1013</ele>
        <time>2023-05-14T13:22:46.000Z</time>
      </trkpt>
      <trkpt lat="46.99887" lon="6.52789">
        <ele>1013.5999755859</ele>
        <time>2023-05-14T13:22:50.000Z</time>
      </trkpt>
      <trkpt lat="46.99886" lon="6.52791">
        <ele>1014</ele>
        <time>2023-05-14T13:22:52.000Z</time>
      </trkpt>
      <trkpt lat="46.99884" lon="6.52795">
        <ele>1014.799987793</ele>
        <time>2023-05-14T13:22:55.000Z</time>
      </trkpt>
      <trkpt lat="46.99879" lon="6.52802">
        <ele>1016.200012207</ele>
        <time>2023-05-14T13:23:00.000Z</time>
      </trkpt>
      <trkpt lat="46.99876" lon="6.52803">
        <ele>1017.4000244141</ele>
        <time>2023-05-14T13:23:05.000Z</time>
      </trkpt>
      <trkpt lat="46.99766" lon="6.52798">
        <ele>1019.4000244141</ele>
        <time>2023-05-14T13:25:33.000Z</time>
      </trkpt>
      <trkpt lat="46.99764" lon="6.52796">
        <ele>1019.200012207</ele>
        <time>2023-05-14T13:25:34.000Z</time>
      </trkpt>
      <trkpt lat="46.99757" lon="6.52788">
        <ele>1019</ele>
        <time>2023-05-14T13:25:37.000Z</time>
      </trkpt>
      <trkpt lat="46.99755" lon="6.52787">
        <ele>1019</ele>
        <time>2023-05-14T13:25:38.000Z</time>
      </trkpt>
      <trkpt lat="46.99754" lon="6.52786">
        <ele>1018.799987793</ele>
        <time>2023-05-14T13:25:39.000Z</time>
      </trkpt>
      <trkpt lat="46.99751" lon="6.5278">
        <ele>1018</ele>
        <time>2023-05-14T13:25:41.000Z</time>
      </trkpt>
      <trkpt lat="46.99747" lon="6.52775">
        <ele>1017.799987793</ele>
        <time>2023-05-14T13:25:43.000Z</time>
      </trkpt>
      <trkpt lat="46.99743" lon="6.52772">
        <ele>1017.5999755859</ele>
        <time>2023-05-14T13:25:44.000Z</time>
      </trkpt>
      <trkpt lat="46.99731" lon="6.52765">
        <ele>1017</ele>
        <time>2023-05-14T13:25:48.000Z</time>
      </trkpt>
      <trkpt lat="46.99723" lon="6.52752">
        <ele>1015.799987793</ele>
        <time>2023-05-14T13:25:52.000Z</time>
      </trkpt>
      <trkpt lat="46.99722" lon="6.52748">
        <ele>1015.4000244141</ele>
        <time>2023-05-14T13:25:53.000Z</time>
      </trkpt>
      <trkpt lat="46.99716" lon="6.52743">
        <ele>1014.799987793</ele>
        <time>2023-05-14T13:25:56.000Z</time>
      </trkpt>
      <trkpt lat="46.99714" lon="6.52741">
        <ele>1014.200012207</ele>
        <time>2023-05-14T13:25:57.000Z</time>
      </trkpt>
      <trkpt lat="46.99709" lon="6.52732">
        <ele>1013.200012207</ele>
        <time>2023-05-14T13:26:02.000Z</time>
      </trkpt>
      <trkpt lat="46.99708" lon="6.5273">
        <ele>1013</ele>
        <time>2023-05-14T13:26:03.000Z</time>
      </trkpt>
      <trkpt lat="46.99704" lon="6.52724">
        <ele>1012.200012207</ele>
        <time>2023-05-14T13:26:05.000Z</time>
      </trkpt>
      <trkpt lat="46.99701" lon="6.52722">
        <ele>1011.799987793</ele>
        <time>2023-05-14T13:26:06.000Z</time>
      </trkpt>
      <trkpt lat="46.99696" lon="6.52718">
        <ele>1011.200012207</ele>
        <time>2023-05-14T13:26:09.000Z</time>
      </trkpt>
      <trkpt lat="46.99695" lon="6.52716">
        <ele>1011</ele>
        <time>2023-05-14T13:26:10.000Z</time>
      </trkpt>
      <trkpt lat="46.99689" lon="6.52706">
        <ele>1010.200012207</ele>
        <time>2023-05-14T13:26:13.000Z</time>
      </trkpt>
      <trkpt lat="46.99685" lon="6.52701">
        <ele>1010</ele>
        <time>2023-05-14T13:26:15.000Z</time>
      </trkpt>
      <trkpt lat="46.99675" lon="6.5269">
        <ele>1009</ele>
        <time>2023-05-14T13:26:19.000Z</time>
      </trkpt>
      <trkpt lat="46.99668" lon="6.52682">
        <ele>1008.799987793</ele>
        <time>2023-05-14T13:26:21.000Z</time>
      </trkpt>
      <trkpt lat="46.99662" lon="6.52679">
        <ele>1007.799987793</ele>
        <time>2023-05-14T13:26:24.000Z</time>
      </trkpt>
      <trkpt lat="46.99659" lon="6.52677">
        <ele>1007.200012207</ele>
        <time>2023-05-14T13:26:25.000Z</time>
      </trkpt>
      <trkpt lat="46.99648" lon="6.52669">
        <ele>1006</ele>
        <time>2023-05-14T13:26:28.000Z</time>
      </trkpt>
      <trkpt lat="46.99645" lon="6.52665">
        <ele>1005.5999755859</ele>
        <time>2023-05-14T13:26:29.000Z</time>
      </trkpt>
      <trkpt lat="46.99636" lon="6.5265">
        <ele>1005</ele>
        <time>2023-05-14T13:26:31.000Z</time>
      </trkpt>
      <trkpt lat="46.99634" lon="6.52645">
        <ele>1004.5999755859</ele>
        <time>2023-05-14T13:26:32.000Z</time>
      </trkpt>
      <trkpt lat="46.99628" lon="6.52632">
        <ele>1004</ele>
        <time>2023-05-14T13:26:34.000Z</time>
      </trkpt>
      <trkpt lat="46.99624" lon="6.52621">
        <ele>1003.5999755859</ele>
        <time>2023-05-14T13:26:36.000Z</time>
      </trkpt>
      <trkpt lat="46.99621" lon="6.52616">
        <ele>1003</ele>
        <time>2023-05-14T13:26:38.000Z</time>
      </trkpt>
      <trkpt lat="46.99618" lon="6.52614">
        <ele>1002.799987793</ele>
        <time>2023-05-14T13:26:39.000Z</time>
      </trkpt>
      <trkpt lat="46.99612" lon="6.5261">
        <ele>1002</ele>
        <time>2023-05-14T13:26:41.000Z</time>
      </trkpt>
      <trkpt lat="46.99592" lon="6.52597">
        <ele>1000.799987793</ele>
        <time>2023-05-14T13:26:46.000Z</time>
      </trkpt>
      <trkpt lat="46.99589" lon="6.52596">
        <ele>1000.200012207</ele>
        <time>2023-05-14T13:26:47.000Z</time>
      </trkpt>
      <trkpt lat="46.99585" lon="6.52594">
        <ele>999.20001220703</ele>
        <time>2023-05-14T13:26:48.000Z</time>
      </trkpt>
      <trkpt lat="46.99581" lon="6.52588">
        <ele>998</ele>
        <time>2023-05-14T13:26:50.000Z</time>
      </trkpt>
      <trkpt lat="46.9958" lon="6.52588">
        <ele>997.79998779297</ele>
        <time>2023-05-14T13:26:51.000Z</time>
      </trkpt>
      <trkpt lat="46.99579" lon="6.52584">
        <ele>997.40002441406</ele>
        <time>2023-05-14T13:26:52.000Z</time>
      </trkpt>
      <trkpt lat="46.99579" lon="6.52576">
        <ele>996.59997558594</ele>
        <time>2023-05-14T13:26:54.000Z</time>
      </trkpt>
      <trkpt lat="46.99579" lon="6.52576">
        <ele>995.79998779297</ele>
        <time>2023-05-14T13:26:55.000Z</time>
      </trkpt>
      <trkpt lat="46.99579" lon="6.52576">
        <ele>995.59997558594</ele>
        <time>2023-05-14T13:26:56.000Z</time>
      </trkpt>
      <trkpt lat="46.99578" lon="6.52575">
        <ele>995</ele>
        <time>2023-05-14T13:27:00.000Z</time>
      </trkpt>
      <trkpt lat="46.99579" lon="6.52574">
        <ele>994.79998779297</ele>
        <time>2023-05-14T13:27:02.000Z</time>
      </trkpt>
      <trkpt lat="46.9958" lon="6.52568">
        <ele>994.40002441406</ele>
        <time>2023-05-14T13:27:04.000Z</time>
      </trkpt>
      <trkpt lat="46.99582" lon="6.52566">
        <ele>994.40002441406</ele>
        <time>2023-05-14T13:27:06.000Z</time>
      </trkpt>
      <trkpt lat="46.99584" lon="6.52565">
        <ele>994.20001220703</ele>
        <time>2023-05-14T13:27:11.000Z</time>
      </trkpt>
      <trkpt lat="46.99569" lon="6.52538">
        <ele>994.20001220703</ele>
        <time>2023-05-14T13:27:28.000Z</time>
      </trkpt>
      <trkpt lat="46.99569" lon="6.52538">
        <ele>994.20001220703</ele>
        <time>2023-05-14T13:27:29.000Z</time>
      </trkpt>
      <trkpt lat="46.99554" lon="6.52528">
        <ele>994.59997558594</ele>
        <time>2023-05-14T13:27:34.000Z</time>
      </trkpt>
      <trkpt lat="46.9955" lon="6.52526">
        <ele>994.79998779297</ele>
        <time>2023-05-14T13:27:36.000Z</time>
      </trkpt>
      <trkpt lat="46.99542" lon="6.52501">
        <ele>995.20001220703</ele>
        <time>2023-05-14T13:27:41.000Z</time>
      </trkpt>
      <trkpt lat="46.9954" lon="6.52496">
        <ele>995.40002441406</ele>
        <time>2023-05-14T13:27:42.000Z</time>
      </trkpt>
      <trkpt lat="46.99538" lon="6.52493">
        <ele>995.40002441406</ele>
        <time>2023-05-14T13:27:43.000Z</time>
      </trkpt>
      <trkpt lat="46.99527" lon="6.52475">
        <ele>996</ele>
        <time>2023-05-14T13:27:49.000Z</time>
      </trkpt>
      <trkpt lat="46.99524" lon="6.5247">
        <ele>996</ele>
        <time>2023-05-14T13:27:52.000Z</time>
      </trkpt>
      <trkpt lat="46.99521" lon="6.52468">
        <ele>996.20001220703</ele>
        <time>2023-05-14T13:27:54.000Z</time>
      </trkpt>
      <trkpt lat="46.99516" lon="6.5246">
        <ele>996.59997558594</ele>
        <time>2023-05-14T13:28:00.000Z</time>
      </trkpt>
      <trkpt lat="46.99507" lon="6.52449">
        <ele>996.79998779297</ele>
        <time>2023-05-14T13:28:05.000Z</time>
      </trkpt>
      <trkpt lat="46.99502" lon="6.52445">
        <ele>997</ele>
        <time>2023-05-14T13:28:07.000Z</time>
      </trkpt>
      <trkpt lat="46.99498" lon="6.52438">
        <ele>997.20001220703</ele>
        <time>2023-05-14T13:28:09.000Z</time>
      </trkpt>
      <trkpt lat="46.99493" lon="6.52436">
        <ele>997.40002441406</ele>
        <time>2023-05-14T13:28:11.000Z</time>
      </trkpt>
      <trkpt lat="46.99482" lon="6.52432">
        <ele>997.79998779297</ele>
        <time>2023-05-14T13:28:15.000Z</time>
      </trkpt>
      <trkpt lat="46.99478" lon="6.52427">
        <ele>997.59997558594</ele>
        <time>2023-05-14T13:28:17.000Z</time>
      </trkpt>
      <trkpt lat="46.99475" lon="6.52428">
        <ele>997.79998779297</ele>
        <time>2023-05-14T13:28:19.000Z</time>
      </trkpt>
      <trkpt lat="46.99471" lon="6.52428">
        <ele>997.79998779297</ele>
        <time>2023-05-14T13:28:21.000Z</time>
      </trkpt>
      <trkpt lat="46.9946" lon="6.5242">
        <ele>998</ele>
        <time>2023-05-14T13:28:25.000Z</time>
      </trkpt>
      <trkpt lat="46.99458" lon="6.52417">
        <ele>998</ele>
        <time>2023-05-14T13:28:26.000Z</time>
      </trkpt>
      <trkpt lat="46.99443" lon="6.52409">
        <ele>997.59997558594</ele>
        <time>2023-05-14T13:28:33.000Z</time>
      </trkpt>
      <trkpt lat="46.99434" lon="6.52413">
        <ele>997.20001220703</ele>
        <time>2023-05-14T13:28:38.000Z</time>
      </trkpt>
      <trkpt lat="46.99424" lon="6.52426">
        <ele>996.79998779297</ele>
        <time>2023-05-14T13:28:44.000Z</time>
      </trkpt>
      <trkpt lat="46.99412" lon="6.52444">
        <ele>997</ele>
        <time>2023-05-14T13:28:52.000Z</time>
      </trkpt>
      <trkpt lat="46.99404" lon="6.52458">
        <ele>996.59997558594</ele>
        <time>2023-05-14T13:28:59.000Z</time>
      </trkpt>
      <trkpt lat="46.99404" lon="6.52459">
        <ele>996.59997558594</ele>
        <time>2023-05-14T13:29:02.000Z</time>
      </trkpt>
      <trkpt lat="46.99402" lon="6.52466">
        <ele>996.40002441406</ele>
        <time>2023-05-14T13:32:07.000Z</time>
      </trkpt>
      <trkpt lat="46.99402" lon="6.52469">
        <ele>996.40002441406</ele>
        <time>2023-05-14T13:32:08.000Z</time>
      </trkpt>
      <trkpt lat="46.99399" lon="6.52486">
        <ele>996.59997558594</ele>
        <time>2023-05-14T13:32:13.000Z</time>
      </trkpt>
      <trkpt lat="46.99399" lon="6.52499">
        <ele>996.79998779297</ele>
        <time>2023-05-14T13:32:16.000Z</time>
      </trkpt>
      <trkpt lat="46.99401" lon="6.52507">
        <ele>996.79998779297</ele>
        <time>2023-05-14T13:32:18.000Z</time>
      </trkpt>
      <trkpt lat="46.99407" lon="6.52528">
        <ele>996.79998779297</ele>
        <time>2023-05-14T13:32:25.000Z</time>
      </trkpt>
      <trkpt lat="46.9941" lon="6.52539">
        <ele>997.40002441406</ele>
        <time>2023-05-14T13:32:29.000Z</time>
      </trkpt>
      <trkpt lat="46.99411" lon="6.52543">
        <ele>997.40002441406</ele>
        <time>2023-05-14T13:32:30.000Z</time>
      </trkpt>
      <trkpt lat="46.99412" lon="6.52557">
        <ele>998.40002441406</ele>
        <time>2023-05-14T13:32:34.000Z</time>
      </trkpt>
      <trkpt lat="46.99413" lon="6.52564">
        <ele>998.59997558594</ele>
        <time>2023-05-14T13:32:36.000Z</time>
      </trkpt>
      <trkpt lat="46.99414" lon="6.52577">
        <ele>998.79998779297</ele>
        <time>2023-05-14T13:32:39.000Z</time>
      </trkpt>
      <trkpt lat="46.99414" lon="6.52587">
        <ele>998.79998779297</ele>
        <time>2023-05-14T13:32:42.000Z</time>
      </trkpt>
      <trkpt lat="46.99415" lon="6.52601">
        <ele>998.79998779297</ele>
        <time>2023-05-14T13:32:47.000Z</time>
      </trkpt>
      <trkpt lat="46.99416" lon="6.52603">
        <ele>998.79998779297</ele>
        <time>2023-05-14T13:32:48.000Z</time>
      </trkpt>
      <trkpt lat="46.99417" lon="6.5261">
        <ele>999</ele>
        <time>2023-05-14T13:32:51.000Z</time>
      </trkpt>
      <trkpt lat="46.99416" lon="6.52613">
        <ele>999.20001220703</ele>
        <time>2023-05-14T13:32:52.000Z</time>
      </trkpt>
      <trkpt lat="46.99415" lon="6.52616">
        <ele>999.40002441406</ele>
        <time>2023-05-14T13:32:54.000Z</time>
      </trkpt>
      <trkpt lat="46.99416" lon="6.5262">
        <ele>999.59997558594</ele>
        <time>2023-05-14T13:32:55.000Z</time>
      </trkpt>
      <trkpt lat="46.99417" lon="6.52623">
        <ele>999.79998779297</ele>
        <time>2023-05-14T13:32:56.000Z</time>
      </trkpt>
      <trkpt lat="46.99422" lon="6.52641">
        <ele>1000</ele>
        <time>2023-05-14T13:33:00.000Z</time>
      </trkpt>
      <trkpt lat="46.99423" lon="6.52644">
        <ele>1000.200012207</ele>
        <time>2023-05-14T13:33:01.000Z</time>
      </trkpt>
      <trkpt lat="46.99425" lon="6.5265">
        <ele>1000.4000244141</ele>
        <time>2023-05-14T13:33:03.000Z</time>
      </trkpt>
      <trkpt lat="46.99425" lon="6.52651">
        <ele>1000.5999755859</ele>
        <time>2023-05-14T13:33:04.000Z</time>
      </trkpt>
      <trkpt lat="46.99425" lon="6.52652">
        <ele>1000.799987793</ele>
        <time>2023-05-14T13:33:05.000Z</time>
      </trkpt>
      <trkpt lat="46.99425" lon="6.52655">
        <ele>1001</ele>
        <time>2023-05-14T13:33:06.000Z</time>
      </trkpt>
      <trkpt lat="46.99424" lon="6.52659">
        <ele>1001</ele>
        <time>2023-05-14T13:33:07.000Z</time>
      </trkpt>
      <trkpt lat="46.99424" lon="6.5268">
        <ele>1001.200012207</ele>
        <time>2023-05-14T13:33:11.000Z</time>
      </trkpt>
      <trkpt lat="46.99426" lon="6.52702">
        <ele>1001.4000244141</ele>
        <time>2023-05-14T13:33:16.000Z</time>
      </trkpt>
      <trkpt lat="46.99427" lon="6.52716">
        <ele>1001.5999755859</ele>
        <time>2023-05-14T13:33:21.000Z</time>
      </trkpt>
      <trkpt lat="46.99427" lon="6.52719">
        <ele>1001.5999755859</ele>
        <time>2023-05-14T13:33:22.000Z</time>
      </trkpt>
      <trkpt lat="46.99428" lon="6.52724">
        <ele>1001.799987793</ele>
        <time>2023-05-14T13:33:24.000Z</time>
      </trkpt>
      <trkpt lat="46.99427" lon="6.52737">
        <ele>1002.4000244141</ele>
        <time>2023-05-14T13:33:29.000Z</time>
      </trkpt>
      <trkpt lat="46.99427" lon="6.52753">
        <ele>1002.799987793</ele>
        <time>2023-05-14T13:33:34.000Z</time>
      </trkpt>
      <trkpt lat="46.99428" lon="6.52755">
        <ele>1003</ele>
        <time>2023-05-14T13:33:35.000Z</time>
      </trkpt>
      <trkpt lat="46.99428" lon="6.52758">
        <ele>1003</ele>
        <time>2023-05-14T13:33:36.000Z</time>
      </trkpt>
      <trkpt lat="46.99427" lon="6.52765">
        <ele>1003.200012207</ele>
        <time>2023-05-14T13:33:39.000Z</time>
      </trkpt>
      <trkpt lat="46.99432" lon="6.5279">
        <ele>1003.799987793</ele>
        <time>2023-05-14T13:33:47.000Z</time>
      </trkpt>
      <trkpt lat="46.99431" lon="6.52819">
        <ele>1004.200012207</ele>
        <time>2023-05-14T13:33:54.000Z</time>
      </trkpt>
      <trkpt lat="46.99431" lon="6.52819">
        <ele>1004.4000244141</ele>
        <time>2023-05-14T13:33:55.000Z</time>
      </trkpt>
      <trkpt lat="46.99433" lon="6.52824">
        <ele>1004.5999755859</ele>
        <time>2023-05-14T13:33:56.000Z</time>
      </trkpt>
      <trkpt lat="46.99436" lon="6.52831">
        <ele>1004.5999755859</ele>
        <time>2023-05-14T13:33:59.000Z</time>
      </trkpt>
      <trkpt lat="46.99437" lon="6.52856">
        <ele>1004.799987793</ele>
        <time>2023-05-14T13:34:07.000Z</time>
      </trkpt>
      <trkpt lat="46.99439" lon="6.52865">
        <ele>1005</ele>
        <time>2023-05-14T13:34:09.000Z</time>
      </trkpt>
      <trkpt lat="46.99443" lon="6.52878">
        <ele>1005.200012207</ele>
        <time>2023-05-14T13:34:14.000Z</time>
      </trkpt>
      <trkpt lat="46.99442" lon="6.52887">
        <ele>1005.4000244141</ele>
        <time>2023-05-14T13:34:17.000Z</time>
      </trkpt>
      <trkpt lat="46.99446" lon="6.52902">
        <ele>1005.799987793</ele>
        <time>2023-05-14T13:34:21.000Z</time>
      </trkpt>
      <trkpt lat="46.99449" lon="6.52908">
        <ele>1006</ele>
        <time>2023-05-14T13:34:23.000Z</time>
      </trkpt>
      <trkpt lat="46.99453" lon="6.52914">
        <ele>1006.200012207</ele>
        <time>2023-05-14T13:34:25.000Z</time>
      </trkpt>
      <trkpt lat="46.99454" lon="6.52921">
        <ele>1006.200012207</ele>
        <time>2023-05-14T13:34:27.000Z</time>
      </trkpt>
      <trkpt lat="46.99458" lon="6.52936">
        <ele>1006.4000244141</ele>
        <time>2023-05-14T13:34:33.000Z</time>
      </trkpt>
      <trkpt lat="46.99463" lon="6.52949">
        <ele>1007</ele>
        <time>2023-05-14T13:34:39.000Z</time>
      </trkpt>
      <trkpt lat="46.99463" lon="6.52951">
        <ele>1007</ele>
        <time>2023-05-14T13:34:40.000Z</time>
      </trkpt>
      <trkpt lat="46.99465" lon="6.52969">
        <ele>1007.5999755859</ele>
        <time>2023-05-14T13:34:46.000Z</time>
      </trkpt>
      <trkpt lat="46.99465" lon="6.52982">
        <ele>1008</ele>
        <time>2023-05-14T13:34:50.000Z</time>
      </trkpt>
      <trkpt lat="46.99464" lon="6.52985">
        <ele>1008</ele>
        <time>2023-05-14T13:34:51.000Z</time>
      </trkpt>
      <trkpt lat="46.99464" lon="6.52996">
        <ele>1008.200012207</ele>
        <time>2023-05-14T13:34:54.000Z</time>
      </trkpt>
      <trkpt lat="46.99464" lon="6.52999">
        <ele>1008.200012207</ele>
        <time>2023-05-14T13:34:55.000Z</time>
      </trkpt>
      <trkpt lat="46.99465" lon="6.53002">
        <ele>1008.4000244141</ele>
        <time>2023-05-14T13:34:56.000Z</time>
      </trkpt>
      <trkpt lat="46.99464" lon="6.53002">
        <ele>1008.4000244141</ele>
        <time>2023-05-14T13:34:58.000Z</time>
      </trkpt>
      <trkpt lat="46.99467" lon="6.53011">
        <ele>1008.799987793</ele>
        <time>2023-05-14T13:35:19.000Z</time>
      </trkpt>
      <trkpt lat="46.9947" lon="6.5302">
        <ele>1008.799987793</ele>
        <time>2023-05-14T13:35:22.000Z</time>
      </trkpt>
      <trkpt lat="46.99473" lon="6.53031">
        <ele>1009</ele>
        <time>2023-05-14T13:35:25.000Z</time>
      </trkpt>
      <trkpt lat="46.99473" lon="6.5304">
        <ele>1009.200012207</ele>
        <time>2023-05-14T13:35:28.000Z</time>
      </trkpt>
      <trkpt lat="46.99474" lon="6.53043">
        <ele>1009.4000244141</ele>
        <time>2023-05-14T13:35:29.000Z</time>
      </trkpt>
      <trkpt lat="46.99473" lon="6.53065">
        <ele>1009.799987793</ele>
        <time>2023-05-14T13:35:35.000Z</time>
      </trkpt>
      <trkpt lat="46.99475" lon="6.53079">
        <ele>1010.200012207</ele>
        <time>2023-05-14T13:35:39.000Z</time>
      </trkpt>
      <trkpt lat="46.99475" lon="6.53079">
        <ele>1010.200012207</ele>
        <time>2023-05-14T13:35:40.000Z</time>
      </trkpt>
      <trkpt lat="46.99476" lon="6.53088">
        <ele>1010.200012207</ele>
        <time>2023-05-14T13:35:41.000Z</time>
      </trkpt>
      <trkpt lat="46.99478" lon="6.53098">
        <ele>1010.4000244141</ele>
        <time>2023-05-14T13:35:43.000Z</time>
      </trkpt>
      <trkpt lat="46.9948" lon="6.53101">
        <ele>1010.4000244141</ele>
        <time>2023-05-14T13:35:44.000Z</time>
      </trkpt>
      <trkpt lat="46.99482" lon="6.53106">
        <ele>1010.4000244141</ele>
        <time>2023-05-14T13:35:46.000Z</time>
      </trkpt>
      <trkpt lat="46.99481" lon="6.53109">
        <ele>1010.5999755859</ele>
        <time>2023-05-14T13:35:48.000Z</time>
      </trkpt>
      <trkpt lat="46.99476" lon="6.53119">
        <ele>1011</ele>
        <time>2023-05-14T13:35:53.000Z</time>
      </trkpt>
      <trkpt lat="46.99476" lon="6.5312">
        <ele>1011</ele>
        <time>2023-05-14T13:35:54.000Z</time>
      </trkpt>
      <trkpt lat="46.99475" lon="6.53121">
        <ele>1011.4000244141</ele>
        <time>2023-05-14T13:35:57.000Z</time>
      </trkpt>
      <trkpt lat="46.99475" lon="6.53121">
        <ele>1011.4000244141</ele>
        <time>2023-05-14T13:35:58.000Z</time>
      </trkpt>
      <trkpt lat="46.99465" lon="6.53126">
        <ele>1012.200012207</ele>
        <time>2023-05-14T13:36:25.000Z</time>
      </trkpt>
      <trkpt lat="46.99463" lon="6.53127">
        <ele>1012.4000244141</ele>
        <time>2023-05-14T13:36:26.000Z</time>
      </trkpt>
      <trkpt lat="46.99462" lon="6.53128">
        <ele>1012.4000244141</ele>
        <time>2023-05-14T13:36:27.000Z</time>
      </trkpt>
      <trkpt lat="46.99459" lon="6.53129">
        <ele>1012.5999755859</ele>
        <time>2023-05-14T13:36:28.000Z</time>
      </trkpt>
      <trkpt lat="46.99454" lon="6.53131">
        <ele>1013</ele>
        <time>2023-05-14T13:36:31.000Z</time>
      </trkpt>
      <trkpt lat="46.99452" lon="6.53133">
        <ele>1013</ele>
        <time>2023-05-14T13:36:32.000Z</time>
      </trkpt>
      <trkpt lat="46.99448" lon="6.53137">
        <ele>1013.200012207</ele>
        <time>2023-05-14T13:36:34.000Z</time>
      </trkpt>
      <trkpt lat="46.99446" lon="6.53138">
        <ele>1013.4000244141</ele>
        <time>2023-05-14T13:36:36.000Z</time>
      </trkpt>
      <trkpt lat="46.99445" lon="6.5314">
        <ele>1013.4000244141</ele>
        <time>2023-05-14T13:36:37.000Z</time>
      </trkpt>
      <trkpt lat="46.99442" lon="6.53142">
        <ele>1013.5999755859</ele>
        <time>2023-05-14T13:36:39.000Z</time>
      </trkpt>
      <trkpt lat="46.9944" lon="6.53143">
        <ele>1013.5999755859</ele>
        <time>2023-05-14T13:36:40.000Z</time>
      </trkpt>
      <trkpt lat="46.99426" lon="6.5315">
        <ele>1013.799987793</ele>
        <time>2023-05-14T13:36:46.000Z</time>
      </trkpt>
      <trkpt lat="46.99413" lon="6.53157">
        <ele>1013.4000244141</ele>
        <time>2023-05-14T13:36:51.000Z</time>
      </trkpt>
      <trkpt lat="46.99406" lon="6.53161">
        <ele>1012.200012207</ele>
        <time>2023-05-14T13:36:56.000Z</time>
      </trkpt>
      <trkpt lat="46.99395" lon="6.53168">
        <ele>1011.200012207</ele>
        <time>2023-05-14T13:37:01.000Z</time>
      </trkpt>
      <trkpt lat="46.99393" lon="6.5317">
        <ele>1011</ele>
        <time>2023-05-14T13:37:02.000Z</time>
      </trkpt>
      <trkpt lat="46.99379" lon="6.53179">
        <ele>1010.4000244141</ele>
        <time>2023-05-14T13:37:07.000Z</time>
      </trkpt>
      <trkpt lat="46.99374" lon="6.53185">
        <ele>1010.200012207</ele>
        <time>2023-05-14T13:37:08.000Z</time>
      </trkpt>
      <trkpt lat="46.99371" lon="6.53188">
        <ele>1010</ele>
        <time>2023-05-14T13:37:09.000Z</time>
      </trkpt>
      <trkpt lat="46.99365" lon="6.53192">
        <ele>1009.4000244141</ele>
        <time>2023-05-14T13:37:12.000Z</time>
      </trkpt>
      <trkpt lat="46.99359" lon="6.53197">
        <ele>1009</ele>
        <time>2023-05-14T13:37:14.000Z</time>
      </trkpt>
      <trkpt lat="46.99354" lon="6.53202">
        <ele>1009</ele>
        <time>2023-05-14T13:37:15.000Z</time>
      </trkpt>
      <trkpt lat="46.99347" lon="6.53211">
        <ele>1008</ele>
        <time>2023-05-14T13:37:18.000Z</time>
      </trkpt>
      <trkpt lat="46.99346" lon="6.53214">
        <ele>1007.799987793</ele>
        <time>2023-05-14T13:37:19.000Z</time>
      </trkpt>
      <trkpt lat="46.99344" lon="6.53217">
        <ele>1007.5999755859</ele>
        <time>2023-05-14T13:37:20.000Z</time>
      </trkpt>
      <trkpt lat="46.99345" lon="6.53227">
        <ele>1007</ele>
        <time>2023-05-14T13:37:23.000Z</time>
      </trkpt>
      <trkpt lat="46.99348" lon="6.53242">
        <ele>1006.4000244141</ele>
        <time>2023-05-14T13:37:25.000Z</time>
      </trkpt>
      <trkpt lat="46.99351" lon="6.53255">
        <ele>1006</ele>
        <time>2023-05-14T13:37:27.000Z</time>
      </trkpt>
      <trkpt lat="46.9936" lon="6.53279">
        <ele>1005.4000244141</ele>
        <time>2023-05-14T13:37:30.000Z</time>
      </trkpt>
      <trkpt lat="46.99368" lon="6.53295">
        <ele>1004.5999755859</ele>
        <time>2023-05-14T13:37:32.000Z</time>
      </trkpt>
      <trkpt lat="46.99373" lon="6.53302">
        <ele>1004.200012207</ele>
        <time>2023-05-14T13:37:33.000Z</time>
      </trkpt>
      <trkpt lat="46.99378" lon="6.53308">
        <ele>1003.799987793</ele>
        <time>2023-05-14T13:37:34.000Z</time>
      </trkpt>
      <trkpt lat="46.9939" lon="6.53318">
        <ele>1003.200012207</ele>
        <time>2023-05-14T13:37:36.000Z</time>
      </trkpt>
      <trkpt lat="46.99412" lon="6.53336">
        <ele>1001.4000244141</ele>
        <time>2023-05-14T13:37:39.000Z</time>
      </trkpt>
      <trkpt lat="46.99419" lon="6.53344">
        <ele>1001.200012207</ele>
        <time>2023-05-14T13:37:40.000Z</time>
      </trkpt>
      <trkpt lat="46.99433" lon="6.53361">
        <ele>1000</ele>
        <time>2023-05-14T13:37:42.000Z</time>
      </trkpt>
      <trkpt lat="46.99447" lon="6.53382">
        <ele>999</ele>
        <time>2023-05-14T13:37:44.000Z</time>
      </trkpt>
      <trkpt lat="46.99447" lon="6.53382">
        <ele>998.59997558594</ele>
        <time>2023-05-14T13:37:45.000Z</time>
      </trkpt>
      <trkpt lat="46.99467" lon="6.53415">
        <ele>997.59997558594</ele>
        <time>2023-05-14T13:37:47.000Z</time>
      </trkpt>
      <trkpt lat="46.99479" lon="6.53437">
        <ele>996</ele>
        <time>2023-05-14T13:37:49.000Z</time>
      </trkpt>
      <trkpt lat="46.99484" lon="6.53449">
        <ele>995.59997558594</ele>
        <time>2023-05-14T13:37:50.000Z</time>
      </trkpt>
      <trkpt lat="46.99484" lon="6.53449">
        <ele>995</ele>
        <time>2023-05-14T13:37:51.000Z</time>
      </trkpt>
      <trkpt lat="46.99492" lon="6.53472">
        <ele>994.79998779297</ele>
        <time>2023-05-14T13:37:52.000Z</time>
      </trkpt>
      <trkpt lat="46.99497" lon="6.53497">
        <ele>993.79998779297</ele>
        <time>2023-05-14T13:37:54.000Z</time>
      </trkpt>
      <trkpt lat="46.99501" lon="6.53509">
        <ele>993</ele>
        <time>2023-05-14T13:37:55.000Z</time>
      </trkpt>
      <trkpt lat="46.99505" lon="6.53521">
        <ele>992.59997558594</ele>
        <time>2023-05-14T13:37:56.000Z</time>
      </trkpt>
      <trkpt lat="46.99509" lon="6.53534">
        <ele>991.59997558594</ele>
        <time>2023-05-14T13:37:57.000Z</time>
      </trkpt>
      <trkpt lat="46.99516" lon="6.53558">
        <ele>990.40002441406</ele>
        <time>2023-05-14T13:37:59.000Z</time>
      </trkpt>
      <trkpt lat="46.99523" lon="6.5358">
        <ele>989</ele>
        <time>2023-05-14T13:38:01.000Z</time>
      </trkpt>
      <trkpt lat="46.99526" lon="6.5359">
        <ele>988.20001220703</ele>
        <time>2023-05-14T13:38:02.000Z</time>
      </trkpt>
      <trkpt lat="46.99528" lon="6.53599">
        <ele>987.59997558594</ele>
        <time>2023-05-14T13:38:03.000Z</time>
      </trkpt>
      <trkpt lat="46.9953" lon="6.53609">
        <ele>986</ele>
        <time>2023-05-14T13:38:04.000Z</time>
      </trkpt>
      <trkpt lat="46.9953" lon="6.53618">
        <ele>984.59997558594</ele>
        <time>2023-05-14T13:38:05.000Z</time>
      </trkpt>
      <trkpt lat="46.99529" lon="6.53628">
        <ele>984.20001220703</ele>
        <time>2023-05-14T13:38:06.000Z</time>
      </trkpt>
      <trkpt lat="46.99526" lon="6.53638">
        <ele>983.20001220703</ele>
        <time>2023-05-14T13:38:07.000Z</time>
      </trkpt>
      <trkpt lat="46.99518" lon="6.53651">
        <ele>981.59997558594</ele>
        <time>2023-05-14T13:38:09.000Z</time>
      </trkpt>
      <trkpt lat="46.99512" lon="6.53656">
        <ele>981</ele>
        <time>2023-05-14T13:38:10.000Z</time>
      </trkpt>
      <trkpt lat="46.99506" lon="6.53657">
        <ele>980.20001220703</ele>
        <time>2023-05-14T13:38:11.000Z</time>
      </trkpt>
      <trkpt lat="46.99506" lon="6.53657">
        <ele>979.79998779297</ele>
        <time>2023-05-14T13:38:12.000Z</time>
      </trkpt>
      <trkpt lat="46.9949" lon="6.53655">
        <ele>978.79998779297</ele>
        <time>2023-05-14T13:38:13.000Z</time>
      </trkpt>
      <trkpt lat="46.99476" lon="6.53646">
        <ele>977.79998779297</ele>
        <time>2023-05-14T13:38:15.000Z</time>
      </trkpt>
      <trkpt lat="46.99468" lon="6.53638">
        <ele>976.59997558594</ele>
        <time>2023-05-14T13:38:17.000Z</time>
      </trkpt>
      <trkpt lat="46.99461" lon="6.53627">
        <ele>975.59997558594</ele>
        <time>2023-05-14T13:38:18.000Z</time>
      </trkpt>
      <trkpt lat="46.99454" lon="6.53619">
        <ele>975.40002441406</ele>
        <time>2023-05-14T13:38:19.000Z</time>
      </trkpt>
      <trkpt lat="46.99442" lon="6.53596">
        <ele>974.79998779297</ele>
        <time>2023-05-14T13:38:20.000Z</time>
      </trkpt>
      <trkpt lat="46.9943" lon="6.53575">
        <ele>973.79998779297</ele>
        <time>2023-05-14T13:38:22.000Z</time>
      </trkpt>
      <trkpt lat="46.99425" lon="6.53566">
        <ele>972.79998779297</ele>
        <time>2023-05-14T13:38:23.000Z</time>
      </trkpt>
      <trkpt lat="46.99425" lon="6.53566">
        <ele>972.20001220703</ele>
        <time>2023-05-14T13:38:24.000Z</time>
      </trkpt>
      <trkpt lat="46.99415" lon="6.53546">
        <ele>971.20001220703</ele>
        <time>2023-05-14T13:38:26.000Z</time>
      </trkpt>
      <trkpt lat="46.99396" lon="6.53512">
        <ele>969.40002441406</ele>
        <time>2023-05-14T13:38:29.000Z</time>
      </trkpt>
      <trkpt lat="46.99392" lon="6.53503">
        <ele>968.59997558594</ele>
        <time>2023-05-14T13:38:30.000Z</time>
      </trkpt>
      <trkpt lat="46.99392" lon="6.53503">
        <ele>968.20001220703</ele>
        <time>2023-05-14T13:38:31.000Z</time>
      </trkpt>
      <trkpt lat="46.99379" lon="6.53478">
        <ele>967</ele>
        <time>2023-05-14T13:38:33.000Z</time>
      </trkpt>
      <trkpt lat="46.99367" lon="6.53457">
        <ele>965.59997558594</ele>
        <time>2023-05-14T13:38:35.000Z</time>
      </trkpt>
      <trkpt lat="46.99353" lon="6.53432">
        <ele>964.20001220703</ele>
        <time>2023-05-14T13:38:38.000Z</time>
      </trkpt>
      <trkpt lat="46.99335" lon="6.53404">
        <ele>962.79998779297</ele>
        <time>2023-05-14T13:38:41.000Z</time>
      </trkpt>
      <trkpt lat="46.99327" lon="6.53385">
        <ele>961.40002441406</ele>
        <time>2023-05-14T13:38:43.000Z</time>
      </trkpt>
      <trkpt lat="46.99316" lon="6.53364">
        <ele>960.40002441406</ele>
        <time>2023-05-14T13:38:45.000Z</time>
      </trkpt>
      <trkpt lat="46.99301" lon="6.53338">
        <ele>958.79998779297</ele>
        <time>2023-05-14T13:38:48.000Z</time>
      </trkpt>
      <trkpt lat="46.99291" lon="6.53319">
        <ele>957.20001220703</ele>
        <time>2023-05-14T13:38:50.000Z</time>
      </trkpt>
      <trkpt lat="46.99282" lon="6.53301">
        <ele>955.79998779297</ele>
        <time>2023-05-14T13:38:52.000Z</time>
      </trkpt>
      <trkpt lat="46.99272" lon="6.53284">
        <ele>954.59997558594</ele>
        <time>2023-05-14T13:38:54.000Z</time>
      </trkpt>
      <trkpt lat="46.99252" lon="6.53251">
        <ele>953</ele>
        <time>2023-05-14T13:38:57.000Z</time>
      </trkpt>
      <trkpt lat="46.99248" lon="6.53242">
        <ele>952.59997558594</ele>
        <time>2023-05-14T13:38:58.000Z</time>
      </trkpt>
      <trkpt lat="46.99242" lon="6.53232">
        <ele>951.79998779297</ele>
        <time>2023-05-14T13:38:59.000Z</time>
      </trkpt>
      <trkpt lat="46.99228" lon="6.5321">
        <ele>950.59997558594</ele>
        <time>2023-05-14T13:39:01.000Z</time>
      </trkpt>
      <trkpt lat="46.99212" lon="6.53182">
        <ele>948.79998779297</ele>
        <time>2023-05-14T13:39:04.000Z</time>
      </trkpt>
      <trkpt lat="46.99202" lon="6.53162">
        <ele>947.79998779297</ele>
        <time>2023-05-14T13:39:06.000Z</time>
      </trkpt>
      <trkpt lat="46.99194" lon="6.53147">
        <ele>946.59997558594</ele>
        <time>2023-05-14T13:39:08.000Z</time>
      </trkpt>
      <trkpt lat="46.99191" lon="6.5314">
        <ele>945.40002441406</ele>
        <time>2023-05-14T13:39:10.000Z</time>
      </trkpt>
      <trkpt lat="46.99184" lon="6.53132">
        <ele>944.59997558594</ele>
        <time>2023-05-14T13:39:11.000Z</time>
      </trkpt>
      <trkpt lat="46.9918" lon="6.5313">
        <ele>944</ele>
        <time>2023-05-14T13:39:12.000Z</time>
      </trkpt>
      <trkpt lat="46.99175" lon="6.5313">
        <ele>943.20001220703</ele>
        <time>2023-05-14T13:39:13.000Z</time>
      </trkpt>
      <trkpt lat="46.99171" lon="6.53134">
        <ele>943</ele>
        <time>2023-05-14T13:39:14.000Z</time>
      </trkpt>
      <trkpt lat="46.99168" lon="6.53146">
        <ele>941.79998779297</ele>
        <time>2023-05-14T13:39:16.000Z</time>
      </trkpt>
      <trkpt lat="46.99171" lon="6.53157">
        <ele>941.20001220703</ele>
        <time>2023-05-14T13:39:18.000Z</time>
      </trkpt>
      <trkpt lat="46.99173" lon="6.53164">
        <ele>940.79998779297</ele>
        <time>2023-05-14T13:39:19.000Z</time>
      </trkpt>
      <trkpt lat="46.99176" lon="6.5317">
        <ele>940.20001220703</ele>
        <time>2023-05-14T13:39:20.000Z</time>
      </trkpt>
      <trkpt lat="46.99181" lon="6.53179">
        <ele>940</ele>
        <time>2023-05-14T13:39:21.000Z</time>
      </trkpt>
      <trkpt lat="46.99186" lon="6.53187">
        <ele>939.40002441406</ele>
        <time>2023-05-14T13:39:22.000Z</time>
      </trkpt>
      <trkpt lat="46.99194" lon="6.53204">
        <ele>938.40002441406</ele>
        <time>2023-05-14T13:39:24.000Z</time>
      </trkpt>
      <trkpt lat="46.99212" lon="6.53247">
        <ele>937</ele>
        <time>2023-05-14T13:39:28.000Z</time>
      </trkpt>
      <trkpt lat="46.99223" lon="6.5328">
        <ele>935.59997558594</ele>
        <time>2023-05-14T13:39:31.000Z</time>
      </trkpt>
      <trkpt lat="46.99233" lon="6.53313">
        <ele>934.20001220703</ele>
        <time>2023-05-14T13:39:34.000Z</time>
      </trkpt>
      <trkpt lat="46.99242" lon="6.53339">
        <ele>932.59997558594</ele>
        <time>2023-05-14T13:39:36.000Z</time>
      </trkpt>
      <trkpt lat="46.99249" lon="6.53363">
        <ele>931.40002441406</ele>
        <time>2023-05-14T13:39:38.000Z</time>
      </trkpt>
      <trkpt lat="46.99255" lon="6.53384">
        <ele>930.20001220703</ele>
        <time>2023-05-14T13:39:40.000Z</time>
      </trkpt>
      <trkpt lat="46.99259" lon="6.53397">
        <ele>929.79998779297</ele>
        <time>2023-05-14T13:39:41.000Z</time>
      </trkpt>
      <trkpt lat="46.99263" lon="6.53408">
        <ele>929</ele>
        <time>2023-05-14T13:39:42.000Z</time>
      </trkpt>
      <trkpt lat="46.99271" lon="6.53433">
        <ele>927.59997558594</ele>
        <time>2023-05-14T13:39:44.000Z</time>
      </trkpt>
      <trkpt lat="46.99274" lon="6.53443">
        <ele>926.40002441406</ele>
        <time>2023-05-14T13:39:46.000Z</time>
      </trkpt>
      <trkpt lat="46.99282" lon="6.53472">
        <ele>925.79998779297</ele>
        <time>2023-05-14T13:39:47.000Z</time>
      </trkpt>
      <trkpt lat="46.99287" lon="6.53484">
        <ele>925.40002441406</ele>
        <time>2023-05-14T13:39:48.000Z</time>
      </trkpt>
      <trkpt lat="46.99294" lon="6.53508">
        <ele>924.20001220703</ele>
        <time>2023-05-14T13:39:50.000Z</time>
      </trkpt>
      <trkpt lat="46.99304" lon="6.53537">
        <ele>923</ele>
        <time>2023-05-14T13:39:52.000Z</time>
      </trkpt>
      <trkpt lat="46.99308" lon="6.53549">
        <ele>921.79998779297</ele>
        <time>2023-05-14T13:39:53.000Z</time>
      </trkpt>
      <trkpt lat="46.99314" lon="6.5357">
        <ele>920.59997558594</ele>
        <time>2023-05-14T13:39:55.000Z</time>
      </trkpt>
      <trkpt lat="46.9932" lon="6.53593">
        <ele>919.20001220703</ele>
        <time>2023-05-14T13:39:57.000Z</time>
      </trkpt>
      <trkpt lat="46.99324" lon="6.53601">
        <ele>918.40002441406</ele>
        <time>2023-05-14T13:39:58.000Z</time>
      </trkpt>
      <trkpt lat="46.99327" lon="6.5361">
        <ele>918</ele>
        <time>2023-05-14T13:39:59.000Z</time>
      </trkpt>
      <trkpt lat="46.99333" lon="6.53624">
        <ele>916.40002441406</ele>
        <time>2023-05-14T13:40:01.000Z</time>
      </trkpt>
      <trkpt lat="46.99338" lon="6.53637">
        <ele>914.40002441406</ele>
        <time>2023-05-14T13:40:03.000Z</time>
      </trkpt>
      <trkpt lat="46.99344" lon="6.53649">
        <ele>912.79998779297</ele>
        <time>2023-05-14T13:40:05.000Z</time>
      </trkpt>
      <trkpt lat="46.99349" lon="6.53661">
        <ele>911.40002441406</ele>
        <time>2023-05-14T13:40:07.000Z</time>
      </trkpt>
      <trkpt lat="46.99353" lon="6.53672">
        <ele>910.20001220703</ele>
        <time>2023-05-14T13:40:09.000Z</time>
      </trkpt>
      <trkpt lat="46.99356" lon="6.53687">
        <ele>908.79998779297</ele>
        <time>2023-05-14T13:40:12.000Z</time>
      </trkpt>
      <trkpt lat="46.99357" lon="6.53697">
        <ele>908.20001220703</ele>
        <time>2023-05-14T13:40:14.000Z</time>
      </trkpt>
      <trkpt lat="46.99357" lon="6.53707">
        <ele>907.59997558594</ele>
        <time>2023-05-14T13:40:16.000Z</time>
      </trkpt>
      <trkpt lat="46.99356" lon="6.5372">
        <ele>906.20001220703</ele>
        <time>2023-05-14T13:40:19.000Z</time>
      </trkpt>
      <trkpt lat="46.99355" lon="6.53725">
        <ele>906.20001220703</ele>
        <time>2023-05-14T13:40:20.000Z</time>
      </trkpt>
      <trkpt lat="46.99353" lon="6.53738">
        <ele>905</ele>
        <time>2023-05-14T13:40:23.000Z</time>
      </trkpt>
      <trkpt lat="46.99351" lon="6.53746">
        <ele>904</ele>
        <time>2023-05-14T13:40:26.000Z</time>
      </trkpt>
      <trkpt lat="46.99349" lon="6.53755">
        <ele>903.20001220703</ele>
        <time>2023-05-14T13:40:30.000Z</time>
      </trkpt>
      <trkpt lat="46.99347" lon="6.53756">
        <ele>903.20001220703</ele>
        <time>2023-05-14T13:40:31.000Z</time>
      </trkpt>
      <trkpt lat="46.99345" lon="6.53755">
        <ele>903</ele>
        <time>2023-05-14T13:40:32.000Z</time>
      </trkpt>
      <trkpt lat="46.99342" lon="6.53753">
        <ele>903</ele>
        <time>2023-05-14T13:40:33.000Z</time>
      </trkpt>
      <trkpt lat="46.99341" lon="6.5375">
        <ele>902.79998779297</ele>
        <time>2023-05-14T13:40:34.000Z</time>
      </trkpt>
      <trkpt lat="46.99341" lon="6.53746">
        <ele>902.59997558594</ele>
        <time>2023-05-14T13:40:35.000Z</time>
      </trkpt>
      <trkpt lat="46.99339" lon="6.53737">
        <ele>901.79998779297</ele>
        <time>2023-05-14T13:40:38.000Z</time>
      </trkpt>
      <trkpt lat="46.99337" lon="6.53723">
        <ele>901.20001220703</ele>
        <time>2023-05-14T13:40:42.000Z</time>
      </trkpt>
      <trkpt lat="46.99329" lon="6.53697">
        <ele>900.79998779297</ele>
        <time>2023-05-14T13:40:50.000Z</time>
      </trkpt>
      <trkpt lat="46.99328" lon="6.53694">
        <ele>900.79998779297</ele>
        <time>2023-05-14T13:40:51.000Z</time>
      </trkpt>
      <trkpt lat="46.99316" lon="6.53669">
        <ele>900.59997558594</ele>
        <time>2023-05-14T13:40:58.000Z</time>
      </trkpt>
      <trkpt lat="46.99298" lon="6.53636">
        <ele>901</ele>
        <time>2023-05-14T13:41:08.000Z</time>
      </trkpt>
      <trkpt lat="46.99285" lon="6.5361">
        <ele>901.59997558594</ele>
        <time>2023-05-14T13:41:15.000Z</time>
      </trkpt>
      <trkpt lat="46.99282" lon="6.53603">
        <ele>902</ele>
        <time>2023-05-14T13:41:17.000Z</time>
      </trkpt>
      <trkpt lat="46.99272" lon="6.53586">
        <ele>902.20001220703</ele>
        <time>2023-05-14T13:41:23.000Z</time>
      </trkpt>
      <trkpt lat="46.99258" lon="6.53567">
        <ele>902.40002441406</ele>
        <time>2023-05-14T13:41:30.000Z</time>
      </trkpt>
      <trkpt lat="46.99239" lon="6.53541">
        <ele>902.40002441406</ele>
        <time>2023-05-14T13:41:37.000Z</time>
      </trkpt>
      <trkpt lat="46.99219" lon="6.53504">
        <ele>901.59997558594</ele>
        <time>2023-05-14T13:41:43.000Z</time>
      </trkpt>
      <trkpt lat="46.99204" lon="6.53468">
        <ele>900.79998779297</ele>
        <time>2023-05-14T13:41:47.000Z</time>
      </trkpt>
      <trkpt lat="46.9919" lon="6.53444">
        <ele>899.79998779297</ele>
        <time>2023-05-14T13:41:50.000Z</time>
      </trkpt>
      <trkpt lat="46.99185" lon="6.53438">
        <ele>899.59997558594</ele>
        <time>2023-05-14T13:41:51.000Z</time>
      </trkpt>
      <trkpt lat="46.99166" lon="6.53411">
        <ele>898.79998779297</ele>
        <time>2023-05-14T13:41:55.000Z</time>
      </trkpt>
      <trkpt lat="46.99154" lon="6.53391">
        <ele>898.40002441406</ele>
        <time>2023-05-14T13:41:58.000Z</time>
      </trkpt>
      <trkpt lat="46.99135" lon="6.53363">
        <ele>897.59997558594</ele>
        <time>2023-05-14T13:42:03.000Z</time>
      </trkpt>
      <trkpt lat="46.99126" lon="6.53348">
        <ele>897.40002441406</ele>
        <time>2023-05-14T13:42:06.000Z</time>
      </trkpt>
      <trkpt lat="46.991" lon="6.5331">
        <ele>896.79998779297</ele>
        <time>2023-05-14T13:42:14.000Z</time>
      </trkpt>
      <trkpt lat="46.99089" lon="6.53294">
        <ele>896.59997558594</ele>
        <time>2023-05-14T13:42:17.000Z</time>
      </trkpt>
      <trkpt lat="46.99076" lon="6.53271">
        <ele>896.20001220703</ele>
        <time>2023-05-14T13:42:21.000Z</time>
      </trkpt>
      <trkpt lat="46.99059" lon="6.53239">
        <ele>895.40002441406</ele>
        <time>2023-05-14T13:42:26.000Z</time>
      </trkpt>
      <trkpt lat="46.99043" lon="6.53203">
        <ele>894.40002441406</ele>
        <time>2023-05-14T13:42:31.000Z</time>
      </trkpt>
      <trkpt lat="46.9902" lon="6.53157">
        <ele>893.59997558594</ele>
        <time>2023-05-14T13:42:37.000Z</time>
      </trkpt>
      <trkpt lat="46.9902" lon="6.53157">
        <ele>893.40002441406</ele>
        <time>2023-05-14T13:42:38.000Z</time>
      </trkpt>
      <trkpt lat="46.99001" lon="6.53122">
        <ele>892.20001220703</ele>
        <time>2023-05-14T13:42:42.000Z</time>
      </trkpt>
      <trkpt lat="46.98983" lon="6.5309">
        <ele>891.79998779297</ele>
        <time>2023-05-14T13:42:47.000Z</time>
      </trkpt>
      <trkpt lat="46.98967" lon="6.53063">
        <ele>891.40002441406</ele>
        <time>2023-05-14T13:42:52.000Z</time>
      </trkpt>
      <trkpt lat="46.98963" lon="6.53053">
        <ele>891.20001220703</ele>
        <time>2023-05-14T13:42:54.000Z</time>
      </trkpt>
      <trkpt lat="46.98956" lon="6.53036">
        <ele>891.20001220703</ele>
        <time>2023-05-14T13:42:58.000Z</time>
      </trkpt>
      <trkpt lat="46.98947" lon="6.53008">
        <ele>891.40002441406</ele>
        <time>2023-05-14T13:43:04.000Z</time>
      </trkpt>
      <trkpt lat="46.98929" lon="6.52958">
        <ele>890.40002441406</ele>
        <time>2023-05-14T13:43:14.000Z</time>
      </trkpt>
      <trkpt lat="46.98912" lon="6.52939">
        <ele>890.20001220703</ele>
        <time>2023-05-14T13:43:20.000Z</time>
      </trkpt>
      <trkpt lat="46.98891" lon="6.52921">
        <ele>890.20001220703</ele>
        <time>2023-05-14T13:43:27.000Z</time>
      </trkpt>
      <trkpt lat="46.98884" lon="6.52913">
        <ele>890.40002441406</ele>
        <time>2023-05-14T13:43:30.000Z</time>
      </trkpt>
      <trkpt lat="46.98874" lon="6.52901">
        <ele>890.59997558594</ele>
        <time>2023-05-14T13:43:35.000Z</time>
      </trkpt>
      <trkpt lat="46.98861" lon="6.52881">
        <ele>891</ele>
        <time>2023-05-14T13:43:41.000Z</time>
      </trkpt>
      <trkpt lat="46.98855" lon="6.5287">
        <ele>891.20001220703</ele>
        <time>2023-05-14T13:43:44.000Z</time>
      </trkpt>
      <trkpt lat="46.98844" lon="6.52847">
        <ele>891.79998779297</ele>
        <time>2023-05-14T13:43:51.000Z</time>
      </trkpt>
      <trkpt lat="46.98838" lon="6.52832">
        <ele>892.20001220703</ele>
        <time>2023-05-14T13:43:55.000Z</time>
      </trkpt>
      <trkpt lat="46.98826" lon="6.52809">
        <ele>892.59997558594</ele>
        <time>2023-05-14T13:44:01.000Z</time>
      </trkpt>
      <trkpt lat="46.98819" lon="6.528">
        <ele>892.79998779297</ele>
        <time>2023-05-14T13:44:04.000Z</time>
      </trkpt>
      <trkpt lat="46.98803" lon="6.52771">
        <ele>893</ele>
        <time>2023-05-14T13:44:12.000Z</time>
      </trkpt>
      <trkpt lat="46.98796" lon="6.52746">
        <ele>893.20001220703</ele>
        <time>2023-05-14T13:44:18.000Z</time>
      </trkpt>
      <trkpt lat="46.98795" lon="6.52741">
        <ele>893.20001220703</ele>
        <time>2023-05-14T13:44:19.000Z</time>
      </trkpt>
      <trkpt lat="46.98792" lon="6.52705">
        <ele>894.20001220703</ele>
        <time>2023-05-14T13:44:27.000Z</time>
      </trkpt>
      <trkpt lat="46.98792" lon="6.52696">
        <ele>894.20001220703</ele>
        <time>2023-05-14T13:44:29.000Z</time>
      </trkpt>
      <trkpt lat="46.98789" lon="6.52674">
        <ele>894.79998779297</ele>
        <time>2023-05-14T13:44:35.000Z</time>
      </trkpt>
      <trkpt lat="46.98782" lon="6.52652">
        <ele>895.40002441406</ele>
        <time>2023-05-14T13:44:41.000Z</time>
      </trkpt>
      <trkpt lat="46.98779" lon="6.52646">
        <ele>895.59997558594</ele>
        <time>2023-05-14T13:44:43.000Z</time>
      </trkpt>
      <trkpt lat="46.98764" lon="6.5262">
        <ele>896.40002441406</ele>
        <time>2023-05-14T13:44:52.000Z</time>
      </trkpt>
      <trkpt lat="46.98763" lon="6.52617">
        <ele>896.40002441406</ele>
        <time>2023-05-14T13:44:53.000Z</time>
      </trkpt>
      <trkpt lat="46.98752" lon="6.52586">
        <ele>897.40002441406</ele>
        <time>2023-05-14T13:45:02.000Z</time>
      </trkpt>
      <trkpt lat="46.98748" lon="6.52578">
        <ele>897.40002441406</ele>
        <time>2023-05-14T13:45:04.000Z</time>
      </trkpt>
      <trkpt lat="46.9874" lon="6.52553">
        <ele>898</ele>
        <time>2023-05-14T13:45:11.000Z</time>
      </trkpt>
      <trkpt lat="46.9874" lon="6.52553">
        <ele>898</ele>
        <time>2023-05-14T13:45:12.000Z</time>
      </trkpt>
      <trkpt lat="46.98725" lon="6.52523">
        <ele>898.20001220703</ele>
        <time>2023-05-14T13:45:21.000Z</time>
      </trkpt>
      <trkpt lat="46.98719" lon="6.52516">
        <ele>898.40002441406</ele>
        <time>2023-05-14T13:45:24.000Z</time>
      </trkpt>
      <trkpt lat="46.9871" lon="6.52509">
        <ele>898.79998779297</ele>
        <time>2023-05-14T13:45:28.000Z</time>
      </trkpt>
      <trkpt lat="46.98697" lon="6.52498">
        <ele>899.59997558594</ele>
        <time>2023-05-14T13:45:34.000Z</time>
      </trkpt>
      <trkpt lat="46.98688" lon="6.52489">
        <ele>900</ele>
        <time>2023-05-14T13:45:38.000Z</time>
      </trkpt>
      <trkpt lat="46.98681" lon="6.52478">
        <ele>900.59997558594</ele>
        <time>2023-05-14T13:45:42.000Z</time>
      </trkpt>
      <trkpt lat="46.9867" lon="6.52457">
        <ele>901.40002441406</ele>
        <time>2023-05-14T13:45:48.000Z</time>
      </trkpt>
      <trkpt lat="46.98665" lon="6.52447">
        <ele>901.59997558594</ele>
        <time>2023-05-14T13:45:51.000Z</time>
      </trkpt>
      <trkpt lat="46.98653" lon="6.52436">
        <ele>902</ele>
        <time>2023-05-14T13:45:56.000Z</time>
      </trkpt>
      <trkpt lat="46.98634" lon="6.52423">
        <ele>902.20001220703</ele>
        <time>2023-05-14T13:46:04.000Z</time>
      </trkpt>
      <trkpt lat="46.98627" lon="6.52419">
        <ele>902.40002441406</ele>
        <time>2023-05-14T13:46:07.000Z</time>
      </trkpt>
      <trkpt lat="46.98618" lon="6.52411">
        <ele>902.79998779297</ele>
        <time>2023-05-14T13:46:11.000Z</time>
      </trkpt>
      <trkpt lat="46.98612" lon="6.52403">
        <ele>903.20001220703</ele>
        <time>2023-05-14T13:46:14.000Z</time>
      </trkpt>
      <trkpt lat="46.98607" lon="6.52395">
        <ele>903.40002441406</ele>
        <time>2023-05-14T13:46:17.000Z</time>
      </trkpt>
      <trkpt lat="46.986" lon="6.5238">
        <ele>904.20001220703</ele>
        <time>2023-05-14T13:46:22.000Z</time>
      </trkpt>
      <trkpt lat="46.98597" lon="6.52373">
        <ele>904.59997558594</ele>
        <time>2023-05-14T13:46:24.000Z</time>
      </trkpt>
      <trkpt lat="46.98589" lon="6.52351">
        <ele>905.20001220703</ele>
        <time>2023-05-14T13:46:30.000Z</time>
      </trkpt>
      <trkpt lat="46.98581" lon="6.52329">
        <ele>905.59997558594</ele>
        <time>2023-05-14T13:46:36.000Z</time>
      </trkpt>
      <trkpt lat="46.98573" lon="6.52316">
        <ele>905.79998779297</ele>
        <time>2023-05-14T13:46:41.000Z</time>
      </trkpt>
      <trkpt lat="46.98561" lon="6.52292">
        <ele>906.79998779297</ele>
        <time>2023-05-14T13:46:49.000Z</time>
      </trkpt>
      <trkpt lat="46.98557" lon="6.52283">
        <ele>907.20001220703</ele>
        <time>2023-05-14T13:46:52.000Z</time>
      </trkpt>
      <trkpt lat="46.98552" lon="6.52266">
        <ele>907.79998779297</ele>
        <time>2023-05-14T13:46:57.000Z</time>
      </trkpt>
      <trkpt lat="46.98549" lon="6.52253">
        <ele>908.20001220703</ele>
        <time>2023-05-14T13:47:01.000Z</time>
      </trkpt>
      <trkpt lat="46.98543" lon="6.52228">
        <ele>908.79998779297</ele>
        <time>2023-05-14T13:47:08.000Z</time>
      </trkpt>
      <trkpt lat="46.98541" lon="6.52221">
        <ele>909</ele>
        <time>2023-05-14T13:47:10.000Z</time>
      </trkpt>
      <trkpt lat="46.9854" lon="6.52218">
        <ele>909</ele>
        <time>2023-05-14T13:47:11.000Z</time>
      </trkpt>
      <trkpt lat="46.98529" lon="6.522">
        <ele>909.59997558594</ele>
        <time>2023-05-14T13:47:18.000Z</time>
      </trkpt>
      <trkpt lat="46.98519" lon="6.52189">
        <ele>910</ele>
        <time>2023-05-14T13:47:23.000Z</time>
      </trkpt>
      <trkpt lat="46.98508" lon="6.5218">
        <ele>910.20001220703</ele>
        <time>2023-05-14T13:47:28.000Z</time>
      </trkpt>
      <trkpt lat="46.98489" lon="6.52167">
        <ele>911</ele>
        <time>2023-05-14T13:47:36.000Z</time>
      </trkpt>
      <trkpt lat="46.98471" lon="6.5215">
        <ele>911.40002441406</ele>
        <time>2023-05-14T13:47:44.000Z</time>
      </trkpt>
      <trkpt lat="46.98461" lon="6.52134">
        <ele>911.79998779297</ele>
        <time>2023-05-14T13:47:50.000Z</time>
      </trkpt>
      <trkpt lat="46.98455" lon="6.52126">
        <ele>912</ele>
        <time>2023-05-14T13:47:53.000Z</time>
      </trkpt>
      <trkpt lat="46.98452" lon="6.52123">
        <ele>912.40002441406</ele>
        <time>2023-05-14T13:47:56.000Z</time>
      </trkpt>
      <trkpt lat="46.98438" lon="6.52109">
        <ele>913</ele>
        <time>2023-05-14T13:48:03.000Z</time>
      </trkpt>
      <trkpt lat="46.9842" lon="6.52099">
        <ele>914</ele>
        <time>2023-05-14T13:48:11.000Z</time>
      </trkpt>
      <trkpt lat="46.98417" lon="6.52097">
        <ele>914.20001220703</ele>
        <time>2023-05-14T13:48:12.000Z</time>
      </trkpt>
      <trkpt lat="46.98402" lon="6.52087">
        <ele>915.20001220703</ele>
        <time>2023-05-14T13:48:19.000Z</time>
      </trkpt>
      <trkpt lat="46.984" lon="6.52086">
        <ele>915.20001220703</ele>
        <time>2023-05-14T13:48:20.000Z</time>
      </trkpt>
      <trkpt lat="46.98377" lon="6.52065">
        <ele>916</ele>
        <time>2023-05-14T13:48:30.000Z</time>
      </trkpt>
      <trkpt lat="46.98365" lon="6.52052">
        <ele>916</ele>
        <time>2023-05-14T13:48:37.000Z</time>
      </trkpt>
      <trkpt lat="46.98345" lon="6.52034">
        <ele>916.20001220703</ele>
        <time>2023-05-14T13:48:46.000Z</time>
      </trkpt>
      <trkpt lat="46.9834" lon="6.52029">
        <ele>916.59997558594</ele>
        <time>2023-05-14T13:48:48.000Z</time>
      </trkpt>
      <trkpt lat="46.98314" lon="6.52008">
        <ele>917.40002441406</ele>
        <time>2023-05-14T13:49:00.000Z</time>
      </trkpt>
      <trkpt lat="46.98312" lon="6.52006">
        <ele>917.59997558594</ele>
        <time>2023-05-14T13:49:01.000Z</time>
      </trkpt>
      <trkpt lat="46.98303" lon="6.51989">
        <ele>918.20001220703</ele>
        <time>2023-05-14T13:49:07.000Z</time>
      </trkpt>
      <trkpt lat="46.98302" lon="6.51987">
        <ele>918.59997558594</ele>
        <time>2023-05-14T13:49:08.000Z</time>
      </trkpt>
      <trkpt lat="46.98297" lon="6.51972">
        <ele>919.40002441406</ele>
        <time>2023-05-14T13:49:12.000Z</time>
      </trkpt>
      <trkpt lat="46.98295" lon="6.51961">
        <ele>919.79998779297</ele>
        <time>2023-05-14T13:49:15.000Z</time>
      </trkpt>
      <trkpt lat="46.98293" lon="6.51954">
        <ele>920</ele>
        <time>2023-05-14T13:49:17.000Z</time>
      </trkpt>
      <trkpt lat="46.98285" lon="6.51922">
        <ele>920.79998779297</ele>
        <time>2023-05-14T13:49:26.000Z</time>
      </trkpt>
      <trkpt lat="46.98276" lon="6.51896">
        <ele>921.59997558594</ele>
        <time>2023-05-14T13:49:34.000Z</time>
      </trkpt>
      <trkpt lat="46.98274" lon="6.51891">
        <ele>921.79998779297</ele>
        <time>2023-05-14T13:49:36.000Z</time>
      </trkpt>
      <trkpt lat="46.98266" lon="6.51869">
        <ele>922.59997558594</ele>
        <time>2023-05-14T13:49:43.000Z</time>
      </trkpt>
      <trkpt lat="46.98262" lon="6.51861">
        <ele>922.79998779297</ele>
        <time>2023-05-14T13:49:46.000Z</time>
      </trkpt>
      <trkpt lat="46.98256" lon="6.51846">
        <ele>923.79998779297</ele>
        <time>2023-05-14T13:49:51.000Z</time>
      </trkpt>
      <trkpt lat="46.9825" lon="6.51834">
        <ele>924</ele>
        <time>2023-05-14T13:49:56.000Z</time>
      </trkpt>
      <trkpt lat="46.98248" lon="6.51828">
        <ele>924.20001220703</ele>
        <time>2023-05-14T13:49:58.000Z</time>
      </trkpt>
      <trkpt lat="46.98238" lon="6.51808">
        <ele>925.20001220703</ele>
        <time>2023-05-14T13:50:06.000Z</time>
      </trkpt>
      <trkpt lat="46.98236" lon="6.51806">
        <ele>925.20001220703</ele>
        <time>2023-05-14T13:50:07.000Z</time>
      </trkpt>
      <trkpt lat="46.9823" lon="6.51795">
        <ele>925.79998779297</ele>
        <time>2023-05-14T13:50:13.000Z</time>
      </trkpt>
      <trkpt lat="46.98229" lon="6.51794">
        <ele>926</ele>
        <time>2023-05-14T13:50:14.000Z</time>
      </trkpt>
      <trkpt lat="46.98225" lon="6.51786">
        <ele>926.20001220703</ele>
        <time>2023-05-14T13:50:18.000Z</time>
      </trkpt>
      <trkpt lat="46.98221" lon="6.51781">
        <ele>926.40002441406</ele>
        <time>2023-05-14T13:50:21.000Z</time>
      </trkpt>
      <trkpt lat="46.98212" lon="6.5177">
        <ele>927.20001220703</ele>
        <time>2023-05-14T13:50:27.000Z</time>
      </trkpt>
      <trkpt lat="46.98209" lon="6.51766">
        <ele>927.79998779297</ele>
        <time>2023-05-14T13:50:30.000Z</time>
      </trkpt>
      <trkpt lat="46.98204" lon="6.51761">
        <ele>928.20001220703</ele>
        <time>2023-05-14T13:50:34.000Z</time>
      </trkpt>
      <trkpt lat="46.98204" lon="6.5176">
        <ele>928.59997558594</ele>
        <time>2023-05-14T13:50:36.000Z</time>
      </trkpt>
      <trkpt lat="46.98204" lon="6.51761">
        <ele>928.79998779297</ele>
        <time>2023-05-14T13:50:41.000Z</time>
      </trkpt>
      <trkpt lat="46.98204" lon="6.51761">
        <ele>928.79998779297</ele>
        <time>2023-05-14T13:50:44.000Z</time>
      </trkpt>
      <trkpt lat="46.98199" lon="6.51746">
        <ele>930</ele>
        <time>2023-05-14T13:53:41.000Z</time>
      </trkpt>
      <trkpt lat="46.98196" lon="6.51744">
        <ele>930.20001220703</ele>
        <time>2023-05-14T13:53:42.000Z</time>
      </trkpt>
      <trkpt lat="46.98193" lon="6.51737">
        <ele>930.20001220703</ele>
        <time>2023-05-14T13:53:44.000Z</time>
      </trkpt>
      <trkpt lat="46.98177" lon="6.51713">
        <ele>930.79998779297</ele>
        <time>2023-05-14T13:53:52.000Z</time>
      </trkpt>
      <trkpt lat="46.98167" lon="6.51699">
        <ele>931.20001220703</ele>
        <time>2023-05-14T13:53:58.000Z</time>
      </trkpt>
      <trkpt lat="46.98161" lon="6.51688">
        <ele>931.59997558594</ele>
        <time>2023-05-14T13:54:02.000Z</time>
      </trkpt>
      <trkpt lat="46.98149" lon="6.51673">
        <ele>932.20001220703</ele>
        <time>2023-05-14T13:54:09.000Z</time>
      </trkpt>
      <trkpt lat="46.98148" lon="6.5167">
        <ele>932.20001220703</ele>
        <time>2023-05-14T13:54:10.000Z</time>
      </trkpt>
      <trkpt lat="46.98134" lon="6.51649">
        <ele>933.20001220703</ele>
        <time>2023-05-14T13:54:19.000Z</time>
      </trkpt>
      <trkpt lat="46.98133" lon="6.51647">
        <ele>933.20001220703</ele>
        <time>2023-05-14T13:54:20.000Z</time>
      </trkpt>
      <trkpt lat="46.98121" lon="6.5163">
        <ele>934</ele>
        <time>2023-05-14T13:54:28.000Z</time>
      </trkpt>
      <trkpt lat="46.98117" lon="6.51624">
        <ele>934.40002441406</ele>
        <time>2023-05-14T13:54:31.000Z</time>
      </trkpt>
      <trkpt lat="46.9811" lon="6.51618">
        <ele>934.79998779297</ele>
        <time>2023-05-14T13:54:35.000Z</time>
      </trkpt>
      <trkpt lat="46.98105" lon="6.51613">
        <ele>935.40002441406</ele>
        <time>2023-05-14T13:54:38.000Z</time>
      </trkpt>
      <trkpt lat="46.98096" lon="6.51602">
        <ele>936.20001220703</ele>
        <time>2023-05-14T13:54:44.000Z</time>
      </trkpt>
      <trkpt lat="46.98094" lon="6.516">
        <ele>936.40002441406</ele>
        <time>2023-05-14T13:54:45.000Z</time>
      </trkpt>
      <trkpt lat="46.98078" lon="6.51585">
        <ele>937.59997558594</ele>
        <time>2023-05-14T13:54:54.000Z</time>
      </trkpt>
      <trkpt lat="46.98076" lon="6.51584">
        <ele>937.59997558594</ele>
        <time>2023-05-14T13:54:55.000Z</time>
      </trkpt>
      <trkpt lat="46.9806" lon="6.51575">
        <ele>938.40002441406</ele>
        <time>2023-05-14T13:55:03.000Z</time>
      </trkpt>
      <trkpt lat="46.98056" lon="6.51573">
        <ele>938.79998779297</ele>
        <time>2023-05-14T13:55:05.000Z</time>
      </trkpt>
      <trkpt lat="46.98038" lon="6.51562">
        <ele>939.59997558594</ele>
        <time>2023-05-14T13:55:14.000Z</time>
      </trkpt>
      <trkpt lat="46.98037" lon="6.51561">
        <ele>939.79998779297</ele>
        <time>2023-05-14T13:55:15.000Z</time>
      </trkpt>
      <trkpt lat="46.98021" lon="6.5155">
        <ele>940.40002441406</ele>
        <time>2023-05-14T13:55:23.000Z</time>
      </trkpt>
      <trkpt lat="46.98016" lon="6.51544">
        <ele>940.79998779297</ele>
        <time>2023-05-14T13:55:26.000Z</time>
      </trkpt>
      <trkpt lat="46.98013" lon="6.51533">
        <ele>941.40002441406</ele>
        <time>2023-05-14T13:55:30.000Z</time>
      </trkpt>
      <trkpt lat="46.98009" lon="6.51527">
        <ele>942.20001220703</ele>
        <time>2023-05-14T13:55:33.000Z</time>
      </trkpt>
      <trkpt lat="46.98005" lon="6.51525">
        <ele>942.40002441406</ele>
        <time>2023-05-14T13:55:35.000Z</time>
      </trkpt>
      <trkpt lat="46.97999" lon="6.51525">
        <ele>942.59997558594</ele>
        <time>2023-05-14T13:55:38.000Z</time>
      </trkpt>
      <trkpt lat="46.97992" lon="6.51522">
        <ele>942.79998779297</ele>
        <time>2023-05-14T13:55:41.000Z</time>
      </trkpt>
      <trkpt lat="46.9799" lon="6.51521">
        <ele>943.20001220703</ele>
        <time>2023-05-14T13:55:42.000Z</time>
      </trkpt>
      <trkpt lat="46.97977" lon="6.51519">
        <ele>944</ele>
        <time>2023-05-14T13:55:48.000Z</time>
      </trkpt>
      <trkpt lat="46.97974" lon="6.51518">
        <ele>944.40002441406</ele>
        <time>2023-05-14T13:55:50.000Z</time>
      </trkpt>
      <trkpt lat="46.97971" lon="6.51517">
        <ele>944.79998779297</ele>
        <time>2023-05-14T13:55:53.000Z</time>
      </trkpt>
      <trkpt lat="46.9797" lon="6.51517">
        <ele>945</ele>
        <time>2023-05-14T13:55:56.000Z</time>
      </trkpt>
    </trkseg>
  </trk>
</gpx>